# Wetter Temperatur Luftdruck Luftfeuchtigkeit Sichtweite Windgeschwindigkeit Windrichtung Zeit
1 Clear 23 1014 83 9656 1.32 337 13:41 22.04.2021
2 Clear 23 1014 83 9656 1.68 334 13:22 22.04.2021
3 Clouds 23 1012 60 10000 1.68 334 12:52 22.04.2021
4 Clouds 24 1012 57 10000 0.45 311 12:30 22.04.2021
5 Clouds 24 1012 56 10000 1.89 328 11:50 22.04.2021
6 Clouds 24 1013 56 10000 0.89 273 11:27 22.04.2021
7 Clouds 24 1013 57 10000 0.45 305 10:48 22.04.2021
8 Clouds 24 1013 57 10000 0.89 289 10:30 22.04.2021
9 Clouds 24 1014 58 10000 1.34 323 09:59 22.04.2021
10 Clouds 24 1014 59 10000 0.89 351 09:34 22.04.2021
11 Clouds 24 1015 59 10000 1.34 319 08:48 22.04.2021
12 Clouds 25 1015 59 10000 1.79 345 08:23 22.04.2021
13 Clouds 25 1016 59 10000 1.79 339 07:49 22.04.2021
14 Clouds 25 1016 59 10000 2.24 338 07:30 22.04.2021
15 Clouds 25 1018 88 10000 5.14 350 06:43 22.04.2021
16 Clouds 25 1017 88 9656 5.14 360 05:54 22.04.2021
17 Clouds 25 1017 88 9656 5.14 360 05:20 22.04.2021
18 Clouds 26 1015 78 9656 10.29 40 01:58 22.04.2021
19 Clouds 28 1015 69 9656 10.29 20 23:55 21.04.2021
20 Clouds 28 1015 69 9656 10.29 20 23:37 21.04.2021
21 Clouds 28 1016 69 9656 10.29 10 22:48 21.04.2021
22 Clouds 28 1016 69 9656 10.29 10 22:25 21.04.2021
23 Clouds 29 1017 65 9656 7.2 10 21:59 21.04.2021
24 Clouds 30 1017 65 9656 7.2 10 21:40 21.04.2021
25 Clouds 30 1017 65 9656 7.2 10 21:19 21.04.2021
26 Clouds 30 1018 61 9656 6.17 360 20:24 21.04.2021
27 Clouds 29 1018 61 10000 7.72 20 19:46 21.04.2021
28 Clouds 29 1018 61 10000 7.72 20 19:27 21.04.2021
29 Clouds 29 1018 61 10000 7.72 360 18:51 21.04.2021
30 Clouds 29 1018 61 10000 7.72 360 18:33 21.04.2021
31 Clouds 28 1018 74 8047 5.14 10 17:58 21.04.2021
32 Clouds 28 1018 74 8047 5.14 10 17:39 21.04.2021
33 Clouds 28 1018 74 8047 5.14 10 17:20 21.04.2021
34 Clouds 27 1017 69 10000 6.17 340 16:38 21.04.2021
35 Clouds 26 1017 78 9656 6.17 350 15:46 21.04.2021
36 Clouds 26 1017 78 9656 6.17 350 15:20 21.04.2021
37 Clouds 25 1016 83 9656 2.06 330 14:44 21.04.2021
38 Clouds 25 1016 83 9656 2.06 330 14:23 21.04.2021
39 Clouds 25 1016 78 8047 1.54 340 13:48 21.04.2021
40 Clouds 25 1016 78 8047 1.54 340 13:21 21.04.2021
41 Clouds 25 1014 56 10000 1.79 336 12:40 21.04.2021
42 Clouds 25 1013 55 10000 1.79 342 11:59 21.04.2021
43 Clouds 25 1014 55 10000 2.68 338 11:41 21.04.2021
44 Clouds 25 1014 55 10000 2.68 338 11:41 21.04.2021
45 Clouds 25 1014 54 10000 3.13 360 11:22 21.04.2021
46 Clouds 26 1014 54 10000 3.13 346 10:38 21.04.2021
47 Clouds 26 1014 53 10000 4.47 5 09:56 21.04.2021
48 Clouds 26 1015 53 10000 4.47 351 09:20 21.04.2021
49 Clouds 26 1015 54 10000 4.02 355 08:42 21.04.2021
50 Clouds 26 1015 54 10000 3.58 342 08:23 21.04.2021
51 Clouds 26 1015 55 10000 3.58 12 07:43 21.04.2021
52 Clouds 25 1016 78 10000 4.12 10 07:21 21.04.2021
53 Clouds 25 1016 83 10000 6.17 20 05:45 21.04.2021
54 Clouds 26 1012 73 10000 7.72 360 01:34 21.04.2021
55 Clouds 29 1012 61 10000 6.17 10 23:59 20.04.2021
56 Clouds 29 1012 61 10000 6.17 10 23:32 20.04.2021
57 Clouds 30 1013 54 10000 4.12 360 22:42 20.04.2021
58 Clouds 30 1013 54 10000 4.12 360 22:23 20.04.2021
59 Clouds 30 1014 58 8047 7.72 30 21:48 20.04.2021
60 Clouds 30 1014 58 8047 7.72 30 21:27 20.04.2021
61 Clouds 30 1014 54 8047 5.14 30 20:57 20.04.2021
62 Clouds 30 1014 54 8047 5.14 30 20:38 20.04.2021
63 Clouds 30 1014 54 8047 5.14 30 20:38 20.04.2021
64 Clouds 30 1014 54 8047 5.14 30 20:18 20.04.2021
65 Clouds 30 1015 61 8047 3.09 90 19:42 20.04.2021
66 Clouds 30 1015 61 8047 3.09 90 19:24 20.04.2021
67 Clouds 29 1015 58 6437 1.54 110 18:39 20.04.2021
68 Clouds 27 1015 65 8047 2.57 180 17:55 20.04.2021
69 Clouds 28 1015 65 8047 2.57 180 17:37 20.04.2021
70 Clouds 25 1015 78 8047 2.57 200 16:50 20.04.2021
71 Clouds 23 1014 83 8047 1.03 200 15:53 20.04.2021
72 Clouds 23 1014 83 8047 1.03 200 15:30 20.04.2021
73 Clouds 22 1014 83 9656 2.14 240 14:59 20.04.2021
74 Clouds 22 1014 83 9656 2.14 240 14:35 20.04.2021
75 Clouds 22 1014 88 9656 2.2 253 13:53 20.04.2021
76 Clouds 22 1014 88 9656 1.93 276 13:24 20.04.2021
77 Clouds 23 1011 58 10000 0.45 232 12:44 20.04.2021
78 Clouds 23 1011 58 10000 0.45 232 12:22 20.04.2021
79 Clouds 23 1011 58 10000 0.45 232 11:45 20.04.2021
80 Clouds 23 1011 58 10000 1.89 310 11:22 20.04.2021
81 Clouds 23 1011 58 10000 0.45 232 10:44 20.04.2021
82 Clouds 23 1011 58 10000 0.89 232 10:23 20.04.2021
83 Clouds 23 1011 57 10000 1.83 319 09:40 20.04.2021
84 Clouds 24 1012 56 10000 2.06 333 08:56 20.04.2021
85 Clouds 24 1012 55 10000 1.34 348 08:25 20.04.2021
86 Clouds 24 1012 53 10000 0.89 360 07:49 20.04.2021
87 Clouds 23 1014 78 10000 4.12 10 06:47 20.04.2021
88 Clouds 23 1013 83 10000 2.57 10 05:40 20.04.2021
89 Clouds 23 1012 78 10000 3.6 20 04:42 20.04.2021
90 Clouds 24 1011 69 10000 7.72 360 01:57 20.04.2021
91 Clouds 25 1011 65 10000 7.2 10 00:38 20.04.2021
92 Clouds 27 1012 61 10000 7.72 20 23:37 19.04.2021
93 Clouds 27 1013 57 10000 5.66 10 22:57 19.04.2021
94 Clouds 27 1013 57 10000 5.66 10 22:36 19.04.2021
95 Clouds 27 1014 61 9656 3.09 10 21:51 19.04.2021
96 Clouds 27 1014 61 9656 3.09 10 21:33 19.04.2021
97 Clouds 27 1015 65 9656 4.12 350 20:55 19.04.2021
98 Clouds 27 1015 65 9656 4.12 350 20:37 19.04.2021
99 Clouds 27 1015 65 9656 4.12 350 20:19 19.04.2021
100 Clouds 26 1015 69 10000 2.57 10 19:40 19.04.2021
101 Clouds 26 1015 69 10000 2.57 10 19:22 19.04.2021
102 Clouds 26 1014 47 10000 1.79 355 18:46 19.04.2021
103 Clouds 26 1014 47 10000 1.79 19 18:22 19.04.2021
104 Clouds 26 1014 50 10000 1.34 293 17:54 19.04.2021
105 Clouds 25 1014 52 10000 0.45 40 17:29 19.04.2021
106 Clouds 24 1014 55 10000 0.45 247 16:51 19.04.2021
107 Clouds 24 1014 57 10000 0.89 198 16:33 19.04.2021
108 Clouds 24 1014 57 10000 0.89 198 16:33 19.04.2021
109 Clouds 23 1014 58 10000 0.45 331 15:52 19.04.2021
110 Clouds 22 1014 62 10000 0.45 332 15:29 19.04.2021
111 Clouds 22 1015 88 9656 2.91 340 14:53 19.04.2021
112 Clouds 22 1015 88 9656 2.91 340 14:34 19.04.2021
113 Clouds 22 1015 88 9656 2.13 333 13:53 19.04.2021
114 Clouds 22 1015 88 9656 1.98 323 13:30 19.04.2021
115 Clouds 22 1013 61 10000 1.79 341 12:55 19.04.2021
116 Clouds 22 1012 61 10000 1.34 298 12:36 19.04.2021
117 Clouds 22 1012 61 10000 1.34 296 12:18 19.04.2021
118 Clouds 22 1013 61 10000 0.89 273 11:43 19.04.2021
119 Clouds 22 1013 61 10000 3.36 313 11:20 19.04.2021
120 Clouds 22 1013 59 10000 1.34 268 10:44 19.04.2021
121 Clouds 22 1013 59 10000 0.45 275 10:19 19.04.2021
122 Clouds 22 1013 59 10000 1.34 284 09:43 19.04.2021
123 Clouds 22 1013 59 10000 0.89 264 09:24 19.04.2021
124 Clouds 22 1014 56 10000 0.89 301 08:37 19.04.2021
125 Clouds 23 1014 51 10000 1.79 284 07:50 19.04.2021
126 Clouds 23 1015 56 9656 7.72 360 07:24 19.04.2021
127 Clouds 23 1015 56 9656 7.72 360 06:52 19.04.2021
128 Clouds 23 1014 78 9656 5.14 350 04:47 19.04.2021
129 Clouds 23 1012 78 8047 6.17 330 01:49 19.04.2021
130 Clouds 24 1012 69 9656 7.72 360 00:41 19.04.2021
131 Clouds 25 1012 69 9656 6.17 10 23:21 18.04.2021
132 Clouds 25 1012 65 9656 6.69 360 22:58 18.04.2021
133 Clouds 26 1012 65 9656 6.69 360 22:34 18.04.2021
134 Clouds 26 1012 69 9656 6.17 10 21:56 18.04.2021
135 Clouds 26 1012 69 9656 6.17 10 21:28 18.04.2021
136 Clouds 26 1013 61 9656 5.14 360 20:44 18.04.2021
137 Clouds 26 1013 61 9656 5.14 360 20:25 18.04.2021
138 Clouds 26 1013 65 9656 9.26 360 19:59 18.04.2021
139 Clouds 26 1013 65 9656 9.26 360 19:39 18.04.2021
140 Clouds 26 1013 65 9656 9.26 360 19:18 18.04.2021
141 Clouds 25 1013 65 8047 7.72 360 18:45 18.04.2021
142 Clouds 25 1013 65 8047 7.72 360 18:25 18.04.2021
143 Clouds 25 1013 73 9656 7.72 350 17:46 18.04.2021
144 Clouds 25 1013 73 9656 7.72 350 17:27 18.04.2021
145 Clouds 25 1013 69 9656 6.69 10 16:46 18.04.2021
146 Clouds 25 1013 69 9656 6.69 10 16:46 18.04.2021
147 Clouds 24 1013 69 9656 6.69 10 16:27 18.04.2021
148 Clouds 24 1013 73 9656 6.69 360 15:44 18.04.2021
149 Clouds 24 1013 73 9656 6.69 360 15:25 18.04.2021
150 Clouds 23 1011 78 9656 5.14 20 14:52 18.04.2021
151 Clouds 23 1011 78 9656 5.14 20 14:23 18.04.2021
152 Clouds 24 1011 78 9656 5.14 10 13:55 18.04.2021
153 Clouds 24 1011 78 9656 5.14 10 13:34 18.04.2021
154 Clouds 24 1009 53 10000 8.49 30 12:50 18.04.2021
155 Clouds 24 1009 55 10000 7.15 23 12:26 18.04.2021
156 Clouds 24 1008 54 10000 7.6 19 11:42 18.04.2021
157 Clouds 25 1008 52 10000 8.05 28 11:21 18.04.2021
158 Clouds 26 1008 52 10000 8.49 26 10:47 18.04.2021
159 Clouds 26 1008 52 10000 8.49 34 10:22 18.04.2021
160 Clouds 26 1009 53 10000 7.6 26 09:52 18.04.2021
161 Clouds 26 1009 53 10000 7.15 18 09:34 18.04.2021
162 Clouds 26 1009 55 10000 6.71 26 08:56 18.04.2021
163 Clouds 26 1009 55 10000 7.15 26 08:35 18.04.2021
164 Clouds 26 1010 83 9656 8.23 10 07:58 18.04.2021
165 Clouds 26 1010 83 9656 8.23 10 07:37 18.04.2021
166 Clear 27 1008 78 9656 7.2 10 05:42 18.04.2021
167 Clear 27 1008 78 9656 7.2 10 05:23 18.04.2021
168 Clear 29 1005 70 8047 7.72 30 02:39 18.04.2021
169 Clear 29 1005 70 8047 7.72 30 02:20 18.04.2021
170 Clouds 30 1005 70 8047 7.72 30 00:37 18.04.2021
171 Clouds 31 1005 70 6437 5.14 50 23:37 17.04.2021
172 Clear 31 1005 66 8047 4.63 90 22:51 17.04.2021
173 Clear 31 1005 66 8047 4.63 90 22:30 17.04.2021
174 Clear 32 1006 51 9656 3.6 60 21:50 17.04.2021
175 Clear 32 1006 51 9656 3.6 60 21:28 17.04.2021
176 Clouds 32 1006 55 10000 5.14 40 20:47 17.04.2021
177 Clouds 32 1006 55 10000 5.14 40 20:27 17.04.2021
178 Clouds 32 1007 55 9656 3.09 70 19:44 17.04.2021
179 Clouds 32 1007 55 9656 3.09 70 19:21 17.04.2021
180 Clouds 31 1007 55 9656 4.66 43 18:55 17.04.2021
181 Clouds 31 1007 55 9656 2.02 43 18:28 17.04.2021
182 Clouds 29 1007 61 9656 3.09 170 17:56 17.04.2021
183 Clouds 29 1007 61 9656 3.09 170 17:38 17.04.2021
184 Clouds 27 1006 73 9656 1.03 260 16:52 17.04.2021
185 Clouds 27 1006 73 9656 1.03 260 16:27 17.04.2021
186 Clouds 25 1005 83 9656 3.44 205 15:39 17.04.2021
187 Clouds 24 1004 83 9656 4.15 180 14:50 17.04.2021
188 Clouds 24 1004 83 9656 4.49 182 14:29 17.04.2021
189 Clear 24 1004 83 9656 2.06 200 13:46 17.04.2021
190 Clear 24 1004 83 9656 2.06 200 13:19 17.04.2021
191 Clear 24 1002 58 10000 0.89 237 12:36 17.04.2021
192 Clear 24 1002 57 10000 0.89 238 11:59 17.04.2021
193 Clear 25 1002 54 10000 1.34 196 11:39 17.04.2021
194 Clear 25 1002 54 10000 1.34 196 11:39 17.04.2021
195 Clear 25 1002 54 10000 1.34 196 11:20 17.04.2021
196 Clear 26 1002 53 10000 1.79 208 10:40 17.04.2021
197 Clear 26 1002 53 10000 1.79 208 10:18 17.04.2021
198 Clear 26 1003 53 10000 2.24 211 09:19 17.04.2021
199 Clear 26 1003 57 10000 0.89 214 08:33 17.04.2021
200 Clouds 26 1004 58 10000 1.34 205 07:54 17.04.2021
201 Clear 26 1005 94 10000 1.97 153 06:41 17.04.2021
202 Clouds 28 1003 83 8047 1.54 90 03:49 17.04.2021
203 Clouds 29 1002 74 9656 4.12 70 02:26 17.04.2021
204 Clouds 32 1003 58 8047 4.12 20 00:42 17.04.2021
205 Clouds 32 1003 58 8047 4.12 20 00:20 17.04.2021
206 Clear 34 1003 52 8047 5.14 30 23:43 16.04.2021
207 Clear 35 1003 46 10000 4.63 40 22:52 16.04.2021
208 Clear 35 1003 46 10000 4.63 40 22:25 16.04.2021
209 Clear 35 1004 46 8047 4.63 90 21:58 16.04.2021
210 Clear 35 1004 46 8047 4.63 90 21:40 16.04.2021
211 Clear 35 1004 46 8047 4.63 90 21:21 16.04.2021
212 Clear 35 1005 46 8047 2.57 90 20:45 16.04.2021
213 Clear 35 1005 46 8047 2.57 90 20:18 16.04.2021
214 Clear 35 1006 49 8047 2.06 150 19:47 16.04.2021
215 Clear 34 1006 49 8047 2.06 150 19:20 16.04.2021
216 Clear 31 1006 58 9656 3.54 128 18:28 16.04.2021
217 Clear 30 1007 65 8047 3.09 180 17:53 16.04.2021
218 Clear 29 1007 65 8047 3.09 180 17:20 16.04.2021
219 Clear 28 1007 69 9656 5.14 190 16:56 16.04.2021
220 Clear 27 1007 69 9656 5.14 190 16:38 16.04.2021
221 Clear 27 1007 69 9656 5.14 190 16:19 16.04.2021
222 Clouds 25 1007 83 9656 3.86 167 15:39 16.04.2021
223 Clear 24 1006 83 9656 3.22 177 14:47 16.04.2021
224 Clear 24 1006 83 9656 3 162 14:28 16.04.2021
225 Clear 23 1006 88 8047 2.06 200 13:58 16.04.2021
226 Clear 23 1006 88 8047 2.06 200 13:23 16.04.2021
227 Clouds 24 1004 57 10000 0.89 232 12:58 16.04.2021
228 Clouds 26 1004 55 10000 0.45 195 12:39 16.04.2021
229 Clouds 26 1004 55 10000 0.45 195 12:21 16.04.2021
230 Clouds 26 1004 52 10000 0.45 192 11:42 16.04.2021
231 Clouds 26 1004 52 10000 0.45 192 11:21 16.04.2021
232 Clouds 26 1005 53 10000 0.89 200 10:42 16.04.2021
233 Clouds 26 1005 53 10000 0.89 200 10:21 16.04.2021
234 Clouds 26 1005 58 10000 0.89 184 09:44 16.04.2021
235 Clouds 26 1006 61 10000 1 195 09:22 16.04.2021
236 Clouds 27 1006 58 10000 0.45 115 08:45 16.04.2021
237 Clouds 27 1006 57 10000 0.89 115 08:19 16.04.2021
238 Clouds 27 1006 57 10000 0.24 252 07:45 16.04.2021
239 Clouds 27 1006 57 10000 0.93 299 07:25 16.04.2021
240 Clouds 26 1008 89 9656 0.93 299 06:41 16.04.2021
241 Clouds 27 1007 83 9656 0.72 174 05:32 16.04.2021
242 Clouds 31 1005 62 10000 4.12 90 01:47 16.04.2021
243 Clouds 32 1006 46 10000 4.12 70 00:45 16.04.2021
244 Clouds 33 1006 46 10000 4.12 70 00:22 16.04.2021
245 Clouds 33 1006 46 10000 5.14 90 23:56 15.04.2021
246 Clouds 34 1006 46 10000 5.14 90 23:32 15.04.2021
247 Clouds 34 1007 43 9656 6.17 50 22:50 15.04.2021
248 Clouds 34 1007 43 9656 6.17 50 22:24 15.04.2021
249 Clouds 34 1008 46 8047 4.12 90 21:44 15.04.2021
250 Clouds 34 1008 46 8047 4.12 90 21:26 15.04.2021
251 Clouds 34 1009 49 8047 3.6 80 20:49 15.04.2021
252 Clouds 35 1009 49 8047 3.6 80 20:26 15.04.2021
253 Clouds 35 1010 41 8047 2.57 180 19:57 15.04.2021
254 Clouds 35 1010 41 8047 2.57 180 19:39 15.04.2021
255 Clouds 35 1010 41 8047 2.57 180 19:20 15.04.2021
256 Clouds 32 1011 58 8047 2.42 96 18:39 15.04.2021
257 Clouds 32 1011 58 8047 1.65 128 18:18 15.04.2021
258 Clouds 31 1011 66 8047 1.65 128 17:53 15.04.2021
259 Clouds 30 1011 66 8047 1.65 128 17:30 15.04.2021
260 Mist 28 1011 83 4828 1.54 90 16:44 15.04.2021
261 Mist 28 1011 83 4828 1.54 90 16:24 15.04.2021
262 Mist 26 1010 94 4023 1.99 135 15:51 15.04.2021
263 Mist 26 1010 94 4023 1.46 124 15:28 15.04.2021
264 Mist 25 1009 94 4023 1.46 124 14:44 15.04.2021
265 Mist 25 1009 94 4023 1.46 124 14:44 15.04.2021
266 Mist 25 1009 94 4023 1.46 124 14:44 15.04.2021
267 Mist 24 1009 94 4023 2.38 154 14:26 15.04.2021
268 Clouds 25 1009 88 6437 1.54 90 13:57 15.04.2021
269 Clouds 25 1009 88 6437 1.54 90 13:39 15.04.2021
270 Clouds 25 1007 69 10000 1.34 111 12:53 15.04.2021
271 Clouds 24 1006 68 10000 1.34 117 12:27 15.04.2021
272 Clouds 24 1006 69 10000 0.45 296 11:48 15.04.2021
273 Clouds 25 1006 68 10000 1.14 149 11:30 15.04.2021
274 Clouds 25 1007 68 10000 0.91 149 10:59 15.04.2021
275 Clouds 26 1007 68 10000 0.91 149 10:40 15.04.2021
276 Clouds 26 1007 68 10000 1.39 277 10:22 15.04.2021
277 Clouds 26 1008 69 10000 0.45 296 09:31 15.04.2021
278 Clouds 25 1010 94 9656 1.45 266 08:53 15.04.2021
279 Clouds 25 1010 94 9656 1.97 291 08:34 15.04.2021
280 Clouds 26 1011 94 9656 1.21 216 07:37 15.04.2021
281 Clouds 25 1011 94 10000 1.91 130 06:57 15.04.2021
282 Clouds 25 1011 94 10000 1.91 130 06:36 15.04.2021
283 Clouds 26 1009 89 9656 2.57 50 04:55 15.04.2021
284 Clouds 27 1008 83 9656 2.06 360 03:59 15.04.2021
285 Clouds 30 1008 74 9656 3.09 30 00:18 15.04.2021
286 Clouds 31 1007 52 10000 4.47 42 23:34 14.04.2021
287 Clouds 31 1010 70 8047 4.63 360 22:58 14.04.2021
288 Clouds 31 1010 70 8047 4.63 360 22:37 14.04.2021
289 Clouds 31 1010 70 8047 4.63 360 22:19 14.04.2021
290 Clouds 31 1011 70 8047 4.63 40 21:41 14.04.2021
291 Clouds 31 1011 70 8047 4.63 40 21:22 14.04.2021
292 Clear 31 1012 70 6437 5.14 90 20:45 14.04.2021
293 Clear 31 1012 70 6437 5.14 90 20:27 14.04.2021
294 Clouds 32 1012 62 6437 2.06 50 19:46 14.04.2021
295 Clouds 32 1012 62 6437 2.06 50 19:19 14.04.2021
296 Mist 31 1013 74 4828 2.06 80 18:54 14.04.2021
297 Mist 31 1013 74 4828 2.06 80 18:20 14.04.2021
298 Mist 29 1013 78 3219 1.54 360 17:57 14.04.2021
299 Mist 28 1013 78 3219 1.54 360 17:24 14.04.2021
300 Mist 26 1012 94 3219 1.36 77 16:48 14.04.2021
301 Mist 26 1012 94 3219 0.6 131 16:24 14.04.2021
302 Mist 25 1012 100 1609 0.6 131 15:41 14.04.2021
303 Mist 25 1012 100 1609 0.41 104 15:22 14.04.2021
304 Mist 25 1012 100 1609 0.41 104 15:22 14.04.2021
305 Mist 25 1011 94 1609 0.41 104 14:44 14.04.2021
306 Mist 25 1011 94 1609 0.6 57 14:23 14.04.2021
307 Mist 25 1010 94 3219 0.6 57 13:53 14.04.2021
308 Clear 26 1008 68 10000 1.34 50 13:00 14.04.2021
309 Clear 26 1008 68 10000 1.34 59 12:36 14.04.2021
310 Clear 26 1008 68 10000 1.34 59 12:36 14.04.2021
311 Clear 24 1008 70 10000 1.34 76 11:43 14.04.2021
312 Clear 24 1008 70 10000 1.34 76 11:24 14.04.2021
313 Clear 24 1008 70 10000 1.34 76 11:24 14.04.2021
314 Clear 24 1008 65 10000 0.73 50 10:35 14.04.2021
315 Clear 25 1008 67 10000 0.89 290 09:59 14.04.2021
316 Clear 25 1008 67 10000 0.96 78 09:41 14.04.2021
317 Clear 24 1008 66 10000 1.35 292 09:19 14.04.2021
318 Clear 25 1009 64 10000 0.89 14 08:34 14.04.2021
319 Clear 26 1009 63 10000 0.89 318 07:56 14.04.2021
320 Clouds 26 1011 89 9656 2.57 360 06:48 14.04.2021
321 Clouds 26 1011 89 9656 2.57 360 06:23 14.04.2021
322 Clouds 28 1008 78 9656 3.09 60 03:59 14.04.2021
323 Clear 30 1006 66 10000 6.69 60 01:41 14.04.2021
324 Clear 32 1006 55 9656 5.14 60 00:34 14.04.2021
325 Clear 34 1006 43 9656 5.66 90 23:39 13.04.2021
326 Clear 35 1007 36 9656 5.14 100 22:59 13.04.2021
327 Clear 35 1007 36 9656 5.14 100 22:40 13.04.2021
328 Clear 35 1007 36 9656 5.14 100 22:18 13.04.2021
329 Clear 36 1007 41 9656 4.12 100 21:44 13.04.2021
330 Clear 36 1007 41 9656 4.12 100 21:24 13.04.2021
331 Clear 35 1008 31 9656 4.93 81 20:41 13.04.2021
332 Clear 35 1008 31 9656 4.37 97 20:21 13.04.2021
333 Clear 35 1009 34 9656 2.06 120 19:40 13.04.2021
334 Clear 35 1009 34 9656 2.06 120 19:22 13.04.2021
335 Clear 32 1010 58 8047 3.83 121 18:37 13.04.2021
336 Clear 30 1010 74 8047 3.34 150 17:47 13.04.2021
337 Clear 29 1010 74 8047 3.03 181 17:25 13.04.2021
338 Clear 26 1009 88 6437 3.03 181 16:59 13.04.2021
339 Clear 26 1009 88 6437 3.03 181 16:41 13.04.2021
340 Clear 26 1009 88 6437 3.22 200 16:20 13.04.2021
341 Haze 23 1009 94 4828 3.22 200 15:40 13.04.2021
342 Haze 23 1009 94 4828 3.11 204 15:18 13.04.2021
343 Haze 21 1008 100 4828 3.11 204 14:41 13.04.2021
344 Haze 21 1008 100 4828 3.11 204 14:41 13.04.2021
345 Clear 22 1008 94 6437 3.83 181 14:18 13.04.2021
346 Clear 22 1008 100 8047 3.83 181 13:45 13.04.2021
347 Clear 22 1008 100 8047 4.17 167 13:23 13.04.2021
348 Clear 22 1006 73 10000 4.17 167 12:53 13.04.2021
349 Clear 22 1006 71 10000 0.45 286 12:24 13.04.2021
350 Clear 22 1006 71 10000 3.71 160 11:50 13.04.2021
351 Clear 23 1006 70 10000 0.45 286 11:29 13.04.2021
352 Clear 23 1006 69 10000 2.95 149 10:45 13.04.2021
353 Clear 23 1006 69 10000 1.44 162 10:20 13.04.2021
354 Clear 23 1006 69 10000 1.44 162 10:20 13.04.2021
355 Clear 24 1006 70 10000 1.44 162 09:53 13.04.2021
356 Clear 24 1007 70 10000 1.44 162 09:34 13.04.2021
357 Clear 24 1007 69 10000 0.45 286 08:51 13.04.2021
358 Clear 24 1007 69 10000 0.89 286 08:25 13.04.2021
359 Clear 24 1007 69 10000 0.45 337 07:59 13.04.2021
360 Clear 25 1007 69 10000 0.73 300 07:35 13.04.2021
361 Clear 25 1009 94 8047 2.23 314 06:29 13.04.2021
362 Clear 26 1006 83 9656 2.57 360 04:27 13.04.2021
363 Clear 28 1003 58 10000 4.02 54 01:37 13.04.2021
364 Clear 30 1004 66 9656 3.6 80 23:59 12.04.2021
365 Clear 31 1004 66 9656 3.6 80 23:39 12.04.2021
366 Clear 31 1004 66 9656 3.6 80 23:18 12.04.2021
367 Clear 31 1005 62 8047 3.09 90 22:38 12.04.2021
368 Clear 32 1006 62 8047 3.09 110 21:56 12.04.2021
369 Clear 32 1006 62 8047 3.09 110 21:36 12.04.2021
370 Clear 31 1006 62 8047 3.09 110 21:18 12.04.2021
371 Clear 31 1007 62 8047 2.57 90 20:37 12.04.2021
372 Clear 31 1007 62 8047 2.57 90 20:19 12.04.2021
373 Clear 31 1008 58 8047 2.06 110 19:42 12.04.2021
374 Clear 31 1008 58 8047 2.06 110 19:21 12.04.2021
375 Clear 29 1008 69 8047 2.72 111 18:53 12.04.2021
376 Clear 29 1008 69 8047 2.72 111 18:53 12.04.2021
377 Clear 29 1008 69 8047 2.72 111 18:35 12.04.2021
378 Clouds 27 1008 73 8047 1.54 150 17:59 12.04.2021
379 Clouds 27 1008 73 8047 1.54 150 17:41 12.04.2021
380 Clouds 27 1008 73 8047 1.54 150 17:19 12.04.2021
381 Clear 26 1008 78 8047 2.37 182 16:42 12.04.2021
382 Clear 25 1008 78 8047 3.2 179 16:24 12.04.2021
383 Clear 24 1007 100 6437 1.54 350 15:45 12.04.2021
384 Clear 23 1007 100 6437 1.54 350 15:21 12.04.2021
385 Clear 22 1007 100 9656 3.14 179 14:48 12.04.2021
386 Clear 22 1007 100 9656 3.43 182 14:28 12.04.2021
387 Clear 22 1006 100 10000 3.73 180 13:42 12.04.2021
388 Clear 22 1006 100 10000 4.28 171 13:21 12.04.2021
389 Clear 23 1004 74 10000 0.45 234 12:44 12.04.2021
390 Clear 22 1004 74 10000 0.45 234 12:23 12.04.2021
391 Clear 22 1004 74 10000 4.25 171 11:47 12.04.2021
392 Clear 23 1004 74 10000 4.1 173 10:53 12.04.2021
393 Clear 23 1004 71 10000 3.64 168 10:28 12.04.2021
394 Clear 23 1005 70 10000 3.64 168 09:54 12.04.2021
395 Clear 23 1005 70 10000 3.64 168 09:33 12.04.2021
396 Clear 23 1005 66 10000 2.69 170 08:59 12.04.2021
397 Clouds 24 1005 66 10000 0.45 234 08:27 12.04.2021
398 Clouds 23 1005 65 10000 0.45 234 07:31 12.04.2021
399 Clouds 25 1007 88 9656 1.03 70 06:47 12.04.2021
400 Clouds 25 1006 88 9656 2.06 50 05:50 12.04.2021
401 Clouds 26 1004 78 8047 3.6 40 03:58 12.04.2021
402 Clear 30 1003 62 10000 5.66 20 00:46 12.04.2021
403 Clear 30 1003 62 10000 5.66 20 00:23 12.04.2021
404 Clear 31 1004 55 10000 4.63 10 23:44 11.04.2021
405 Clear 31 1004 55 10000 4.63 10 23:23 11.04.2021
406 Clear 32 1005 51 10000 3.6 90 22:39 11.04.2021
407 Clear 32 1005 51 10000 3.6 90 22:20 11.04.2021
408 Clear 32 1006 51 9656 2.57 80 21:45 11.04.2021
409 Clear 32 1006 51 9656 2.57 80 21:25 11.04.2021
410 Clear 32 1007 58 9656 3.09 100 20:49 11.04.2021
411 Clear 32 1007 58 9656 3.09 100 20:25 11.04.2021
412 Clear 31 1007 54 9656 3.85 69 19:44 11.04.2021
413 Clear 31 1007 54 9656 3.17 78 19:21 11.04.2021
414 Clear 31 1007 54 9656 2.57 180 18:58 11.04.2021
415 Clear 30 1007 54 9656 2.57 180 18:40 11.04.2021
416 Clear 30 1007 54 9656 2.57 180 18:22 11.04.2021
417 Clear 29 1007 54 10000 2.31 81 17:43 11.04.2021
418 Clear 29 1007 54 10000 1.63 56 17:24 11.04.2021
419 Clear 28 1007 61 8047 1.03 340 16:46 11.04.2021
420 Clear 27 1007 61 8047 1.03 340 16:22 11.04.2021
421 Clear 25 1006 78 8047 2.06 320 15:47 11.04.2021
422 Clear 24 1006 78 8047 2.06 320 15:26 11.04.2021
423 Clear 23 1005 78 9656 1.77 27 14:52 11.04.2021
424 Clear 22 1005 78 9656 2.08 35 14:30 11.04.2021
425 Clear 23 1005 73 9656 1.41 20 13:47 11.04.2021
426 Clear 24 1005 73 9656 0.89 278 13:28 11.04.2021
427 Clear 23 1003 51 10000 0.89 351 12:44 11.04.2021
428 Clear 23 1003 51 10000 1.34 355 12:20 11.04.2021
429 Clear 23 1002 51 10000 0.45 235 11:48 11.04.2021
430 Clear 24 1002 51 10000 0.89 232 11:22 11.04.2021
431 Clear 23 1002 51 10000 3.22 182 10:47 11.04.2021
432 Clear 24 1002 49 10000 3.57 179 10:26 11.04.2021
433 Clear 25 1002 49 10000 0.45 232 09:53 11.04.2021
434 Clear 25 1002 49 10000 0.89 234 09:32 11.04.2021
435 Clear 27 1003 45 10000 1.79 207 08:42 11.04.2021
436 Clouds 27 1003 45 10000 0.89 208 07:59 11.04.2021
437 Clear 28 1005 58 10000 2.8 176 07:21 11.04.2021
438 Clear 30 1004 51 10000 4.12 190 05:59 11.04.2021
439 Clear 30 1004 51 10000 4.12 190 05:37 11.04.2021
440 Clear 31 1004 51 10000 4.12 190 05:18 11.04.2021
441 Clouds 31 1003 55 10000 2.57 160 04:33 11.04.2021
442 Clouds 37 1002 34 10000 3.6 160 01:31 11.04.2021
443 Clear 37 1001 36 9656 2.57 130 00:32 11.04.2021
444 Clear 38 1002 37 9656 4.12 90 23:46 10.04.2021
445 Clear 38 1003 34 8047 3.09 90 22:58 10.04.2021
446 Clear 38 1003 34 8047 3.09 90 22:30 10.04.2021
447 Clear 37 1003 36 8047 3.09 90 21:54 10.04.2021
448 Clear 37 1003 36 8047 3.09 90 21:33 10.04.2021
449 Clear 37 1004 38 8047 2.06 180 20:58 10.04.2021
450 Clear 37 1004 38 8047 2.06 180 20:40 10.04.2021
451 Clear 36 1004 38 8047 2.06 180 20:21 10.04.2021
452 Clear 35 1005 43 8047 4.12 190 19:43 10.04.2021
453 Clear 35 1005 43 8047 4.12 190 19:25 10.04.2021
454 Clear 27 1004 100 8047 1.54 210 18:44 10.04.2021
455 Clear 27 1004 100 8047 1.54 210 18:25 10.04.2021
456 Clear 29 1005 65 9656 2.57 200 17:36 10.04.2021
457 Clear 27 1004 73 9656 3.71 194 16:54 10.04.2021
458 Clear 27 1004 73 9656 5.34 189 16:26 10.04.2021
459 Clear 25 1003 83 9656 2.06 210 15:53 10.04.2021
460 Clear 23 1003 83 10000 4.7 179 14:57 10.04.2021
461 Clear 23 1003 83 10000 4.7 179 14:37 10.04.2021
462 Clear 24 1002 78 10000 1.54 240 13:59 10.04.2021
463 Clear 23 1002 78 10000 1.54 240 13:39 10.04.2021
464 Clouds 23 1001 56 10000 1.34 229 12:48 10.04.2021
465 Clouds 23 1001 54 10000 0.89 216 12:26 10.04.2021
466 Clouds 23 1001 54 10000 0.89 216 12:26 10.04.2021
467 Clouds 24 1000 53 10000 1.34 227 11:47 10.04.2021
468 Clouds 24 1001 53 10000 0.89 238 11:23 10.04.2021
469 Clouds 24 1001 51 10000 1.34 207 10:52 10.04.2021
470 Clouds 24 1001 49 10000 1.34 231 10:31 10.04.2021
471 Clouds 26 1002 47 10000 1.34 208 09:45 10.04.2021
472 Clear 26 1002 48 10000 1.34 213 09:19 10.04.2021
473 Clouds 27 1002 43 10000 1.34 231 08:38 10.04.2021
474 Clouds 27 1002 43 10000 1.79 207 08:18 10.04.2021
475 Clouds 29 1004 54 9656 6.17 170 07:27 10.04.2021
476 Clouds 29 1004 54 9656 6.17 170 06:46 10.04.2021
477 Clouds 30 1003 54 9656 5.14 170 05:36 10.04.2021
478 Clouds 29 1003 74 9656 5.22 172 03:46 10.04.2021
479 Clouds 29 1003 74 10000 1.54 130 02:49 10.04.2021
480 Clouds 29 1003 66 10000 1.54 130 01:43 10.04.2021
481 Clouds 32 1002 52 10000 3.09 110 00:37 10.04.2021
482 Clouds 36 1002 39 10000 2.57 160 23:59 09.04.2021
483 Clouds 38 1002 39 10000 2.57 160 23:36 09.04.2021
484 Clouds 37 1003 39 10000 8.23 170 22:57 09.04.2021
485 Clouds 37 1003 39 10000 8.23 170 22:37 09.04.2021
486 Clear 37 1005 41 9656 6.69 170 21:41 09.04.2021
487 Clear 37 1005 41 9656 6.69 170 21:22 09.04.2021
488 Clear 36 1006 46 9656 3.6 150 20:59 09.04.2021
489 Clear 36 1006 46 9656 3.6 150 20:40 09.04.2021
490 Clear 36 1006 46 9656 3.6 150 20:21 09.04.2021
491 Clear 34 1007 55 8047 3.09 200 19:43 09.04.2021
492 Clear 33 1007 55 8047 3.09 200 19:22 09.04.2021
493 Clear 30 1008 70 8047 4.12 170 18:44 09.04.2021
494 Clear 30 1008 70 8047 4.12 170 18:25 09.04.2021
495 Clear 29 1008 78 8047 4.12 190 17:49 09.04.2021
496 Clear 28 1008 78 8047 4.12 190 17:31 09.04.2021
497 Clear 26 1008 88 6437 3.48 184 16:55 09.04.2021
498 Clear 26 1008 88 6437 3.48 184 16:30 09.04.2021
499 Clouds 24 1008 94 6437 5.26 186 15:47 09.04.2021
500 Clouds 23 1008 94 6437 4.21 184 15:24 09.04.2021
501 Haze 22 1007 94 4828 4.21 184 14:47 09.04.2021
502 Mist 22 1007 94 4828 4.3 178 14:29 09.04.2021
503 Mist 21 1007 100 4828 4.3 178 13:47 09.04.2021
504 Mist 21 1007 100 4828 3.72 167 13:22 09.04.2021
505 Clouds 22 1005 71 10000 0.89 236 12:47 09.04.2021
506 Clouds 22 1005 71 10000 0.89 236 12:47 09.04.2021
507 Clouds 22 1005 71 10000 3.66 171 12:24 09.04.2021
508 Clouds 22 1006 68 10000 0.45 238 11:43 09.04.2021
509 Clouds 22 1006 68 10000 0.89 238 11:20 09.04.2021
510 Clouds 23 1006 69 10000 0.45 146 10:37 09.04.2021
511 Clouds 24 1006 68 10000 0.45 146 09:59 09.04.2021
512 Clouds 23 1007 67 10000 0.45 146 09:28 09.04.2021
513 Clouds 24 1007 68 10000 0.45 146 08:56 09.04.2021
514 Clouds 24 1007 67 10000 2.42 190 08:33 09.04.2021
515 Clear 23 1008 65 10000 0.45 198 07:32 09.04.2021
516 Clouds 24 1010 88 8047 2.06 330 06:30 09.04.2021
517 Clouds 24 1009 94 9656 1.12 196 05:44 09.04.2021
518 Clouds 26 1007 83 6437 1.03 40 03:43 09.04.2021
519 Clear 29 1007 65 9656 4.63 40 00:39 09.04.2021
520 Clear 30 1007 65 9656 4.63 40 00:21 09.04.2021
521 Clouds 30 1007 62 9656 5.14 10 23:38 08.04.2021
522 Clouds 31 1008 62 8047 5.14 30 22:56 08.04.2021
523 Clouds 31 1008 62 8047 5.14 30 22:36 08.04.2021
524 Clouds 31 1008 62 8047 5.14 30 22:18 08.04.2021
525 Clear 31 1009 62 8047 5.14 10 21:41 08.04.2021
526 Clear 30 1009 62 8047 5.14 10 21:22 08.04.2021
527 Clear 30 1010 65 8047 4.63 80 20:59 08.04.2021
528 Clear 30 1010 65 8047 4.63 80 20:40 08.04.2021
529 Clear 30 1010 65 8047 4.63 80 20:19 08.04.2021
530 Clear 30 1010 66 8047 3.6 40 19:40 08.04.2021
531 Clear 30 1010 66 8047 3.6 40 19:19 08.04.2021
532 Clear 30 1011 65 8047 3.32 23 18:42 08.04.2021
533 Clear 30 1011 65 8047 3.32 23 18:42 08.04.2021
534 Clear 30 1011 65 8047 2.17 19 18:19 08.04.2021
535 Clear 28 1010 74 9656 3.09 170 17:42 08.04.2021
536 Clear 28 1010 74 9656 3.09 170 17:20 08.04.2021
537 Clear 26 1010 83 8047 1.2 334 16:45 08.04.2021
538 Clear 26 1010 83 8047 1.41 306 16:22 08.04.2021
539 Clear 24 1009 94 8047 1.41 306 15:46 08.04.2021
540 Clear 23 1009 94 8047 1.32 278 15:26 08.04.2021
541 Clear 22 1008 94 8047 1.32 278 14:43 08.04.2021
542 Clear 22 1008 94 8047 1.04 188 14:21 08.04.2021
543 Clear 22 1008 94 8047 1.04 188 13:49 08.04.2021
544 Clear 22 1008 94 8047 1.91 182 13:24 08.04.2021
545 Clear 22 1006 69 10000 1.91 182 12:58 08.04.2021
546 Clear 21 1006 67 10000 1.91 182 12:34 08.04.2021
547 Clear 21 1005 68 10000 2.34 162 11:57 08.04.2021
548 Clear 21 1005 67 10000 2.31 175 11:27 08.04.2021
549 Clear 22 1006 65 10000 2.31 175 10:56 08.04.2021
550 Clear 22 1006 65 10000 2.13 170 10:26 08.04.2021
551 Clear 23 1006 65 10000 0.45 148 09:46 08.04.2021
552 Clear 23 1007 66 10000 2.08 167 09:27 08.04.2021
553 Clear 23 1007 66 10000 0.45 309 08:44 08.04.2021
554 Clouds 23 1007 64 10000 0.45 309 08:22 08.04.2021
555 Clouds 23 1008 63 10000 1.08 168 07:46 08.04.2021
556 Clear 23 1010 88 8047 0.72 214 06:46 08.04.2021
557 Clouds 28 1007 69 8047 4.12 70 01:27 08.04.2021
558 Clear 29 1007 65 8047 4.12 90 00:32 08.04.2021
559 Clear 30 1007 62 8047 3.09 110 23:48 07.04.2021
560 Clear 31 1007 62 8047 3.09 110 23:27 07.04.2021
561 Clear 31 1008 62 8047 3.6 110 22:58 07.04.2021
562 Clear 31 1008 62 8047 3.6 110 22:39 07.04.2021
563 Clear 31 1008 62 8047 3.6 110 22:20 07.04.2021
564 Clear 31 1009 66 8047 2.57 110 21:34 07.04.2021
565 Clear 31 1009 66 8047 2.57 110 21:34 07.04.2021
566 Clear 31 1009 62 8047 3.09 100 20:56 07.04.2021
567 Clear 31 1009 62 8047 3.09 100 20:37 07.04.2021
568 Clear 31 1009 62 8047 3.09 100 20:18 07.04.2021
569 Clear 30 1011 58 6437 2.06 160 19:40 07.04.2021
570 Clear 31 1011 58 6437 2.06 160 19:22 07.04.2021
571 Clear 30 1011 61 6437 2.57 180 18:42 07.04.2021
572 Clear 29 1011 61 6437 2.57 180 18:18 07.04.2021
573 Clear 27 1012 73 6437 3.09 180 17:47 07.04.2021
574 Clear 27 1012 73 6437 3.09 180 17:28 07.04.2021
575 Clear 24 1012 88 6437 2.28 186 16:46 07.04.2021
576 Clear 24 1012 88 6437 2.91 191 16:21 07.04.2021
577 Clouds 22 1012 94 6437 2.91 191 15:53 07.04.2021
578 Clouds 22 1012 94 6437 2.91 191 15:34 07.04.2021
579 Clouds 21 1011 94 8047 0.79 197 14:47 07.04.2021
580 Clouds 21 1011 94 8047 0.82 226 14:24 07.04.2021
581 Clouds 21 1011 100 9656 0.82 226 13:45 07.04.2021
582 Clouds 21 1011 100 9656 1.55 303 13:20 07.04.2021
583 Clouds 21 1009 67 10000 1.55 303 12:46 07.04.2021
584 Clouds 22 1009 66 10000 2.09 271 12:19 07.04.2021
585 Clouds 22 1009 66 10000 2.09 271 11:45 07.04.2021
586 Clouds 22 1009 65 10000 1.54 250 11:22 07.04.2021
587 Clouds 23 1009 64 10000 1.54 250 10:50 07.04.2021
588 Clouds 23 1010 63 10000 0.8 258 09:50 07.04.2021
589 Clouds 23 1011 63 10000 0.89 297 09:28 07.04.2021
590 Clouds 23 1011 63 10000 0.89 297 09:28 07.04.2021
591 Clouds 23 1011 63 10000 0.89 288 08:53 07.04.2021
592 Clouds 23 1011 62 10000 0.97 205 08:32 07.04.2021
593 Clouds 24 1012 61 10000 0.45 314 07:54 07.04.2021
594 Clouds 24 1012 61 10000 0.45 347 07:29 07.04.2021
595 Clouds 24 1013 88 9656 2.44 132 06:43 07.04.2021
596 Clouds 24 1012 88 9656 1.54 130 05:42 07.04.2021
597 Clouds 26 1009 69 10000 3.6 120 01:52 07.04.2021
598 Clouds 28 1010 57 10000 2.57 100 23:49 06.04.2021
599 Clouds 29 1010 57 10000 2.57 100 23:23 06.04.2021
600 Clouds 30 1011 54 9656 4.12 80 22:57 06.04.2021
601 Clouds 30 1011 54 9656 4.12 80 22:21 06.04.2021
602 Clouds 30 1012 61 9656 3.09 120 21:55 06.04.2021
603 Clouds 30 1012 61 9656 3.09 120 21:37 06.04.2021
604 Clouds 30 1012 61 9656 3.09 120 21:18 06.04.2021
605 Clouds 29 1014 65 9656 2.57 110 20:41 06.04.2021
606 Clouds 28 1014 65 9656 2.57 110 20:20 06.04.2021
607 Clouds 28 1014 65 9656 1.03 100 19:44 06.04.2021
608 Clouds 28 1014 65 9656 1.03 100 19:25 06.04.2021
609 Clouds 28 1015 65 9656 2.57 70 18:45 06.04.2021
610 Clouds 28 1015 65 9656 2.57 70 18:22 06.04.2021
611 Clouds 26 1015 83 9656 3.09 90 17:45 06.04.2021
612 Clouds 26 1015 83 9656 3.09 90 17:20 06.04.2021
613 Clouds 25 1015 83 8047 1.31 208 16:49 06.04.2021
614 Clouds 25 1015 83 8047 1.31 208 16:30 06.04.2021
615 Clouds 23 1014 83 8047 0.51 250 15:28 06.04.2021
616 Clouds 22 1013 88 9656 0.51 250 14:51 06.04.2021
617 Clouds 22 1013 88 9656 0.51 250 14:32 06.04.2021
618 Clouds 22 1013 88 9656 2.06 340 13:59 06.04.2021
619 Clouds 22 1013 88 9656 2.06 340 13:39 06.04.2021
620 Clouds 22 1013 88 9656 2.06 340 13:20 06.04.2021
621 Clear 22 1011 59 10000 0.94 343 12:38 06.04.2021
622 Clear 22 1011 60 10000 1.26 327 12:19 06.04.2021
623 Clear 22 1011 59 10000 0.45 296 11:48 06.04.2021
624 Clear 22 1011 58 10000 1 294 11:20 06.04.2021
625 Clear 22 1011 58 10000 0.45 296 10:46 06.04.2021
626 Clear 22 1012 59 10000 0.45 296 10:24 06.04.2021
627 Clear 22 1012 60 10000 0.45 296 09:47 06.04.2021
628 Clear 23 1013 58 10000 1.39 258 09:26 06.04.2021
629 Clear 23 1013 57 10000 0.45 262 08:38 06.04.2021
630 Clear 23 1013 57 10000 0.89 262 07:47 06.04.2021
631 Clouds 24 1015 83 10000 0.83 290 06:55 06.04.2021
632 Clouds 25 1015 78 10000 1.32 11 05:18 06.04.2021
633 Clouds 26 1013 61 10000 3.6 90 01:54 06.04.2021
634 Clouds 28 1013 54 10000 3.6 120 00:43 06.04.2021
635 Clouds 28 1013 54 10000 3.6 120 00:20 06.04.2021
636 Clear 28 1014 54 10000 5.14 90 23:42 05.04.2021
637 Clear 28 1014 54 10000 5.14 90 23:19 05.04.2021
638 Clouds 28 1015 54 10000 5.14 80 22:43 05.04.2021
639 Clouds 28 1015 54 10000 5.14 80 22:24 05.04.2021
640 Clouds 28 1015 44 10000 4.63 60 21:39 05.04.2021
641 Clouds 28 1015 44 10000 4.63 60 21:19 05.04.2021
642 Clouds 29 1017 42 9656 3.6 80 20:42 05.04.2021
643 Clouds 28 1017 42 9656 3.6 80 20:22 05.04.2021
644 Clouds 28 1017 47 8047 1.54 90 19:39 05.04.2021
645 Clouds 28 1017 47 8047 1.54 90 19:19 05.04.2021
646 Clouds 27 1018 50 8047 1.54 340 18:42 05.04.2021
647 Clouds 28 1018 50 8047 1.54 340 18:23 05.04.2021
648 Clouds 26 1018 57 6437 1.54 10 17:47 05.04.2021
649 Clouds 25 1018 57 6437 1.54 10 17:24 05.04.2021
650 Clouds 24 1018 68 6437 1.54 320 16:56 05.04.2021
651 Clouds 23 1018 68 6437 1.54 320 16:37 05.04.2021
652 Clouds 23 1018 68 6437 1.54 320 16:18 05.04.2021
653 Clouds 20 1018 88 6437 1.57 300 15:40 05.04.2021
654 Clouds 19 1018 88 6437 1.85 306 15:21 05.04.2021
655 Clouds 19 1017 82 9656 1.85 306 14:36 05.04.2021
656 Clouds 19 1017 82 9656 1.8 295 14:36 05.04.2021
657 Clear 18 1017 88 9656 2.38 298 13:54 05.04.2021
658 Clear 18 1017 88 9656 2.1 298 13:29 05.04.2021
659 Clouds 19 1015 57 10000 0.45 257 12:47 05.04.2021
660 Clouds 19 1015 57 10000 0.45 257 12:47 05.04.2021
661 Clouds 19 1015 56 10000 0.89 281 12:26 05.04.2021
662 Clouds 20 1015 55 10000 0.89 297 11:52 05.04.2021
663 Clouds 20 1015 55 10000 0.45 297 11:30 05.04.2021
664 Clouds 21 1016 54 10000 0.89 279 10:56 05.04.2021
665 Clouds 21 1016 54 10000 0.89 279 10:56 05.04.2021
666 Clouds 21 1016 53 10000 0.89 294 10:35 05.04.2021
667 Clouds 21 1016 52 10000 1.79 293 09:49 05.04.2021
668 Clouds 22 1017 52 10000 1.34 298 09:26 05.04.2021
669 Clouds 22 1017 52 10000 1.34 300 08:50 05.04.2021
670 Clouds 22 1018 52 10000 0.89 295 08:27 05.04.2021
671 Clouds 22 1018 53 10000 1.34 304 07:58 05.04.2021
672 Clouds 22 1018 54 10000 2.68 304 07:33 05.04.2021
673 Clouds 24 1019 64 10000 3.09 50 03:42 05.04.2021
674 Clouds 26 1018 50 10000 5.66 50 00:56 05.04.2021
675 Clouds 27 1018 50 10000 5.66 50 00:19 05.04.2021
676 Clouds 27 1018 44 10000 5.14 60 23:32 04.04.2021
677 Clouds 28 1019 44 10000 5.66 20 22:58 04.04.2021
678 Clouds 28 1019 44 10000 5.66 20 22:34 04.04.2021
679 Clouds 28 1019 44 10000 5.66 20 22:34 04.04.2021
680 Clouds 28 1019 47 10000 4.12 80 21:57 04.04.2021
681 Clouds 28 1019 47 10000 4.12 80 21:21 04.04.2021
682 Clouds 27 1020 54 10000 5.14 50 20:43 04.04.2021
683 Clouds 27 1020 54 10000 5.14 50 20:23 04.04.2021
684 Clouds 27 1021 50 10000 3.6 70 19:40 04.04.2021
685 Clouds 27 1021 50 10000 3.6 70 19:20 04.04.2021
686 Clouds 27 1021 53 10000 2.57 80 18:51 04.04.2021
687 Clouds 27 1021 53 10000 2.57 80 18:25 04.04.2021
688 Clouds 26 1021 61 10000 2.21 29 17:59 04.04.2021
689 Clouds 26 1021 61 10000 1.63 343 17:25 04.04.2021
690 Clouds 26 1021 61 10000 1.63 343 17:25 04.04.2021
691 Clouds 25 1021 64 10000 2.57 340 16:57 04.04.2021
692 Clouds 25 1021 64 10000 2.57 340 16:38 04.04.2021
693 Clouds 22 1021 83 10000 2.1 309 15:54 04.04.2021
694 Clouds 22 1021 83 10000 2.1 309 15:31 04.04.2021
695 Clouds 21 1020 88 10000 2.36 307 14:40 04.04.2021
696 Clouds 21 1020 88 10000 2.27 314 14:21 04.04.2021
697 Clouds 21 1020 83 10000 1.87 313 13:27 04.04.2021
698 Clouds 20 1018 62 10000 1.87 313 12:52 04.04.2021
699 Clouds 19 1018 62 10000 1.32 317 12:28 04.04.2021
700 Clouds 19 1018 61 10000 1.32 317 11:50 04.04.2021
701 Clouds 19 1018 61 10000 1.32 317 11:30 04.04.2021
702 Clouds 20 1019 62 10000 0.45 295 10:49 04.04.2021
703 Clouds 20 1019 61 10000 1.47 29 10:29 04.04.2021
704 Clouds 20 1019 61 10000 0.89 295 09:48 04.04.2021
705 Clouds 21 1020 57 10000 2.14 39 09:21 04.04.2021
706 Clouds 23 1020 51 10000 0.45 11 08:45 04.04.2021
707 Clouds 23 1020 50 10000 0.89 12 08:26 04.04.2021
708 Clouds 23 1023 73 10000 4.12 50 06:40 04.04.2021
709 Clouds 23 1022 68 10000 4.12 40 05:44 04.04.2021
710 Clear 24 1020 64 10000 5.14 50 02:39 04.04.2021
711 Clear 26 1020 53 10000 5.14 50 00:48 04.04.2021
712 Clear 26 1020 53 10000 5.14 50 00:18 04.04.2021
713 Clouds 27 1020 61 10000 6.69 80 23:41 03.04.2021
714 Clouds 27 1021 61 10000 4.63 70 22:56 03.04.2021
715 Clouds 26 1021 61 10000 4.63 70 22:37 03.04.2021
716 Clouds 27 1021 61 10000 4.63 70 22:18 03.04.2021
717 Clouds 27 1021 61 10000 2.57 60 21:39 03.04.2021
718 Clouds 27 1021 61 10000 2.57 60 21:21 03.04.2021
719 Clouds 26 1023 65 10000 3.09 40 20:40 03.04.2021
720 Clouds 26 1023 65 10000 3.09 40 20:20 03.04.2021
721 Clouds 26 1023 65 10000 4.12 30 19:43 03.04.2021
722 Clouds 26 1023 65 10000 4.12 30 19:19 03.04.2021
723 Clouds 25 1024 69 10000 3.6 60 18:45 03.04.2021
724 Clouds 24 1024 69 10000 3.6 60 18:18 03.04.2021
725 Clouds 24 1024 73 10000 4.12 360 17:39 03.04.2021
726 Clouds 23 1024 73 10000 4.12 360 17:20 03.04.2021
727 Clouds 23 1023 73 10000 3.09 10 16:43 03.04.2021
728 Clouds 22 1023 73 10000 3.09 10 16:21 03.04.2021
729 Clouds 22 1022 78 9656 2.57 360 15:41 03.04.2021
730 Clouds 22 1022 78 9656 2.57 360 15:19 03.04.2021
731 Clouds 21 1022 78 9656 2.57 360 14:37 03.04.2021
732 Clouds 21 1022 78 9656 2.57 360 14:19 03.04.2021
733 Clouds 22 1020 56 10000 2.68 17 13:42 03.04.2021
734 Clouds 22 1020 56 10000 1.79 18 13:20 03.04.2021
735 Clouds 22 1020 55 10000 1.79 355 12:41 03.04.2021
736 Clouds 22 1020 55 10000 3.13 13 12:19 03.04.2021
737 Clouds 22 1020 55 10000 2.24 355 11:32 03.04.2021
738 Clouds 22 1020 56 10000 3.13 360 10:49 03.04.2021
739 Clouds 21 1020 56 10000 3.58 5 10:30 03.04.2021
740 Clouds 21 1021 56 10000 3.13 9 09:50 03.04.2021
741 Clouds 22 1021 56 10000 3.58 23 09:27 03.04.2021
742 Clouds 22 1021 55 10000 4.47 19 08:44 03.04.2021
743 Clouds 22 1021 55 10000 4.47 43 08:26 03.04.2021
744 Clouds 22 1024 78 10000 5.14 350 07:28 03.04.2021
745 Clouds 22 1023 78 10000 5.14 30 05:43 03.04.2021
746 Clouds 22 1022 78 10000 7.72 360 03:35 03.04.2021
747 Clouds 22 1022 78 10000 6.17 10 02:38 03.04.2021
748 Clouds 23 1021 73 10000 7.72 10 01:56 03.04.2021
749 Clouds 24 1021 64 10000 8.75 10 00:20 03.04.2021
750 Clouds 25 1021 61 10000 8.23 10 23:47 02.04.2021
751 Clouds 25 1021 61 10000 8.23 10 23:24 02.04.2021
752 Clouds 26 1022 57 9656 10.29 10 22:50 02.04.2021
753 Clouds 26 1022 57 9656 10.29 10 22:32 02.04.2021
754 Clouds 25 1022 65 10000 7.72 10 21:42 02.04.2021
755 Clouds 25 1022 65 10000 7.72 10 21:22 02.04.2021
756 Clouds 25 1023 65 10000 6.17 10 20:48 02.04.2021
757 Clouds 25 1023 65 10000 6.17 10 20:27 02.04.2021
758 Clouds 25 1024 69 9656 6.17 360 19:56 02.04.2021
759 Clouds 25 1024 69 9656 6.17 360 19:37 02.04.2021
760 Clouds 25 1024 69 9656 6.17 360 19:19 02.04.2021
761 Clouds 24 1024 73 9656 4.12 360 18:38 02.04.2021
762 Clouds 24 1024 73 9656 4.12 360 18:19 02.04.2021
763 Clouds 23 1023 73 10000 4.12 360 17:37 02.04.2021
764 Clouds 22 1023 83 10000 2.57 350 16:48 02.04.2021
765 Clouds 21 1022 83 8047 4.12 360 15:54 02.04.2021
766 Clouds 21 1022 83 8047 4.12 360 15:32 02.04.2021
767 Clouds 21 1022 83 8047 4.12 330 14:45 02.04.2021
768 Clouds 21 1022 83 8047 4.12 330 14:21 02.04.2021
769 Clouds 22 1020 57 10000 3.13 348 13:41 02.04.2021
770 Clear 22 1020 57 10000 2.68 342 13:19 02.04.2021
771 Clear 22 1019 59 10000 2.24 348 12:40 02.04.2021
772 Clear 22 1019 56 10000 4.47 360 12:20 02.04.2021
773 Clear 22 1019 51 10000 1.79 355 11:53 02.04.2021
774 Clear 22 1019 51 10000 1.34 335 11:20 02.04.2021
775 Clear 22 1019 51 10000 1.34 335 11:20 02.04.2021
776 Clear 22 1019 51 10000 3.13 345 10:45 02.04.2021
777 Clear 22 1019 50 10000 3.13 9 10:27 02.04.2021
778 Clear 22 1019 50 10000 4.02 14 09:52 02.04.2021
779 Clear 23 1019 52 10000 4.47 10 09:26 02.04.2021
780 Clear 23 1020 51 10000 6.26 29 08:49 02.04.2021
781 Clear 23 1020 50 10000 8.05 22 08:28 02.04.2021
782 Clouds 22 1022 73 10000 7.2 10 07:23 02.04.2021
783 Clouds 22 1022 73 10000 8.75 10 06:47 02.04.2021
784 Clear 22 1021 78 10000 6.17 360 04:18 02.04.2021
785 Clouds 23 1020 83 8047 7.72 10 02:20 02.04.2021
786 Clouds 25 1019 78 8047 8.23 360 00:47 02.04.2021
787 Clouds 26 1019 78 8047 8.23 360 00:18 02.04.2021
788 Clouds 26 1019 78 8047 8.23 360 00:18 02.04.2021
789 Clouds 29 1019 58 9656 7.2 360 23:30 01.04.2021
790 Clouds 30 1020 58 9656 8.23 360 22:52 01.04.2021
791 Clouds 29 1020 58 9656 8.23 360 22:19 01.04.2021
792 Clear 25 1021 100 9656 7.72 360 21:49 01.04.2021
793 Clear 25 1021 100 9656 7.72 360 21:25 01.04.2021
794 Clouds 30 1022 54 9656 7.72 360 20:43 01.04.2021
795 Clouds 30 1022 54 9656 7.72 360 20:24 01.04.2021
796 Clouds 30 1022 58 9656 7.2 360 19:46 01.04.2021
797 Clouds 30 1022 58 9656 7.2 360 19:27 01.04.2021
798 Clouds 29 1022 65 8047 7.72 10 18:45 01.04.2021
799 Clouds 29 1022 65 8047 7.72 10 18:18 01.04.2021
800 Clouds 28 1022 74 8047 7.72 20 17:51 01.04.2021
801 Clouds 28 1022 74 8047 7.72 20 17:29 01.04.2021
802 Clouds 26 1021 83 6437 7.2 360 16:51 01.04.2021
803 Clouds 26 1021 83 6437 7.2 360 16:27 01.04.2021
804 Clouds 25 1021 88 8047 6.17 360 15:46 01.04.2021
805 Clouds 25 1021 88 8047 6.17 360 15:19 01.04.2021
806 Clouds 25 1021 88 8047 6.17 360 15:19 01.04.2021
807 Clouds 24 1020 88 10000 6.17 360 14:43 01.04.2021
808 Clouds 25 1020 88 10000 6.17 360 14:24 01.04.2021
809 Clouds 25 1018 63 10000 4.47 15 13:55 01.04.2021
810 Clouds 25 1018 62 10000 4.02 24 13:30 01.04.2021
811 Clouds 25 1017 64 10000 4.02 26 12:51 01.04.2021
812 Clouds 25 1017 64 10000 4.47 45 12:31 01.04.2021
813 Clouds 25 1017 65 10000 3.58 32 11:49 01.04.2021
814 Clouds 25 1017 65 10000 2.24 11 11:24 01.04.2021
815 Clouds 26 1017 65 10000 3.13 48 10:53 01.04.2021
816 Clouds 26 1017 65 10000 3.13 48 10:35 01.04.2021
817 Clouds 25 1017 66 10000 2.68 44 09:54 01.04.2021
818 Clouds 25 1017 66 10000 4.02 22 09:27 01.04.2021
819 Clouds 25 1017 66 10000 4.02 17 08:33 01.04.2021
820 Clouds 25 1018 88 9656 3.6 10 07:59 01.04.2021
821 Clouds 25 1018 88 9656 3.6 10 07:20 01.04.2021
822 Clouds 25 1018 88 9656 5.14 350 06:47 01.04.2021
823 Clouds 26 1014 83 10000 3.09 10 03:52 01.04.2021
824 Clouds 28 1012 69 10000 4.63 70 01:52 01.04.2021
825 Clouds 30 1012 66 10000 7.2 50 23:51 31.03.2021
826 Clouds 30 1012 66 10000 7.2 50 23:31 31.03.2021
827 Clouds 30 1012 66 10000 6.17 50 22:41 31.03.2021
828 Clouds 31 1013 62 10000 3.6 90 22:21 31.03.2021
829 Clouds 31 1013 62 10000 3.6 90 21:47 31.03.2021
830 Clouds 31 1013 62 10000 3.6 90 21:24 31.03.2021
831 Clouds 31 1014 62 10000 3.6 80 20:57 31.03.2021
832 Clouds 31 1014 62 10000 3.6 80 20:39 31.03.2021
833 Clouds 31 1014 62 10000 3.6 80 20:18 31.03.2021
834 Clouds 31 1014 66 10000 3.09 80 19:40 31.03.2021
835 Clouds 31 1014 66 10000 3.09 80 19:19 31.03.2021
836 Clouds 30 1014 66 10000 2.82 50 18:49 31.03.2021
837 Clouds 30 1014 66 10000 1.86 34 18:21 31.03.2021
838 Clouds 28 1014 74 10000 1.86 34 17:37 31.03.2021
839 Clouds 28 1014 74 10000 1.51 340 17:18 31.03.2021
840 Clouds 26 1014 88 10000 1.51 340 16:48 31.03.2021
841 Clouds 26 1014 88 10000 1.5 315 16:25 31.03.2021
842 Clouds 24 1014 100 10000 1.5 315 15:50 31.03.2021
843 Clouds 23 1014 100 10000 0.97 343 15:19 31.03.2021
844 Clouds 22 1013 94 10000 0.97 343 14:45 31.03.2021
845 Clouds 22 1013 94 10000 1.65 34 14:24 31.03.2021
846 Clouds 22 1011 71 10000 1.65 34 13:42 31.03.2021
847 Clear 22 1011 68 10000 0.89 93 13:18 31.03.2021
848 Clear 23 1010 70 10000 1.9 27 12:36 31.03.2021
849 Clear 23 1010 71 10000 1.65 25 12:18 31.03.2021
850 Clear 22 1010 71 10000 0.45 242 11:21 31.03.2021
851 Clear 22 1010 72 10000 1.25 18 10:47 31.03.2021
852 Clear 23 1011 72 10000 1.03 303 10:26 31.03.2021
853 Clear 23 1011 70 10000 0.45 242 09:45 31.03.2021
854 Clear 23 1011 69 10000 0.45 242 09:26 31.03.2021
855 Clear 23 1011 66 10000 0.45 236 08:39 31.03.2021
856 Clouds 24 1014 88 10000 1.62 275 07:54 31.03.2021
857 Clouds 24 1014 94 10000 1.41 304 06:49 31.03.2021
858 Clouds 25 1011 88 10000 3.6 110 03:52 31.03.2021
859 Clouds 28 1010 69 10000 6.17 80 01:43 31.03.2021
860 Clouds 30 1011 62 10000 4.12 100 00:53 31.03.2021
861 Clouds 30 1011 62 10000 4.12 100 00:21 31.03.2021
862 Clouds 30 1011 55 10000 5.14 80 23:47 30.03.2021
863 Clouds 31 1011 55 10000 5.14 80 23:19 30.03.2021
864 Clouds 31 1012 55 10000 3.6 100 22:42 30.03.2021
865 Clouds 31 1012 55 10000 3.6 100 22:24 30.03.2021
866 Clear 31 1013 55 10000 5.14 120 21:53 30.03.2021
867 Clear 31 1013 55 10000 5.14 120 21:23 30.03.2021
868 Clear 31 1014 51 10000 2.06 100 20:55 30.03.2021
869 Clear 31 1014 51 10000 2.06 100 20:28 30.03.2021
870 Clear 30 1015 54 10000 2.06 140 19:51 30.03.2021
871 Clear 30 1015 54 10000 2.06 140 19:28 30.03.2021
872 Clear 28 1015 65 9656 1.54 190 18:40 30.03.2021
873 Clear 28 1015 65 9656 1.54 190 18:20 30.03.2021
874 Clouds 26 1016 73 9656 2.57 190 17:42 30.03.2021
875 Clouds 25 1016 73 9656 2.57 190 17:23 30.03.2021
876 Clouds 23 1015 88 8047 2.12 225 16:45 30.03.2021
877 Clouds 23 1015 88 8047 2.1 240 16:24 30.03.2021
878 Clouds 21 1015 94 8047 1.46 236 15:21 30.03.2021
879 Clouds 20 1015 94 8047 1.46 236 14:57 30.03.2021
880 Clouds 20 1015 94 8047 0.51 202 14:22 30.03.2021
881 Clouds 20 1013 73 10000 0.45 235 13:59 30.03.2021
882 Clouds 19 1013 73 10000 0.45 235 13:38 30.03.2021
883 Clouds 19 1013 72 10000 1.34 228 12:49 30.03.2021
884 Clouds 18 1013 71 10000 0.45 200 12:29 30.03.2021
885 Clouds 19 1013 72 10000 0.45 200 11:58 30.03.2021
886 Clouds 19 1012 70 10000 0.45 206 11:23 30.03.2021
887 Clouds 19 1013 68 10000 2.35 93 10:47 30.03.2021
888 Clouds 19 1013 68 10000 0.89 206 10:28 30.03.2021
889 Clouds 19 1013 67 10000 0.45 206 09:50 30.03.2021
890 Clouds 19 1013 67 10000 0.43 218 09:31 30.03.2021
891 Clouds 19 1014 64 10000 0.45 346 08:56 30.03.2021
892 Clouds 19 1014 64 10000 1.12 269 08:38 30.03.2021
893 Clear 20 1017 88 10000 2.06 297 07:52 30.03.2021
894 Clear 21 1017 88 10000 2.24 333 07:22 30.03.2021
895 Clouds 22 1017 83 10000 2.06 10 05:40 30.03.2021
896 Clouds 22 1017 83 10000 2.06 10 05:19 30.03.2021
897 Clouds 25 1016 61 9656 4.63 30 00:33 30.03.2021
898 Clouds 25 1016 69 9656 6.17 20 23:34 29.03.2021
899 Clouds 26 1017 69 10000 5.14 40 22:51 29.03.2021
900 Clouds 26 1017 69 10000 5.14 40 22:26 29.03.2021
901 Clouds 27 1018 61 10000 5.14 340 21:47 29.03.2021
902 Clouds 27 1018 61 10000 5.14 340 21:27 29.03.2021
903 Clouds 25 1019 73 9656 5.14 360 20:48 29.03.2021
904 Clouds 25 1019 73 9656 5.14 360 20:27 29.03.2021
905 Clouds 23 1019 83 9656 7.72 350 19:49 29.03.2021
906 Clouds 23 1019 83 9656 7.72 350 19:22 29.03.2021
907 Clouds 21 1019 88 8047 5.14 350 18:44 29.03.2021
908 Clouds 21 1019 88 8047 5.14 350 18:26 29.03.2021
909 Clouds 20 1019 94 8047 6.17 10 17:50 29.03.2021
910 -273 0 0 0 0 0 17:31 29.03.2021
911 Clouds 21 1019 94 8047 6.17 10 17:30 29.03.2021
912 Clouds 23 1018 78 10000 3.6 20 16:41 29.03.2021
913 Clouds 23 1018 78 10000 3.6 20 16:20 29.03.2021
914 Clouds 23 1017 73 10000 5.14 360 15:35 29.03.2021
915 Clouds 23 1017 78 10000 6.17 340 14:57 29.03.2021
916 Clouds 22 1017 78 10000 6.17 340 14:38 29.03.2021
917 Clouds 23 1015 52 10000 4.47 5 13:54 29.03.2021
918 Clouds 23 1015 51 10000 4.47 5 13:30 29.03.2021
919 Clouds 23 1015 53 10000 4.92 346 12:51 29.03.2021
920 Clouds 23 1015 55 10000 5.36 5 12:30 29.03.2021
921 Clouds 23 1015 52 10000 5.81 24 11:41 29.03.2021
922 Clouds 23 1015 52 10000 6.71 15 11:22 29.03.2021
923 Clouds 23 1016 54 10000 6.71 22 10:40 29.03.2021
924 Clouds 23 1016 60 10000 8.05 18 09:56 29.03.2021
925 Clouds 24 1016 62 10000 8.05 11 08:59 29.03.2021
926 Clouds 24 1016 62 10000 8.49 18 08:29 29.03.2021
927 Clouds 25 1018 94 9656 7.72 360 07:51 29.03.2021
928 Clouds 25 1017 94 9656 7.72 10 06:42 29.03.2021
929 Clouds 26 1016 89 8047 9.26 20 05:18 29.03.2021
930 Clouds 27 1013 78 8047 9.26 30 02:21 29.03.2021
931 Clouds 28 1012 74 6437 9.26 20 00:24 29.03.2021
932 Clouds 29 1011 70 9656 10.29 20 23:51 28.03.2021
933 Clouds 29 1011 70 9656 10.29 20 23:20 28.03.2021
934 Clouds 29 1011 70 9656 7.72 360 22:42 28.03.2021
935 Clouds 30 1011 70 9656 7.72 360 22:21 28.03.2021
936 Clouds 32 1011 55 9656 5.66 20 21:45 28.03.2021
937 Clouds 32 1011 55 9656 5.66 20 21:23 28.03.2021
938 Clouds 33 1011 52 9656 4.63 30 20:50 28.03.2021
939 Clouds 33 1011 52 9656 4.63 30 20:32 28.03.2021
940 Clear 32 1012 55 9656 3.09 70 19:46 28.03.2021
941 Clear 32 1012 55 9656 3.09 70 19:23 28.03.2021
942 Clear 31 1012 58 9656 3.83 44 18:58 28.03.2021
943 Clear 31 1012 58 9656 3.83 44 18:58 28.03.2021
944 Clear 30 1012 58 9656 3.83 44 18:32 28.03.2021
945 Clear 30 1011 61 8047 1.54 110 17:55 28.03.2021
946 Clear 30 1011 61 8047 1.54 110 17:32 28.03.2021
947 Clear 28 1010 49 10000 2.24 199 16:47 28.03.2021
948 Clear 27 1009 52 10000 0.89 153 16:23 28.03.2021
949 Clear 26 1009 60 10000 0.45 101 15:48 28.03.2021
950 Clear 22 1009 94 6437 1.03 90 15:22 28.03.2021
951 Clear 21 1009 94 6437 1.03 90 14:38 28.03.2021
952 Clear 21 1007 74 10000 0.45 288 13:52 28.03.2021
953 Clear 24 1009 77 10000 2.36 145 13:33 28.03.2021
954 Clear 22 1007 74 10000 2 122 12:53 28.03.2021
955 Clear 22 1007 73 10000 2 122 12:33 28.03.2021
956 Clear 23 1007 71 10000 1.09 157 11:49 28.03.2021
957 Clear 23 1007 69 10000 0.45 288 11:26 28.03.2021
958 Clear 23 1007 67 10000 1.05 236 10:45 28.03.2021
959 Clear 23 1007 66 10000 1.08 240 10:27 28.03.2021
960 Clear 24 1007 66 10000 1.08 240 09:49 28.03.2021
961 Clear 24 1008 66 10000 1.1 239 09:25 28.03.2021
962 Clear 24 1008 66 10000 1.1 239 08:47 28.03.2021
963 Clear 24 1009 64 10000 1.52 253 07:52 28.03.2021
964 Clear 24 1009 64 10000 1.52 253 07:33 28.03.2021
965 Clear 26 1008 62 10000 0.45 302 04:54 28.03.2021
966 Clear 27 1007 83 10000 3.09 90 01:38 28.03.2021
967 Clear 28 1007 78 10000 2.57 100 00:22 28.03.2021
968 Clear 29 1007 74 10000 4.12 100 23:44 27.03.2021
969 Clear 30 1007 74 10000 4.12 100 23:21 27.03.2021
970 Clear 31 1007 62 10000 4.12 90 22:38 27.03.2021
971 Clear 31 1008 58 10000 4.12 80 21:59 27.03.2021
972 Clear 31 1008 58 10000 4.12 80 21:40 27.03.2021
973 Clear 31 1008 58 10000 4.12 80 21:19 27.03.2021
974 Clear 32 1010 51 10000 5.66 100 20:44 27.03.2021
975 Clear 32 1010 51 10000 5.66 100 20:24 27.03.2021
976 Clear 33 1011 43 10000 5.3 86 19:44 27.03.2021
977 Clear 33 1011 43 10000 4.84 100 19:23 27.03.2021
978 Clear 32 1012 45 10000 2.06 150 18:50 27.03.2021
979 Clear 32 1012 45 10000 2.06 150 18:29 27.03.2021
980 Clear 31 1012 51 9656 4.12 190 17:56 27.03.2021
981 Clear 31 1012 51 9656 4.12 190 17:26 27.03.2021
982 Clear 28 1013 61 9656 6.17 200 16:51 27.03.2021
983 Clear 28 1013 61 9656 6.17 200 16:51 27.03.2021
984 Clear 28 1013 61 9656 6.17 200 16:30 27.03.2021
985 Clear 25 1012 83 10000 3.54 174 15:54 27.03.2021
986 Clear 24 1012 83 10000 3.71 175 15:27 27.03.2021
987 Clear 21 1012 94 10000 2.06 190 14:50 27.03.2021
988 Clear 19 1011 94 8047 3.55 167 13:56 27.03.2021
989 Clear 20 1011 94 8047 3.47 160 13:26 27.03.2021
990 Clear 20 1009 64 10000 0.45 262 12:56 27.03.2021
991 Clear 21 1009 70 10000 0.89 262 12:27 27.03.2021
992 Clear 20 1009 70 10000 0.89 262 11:46 27.03.2021
993 Clear 20 1009 70 10000 0.45 262 11:25 27.03.2021
994 Clear 21 1009 68 10000 0.45 262 10:45 27.03.2021
995 Clear 21 1009 68 10000 0.45 262 10:23 27.03.2021
996 Clear 22 1009 64 10000 0.89 190 09:28 27.03.2021
997 Clear 23 1010 63 10000 0.89 190 08:43 27.03.2021
998 Clear 22 1010 63 10000 0.89 210 08:21 27.03.2021
999 Clear 23 1011 61 10000 0.89 211 07:34 27.03.2021
1000 Clear 23 1013 78 10000 2.07 218 06:47 27.03.2021
1001 Clear 23 1013 78 10000 1.35 251 06:27 27.03.2021
1002 Clouds 24 1012 78 10000 0.9 237 04:39 27.03.2021
1003 Clouds 29 1009 51 9656 2.57 100 00:50 27.03.2021
1004 Clouds 29 1009 51 9656 2.57 100 00:29 27.03.2021
1005 Clear 30 1009 58 9656 2.57 90 23:54 26.03.2021
1006 Clear 30 1009 58 9656 2.57 90 23:54 26.03.2021
1007 Clear 30 1009 58 9656 2.57 90 23:19 26.03.2021
1008 Clear 29 1010 61 9656 5.14 80 22:35 26.03.2021
1009 Clouds 29 1011 61 9656 3.6 100 21:36 26.03.2021
1010 Clouds 29 1011 61 9656 3.6 100 21:18 26.03.2021
1011 Clear 29 1012 61 8047 3.09 100 20:33 26.03.2021
1012 Clouds 30 1013 54 8047 2.06 150 19:57 26.03.2021
1013 Clouds 30 1013 54 8047 2.06 150 19:39 26.03.2021
1014 Clouds 30 1013 54 8047 2.06 150 19:20 26.03.2021
1015 Clouds 29 1014 65 8047 2.06 160 18:42 26.03.2021
1016 Clouds 28 1014 65 8047 2.06 160 18:20 26.03.2021
1017 Clouds 27 1012 49 10000 1.79 178 17:46 26.03.2021
1018 Clouds 25 1014 78 6437 1.03 220 16:56 26.03.2021
1019 Clouds 25 1014 78 6437 1.03 220 16:33 26.03.2021
1020 Haze 25 1013 83 4828 0.79 192 15:51 26.03.2021
1021 Haze 24 1013 83 4828 0.84 221 15:21 26.03.2021
1022 Haze 23 1013 88 4828 0.84 221 14:30 26.03.2021
1023 Clouds 22 1012 94 8047 0.72 269 13:34 26.03.2021
1024 Clear 23 1010 64 10000 0.89 257 12:50 26.03.2021
1025 Clear 23 1009 64 10000 1.34 265 12:24 26.03.2021
1026 Clear 22 1009 65 10000 2.24 269 11:34 26.03.2021
1027 Clear 22 1008 65 10000 1.79 280 10:52 26.03.2021
1028 Clear 22 1008 63 10000 1.34 268 10:33 26.03.2021
1029 Clear 24 1008 57 10000 0.89 5 09:42 26.03.2021
1030 Clear 24 1008 57 10000 2.68 28 09:19 26.03.2021
1031 Clear 24 1009 56 10000 5.36 38 08:38 26.03.2021
1032 Clear 24 1009 56 10000 3.58 75 08:20 26.03.2021
1033 Clear 24 1009 56 10000 4.02 53 07:23 26.03.2021
1034 Clear 24 1011 83 10000 7.72 10 06:58 26.03.2021
1035 Clear 24 1011 83 10000 7.72 10 06:30 26.03.2021
1036 Clear 25 1011 88 10000 6.17 20 05:26 26.03.2021
1037 Clouds 28 1006 65 8047 7.72 30 01:58 26.03.2021
1038 Clear 32 1005 51 8047 3.09 90 00:27 26.03.2021
1039 Clouds 33 1004 43 8047 3.09 90 23:44 25.03.2021
1040 Clear 37 1004 32 8047 2.06 70 22:57 25.03.2021
1041 Clear 37 1004 32 8047 2.06 70 22:30 25.03.2021
1042 Clear 37 1005 32 8047 1.54 140 21:53 25.03.2021
1043 Clear 37 1005 32 8047 1.54 140 21:33 25.03.2021
1044 Clear 36 1005 36 8047 2.57 160 20:45 25.03.2021
1045 Clear 36 1005 36 8047 2.57 160 20:25 25.03.2021
1046 Clear 34 1006 40 8047 6.17 170 19:46 25.03.2021
1047 Clear 34 1006 40 8047 6.17 170 19:27 25.03.2021
1048 Clear 32 1007 45 9656 4.15 102 18:49 25.03.2021
1049 Clear 32 1007 45 9656 3.78 128 18:27 25.03.2021
1050 Clouds 31 1007 48 9656 3.09 180 17:52 25.03.2021
1051 Clouds 30 1007 48 9656 3.09 180 17:33 25.03.2021
1052 Clear 28 1008 61 9656 2.57 200 16:52 25.03.2021
1053 Clear 28 1008 61 9656 2.57 200 16:31 25.03.2021
1054 Clouds 25 1007 78 9656 4.22 172 15:45 25.03.2021
1055 Clouds 25 1007 78 9656 4.38 180 15:22 25.03.2021
1056 Clear 23 1006 88 10000 4.38 180 14:46 25.03.2021
1057 Clear 22 1005 88 10000 4.02 191 13:56 25.03.2021
1058 Clear 22 1005 88 10000 4.44 181 13:24 25.03.2021
1059 Clear 22 1003 61 10000 1.34 213 12:45 25.03.2021
1060 Clear 23 1003 60 10000 1.79 212 12:21 25.03.2021
1061 Clear 22 1002 61 10000 1.34 203 11:53 25.03.2021
1062 Clear 22 1002 61 10000 0.89 222 11:30 25.03.2021
1063 Clear 22 1002 60 10000 0.89 216 10:57 25.03.2021
1064 Clear 23 1002 59 10000 1.34 210 10:38 25.03.2021
1065 Clear 23 1002 59 10000 1.34 210 10:18 25.03.2021
1066 Clear 23 1002 59 10000 1.34 210 10:18 25.03.2021
1067 Clear 23 1002 58 10000 0.89 223 09:42 25.03.2021
1068 Clear 23 1003 57 10000 0.89 207 08:58 25.03.2021
1069 Clear 23 1003 55 10000 0.89 219 08:29 25.03.2021
1070 Clear 25 1003 51 10000 1.34 196 07:24 25.03.2021
1071 Clear 25 1005 69 10000 2.57 210 06:27 25.03.2021
1072 Clear 25 1005 69 10000 2.57 180 05:49 25.03.2021
1073 Clear 25 1004 88 10000 4.19 173 04:33 25.03.2021
1074 Clear 28 1002 69 8047 3.6 90 00:44 25.03.2021
1075 Clear 28 1002 69 8047 3.6 90 00:18 25.03.2021
1076 Clear 29 1002 70 8047 3.09 100 23:36 24.03.2021
1077 Clear 29 1003 70 8047 4.12 90 22:51 24.03.2021
1078 Clear 30 1003 70 8047 4.12 90 22:32 24.03.2021
1079 Clear 31 1003 62 8047 3.6 110 21:47 24.03.2021
1080 Clear 31 1003 62 8047 3.6 110 21:47 24.03.2021
1081 Clear 31 1003 62 8047 3.6 110 21:25 24.03.2021
1082 Clear 32 1005 58 8047 1.54 120 20:46 24.03.2021
1083 Clear 32 1005 58 8047 1.54 120 20:46 24.03.2021
1084 Clear 32 1005 58 8047 1.54 120 20:21 24.03.2021
1085 Clear 32 1006 52 8047 2.57 110 19:59 24.03.2021
1086 Clear 33 1006 52 8047 2.57 110 19:31 24.03.2021
1087 Clear 32 1007 55 8047 5.14 180 18:52 24.03.2021
1088 Clear 31 1007 55 8047 5.14 180 18:24 24.03.2021
1089 Clear 30 1007 62 6437 1.54 140 17:53 24.03.2021
1090 Clear 30 1007 62 6437 1.54 140 17:32 24.03.2021
1091 Clear 30 1007 62 6437 1.54 140 17:32 24.03.2021
1092 Clear 28 1008 69 6437 2.57 180 16:54 24.03.2021
1093 Clear 28 1008 69 6437 2.57 180 16:31 24.03.2021
1094 Clear 26 1007 88 6437 2.93 170 15:57 24.03.2021
1095 Clear 25 1007 88 6437 2.93 170 15:33 24.03.2021
1096 Clear 23 1007 88 9656 2.19 192 14:55 24.03.2021
1097 Clear 22 1007 88 9656 1.37 209 14:28 24.03.2021
1098 Clear 22 1005 88 9656 1.37 209 13:57 24.03.2021
1099 Clear 22 1005 88 9656 0.92 200 13:28 24.03.2021
1100 Clear 21 1004 66 10000 2.13 198 12:48 24.03.2021
1101 Clear 22 1003 65 10000 0.45 232 12:27 24.03.2021
1102 Clear 22 1003 62 10000 2.49 193 11:49 24.03.2021
1103 Clear 22 1003 63 10000 3.34 180 11:20 24.03.2021
1104 Clear 22 1003 61 10000 3.34 180 10:44 24.03.2021
1105 Clear 22 1003 61 10000 3.78 183 10:25 24.03.2021
1106 Clear 22 1003 60 10000 0.45 232 09:54 24.03.2021
1107 Clear 23 1003 60 10000 0.45 232 09:23 24.03.2021
1108 Clear 23 1004 60 10000 0.89 232 08:55 24.03.2021
1109 Clear 23 1004 59 10000 0.89 233 08:29 24.03.2021
1110 Clear 24 1005 58 10000 0.89 233 07:42 24.03.2021
1111 Clear 24 1007 88 10000 1.03 240 06:54 24.03.2021
1112 Clear 24 1005 61 10000 0.89 235 05:52 24.03.2021
1113 Clear 32 1002 49 10000 3.09 100 00:56 24.03.2021
1114 Clear 33 1002 49 10000 3.09 100 00:28 24.03.2021
1115 Clear 36 1002 44 10000 1.54 120 23:22 23.03.2021
1116 Clear 37 1002 41 10000 1.03 140 22:58 23.03.2021
1117 Clear 37 1002 41 10000 1.03 140 22:40 23.03.2021
1118 Clear 35 1003 46 10000 3.09 90 21:59 23.03.2021
1119 Clear 35 1003 46 10000 3.09 90 21:40 23.03.2021
1120 Clear 35 1003 46 10000 3.09 90 21:19 23.03.2021
1121 Clear 35 1005 49 10000 1.54 110 20:40 23.03.2021
1122 Clear 35 1005 49 10000 1.54 110 20:22 23.03.2021
1123 Clear 34 1006 46 10000 1.03 90 19:44 23.03.2021
1124 Clear 34 1006 46 10000 1.03 90 19:23 23.03.2021
1125 Clear 32 1006 51 10000 3.74 127 18:43 23.03.2021
1126 Clear 32 1006 51 10000 3.71 155 18:20 23.03.2021
1127 Clear 30 1006 61 10000 2.57 170 17:44 23.03.2021
1128 Clear 30 1006 61 10000 2.57 170 17:21 23.03.2021
1129 Clear 30 1006 61 10000 2.57 170 17:21 23.03.2021
1130 Clear 27 1006 69 10000 2.57 200 16:26 23.03.2021
1131 Clear 25 1006 83 9656 2.57 220 15:55 23.03.2021
1132 Clear 25 1006 83 9656 2.57 220 15:36 23.03.2021
1133 Clear 22 1005 94 10000 3.88 207 14:49 23.03.2021
1134 Clear 21 1005 94 10000 4.02 205 14:20 23.03.2021
1135 Clear 21 1005 94 10000 1.54 210 13:49 23.03.2021
1136 Clear 21 1005 94 10000 1.54 210 13:25 23.03.2021
1137 Clear 21 1002 67 10000 2.24 194 12:46 23.03.2021
1138 Clear 21 1003 67 10000 0.89 201 12:26 23.03.2021
1139 Clear 21 1002 67 10000 0.89 232 11:49 23.03.2021
1140 Clear 21 1002 66 10000 1.34 217 11:30 23.03.2021
1141 Clear 21 1002 67 10000 1.34 212 10:43 23.03.2021
1142 Clear 21 1003 67 10000 0.89 201 10:21 23.03.2021
1143 Clear 21 1003 67 10000 0.89 252 09:54 23.03.2021
1144 Clear 21 1003 65 10000 5.16 180 09:25 23.03.2021
1145 Clear 21 1004 64 10000 5.16 180 08:56 23.03.2021
1146 Clear 21 1005 64 10000 0.45 252 08:38 23.03.2021
1147 Clear 21 1005 64 10000 0.45 252 08:20 23.03.2021
1148 Clear 21 1006 65 10000 0.45 288 07:28 23.03.2021
1149 Clear 21 1008 94 10000 3.56 201 06:54 23.03.2021
1150 Clear 22 1008 94 10000 2.91 188 05:48 23.03.2021
1151 Clouds 24 1007 78 10000 1.54 120 03:20 23.03.2021
1152 Clear 26 1006 69 10000 4.12 90 00:22 23.03.2021
1153 Clear 27 1007 65 10000 4.63 100 23:23 22.03.2021
1154 Clear 28 1008 57 10000 3.09 110 22:44 22.03.2021
1155 Clear 28 1008 57 10000 3.09 110 22:22 22.03.2021
1156 Clear 28 1009 57 10000 3.09 90 21:51 22.03.2021
1157 Clear 28 1009 57 10000 3.09 90 21:27 22.03.2021
1158 Clear 29 1011 48 10000 2.57 170 20:54 22.03.2021
1159 Clear 29 1011 48 10000 2.57 170 20:30 22.03.2021
1160 Clouds 28 1012 51 10000 3.09 160 19:58 22.03.2021
1161 Clouds 28 1012 51 10000 3.09 160 19:40 22.03.2021
1162 Clouds 28 1012 51 10000 3.09 160 19:21 22.03.2021
1163 Clouds 28 1013 51 10000 6.17 170 18:42 22.03.2021
1164 Clouds 28 1013 51 10000 6.17 170 18:22 22.03.2021
1165 Clear 26 1014 57 10000 3.09 180 17:50 22.03.2021
1166 Clear 26 1014 57 10000 3.09 180 17:22 22.03.2021
1167 Clear 24 1015 68 10000 4.63 200 16:57 22.03.2021
1168 Clear 24 1015 68 10000 4.63 200 16:39 22.03.2021
1169 Clear 21 1015 88 10000 5.04 181 15:43 22.03.2021
1170 Clear 20 1015 88 10000 3.46 183 15:25 22.03.2021
1171 Clear 17 1015 100 9656 3.46 183 14:59 22.03.2021
1172 Clear 17 1015 100 9656 3.46 183 14:34 22.03.2021
1173 Clear 16 1015 100 9656 1.03 190 13:52 22.03.2021
1174 Clear 16 1015 100 9656 1.03 190 13:34 22.03.2021
1175 Clear 17 1013 62 10000 2.66 193 12:59 22.03.2021
1176 Clear 17 1013 62 10000 2.32 207 12:38 22.03.2021
1177 Clear 17 1013 62 10000 1.86 231 12:18 22.03.2021
1178 Clear 18 1012 62 10000 0.45 299 11:40 22.03.2021
1179 Clear 18 1012 62 10000 1.78 247 11:20 22.03.2021
1180 Clear 18 1013 60 10000 0.45 299 10:42 22.03.2021
1181 Clear 19 1013 59 10000 1.25 236 10:20 22.03.2021
1182 Clear 19 1013 59 10000 1.25 236 09:37 22.03.2021
1183 Clear 19 1014 58 10000 0.45 298 08:59 22.03.2021
1184 Clear 19 1014 56 10000 0.45 298 08:40 22.03.2021
1185 Clear 20 1015 56 10000 0.45 298 08:21 22.03.2021
1186 Clear 21 1016 55 10000 0.45 299 07:43 22.03.2021
1187 Clouds 20 1018 83 10000 1.92 154 06:52 22.03.2021
1188 Clear 22 1018 73 10000 1.88 103 05:19 22.03.2021
1189 Clouds 24 1016 60 9656 2.06 100 01:40 22.03.2021
1190 Clouds 25 1016 57 10000 2.57 100 00:21 22.03.2021
1191 Clouds 26 1016 50 10000 3.09 80 23:52 21.03.2021
1192 Clouds 26 1016 50 10000 3.09 80 23:19 21.03.2021
1193 Clouds 26 1017 53 10000 2.57 90 22:54 21.03.2021
1194 Clouds 26 1018 57 9656 5.14 90 21:48 21.03.2021
1195 Clouds 26 1018 57 9656 5.14 90 21:27 21.03.2021
1196 Clouds 26 1019 57 9656 2.57 90 20:58 21.03.2021
1197 Clouds 26 1019 57 9656 2.57 90 20:40 21.03.2021
1198 Clouds 26 1019 57 9656 2.57 90 20:21 21.03.2021
1199 Clouds 26 1020 57 9656 2.57 80 19:49 21.03.2021
1200 Clouds 25 1020 57 9656 2.57 80 19:20 21.03.2021
1201 Clouds 25 1021 57 9656 1.54 110 18:46 21.03.2021
1202 Clouds 25 1021 57 9656 1.54 110 18:27 21.03.2021
1203 Clouds 25 1021 60 9656 2.82 90 17:45 21.03.2021
1204 Clouds 24 1021 60 9656 1.8 88 17:19 21.03.2021
1205 Clouds 25 1021 60 9656 2.06 160 16:54 21.03.2021
1206 Clouds 24 1021 60 9656 2.06 160 16:28 21.03.2021
1207 Clouds 23 1021 73 8047 0.49 91 15:49 21.03.2021
1208 Clouds 23 1021 73 8047 0.52 297 15:23 21.03.2021
1209 Clouds 21 1020 77 8047 0.52 297 14:59 21.03.2021
1210 Clouds 21 1020 77 8047 0.52 297 14:39 21.03.2021
1211 Clouds 21 1020 77 8047 0.83 313 14:21 21.03.2021
1212 Clouds 20 1020 77 8047 0.83 313 13:52 21.03.2021
1213 Clouds 21 1018 54 10000 0.45 266 12:46 21.03.2021
1214 Clouds 21 1018 53 10000 0.71 321 12:26 21.03.2021
1215 Clouds 21 1018 53 10000 0.71 321 11:47 21.03.2021
1216 Clouds 21 1018 52 10000 0.45 266 11:27 21.03.2021
1217 Clouds 21 1018 52 10000 0.89 250 10:53 21.03.2021
1218 Clouds 21 1018 52 10000 0.45 211 10:32 21.03.2021
1219 Clouds 22 1019 51 10000 0.45 106 09:56 21.03.2021
1220 Clouds 22 1019 50 10000 0.6 40 09:37 21.03.2021
1221 Clouds 22 1019 49 10000 0.45 106 09:19 21.03.2021
1222 Clouds 22 1019 48 10000 0.45 100 08:38 21.03.2021
1223 Clouds 23 1020 47 10000 0.89 98 08:19 21.03.2021
1224 Clouds 23 1020 46 10000 1.79 85 07:30 21.03.2021
1225 Clouds 22 1022 64 10000 1.54 60 06:21 21.03.2021
1226 Clouds 22 1022 68 10000 4.12 60 04:58 21.03.2021
1227 Clouds 24 1020 57 10000 7.2 30 00:59 21.03.2021
1228 Clouds 24 1020 57 10000 7.2 30 00:39 21.03.2021
1229 Clouds 24 1020 57 10000 7.2 30 00:20 21.03.2021
1230 Clear 25 1020 53 10000 6.17 20 23:46 20.03.2021
1231 Clear 25 1020 53 10000 6.17 20 23:20 20.03.2021
1232 Clouds 26 1021 44 10000 6.17 30 22:36 20.03.2021
1233 Clouds 26 1021 44 10000 6.17 30 22:18 20.03.2021
1234 Clouds 26 1022 47 10000 3.6 60 21:42 20.03.2021
1235 Clouds 26 1022 47 10000 3.6 60 21:24 20.03.2021
1236 Clouds 27 1023 47 10000 5.14 60 20:42 20.03.2021
1237 Clouds 26 1023 47 10000 5.14 60 20:21 20.03.2021
1238 Clouds 26 1024 47 10000 5.56 26 19:42 20.03.2021
1239 Clouds 26 1024 47 10000 4.99 22 19:23 20.03.2021
1240 Clouds 26 1024 47 10000 2.57 40 18:46 20.03.2021
1241 Clouds 26 1024 47 10000 2.57 40 18:24 20.03.2021
1242 Clouds 26 1025 53 10000 4.51 17 17:48 20.03.2021
1243 Clouds 25 1025 53 10000 3.83 10 17:26 20.03.2021
1244 Clouds 24 1024 57 9656 3.83 10 16:44 20.03.2021
1245 Clouds 24 1024 57 9656 3.83 10 16:44 20.03.2021
1246 Clouds 24 1024 57 9656 3.52 356 16:20 20.03.2021
1247 Clouds 22 1024 88 9656 3.52 356 15:54 20.03.2021
1248 Clouds 21 1024 88 9656 3.52 356 15:33 20.03.2021
1249 Clouds 18 1023 88 9656 2.93 340 14:44 20.03.2021
1250 Clouds 18 1023 88 9656 2.56 337 14:22 20.03.2021
1251 Clouds 17 1023 94 9656 2.56 337 13:32 20.03.2021
1252 Clear 17 1021 62 10000 2.53 340 12:51 20.03.2021
1253 Clear 17 1021 62 10000 2.51 339 12:26 20.03.2021
1254 Clear 17 1021 60 10000 2.51 339 11:45 20.03.2021
1255 Clear 17 1021 60 10000 2.78 337 11:27 20.03.2021
1256 Clear 18 1021 60 10000 2.78 337 10:54 20.03.2021
1257 Clear 17 1021 60 10000 2.96 339 10:27 20.03.2021
1258 Clear 18 1021 59 10000 0.45 63 09:55 20.03.2021
1259 Clear 18 1021 58 10000 0.45 63 09:27 20.03.2021
1260 Clear 19 1022 54 10000 0.45 63 08:56 20.03.2021
1261 Clouds 22 1022 50 10000 0.89 45 08:29 20.03.2021
1262 Clouds 22 1022 49 10000 0.89 36 07:50 20.03.2021
1263 Clouds 22 1022 49 10000 1.79 44 07:31 20.03.2021
1264 Clouds 22 1024 68 10000 2.06 350 06:46 20.03.2021
1265 Clouds 22 1024 68 10000 3.09 30 05:37 20.03.2021
1266 Clouds 23 1022 68 10000 5.14 360 03:46 20.03.2021
1267 Clouds 23 1021 68 10000 6.17 30 02:42 20.03.2021
1268 Clouds 25 1021 61 10000 7.2 50 23:56 19.03.2021
1269 Clouds 25 1021 61 10000 7.2 50 23:22 19.03.2021
1270 Clouds 26 1021 57 10000 8.23 20 22:45 19.03.2021
1271 Clouds 26 1021 57 10000 8.23 20 22:25 19.03.2021
1272 Clouds 26 1022 53 10000 7.2 50 21:52 19.03.2021
1273 Clouds 26 1022 53 10000 7.2 50 21:21 19.03.2021
1274 Clouds 26 1023 53 10000 6.69 360 20:46 19.03.2021
1275 Clouds 27 1023 53 10000 6.69 360 20:27 19.03.2021
1276 Clouds 27 1023 53 10000 6.69 360 20:27 19.03.2021
1277 Clouds 27 1023 50 10000 6.69 20 19:52 19.03.2021
1278 Clouds 27 1023 50 10000 6.69 20 19:26 19.03.2021
1279 Clouds 26 1024 47 10000 6.17 20 18:58 19.03.2021
1280 Clouds 27 1024 47 10000 6.17 20 18:37 19.03.2021
1281 Clouds 26 1024 47 10000 6.17 20 18:18 19.03.2021
1282 Clouds 27 1024 47 10000 5.14 350 17:48 19.03.2021
1283 Clouds 27 1024 47 10000 5.14 350 17:23 19.03.2021
1284 Clouds 25 1024 60 10000 2.57 10 16:44 19.03.2021
1285 Clouds 25 1024 60 10000 2.57 10 16:26 19.03.2021
1286 Clouds 22 1023 68 10000 3.09 330 15:34 19.03.2021
1287 Clouds 20 1022 82 10000 2.06 330 14:56 19.03.2021
1288 Clouds 20 1022 82 10000 2.06 330 14:36 19.03.2021
1289 Clouds 20 1022 83 10000 1.03 330 13:59 19.03.2021
1290 Clouds 20 1022 83 10000 1.03 330 13:24 19.03.2021
1291 Clouds 22 1020 53 10000 2.24 360 12:48 19.03.2021
1292 Clouds 22 1020 51 10000 1.79 5 12:29 19.03.2021
1293 Clouds 22 1019 52 10000 2.68 5 11:36 19.03.2021
1294 Clouds 22 1019 51 10000 4.02 9 10:53 19.03.2021
1295 Clouds 22 1019 51 10000 3.58 5 10:26 19.03.2021
1296 Clouds 23 1019 51 10000 3.58 5 09:47 19.03.2021
1297 Clouds 23 1019 50 10000 3.13 355 09:27 19.03.2021
1298 Clouds 23 1019 51 10000 4.47 23 08:53 19.03.2021
1299 Clouds 23 1020 51 10000 4.02 26 08:30 19.03.2021
1300 Clouds 23 1020 51 10000 4.02 26 07:51 19.03.2021
1301 Clouds 23 1020 50 10000 6.26 9 07:32 19.03.2021
1302 Clouds 23 1021 73 10000 5.14 360 06:36 19.03.2021
1303 Clouds 24 1019 69 9656 7.72 360 02:37 19.03.2021
1304 Clouds 26 1017 50 9656 7.72 20 23:57 18.03.2021
1305 Clouds 26 1017 50 9656 7.72 20 23:30 18.03.2021
1306 Clouds 26 1017 50 9656 7.72 20 23:30 18.03.2021
1307 Clouds 26 1017 53 9656 7.72 360 22:58 18.03.2021
1308 Clouds 27 1017 53 9656 7.72 360 22:27 18.03.2021
1309 Clouds 26 1018 50 9656 7.72 360 21:55 18.03.2021
1310 Clouds 26 1018 50 9656 7.72 360 21:36 18.03.2021
1311 Clouds 26 1018 41 8047 7.72 360 20:43 18.03.2021
1312 Clouds 26 1018 41 8047 7.72 360 20:23 18.03.2021
1313 Clouds 27 1018 50 8047 10.29 360 19:43 18.03.2021
1314 Clouds 27 1018 50 8047 10.29 360 19:24 18.03.2021
1315 Clouds 29 1018 48 8047 7.72 360 18:53 18.03.2021
1316 Clouds 29 1018 48 8047 7.72 360 18:53 18.03.2021
1317 Clouds 30 1018 48 8047 7.72 360 18:26 18.03.2021
1318 Clouds 30 1018 48 8047 7.72 360 18:26 18.03.2021
1319 Clouds 30 1018 48 9656 5.14 30 17:44 18.03.2021
1320 Clouds 30 1018 48 9656 5.14 30 17:20 18.03.2021
1321 Clouds 28 1017 65 9656 2.57 200 16:42 18.03.2021
1322 Clouds 28 1017 65 9656 2.57 200 16:23 18.03.2021
1323 Clouds 27 1016 69 9656 4.12 360 15:41 18.03.2021
1324 Clouds 27 1016 69 9656 4.12 360 15:23 18.03.2021
1325 Clouds 26 1015 73 8047 1.03 330 14:50 18.03.2021
1326 Clouds 26 1015 73 8047 1.03 330 14:28 18.03.2021
1327 Clouds 26 1014 73 8047 1.03 360 13:48 18.03.2021
1328 Clouds 25 1014 73 8047 1.03 360 13:25 18.03.2021
1329 Clouds 27 1011 47 10000 2.68 344 12:42 18.03.2021
1330 Clouds 27 1011 47 10000 2.68 344 12:24 18.03.2021
1331 Clouds 26 1010 49 10000 4.92 13 11:50 18.03.2021
1332 Clouds 24 1010 59 10000 4.47 5 11:27 18.03.2021
1333 Clouds 25 1010 65 10000 1.34 341 10:44 18.03.2021
1334 Clouds 25 1010 65 10000 1.34 341 10:25 18.03.2021
1335 Clouds 25 1010 65 10000 2.24 360 09:54 18.03.2021
1336 Clouds 24 1009 65 10000 0.89 291 09:28 18.03.2021
1337 Clouds 24 1009 63 10000 0.89 88 08:46 18.03.2021
1338 Clouds 26 1009 61 10000 2.09 69 08:27 18.03.2021
1339 Clouds 26 1009 59 10000 0.89 101 07:50 18.03.2021
1340 Clear 27 1011 83 8047 1.54 70 06:54 18.03.2021
1341 Clear 27 1011 83 8047 1.54 70 06:27 18.03.2021
1342 Clear 27 1010 78 8047 1.54 360 05:40 18.03.2021
1343 Clouds 32 1004 51 8047 1.54 110 00:51 18.03.2021
1344 Clouds 34 1004 41 8047 3.6 90 23:58 17.03.2021
1345 Clouds 36 1004 41 6437 2.06 80 22:44 17.03.2021
1346 Clouds 36 1004 41 6437 2.06 80 22:24 17.03.2021
1347 Clear 35 1005 46 6437 4.63 90 21:53 17.03.2021
1348 Clear 35 1005 46 6437 4.63 90 21:33 17.03.2021
1349 Clear 36 1005 44 6437 2.06 100 20:58 17.03.2021
1350 Clear 36 1005 44 6437 2.06 100 20:40 17.03.2021
1351 Clear 36 1005 44 6437 2.06 100 20:20 17.03.2021
1352 Clear 34 1006 49 8047 1.54 120 19:43 17.03.2021
1353 Clear 34 1006 49 8047 1.54 120 19:21 17.03.2021
1354 Clear 32 1007 55 8047 5.14 180 18:52 17.03.2021
1355 Clear 32 1007 55 8047 5.14 180 18:32 17.03.2021
1356 Clear 30 1007 65 8047 4.63 180 17:43 17.03.2021
1357 Clear 29 1007 65 8047 4.63 180 17:23 17.03.2021
1358 Clear 28 1007 74 8047 4.63 180 16:43 17.03.2021
1359 Clear 27 1007 74 8047 4.63 180 16:21 17.03.2021
1360 Clear 25 1006 88 8047 3.81 179 15:49 17.03.2021
1361 Clear 25 1006 88 8047 3.81 179 15:30 17.03.2021
1362 Clear 23 1006 94 8047 4.79 182 14:43 17.03.2021
1363 Clear 22 1006 94 8047 5.21 174 14:21 17.03.2021
1364 Clear 22 1005 94 8047 2.57 200 13:55 17.03.2021
1365 Clear 22 1005 94 8047 2.57 200 13:27 17.03.2021
1366 Clouds 23 1003 68 10000 0.89 192 12:50 17.03.2021
1367 Clouds 22 1003 67 10000 0.45 207 12:29 17.03.2021
1368 Clouds 22 1003 66 10000 0.89 207 11:50 17.03.2021
1369 Clear 22 1003 66 10000 0.45 207 11:23 17.03.2021
1370 Clear 23 1003 65 10000 0.89 207 10:54 17.03.2021
1371 Clear 23 1003 65 10000 0.45 207 10:25 17.03.2021
1372 Clear 23 1004 64 10000 0.45 207 09:48 17.03.2021
1373 Clear 23 1004 64 10000 0.45 207 09:48 17.03.2021
1374 Clear 23 1004 63 10000 0.45 207 09:25 17.03.2021
1375 Clear 23 1004 63 10000 0.45 207 08:56 17.03.2021
1376 Clear 23 1004 63 10000 0.45 207 08:36 17.03.2021
1377 Clear 24 1005 62 10000 0.89 207 07:48 17.03.2021
1378 Clear 24 1005 65 10000 0.89 214 07:30 17.03.2021
1379 Clear 25 1007 94 9656 3.8 169 06:39 17.03.2021
1380 Clear 26 1007 89 9656 1.54 140 04:20 17.03.2021
1381 Clear 26 1005 89 9656 2.57 120 02:49 17.03.2021
1382 Clear 29 1005 70 10000 4.12 100 00:40 17.03.2021
1383 Clear 32 1005 58 10000 5.14 80 23:28 16.03.2021
1384 Clear 32 1006 58 10000 4.63 90 22:48 16.03.2021
1385 Clear 32 1006 58 10000 4.63 90 22:29 16.03.2021
1386 Clear 32 1007 58 10000 5.66 70 21:47 16.03.2021
1387 Clear 32 1007 58 10000 5.66 70 21:29 16.03.2021
1388 Clear 33 1008 52 10000 3.09 110 20:58 16.03.2021
1389 Clear 33 1008 52 10000 3.09 110 20:20 16.03.2021
1390 Clear 32 1009 51 10000 1.54 120 19:58 16.03.2021
1391 Clear 32 1009 51 10000 1.54 120 19:39 16.03.2021
1392 Clear 32 1009 51 10000 1.54 120 19:19 16.03.2021
1393 Clear 31 1011 58 10000 1.54 150 18:40 16.03.2021
1394 Clear 31 1011 58 10000 1.54 150 18:21 16.03.2021
1395 Clear 30 1011 61 10000 2.57 150 17:46 16.03.2021
1396 Clear 29 1011 61 10000 2.57 150 17:26 16.03.2021
1397 Clear 27 1011 78 9656 2.06 160 16:51 16.03.2021
1398 Clear 27 1011 78 9656 2.06 160 16:28 16.03.2021
1399 Clear 25 1011 94 6437 2.55 172 15:47 16.03.2021
1400 Clear 24 1011 94 6437 2.45 155 15:21 16.03.2021
1401 Mist 22 1010 94 4828 2.45 155 14:58 16.03.2021
1402 Mist 22 1010 94 4828 2.45 155 14:40 16.03.2021
1403 Mist 21 1010 94 4828 2.02 146 14:20 16.03.2021
1404 Clear 21 1009 100 6437 2.02 146 13:47 16.03.2021
1405 Clear 22 1009 100 6437 1.83 185 13:25 16.03.2021
1406 Clear 21 1008 75 10000 1.83 185 12:51 16.03.2021
1407 Clear 21 1008 74 10000 2.07 175 12:33 16.03.2021
1408 Clear 22 1007 75 10000 2.12 187 11:43 16.03.2021
1409 Clear 22 1007 75 10000 1.83 180 11:22 16.03.2021
1410 Clear 22 1008 74 10000 1.39 183 10:28 16.03.2021
1411 Clear 22 1008 72 10000 1.39 183 09:57 16.03.2021
1412 Clear 22 1008 73 10000 1.39 183 09:36 16.03.2021
1413 Clear 22 1008 74 10000 0.96 190 09:18 16.03.2021
1414 Clear 22 1008 71 10000 0.45 355 08:40 16.03.2021
1415 Clear 23 1008 71 10000 0.89 210 08:20 16.03.2021
1416 Clear 24 1009 67 10000 0.89 210 07:36 16.03.2021
1417 Clouds 25 1011 94 9656 1.54 320 06:39 16.03.2021
1418 Clouds 25 1011 88 9656 1.2 289 05:52 16.03.2021
1419 Clouds 25 1011 88 9656 1.2 289 05:34 16.03.2021
1420 Clouds 26 1009 89 8047 1.54 40 02:45 16.03.2021
1421 Clouds 26 1009 89 8047 1.54 40 02:23 16.03.2021
1422 Clear 29 1008 66 9656 5.14 90 23:57 15.03.2021
1423 Clear 30 1008 66 9656 5.14 90 23:28 15.03.2021
1424 Clear 31 1008 66 10000 4.63 80 22:51 15.03.2021
1425 Clear 31 1008 66 10000 4.63 80 22:33 15.03.2021
1426 Clear 31 1008 66 10000 4.63 80 22:33 15.03.2021
1427 Clear 31 1009 66 9656 4.63 30 21:55 15.03.2021
1428 Clear 31 1009 66 9656 4.63 30 21:34 15.03.2021
1429 Clear 31 1010 66 9656 3.6 70 20:59 15.03.2021
1430 Clear 31 1010 66 9656 3.6 70 20:40 15.03.2021
1431 Clear 31 1010 66 9656 3.6 70 20:21 15.03.2021
1432 Clear 30 1011 66 8047 3.6 90 19:50 15.03.2021
1433 Clear 30 1011 66 8047 3.6 90 19:50 15.03.2021
1434 Clear 30 1011 66 8047 3.6 90 19:31 15.03.2021
1435 Clear 30 1012 62 8047 2.57 110 18:57 15.03.2021
1436 Clear 30 1012 62 8047 2.57 110 18:28 15.03.2021
1437 Clear 29 1010 50 10000 1.79 83 17:56 15.03.2021
1438 Clear 29 1010 52 10000 1.79 171 17:32 15.03.2021
1439 Clear 27 1012 74 6437 1.54 180 16:52 15.03.2021
1440 Clear 28 1012 74 6437 1.54 180 16:34 15.03.2021
1441 Clear 25 1012 94 6437 2.43 149 15:47 15.03.2021
1442 Clear 25 1012 94 6437 1.14 168 15:26 15.03.2021
1443 Clouds 23 1011 100 6437 1.14 168 14:45 15.03.2021
1444 Clouds 22 1011 100 6437 1.47 215 14:23 15.03.2021
1445 Clear 22 1011 94 6437 1.47 215 13:49 15.03.2021
1446 Clear 22 1011 94 6437 1.68 237 13:27 15.03.2021
1447 Clear 22 1008 74 10000 1.72 238 12:50 15.03.2021
1448 Clear 22 1008 75 10000 1.71 234 12:20 15.03.2021
1449 Clear 23 1008 74 10000 1.71 234 11:56 15.03.2021
1450 Clear 22 1008 74 10000 1.71 234 11:37 15.03.2021
1451 Clear 23 1008 73 10000 1.37 239 10:56 15.03.2021
1452 Clear 23 1008 73 10000 1.37 239 10:32 15.03.2021
1453 Clear 23 1009 72 10000 0.68 219 09:54 15.03.2021
1454 Clear 23 1009 72 10000 0.68 219 09:36 15.03.2021
1455 Clear 23 1009 72 10000 0.45 279 08:59 15.03.2021
1456 Clear 23 1009 72 10000 0.89 279 08:40 15.03.2021
1457 Clear 23 1010 68 10000 0.25 275 07:56 15.03.2021
1458 Clear 24 1010 67 10000 0.25 275 07:32 15.03.2021
1459 Clouds 24 1011 94 9656 1.04 313 06:44 15.03.2021
1460 Clouds 25 1011 94 10000 1.03 50 05:34 15.03.2021
1461 Clouds 26 1008 83 10000 1.54 120 01:47 15.03.2021
1462 Clear 29 1008 66 10000 5.14 90 23:59 14.03.2021
1463 Clear 30 1008 66 10000 5.14 90 23:21 14.03.2021
1464 Clear 30 1008 62 10000 3.09 90 22:47 14.03.2021
1465 Clear 31 1008 62 10000 3.09 90 22:23 14.03.2021
1466 Clear 31 1008 62 10000 3.09 90 22:23 14.03.2021
1467 Clouds 31 1009 58 10000 5.91 84 21:49 14.03.2021
1468 Clouds 31 1009 58 10000 5.32 90 21:20 14.03.2021
1469 Clouds 32 1010 58 10000 1.03 130 20:50 14.03.2021
1470 Clouds 32 1010 58 10000 1.03 130 20:50 14.03.2021
1471 Clouds 32 1010 58 10000 1.03 130 20:27 14.03.2021
1472 Clouds 32 1012 58 9656 5.14 190 19:50 14.03.2021
1473 Clouds 31 1012 58 9656 5.14 190 19:24 14.03.2021
1474 Clouds 30 1013 62 9656 1.54 160 18:56 14.03.2021
1475 Clouds 30 1013 62 9656 1.54 160 18:28 14.03.2021
1476 Clouds 28 1014 69 8047 2.06 150 17:41 14.03.2021
1477 Clouds 28 1014 69 8047 2.06 150 17:23 14.03.2021
1478 Clouds 27 1014 83 6437 2.57 180 16:49 14.03.2021
1479 Clouds 26 1014 83 6437 2.57 180 16:28 14.03.2021
1480 Mist 24 1014 94 4828 3.48 160 15:56 14.03.2021
1481 Haze 24 1014 94 4828 3.48 160 15:36 14.03.2021
1482 Mist 22 1013 100 4828 3.19 163 14:41 14.03.2021
1483 Mist 22 1013 94 4023 3.02 159 14:23 14.03.2021
1484 Clouds 22 1013 100 8047 3.02 159 13:49 14.03.2021
1485 Clouds 22 1013 100 8047 2.26 177 13:29 14.03.2021
1486 Clouds 23 1011 73 10000 0.45 196 12:47 14.03.2021
1487 Clouds 22 1011 71 10000 0.45 196 12:28 14.03.2021
1488 Clouds 23 1011 69 10000 0.45 196 11:54 14.03.2021
1489 Clouds 23 1011 68 10000 0.45 196 11:35 14.03.2021
1490 Clouds 23 1011 66 10000 0.45 196 10:56 14.03.2021
1491 Clouds 24 1011 66 10000 1.61 223 10:37 14.03.2021
1492 Clouds 23 1011 66 10000 0.45 196 10:18 14.03.2021
1493 Clouds 24 1012 63 10000 1.08 223 09:43 14.03.2021
1494 Clouds 25 1012 63 10000 0.86 224 09:22 14.03.2021
1495 Clouds 25 1013 62 10000 0.86 224 08:43 14.03.2021
1496 Clouds 25 1013 63 10000 0.84 211 08:23 14.03.2021
1497 Clouds 25 1014 63 10000 0.89 261 07:37 14.03.2021
1498 Clouds 25 1016 88 8047 0.83 207 06:47 14.03.2021
1499 Clouds 25 1015 88 8047 2.55 91 03:54 14.03.2021
1500 Smoke 27 1014 78 4828 3.6 80 00:51 14.03.2021
1501 Smoke 27 1014 78 4828 3.6 80 00:19 14.03.2021
1502 Clouds 28 1014 69 8047 4.63 110 23:47 13.03.2021
1503 Clouds 28 1014 69 8047 4.63 110 23:24 13.03.2021
1504 Clouds 29 1015 65 8047 3.6 100 22:52 13.03.2021
1505 Clouds 29 1015 65 8047 3.6 100 22:26 13.03.2021
1506 Clouds 28 1016 69 10000 1.54 130 21:43 13.03.2021
1507 Clouds 28 1016 69 10000 1.54 130 21:25 13.03.2021
1508 Clouds 30 1017 62 9656 2.06 70 20:50 13.03.2021
1509 Clouds 30 1017 62 9656 2.06 70 20:30 13.03.2021
1510 Clouds 30 1018 62 9656 1.54 110 19:53 13.03.2021
1511 Clouds 30 1018 62 9656 1.54 110 19:29 13.03.2021
1512 Clouds 28 1019 65 9656 2.06 80 18:43 13.03.2021
1513 Clouds 28 1019 65 9656 2.06 80 18:22 13.03.2021
1514 Clouds 28 1019 69 8047 1.2 94 17:58 13.03.2021
1515 Clouds 28 1019 69 8047 1.2 94 17:40 13.03.2021
1516 Clouds 27 1019 69 8047 0.54 240 17:21 13.03.2021
1517 Clouds 27 1019 74 8047 2.06 80 16:42 13.03.2021
1518 Clouds 25 1019 83 8047 0.95 246 15:59 13.03.2021
1519 Clouds 25 1019 83 8047 0.48 251 15:25 13.03.2021
1520 Clouds 24 1018 94 8047 1.54 330 14:47 13.03.2021
1521 Clouds 24 1018 94 8047 1.54 330 14:25 13.03.2021
1522 Clouds 23 1018 94 8047 0.48 346 13:46 13.03.2021
1523 Clouds 24 1018 94 8047 1.09 11 13:23 13.03.2021
1524 Clear 22 1018 89 10000 1.13 33 12:43 13.03.2021
1525 Clear 22 1018 89 10000 1.71 35 12:18 13.03.2021
1526 Clear 24 1016 62 10000 1.79 58 11:42 13.03.2021
1527 Clear 24 1016 65 10000 1.79 39 11:24 13.03.2021
1528 Clear 24 1016 66 10000 1.34 51 10:49 13.03.2021
1529 Clear 24 1016 66 10000 1.34 11 10:25 13.03.2021
1530 Clear 24 1016 65 10000 0.45 76 09:38 13.03.2021
1531 Clear 23 1017 65 10000 1.14 356 08:58 13.03.2021
1532 Clear 23 1017 65 10000 1.14 356 08:58 13.03.2021
1533 Clear 23 1017 65 10000 1.14 356 08:38 13.03.2021
1534 Clear 23 1017 64 10000 1.23 318 08:18 13.03.2021
1535 Clear 24 1018 63 10000 1.23 318 07:39 13.03.2021
1536 Clouds 25 1020 78 9656 1.03 70 05:31 13.03.2021
1537 Clouds 25 1017 83 9656 2.57 100 02:42 13.03.2021
1538 Clouds 27 1016 74 10000 4.12 80 00:37 13.03.2021
1539 Clouds 28 1016 69 10000 4.12 90 23:49 12.03.2021
1540 Clouds 28 1016 69 10000 4.12 90 23:30 12.03.2021
1541 Clouds 29 1016 70 10000 4.63 80 22:42 12.03.2021
1542 Clouds 29 1016 70 10000 4.63 80 22:22 12.03.2021
1543 Clear 30 1017 62 10000 4.12 60 21:42 12.03.2021
1544 Clear 30 1017 62 10000 4.12 60 21:21 12.03.2021
1545 Clouds 30 1018 62 9656 6.17 70 20:55 12.03.2021
1546 Clouds 30 1018 62 9656 6.17 70 20:31 12.03.2021
1547 Clouds 30 1019 62 9656 4.12 80 19:54 12.03.2021
1548 Clouds 30 1019 62 9656 4.12 80 19:34 12.03.2021
1549 Clouds 29 1020 65 9656 1.54 80 18:54 12.03.2021
1550 Clouds 29 1020 65 9656 1.54 80 18:33 12.03.2021
1551 Clouds 28 1020 69 8047 1.39 31 17:47 12.03.2021
1552 Clouds 28 1020 69 8047 0.85 323 17:29 12.03.2021
1553 Clear 27 1020 78 6437 0.85 323 16:54 12.03.2021
1554 Clear 26 1020 78 6437 0.85 323 16:33 12.03.2021
1555 Clouds 24 1019 100 6437 1.13 280 15:50 12.03.2021
1556 Clouds 24 1019 100 6437 1.52 265 15:21 12.03.2021
1557 Mist 22 1019 100 4828 1.52 265 14:46 12.03.2021
1558 Mist 22 1019 100 4828 0.84 269 14:19 12.03.2021
1559 Clouds 22 1018 94 8047 0.84 269 13:41 12.03.2021
1560 Clouds 22 1018 94 8047 0.55 318 13:20 12.03.2021
1561 Clouds 22 1016 72 10000 0.55 318 12:50 12.03.2021
1562 Clouds 22 1016 72 10000 0.96 327 12:30 12.03.2021
1563 Clouds 22 1016 72 10000 0.96 327 12:30 12.03.2021
1564 Clouds 22 1016 72 10000 0.45 298 11:57 12.03.2021
1565 Clouds 22 1016 72 10000 0.89 296 11:38 12.03.2021
1566 Clouds 22 1016 72 10000 1.34 339 10:59 12.03.2021
1567 Clouds 22 1016 71 10000 1.79 27 10:41 12.03.2021
1568 Clouds 22 1016 71 10000 1.78 35 10:20 12.03.2021
1569 Clouds 22 1016 71 10000 0.45 219 09:29 12.03.2021
1570 Clouds 22 1016 68 10000 0.45 209 08:57 12.03.2021
1571 Clouds 23 1017 66 10000 0.45 209 08:38 12.03.2021
1572 Clouds 23 1019 94 9656 1.54 43 07:41 12.03.2021
1573 Clouds 23 1019 94 9656 1.62 17 07:19 12.03.2021
1574 Clouds 24 1019 88 9656 1.62 17 06:40 12.03.2021
1575 Clouds 24 1019 88 9656 1.64 4 05:43 12.03.2021
1576 Clear 27 1014 69 10000 3.6 80 00:52 12.03.2021
1577 Clear 28 1014 65 10000 5.14 80 23:40 11.03.2021
1578 Clear 28 1015 65 10000 6.17 90 22:58 11.03.2021
1579 Clear 28 1015 65 10000 6.17 90 22:38 11.03.2021
1580 Clear 28 1015 65 10000 6.17 90 22:18 11.03.2021
1581 Clouds 28 1016 65 9656 5.14 90 21:42 11.03.2021
1582 Clouds 28 1016 65 9656 5.14 90 21:21 11.03.2021
1583 Clear 29 1017 61 8047 5.14 70 20:49 11.03.2021
1584 Clear 29 1017 61 8047 5.14 70 20:22 11.03.2021
1585 Clouds 28 1018 65 8047 4.12 90 19:48 11.03.2021
1586 Clouds 28 1018 65 8047 4.12 90 19:30 11.03.2021
1587 Clouds 28 1019 69 6437 3.09 70 18:51 11.03.2021
1588 Clouds 28 1019 69 6437 3.09 70 18:33 11.03.2021
1589 Haze 28 1019 69 4828 1.52 58 17:50 11.03.2021
1590 Haze 28 1019 69 4828 1.52 58 17:30 11.03.2021
1591 Mist 26 1019 78 4828 1.1 301 16:31 11.03.2021
1592 Haze 23 1018 94 4828 1.63 265 15:50 11.03.2021
1593 Haze 22 1018 94 4828 1.63 265 15:31 11.03.2021
1594 Clouds 21 1018 94 6437 1.27 238 14:58 11.03.2021
1595 Clouds 20 1018 94 6437 1.27 238 14:38 11.03.2021
1596 Clouds 20 1018 94 6437 0.59 202 14:18 11.03.2021
1597 Clear 19 1017 88 9656 0.59 202 13:43 11.03.2021
1598 Clear 19 1017 88 9656 0.15 151 13:21 11.03.2021
1599 Clouds 18 1015 71 10000 0.15 151 12:49 11.03.2021
1600 Clear 19 1015 67 10000 0.07 309 12:27 11.03.2021
1601 Clear 19 1015 65 10000 0.45 151 11:45 11.03.2021
1602 Clouds 19 1015 65 10000 0.78 278 11:27 11.03.2021
1603 Clouds 20 1015 64 10000 0.45 151 10:48 11.03.2021
1604 Clouds 21 1016 61 10000 0.45 261 10:22 11.03.2021
1605 Clouds 21 1016 60 10000 0.45 261 09:45 11.03.2021
1606 Clouds 21 1016 60 10000 0.45 261 09:25 11.03.2021
1607 Clouds 21 1016 61 10000 1.34 261 08:48 11.03.2021
1608 Clouds 21 1017 59 10000 0.45 300 08:23 11.03.2021
1609 Clouds 22 1017 58 10000 1.99 244 07:44 11.03.2021
1610 Clouds 22 1019 88 10000 1.03 320 06:51 11.03.2021
1611 Clouds 22 1019 88 10000 1.03 320 06:31 11.03.2021
1612 Clear 23 1018 83 10000 0.63 88 04:48 11.03.2021
1613 Clear 25 1016 65 10000 2.57 100 01:39 11.03.2021
1614 Clear 27 1016 57 10000 4.12 100 23:53 10.03.2021
1615 Clear 27 1016 57 10000 4.12 100 23:22 10.03.2021
1616 Clear 28 1016 54 10000 3.6 100 22:39 10.03.2021
1617 Clouds 27 1017 57 10000 2.06 110 21:47 10.03.2021
1618 Clouds 27 1017 57 10000 2.06 110 21:27 10.03.2021
1619 Clouds 27 1018 61 10000 5.66 80 20:58 10.03.2021
1620 Clouds 27 1018 61 10000 5.66 80 20:39 10.03.2021
1621 Clouds 27 1018 61 10000 5.66 80 20:20 10.03.2021
1622 Clouds 27 1020 57 10000 4.12 160 19:40 10.03.2021
1623 Clouds 27 1020 57 10000 4.12 160 19:20 10.03.2021
1624 Clouds 26 1021 61 10000 3.09 190 18:38 10.03.2021
1625 Clouds 27 1021 61 10000 3.09 190 18:19 10.03.2021
1626 Clouds 25 1021 65 10000 2.57 160 17:42 10.03.2021
1627 Clouds 25 1021 65 10000 2.57 160 17:20 10.03.2021
1628 Clouds 25 1021 73 10000 1.04 183 16:53 10.03.2021
1629 Clouds 24 1021 73 10000 1.04 183 16:30 10.03.2021
1630 Clouds 21 1021 94 9656 1.48 250 15:59 10.03.2021
1631 Clouds 21 1021 94 9656 1.48 250 15:38 10.03.2021
1632 Clouds 20 1021 94 9656 1.57 270 15:20 10.03.2021
1633 Clouds 17 1020 100 9656 1.52 279 14:23 10.03.2021
1634 Clouds 17 1020 100 8047 1.52 279 13:58 10.03.2021
1635 Clouds 17 1020 100 8047 1.52 279 13:34 10.03.2021
1636 Clouds 17 1018 75 10000 1.52 288 12:53 10.03.2021
1637 Clouds 17 1018 74 10000 1.52 288 12:32 10.03.2021
1638 Clouds 18 1018 74 10000 1.53 280 11:56 10.03.2021
1639 Clouds 18 1018 72 10000 1.92 271 11:29 10.03.2021
1640 Clouds 18 1018 71 10000 1.92 271 10:56 10.03.2021
1641 Clouds 18 1018 71 10000 1.92 271 10:34 10.03.2021
1642 Clouds 19 1018 70 10000 2.2 278 09:57 10.03.2021
1643 Clouds 19 1018 70 10000 2.2 278 09:38 10.03.2021
1644 Clouds 19 1018 70 10000 1.74 285 09:19 10.03.2021
1645 Clouds 19 1019 70 10000 0.45 279 08:45 10.03.2021
1646 Clouds 19 1020 70 10000 0.69 310 08:27 10.03.2021
1647 Clouds 19 1020 70 10000 0.89 279 07:44 10.03.2021
1648 Clouds 19 1020 71 10000 0.89 279 07:24 10.03.2021
1649 Clouds 20 1023 94 10000 0.86 7 06:52 10.03.2021
1650 Clouds 22 1021 83 10000 2.06 10 02:44 10.03.2021
1651 Clouds 24 1021 69 10000 3.6 70 00:36 10.03.2021
1652 Clouds 24 1021 69 10000 3.6 70 23:33 09.03.2021
1653 Clouds 25 1021 69 10000 4.06 53 22:52 09.03.2021
1654 Clouds 25 1021 69 10000 4.06 53 22:34 09.03.2021
1655 Clouds 24 1023 78 9656 1.54 300 21:58 09.03.2021
1656 Clouds 24 1023 78 9656 1.54 300 21:38 09.03.2021
1657 Clouds 23 1023 78 9656 1.54 300 21:20 09.03.2021
1658 Clouds 23 1024 88 9656 3.08 41 20:45 09.03.2021
1659 Clouds 22 1024 88 9656 2.1 10 20:23 09.03.2021
1660 Clouds 22 1025 94 9656 2.06 310 19:59 09.03.2021
1661 Clouds 21 1025 94 9656 2.06 310 19:29 09.03.2021
1662 Drizzle 21 1026 94 3219 1.2 34 18:55 09.03.2021
1663 Drizzle 21 1026 94 3219 1.2 34 18:31 09.03.2021
1664 Drizzle 20 1026 100 3219 1.38 49 17:59 09.03.2021
1665 Drizzle 20 1026 100 3219 1.38 49 17:39 09.03.2021
1666 Drizzle 20 1026 100 3219 1.56 54 17:20 09.03.2021
1667 Drizzle 20 1026 94 4023 1.56 54 16:40 09.03.2021
1668 Drizzle 20 1026 94 4023 1.6 54 16:21 09.03.2021
1669 Drizzle 20 1025 94 3219 1.6 54 15:47 09.03.2021
1670 Drizzle 20 1025 94 3219 1.61 50 15:24 09.03.2021
1671 Drizzle 20 1024 94 6437 1.61 50 14:46 09.03.2021
1672 Drizzle 20 1024 94 6437 1.6 36 14:24 09.03.2021
1673 Clouds 20 1024 94 8047 1.6 36 13:39 09.03.2021
1674 Clouds 20 1024 94 8047 2.87 334 13:21 09.03.2021
1675 Clouds 21 1022 68 10000 2.87 334 12:54 09.03.2021
1676 Clouds 21 1022 67 10000 2.87 334 12:35 09.03.2021
1677 Clouds 22 1022 58 10000 1.79 102 11:43 09.03.2021
1678 Clouds 21 1022 56 10000 1.79 96 11:22 09.03.2021
1679 Clouds 21 1022 54 10000 3.56 330 10:58 09.03.2021
1680 Clouds 22 1022 53 10000 0.45 355 10:39 09.03.2021
1681 Clouds 22 1022 52 10000 0.45 355 10:20 09.03.2021
1682 Clouds 22 1022 52 10000 0.89 348 09:45 09.03.2021
1683 Clouds 22 1022 53 10000 2.24 305 09:26 09.03.2021
1684 Clouds 22 1023 53 10000 2.24 323 08:48 09.03.2021
1685 Clouds 22 1023 53 10000 1.79 344 08:29 09.03.2021
1686 Clouds 22 1024 54 10000 1.34 332 07:41 09.03.2021
1687 Clouds 22 1026 78 10000 2.06 360 07:22 09.03.2021
1688 Clouds 22 1026 78 10000 2.06 360 06:44 09.03.2021
1689 Clouds 22 1026 78 10000 2.57 10 05:48 09.03.2021
1690 Clouds 23 1024 73 10000 3.6 10 00:59 09.03.2021
1691 Clouds 24 1024 69 10000 6.17 20 23:45 08.03.2021
1692 Clouds 24 1024 69 10000 6.17 20 23:27 08.03.2021
1693 Clouds 25 1024 61 10000 4.63 20 22:58 08.03.2021
1694 Clouds 25 1024 61 10000 4.63 20 22:40 08.03.2021
1695 Clouds 25 1024 61 10000 4.63 20 22:21 08.03.2021
1696 Clouds 25 1025 61 10000 3.09 30 21:43 08.03.2021
1697 Clouds 25 1025 61 10000 3.09 30 21:24 08.03.2021
1698 Clouds 26 1025 53 10000 3.09 10 20:39 08.03.2021
1699 Clouds 26 1025 53 10000 3.09 10 20:19 08.03.2021
1700 Clouds 26 1026 53 10000 4.63 20 19:38 08.03.2021
1701 Clouds 25 1027 61 10000 3.09 350 18:48 08.03.2021
1702 Clouds 25 1027 61 10000 3.09 350 18:23 08.03.2021
1703 Clouds 24 1027 83 10000 4.12 360 17:59 08.03.2021
1704 Clouds 24 1027 83 10000 4.12 360 17:39 08.03.2021
1705 Clouds 22 1027 78 10000 2.06 340 16:59 08.03.2021
1706 Clouds 22 1027 78 10000 2.06 340 16:40 08.03.2021
1707 Clouds 22 1027 78 10000 2.06 340 16:21 08.03.2021
1708 Clouds 21 1026 88 10000 2.57 50 15:38 08.03.2021
1709 Clouds 21 1026 88 10000 2.57 50 15:20 08.03.2021
1710 Clouds 20 1025 88 9656 6.17 20 14:21 08.03.2021
1711 Clouds 20 1025 88 9656 3.6 360 13:48 08.03.2021
1712 Clouds 21 1025 88 9656 3.6 360 13:23 08.03.2021
1713 Clouds 21 1023 57 10000 1.79 9 12:56 08.03.2021
1714 Clouds 21 1022 57 10000 2.24 17 12:29 08.03.2021
1715 Clouds 21 1022 58 10000 1.34 11 11:45 08.03.2021
1716 Clouds 21 1022 59 10000 2.24 57 11:22 08.03.2021
1717 Clouds 21 1022 61 10000 1.79 57 10:47 08.03.2021
1718 Clouds 21 1022 60 10000 2.24 32 10:28 08.03.2021
1719 Clouds 21 1022 57 10000 4.02 49 09:50 08.03.2021
1720 Clouds 21 1022 57 10000 4.02 44 09:25 08.03.2021
1721 Clouds 22 1022 60 10000 4.47 33 08:32 08.03.2021
1722 Clouds 22 1023 59 10000 4.92 30 07:51 08.03.2021
1723 Clouds 22 1025 78 10000 3.09 360 07:21 08.03.2021
1724 Clouds 22 1024 83 10000 3.09 360 05:20 08.03.2021
1725 Clouds 23 1022 73 10000 5.14 20 01:45 08.03.2021
1726 Clouds 24 1021 60 10000 6.17 30 00:41 08.03.2021
1727 Clouds 25 1021 53 10000 5.14 20 23:53 07.03.2021
1728 Clouds 25 1021 53 10000 5.14 20 23:21 07.03.2021
1729 Clouds 26 1021 50 10000 5.66 10 22:47 07.03.2021
1730 Clouds 26 1021 50 10000 5.66 10 22:27 07.03.2021
1731 Clouds 26 1022 44 10000 5.14 20 21:50 07.03.2021
1732 Clouds 26 1022 44 10000 5.14 20 21:32 07.03.2021
1733 Clouds 26 1023 44 9656 5.14 20 20:58 07.03.2021
1734 Clouds 26 1023 44 9656 5.14 20 20:40 07.03.2021
1735 Clouds 26 1023 44 9656 5.14 20 20:18 07.03.2021
1736 Clouds 25 1023 53 9656 2.57 330 19:40 07.03.2021
1737 Clouds 25 1023 53 9656 2.57 330 19:22 07.03.2021
1738 Clouds 24 1024 53 9656 3.6 350 18:51 07.03.2021
1739 Clouds 24 1024 53 9656 3.6 350 18:21 07.03.2021
1740 Clouds 23 1024 56 9656 3.6 360 17:57 07.03.2021
1741 Clouds 23 1024 56 9656 3.6 360 17:37 07.03.2021
1742 Clouds 23 1024 56 9656 3.6 360 17:18 07.03.2021
1743 Clouds 23 1023 60 9656 4.12 340 16:42 07.03.2021
1744 Clouds 23 1023 60 9656 4.12 340 16:20 07.03.2021
1745 Clouds 23 1022 64 9656 3.09 10 15:49 07.03.2021
1746 Clouds 22 1022 64 9656 3.09 10 15:31 07.03.2021
1747 Clouds 22 1022 64 9656 2.06 360 14:47 07.03.2021
1748 Clouds 22 1022 64 9656 2.06 360 14:28 07.03.2021
1749 Clouds 22 1021 64 10000 3.09 360 13:45 07.03.2021
1750 Clouds 22 1021 64 10000 3.09 360 13:26 07.03.2021
1751 Clouds 22 1019 45 10000 3.13 355 12:48 07.03.2021
1752 Clouds 22 1019 45 10000 4.02 18 12:29 07.03.2021
1753 Clouds 22 1019 44 10000 4.02 5 11:52 07.03.2021
1754 Clouds 22 1019 45 10000 4.02 13 11:23 07.03.2021
1755 Clouds 22 1019 45 10000 3.13 13 10:51 07.03.2021
1756 Clouds 22 1019 45 10000 3.13 16 10:33 07.03.2021
1757 Clouds 22 1019 45 10000 3.13 5 09:52 07.03.2021
1758 Clouds 22 1019 45 10000 3.58 336 09:26 07.03.2021
1759 Clouds 22 1019 46 10000 4.92 360 08:48 07.03.2021
1760 Clouds 22 1019 46 10000 3.13 19 08:25 07.03.2021
1761 Clouds 22 1020 47 10000 4.47 360 07:51 07.03.2021
1762 Clouds 23 1019 78 9656 9.26 20 02:44 07.03.2021
1763 Clouds 23 1019 78 9656 9.26 20 02:24 07.03.2021
1764 Clouds 24 1018 73 10000 7.72 20 00:24 07.03.2021
1765 Clouds 25 1017 69 10000 8.23 20 23:39 06.03.2021
1766 Clouds 26 1017 57 9656 7.72 360 22:57 06.03.2021
1767 Clouds 27 1017 57 9656 7.72 360 22:38 06.03.2021
1768 Clouds 27 1017 57 9656 7.72 360 22:19 06.03.2021
1769 Clouds 27 1017 61 9656 7.72 360 21:25 06.03.2021
1770 Clouds 28 1017 48 9656 6.17 360 20:59 06.03.2021
1771 Clouds 28 1017 48 9656 6.17 360 20:40 06.03.2021
1772 Clouds 28 1018 54 9656 6.17 340 19:51 06.03.2021
1773 Clouds 28 1018 54 9656 6.17 340 19:23 06.03.2021
1774 Clouds 27 1018 61 8047 7.72 350 18:57 06.03.2021
1775 Clouds 28 1018 61 8047 7.72 350 18:38 06.03.2021
1776 Clouds 28 1018 61 8047 7.72 350 18:19 06.03.2021
1777 Clouds 27 1018 65 8047 5.14 360 17:47 06.03.2021
1778 Clouds 26 1018 65 8047 5.14 360 17:26 06.03.2021
1779 Clouds 26 1018 73 8047 8.23 360 16:52 06.03.2021
1780 Clouds 26 1018 73 8047 8.23 360 16:30 06.03.2021
1781 Clouds 25 1017 83 8047 5.14 360 15:55 06.03.2021
1782 Clouds 25 1017 83 8047 5.14 360 15:34 06.03.2021
1783 Clouds 23 1016 88 8047 2.06 10 14:54 06.03.2021
1784 Clouds 23 1016 88 8047 2.06 10 14:31 06.03.2021
1785 Clouds 23 1015 88 9656 1.03 340 13:46 06.03.2021
1786 Clouds 23 1015 88 9656 1.03 340 13:24 06.03.2021
1787 Clouds 24 1013 62 10000 1.79 360 12:48 06.03.2021
1788 Clouds 24 1013 62 10000 1.79 355 12:20 06.03.2021
1789 Clouds 24 1012 60 10000 2.68 39 11:58 06.03.2021
1790 Clouds 24 1012 59 10000 2.68 64 11:23 06.03.2021
1791 Clouds 24 1012 60 10000 5.36 55 10:54 06.03.2021
1792 Clouds 24 1012 64 10000 2.68 66 10:35 06.03.2021
1793 Clouds 24 1015 88 8047 2.57 10 09:51 06.03.2021
1794 Clouds 24 1015 88 8047 2.57 10 09:21 06.03.2021
1795 Clouds 24 1015 94 8047 3.09 20 08:54 06.03.2021
1796 Clouds 24 1015 94 8047 3.09 20 08:29 06.03.2021
1797 Clouds 24 1011 94 8047 3.6 10 07:43 06.03.2021
1798 Clouds 24 1011 94 8047 3.6 10 07:21 06.03.2021
1799 Clouds 25 1014 94 8047 4.63 10 05:40 06.03.2021
1800 Clouds 25 1012 88 8047 4.63 40 03:36 06.03.2021
1801 Clear 25 1010 83 8047 3.6 70 01:32 06.03.2021
1802 Clear 26 1009 78 8047 3.09 90 00:45 06.03.2021
1803 Clear 28 1009 69 8047 4.12 80 23:41 05.03.2021
1804 Clear 28 1009 69 8047 4.12 80 23:19 05.03.2021
1805 Clear 28 1009 65 8047 6.17 80 22:43 05.03.2021
1806 Clear 28 1009 65 8047 6.17 80 22:20 05.03.2021
1807 Clouds 29 1009 61 8047 4.12 100 21:43 05.03.2021
1808 Clouds 29 1009 61 8047 4.12 100 21:23 05.03.2021
1809 Clouds 28 1010 69 8047 3.6 70 20:47 05.03.2021
1810 Clouds 29 1010 69 8047 3.6 70 20:24 05.03.2021
1811 Clouds 28 1012 61 8047 7.72 180 19:45 05.03.2021
1812 Clouds 28 1012 61 8047 7.72 180 19:22 05.03.2021
1813 Clouds 27 1013 69 8047 3.6 190 18:44 05.03.2021
1814 Clouds 27 1013 69 8047 3.6 190 18:25 05.03.2021
1815 Clouds 27 1011 53 10000 2.24 216 17:51 05.03.2021
1816 Clouds 27 1011 54 10000 1.79 171 17:32 05.03.2021
1817 Clouds 23 1013 88 6437 3.09 190 16:43 05.03.2021
1818 Clouds 23 1013 88 6437 3.09 190 16:23 05.03.2021
1819 Clouds 21 1013 100 6437 2.57 190 15:54 05.03.2021
1820 Clouds 21 1013 100 6437 2.57 190 15:27 05.03.2021
1821 Clouds 20 1013 94 8047 4.06 193 14:46 05.03.2021
1822 Clouds 20 1013 94 8047 3.42 198 14:27 05.03.2021
1823 Clouds 20 1012 94 8047 3.42 198 13:44 05.03.2021
1824 Clouds 20 1012 94 8047 2.87 196 13:21 05.03.2021
1825 Clouds 21 1010 67 10000 2.87 196 12:45 05.03.2021
1826 Clouds 21 1011 67 10000 0.45 231 11:40 05.03.2021
1827 Clouds 21 1011 67 10000 0.45 231 11:20 05.03.2021
1828 Clouds 21 1011 68 10000 0.45 231 10:57 05.03.2021
1829 Clouds 21 1011 68 10000 1.68 182 10:37 05.03.2021
1830 Clouds 21 1011 68 10000 1.44 176 10:18 05.03.2021
1831 Clouds 21 1012 66 10000 1.44 176 09:39 05.03.2021
1832 Clouds 21 1012 66 10000 1.36 164 09:20 05.03.2021
1833 Clouds 22 1013 63 10000 1.36 164 08:39 05.03.2021
1834 Clouds 22 1013 63 10000 0.45 231 08:20 05.03.2021
1835 Clouds 23 1014 61 10000 1.64 160 07:34 05.03.2021
1836 Clouds 22 1017 88 10000 1.82 152 06:35 05.03.2021
1837 Clouds 23 1017 83 10000 1.64 127 05:42 05.03.2021
1838 Clouds 24 1016 78 10000 4.63 80 01:35 05.03.2021
1839 Clouds 26 1016 69 10000 3.6 70 23:55 04.03.2021
1840 Clouds 26 1016 69 10000 3.6 70 23:24 04.03.2021
1841 Clouds 27 1016 61 10000 3.09 80 22:30 04.03.2021
1842 Clouds 27 1017 61 10000 2.57 80 21:54 04.03.2021
1843 Clouds 27 1017 61 10000 2.57 80 21:33 04.03.2021
1844 Clouds 27 1018 57 9656 2.57 80 20:58 04.03.2021
1845 Clouds 27 1018 57 9656 2.57 80 20:39 04.03.2021
1846 Clouds 27 1018 57 9656 2.57 80 20:20 04.03.2021
1847 Clouds 28 1019 51 9656 4.12 30 19:49 04.03.2021
1848 Clouds 28 1019 51 9656 4.12 30 19:23 04.03.2021
1849 Clouds 27 1020 54 9656 1.03 90 18:51 04.03.2021
1850 Clouds 27 1020 54 9656 1.03 90 18:30 04.03.2021
1851 Clouds 27 1020 54 9656 1.03 90 18:30 04.03.2021
1852 Clouds 27 1020 53 9656 2.22 58 17:47 04.03.2021
1853 Clouds 26 1020 53 9656 1.06 42 17:29 04.03.2021
1854 Clouds 24 1020 68 8047 1.06 42 16:50 04.03.2021
1855 Clouds 23 1020 68 8047 1.06 42 16:32 04.03.2021
1856 Clouds 20 1019 88 8047 0.8 288 15:57 04.03.2021
1857 Clouds 20 1019 88 8047 0.8 288 15:38 04.03.2021
1858 Clouds 20 1019 88 8047 1.73 285 15:19 04.03.2021
1859 Clouds 16 1019 94 8047 1.73 285 14:39 04.03.2021
1860 Clear 17 1019 88 9656 2.1 290 13:54 04.03.2021
1861 Clear 17 1019 88 9656 2.1 290 13:33 04.03.2021
1862 Clear 18 1019 88 9656 1.89 309 12:58 04.03.2021
1863 Clouds 17 1017 64 10000 0.89 289 12:40 04.03.2021
1864 Clouds 17 1017 63 10000 0.45 289 11:49 04.03.2021
1865 Clouds 18 1017 61 10000 1.94 290 11:28 04.03.2021
1866 Clouds 19 1017 58 10000 0.45 289 10:56 04.03.2021
1867 Clouds 19 1017 59 10000 1.94 290 10:34 04.03.2021
1868 Clouds 20 1017 58 10000 2.1 281 09:47 04.03.2021
1869 Clouds 20 1017 58 10000 0.45 205 09:25 04.03.2021
1870 Clouds 21 1018 55 10000 0.45 308 08:37 04.03.2021
1871 Clouds 21 1018 57 10000 0.89 281 07:54 04.03.2021
1872 Clouds 21 1018 57 10000 0.89 281 07:33 04.03.2021
1873 Clouds 20 1021 73 10000 2.45 326 06:25 04.03.2021
1874 Clouds 21 1021 88 10000 2.57 350 05:40 04.03.2021
1875 Clouds 22 1019 73 10000 3.6 20 01:44 04.03.2021
1876 Clouds 24 1018 64 10000 5.14 40 22:56 03.03.2021
1877 Clouds 24 1018 64 10000 5.14 40 22:28 03.03.2021
1878 Clouds 25 1019 60 10000 5.66 30 21:45 03.03.2021
1879 Clouds 25 1019 60 10000 5.66 30 21:25 03.03.2021
1880 Clouds 25 1019 57 10000 6.17 40 20:59 03.03.2021
1881 Clouds 25 1019 57 10000 6.17 40 20:41 03.03.2021
1882 Clouds 25 1019 57 10000 6.17 40 20:19 03.03.2021
1883 Clouds 25 1020 57 9656 4.63 360 19:42 03.03.2021
1884 Clouds 25 1020 57 9656 4.63 360 19:23 03.03.2021
1885 Clouds 24 1021 60 9656 2.57 50 18:48 03.03.2021
1886 Clouds 24 1021 60 9656 2.57 50 18:26 03.03.2021
1887 Clouds 23 1021 64 8047 2.06 310 17:54 03.03.2021
1888 Clouds 23 1021 64 8047 2.06 310 17:19 03.03.2021
1889 Clouds 23 1021 68 6437 2.85 357 16:44 03.03.2021
1890 Clouds 22 1021 68 6437 2.46 347 16:24 03.03.2021
1891 Clouds 20 1021 82 8047 2.46 347 15:35 03.03.2021
1892 Clouds 18 1020 77 8047 2.56 342 14:59 03.03.2021
1893 Clouds 18 1020 77 8047 2.56 342 14:31 03.03.2021
1894 Clouds 18 1020 77 9656 2.61 341 13:53 03.03.2021
1895 Clouds 18 1020 77 9656 1.68 340 13:33 03.03.2021
1896 Clouds 18 1017 57 10000 1.86 332 12:58 03.03.2021
1897 Clouds 18 1017 55 10000 0.45 290 12:39 03.03.2021
1898 Clouds 18 1017 55 10000 0.45 290 12:19 03.03.2021
1899 Clouds 17 1017 56 10000 2.89 329 11:42 03.03.2021
1900 Clouds 17 1017 56 10000 0.45 290 11:21 03.03.2021
1901 Clouds 18 1017 53 10000 0.89 290 10:41 03.03.2021
1902 Clouds 18 1017 53 10000 0.89 316 10:19 03.03.2021
1903 Clouds 19 1017 51 10000 1.79 337 09:40 03.03.2021
1904 Clouds 21 1017 50 10000 4.47 338 08:46 03.03.2021
1905 Clouds 21 1018 50 10000 4.02 360 08:23 03.03.2021
1906 Clouds 21 1018 50 10000 3.58 344 07:52 03.03.2021
1907 Clouds 20 1021 73 10000 5.14 360 06:52 03.03.2021
1908 Clouds 20 1021 73 10000 6.17 360 05:49 03.03.2021
1909 Clouds 20 1021 73 10000 6.17 360 05:29 03.03.2021
1910 Clouds 20 1020 77 10000 6.17 360 04:35 03.03.2021
1911 Clouds 20 1018 54 10000 6.71 355 03:52 03.03.2021
1912 Clouds 21 1018 73 9656 10.29 360 00:18 03.03.2021
1913 Clouds 22 1017 68 9656 10.29 360 23:31 02.03.2021
1914 Clouds 22 1017 64 9656 10.29 360 22:43 02.03.2021
1915 Clouds 22 1017 64 9656 10.29 360 22:20 02.03.2021
1916 Clouds 24 1018 60 9656 11.32 360 21:41 02.03.2021
1917 Clouds 24 1018 60 9656 11.32 360 21:22 02.03.2021
1918 Clouds 24 1018 60 9656 10.29 360 20:48 02.03.2021
1919 Clouds 24 1018 60 9656 10.29 360 20:23 02.03.2021
1920 Clouds 25 1019 57 9656 10.29 360 19:57 02.03.2021
1921 Clouds 25 1019 57 9656 10.29 360 19:39 02.03.2021
1922 Clouds 25 1019 57 9656 10.29 360 19:20 02.03.2021
1923 Clouds 25 1019 57 9656 7.72 360 18:41 02.03.2021
1924 Clouds 25 1019 57 9656 7.72 360 18:21 02.03.2021
1925 Clouds 25 1019 61 9656 7.72 360 17:49 02.03.2021
1926 Clouds 25 1019 61 9656 7.72 360 17:30 02.03.2021
1927 Clouds 25 1019 61 9656 7.72 360 17:30 02.03.2021
1928 Clouds 25 1019 61 9656 7.72 360 17:30 02.03.2021
1929 Clouds 25 1019 61 9656 7.72 360 17:30 02.03.2021
1930 Clouds 25 1019 61 9656 7.72 360 17:30 02.03.2021
1931 Clouds 25 1018 64 9656 7.72 360 16:54 02.03.2021
1932 Clouds 24 1018 64 9656 7.72 360 16:22 02.03.2021
1933 Clouds 23 1017 68 9656 6.17 360 15:49 02.03.2021
1934 Clouds 23 1017 68 9656 6.17 360 15:22 02.03.2021
1935 Clouds 22 1017 83 8047 6.17 360 14:23 02.03.2021
1936 Clouds 22 1017 88 8047 5.14 360 13:49 02.03.2021
1937 Clouds 22 1017 88 8047 5.14 360 13:30 02.03.2021
1938 Clouds 22 1015 68 10000 9.39 355 12:55 02.03.2021
1939 Clouds 23 1014 65 10000 7.6 15 12:29 02.03.2021
1940 Clouds 23 1014 63 10000 8.94 355 11:53 02.03.2021
1941 Clouds 24 1014 64 10000 6.71 5 11:32 02.03.2021
1942 Clouds 24 1013 64 10000 5.36 5 10:57 02.03.2021
1943 Clouds 24 1013 64 10000 5.81 360 10:32 02.03.2021
1944 Clouds 24 1013 64 10000 6.26 340 09:57 02.03.2021
1945 Clouds 24 1013 63 10000 5.81 21 09:39 02.03.2021
1946 Clouds 25 1013 62 10000 6.71 355 09:18 02.03.2021
1947 Clouds 25 1013 63 10000 6.26 13 08:36 02.03.2021
1948 Clouds 25 1013 62 10000 7.15 5 07:52 02.03.2021
1949 Clouds 25 1014 88 8047 6.69 10 06:59 02.03.2021
1950 Clouds 25 1014 94 8047 6.17 10 05:54 02.03.2021
1951 Clouds 25 1014 94 8047 6.17 10 05:34 02.03.2021
1952 Clouds 25 1013 88 9656 4.63 20 04:58 02.03.2021
1953 Clear 26 1009 83 8047 6.17 10 01:43 02.03.2021
1954 Clear 26 1009 83 8047 6.17 10 01:22 02.03.2021
1955 Clear 28 1008 65 10000 8.75 30 23:45 01.03.2021
1956 Clear 29 1008 65 10000 8.75 30 23:20 01.03.2021
1957 Clear 31 1008 55 10000 5.14 80 22:39 01.03.2021
1958 Clear 31 1008 55 10000 5.14 80 22:21 01.03.2021
1959 Clear 33 1008 49 10000 5.14 80 21:43 01.03.2021
1960 Clear 32 1008 49 10000 5.14 80 21:23 01.03.2021
1961 Clear 33 1009 46 10000 2.06 90 20:46 01.03.2021
1962 Clear 33 1009 46 10000 2.06 90 20:27 01.03.2021
1963 Clear 32 1010 48 10000 2.06 50 19:45 01.03.2021
1964 Clear 32 1010 48 10000 2.06 50 19:27 01.03.2021
1965 Clear 31 1011 51 10000 3.09 170 18:44 01.03.2021
1966 Clear 31 1011 51 10000 3.09 170 18:24 01.03.2021
1967 Clear 29 1011 61 9656 2.57 180 17:49 01.03.2021
1968 Clear 28 1011 61 9656 2.57 180 17:24 01.03.2021
1969 Clear 26 1011 73 8047 3.09 190 16:48 01.03.2021
1970 Clear 26 1011 73 8047 3.09 190 16:30 01.03.2021
1971 Mist 24 1010 94 4828 1.98 181 15:56 01.03.2021
1972 Mist 23 1010 94 4828 1.98 181 15:36 01.03.2021
1973 Haze 23 1010 94 4828 1.7 154 15:18 01.03.2021
1974 Mist 21 1009 94 4828 1.7 154 14:40 01.03.2021
1975 Haze 20 1009 94 4828 1.48 133 13:57 01.03.2021
1976 Haze 21 1009 94 4828 1.48 133 13:37 01.03.2021
1977 Mist 21 1009 94 4828 1.31 192 13:19 01.03.2021
1978 Clear 21 1007 75 10000 1.65 208 12:42 01.03.2021
1979 Clear 20 1007 75 10000 1.76 212 12:24 01.03.2021
1980 Clear 20 1007 75 10000 1.76 212 12:24 01.03.2021
1981 Clear 21 1007 75 10000 0.45 260 11:49 01.03.2021
1982 Clear 21 1007 72 10000 1.41 206 11:26 01.03.2021
1983 Clear 22 1007 73 10000 1.41 206 10:42 01.03.2021
1984 Clear 22 1007 71 10000 0.45 260 10:22 01.03.2021
1985 Clear 21 1007 69 10000 1.25 223 09:50 01.03.2021
1986 Clear 22 1007 67 10000 1.59 247 09:28 01.03.2021
1987 Clear 23 1007 66 10000 0.89 136 08:56 01.03.2021
1988 Clear 23 1007 66 10000 1.59 247 08:30 01.03.2021
1989 Clear 23 1008 67 10000 0.89 273 07:32 01.03.2021
1990 Clear 23 1010 94 8047 0.63 258 06:25 01.03.2021
1991 Clouds 25 1008 88 6437 2.06 100 02:38 01.03.2021
1992 Clear 29 1007 70 8047 4.12 80 23:47 28.02.2021
1993 Clear 30 1007 62 8047 4.63 90 22:57 28.02.2021
1994 Clear 30 1007 62 8047 4.63 90 22:37 28.02.2021
1995 Clear 31 1007 62 8047 4.63 90 22:18 28.02.2021
1996 Clear 31 1008 55 8047 5.14 60 21:37 28.02.2021
1997 Clear 31 1008 55 8047 5.14 60 21:18 28.02.2021
1998 Clear 32 1009 51 6437 1.54 120 20:39 28.02.2021
1999 Clear 32 1009 51 6437 1.54 120 20:18 28.02.2021
2000 Clear 32 1010 51 6437 4.41 80 19:46 28.02.2021
2001 Clear 32 1010 51 6437 3.24 92 19:25 28.02.2021
2002 Clear 31 1011 58 6437 4.12 170 18:44 28.02.2021
2003 Clear 31 1011 58 6437 4.12 170 18:26 28.02.2021
2004 Clear 30 1011 58 6437 2.57 200 17:53 28.02.2021
2005 Clear 30 1011 58 6437 2.57 200 17:29 28.02.2021
2006 Mist 28 1011 78 4828 1.25 143 16:57 28.02.2021
2007 Mist 28 1011 78 4828 1.25 143 16:38 28.02.2021
2008 Mist 27 1011 78 4828 1.48 189 16:19 28.02.2021
2009 Mist 26 1011 83 3219 1.48 189 15:49 28.02.2021
2010 Mist 24 1011 100 1609 1.3 185 15:25 28.02.2021
2011 Mist 23 1011 100 1609 1.3 185 14:53 28.02.2021
2012 Mist 22 1011 100 1609 1.3 185 14:30 28.02.2021
2013 Mist 22 1010 94 3219 1.04 191 13:52 28.02.2021
2014 Mist 22 1010 94 3219 0.78 199 13:21 28.02.2021
2015 Clear 23 1008 73 10000 0.78 199 12:57 28.02.2021
2016 Clear 23 1008 74 10000 1.34 59 12:39 28.02.2021
2017 Clear 22 1008 73 10000 0.45 284 12:20 28.02.2021
2018 Clear 23 1008 71 10000 0.94 230 11:52 28.02.2021
2019 Clear 23 1008 69 10000 1.14 249 11:26 28.02.2021
2020 Clear 23 1008 69 10000 1.14 249 10:57 28.02.2021
2021 Clear 24 1008 69 10000 0.45 284 10:29 28.02.2021
2022 Clear 24 1008 71 10000 1.29 242 09:56 28.02.2021
2023 Clear 23 1008 71 10000 1.29 242 09:34 28.02.2021
2024 Clear 23 1009 71 10000 1.73 248 08:52 28.02.2021
2025 Clear 23 1009 71 10000 0.89 284 08:33 28.02.2021
2026 Clear 23 1009 70 10000 0.89 284 07:57 28.02.2021
2027 Clear 23 1009 69 10000 0.45 313 07:39 28.02.2021
2028 Clear 24 1011 88 9656 0.63 271 07:19 28.02.2021
2029 Clear 24 1011 88 9656 0.81 323 06:23 28.02.2021
2030 Clear 25 1009 88 9656 0.55 53 03:46 28.02.2021
2031 Clear 25 1008 88 8047 3.6 90 02:20 28.02.2021
2032 Clear 28 1007 65 9656 3.6 100 00:58 28.02.2021
2033 Clear 28 1007 65 9656 3.6 100 00:58 28.02.2021
2034 Clear 29 1007 65 9656 3.6 100 00:37 28.02.2021
2035 Clear 25 1008 80 10000 4.98 76 23:48 27.02.2021
2036 Clear 30 1008 66 8047 4.12 100 23:20 27.02.2021
2037 Clear 30 1008 66 8047 4.12 100 22:49 27.02.2021
2038 Clear 30 1008 66 8047 4.12 100 22:23 27.02.2021
2039 Clear 30 1009 66 8047 4.12 100 21:51 27.02.2021
2040 Clear 30 1009 66 8047 4.12 100 21:33 27.02.2021
2041 Clouds 30 1010 70 8047 2.57 90 20:54 27.02.2021
2042 Clouds 30 1010 70 8047 2.57 90 20:34 27.02.2021
2043 Clouds 30 1011 70 6437 3.6 90 19:56 27.02.2021
2044 Clouds 30 1011 70 6437 3.6 90 19:37 27.02.2021
2045 Clouds 30 1011 70 6437 3.6 90 19:19 27.02.2021
2046 Clouds 28 1012 74 6437 2.06 100 18:37 27.02.2021
2047 Clouds 28 1012 74 6437 2.06 100 18:18 27.02.2021
2048 Clouds 28 1012 74 8047 1.54 160 17:42 27.02.2021
2049 Clouds 28 1012 74 8047 1.54 160 17:19 27.02.2021
2050 Clear 26 1012 88 8047 2.32 117 16:50 27.02.2021
2051 Clear 26 1012 88 8047 2.32 117 16:30 27.02.2021
2052 Mist 24 1012 94 4828 1.6 150 15:49 27.02.2021
2053 Mist 23 1012 94 4828 1.6 150 15:30 27.02.2021
2054 Mist 21 1011 100 3219 1.77 155 14:41 27.02.2021
2055 Mist 21 1011 100 3219 1.34 132 14:23 27.02.2021
2056 Mist 21 1010 100 4828 1.25 128 13:47 27.02.2021
2057 Mist 21 1010 100 4828 0.51 44 13:25 27.02.2021
2058 Clear 21 1008 72 10000 0.51 44 12:49 27.02.2021
2059 Clear 21 1008 72 10000 1.03 292 12:26 27.02.2021
2060 Clear 22 1008 73 10000 0.45 295 11:54 27.02.2021
2061 Clear 22 1009 74 10000 0.45 295 11:31 27.02.2021
2062 Clear 22 1009 74 10000 1.77 271 10:59 27.02.2021
2063 Clear 22 1009 74 10000 1.77 271 10:41 27.02.2021
2064 Clear 22 1009 73 10000 1.98 268 10:18 27.02.2021
2065 Clear 22 1009 73 10000 1.98 268 09:35 27.02.2021
2066 Clear 22 1010 72 10000 0.89 279 08:45 27.02.2021
2067 Clear 22 1010 71 10000 0.45 279 08:24 27.02.2021
2068 Clear 23 1011 71 10000 1.12 247 07:59 27.02.2021
2069 Clear 23 1011 72 10000 1.12 247 07:31 27.02.2021
2070 Clear 24 1009 94 10000 2.57 110 02:31 27.02.2021
2071 Clear 26 1008 78 10000 3.09 110 00:33 27.02.2021
2072 Clouds 28 1008 61 10000 4.12 110 23:43 26.02.2021
2073 Clouds 29 1008 61 10000 4.12 110 23:24 26.02.2021
2074 Clouds 29 1009 61 10000 4.12 100 22:40 26.02.2021
2075 Clouds 29 1009 61 10000 4.12 100 22:21 26.02.2021
2076 Clouds 29 1011 65 10000 3.09 120 21:37 26.02.2021
2077 Clouds 30 1012 66 10000 6.17 70 20:57 26.02.2021
2078 Clouds 30 1012 66 10000 6.17 70 20:38 26.02.2021
2079 Clouds 30 1012 66 10000 6.17 70 20:19 26.02.2021
2080 Clear 32 1013 43 10000 2.06 200 19:27 26.02.2021
2081 Clear 31 1014 48 10000 2.47 118 18:57 26.02.2021
2082 Clear 31 1014 48 10000 2.47 118 18:38 26.02.2021
2083 Clear 31 1014 48 10000 1.44 174 18:19 26.02.2021
2084 Clear 28 1015 65 10000 1.54 180 17:38 26.02.2021
2085 Clear 28 1015 65 10000 1.54 180 17:19 26.02.2021
2086 Clouds 27 1015 78 8047 2.08 199 16:48 26.02.2021
2087 Clouds 26 1015 78 8047 2.08 199 16:30 26.02.2021
2088 Clouds 24 1014 94 6437 1.95 193 15:48 26.02.2021
2089 Clouds 23 1014 94 6437 1.42 174 15:29 26.02.2021
2090 Clouds 21 1014 94 8047 1.42 174 14:59 26.02.2021
2091 Clouds 21 1014 94 8047 1.42 174 14:37 26.02.2021
2092 Clouds 21 1014 94 8047 0.85 126 14:18 26.02.2021
2093 Clouds 21 1013 100 9656 1.03 320 13:39 26.02.2021
2094 Clear 22 1011 73 10000 0.45 339 13:20 26.02.2021
2095 Clear 22 1011 73 10000 0.45 339 13:20 26.02.2021
2096 Clear 22 1011 73 10000 0.68 59 12:33 26.02.2021
2097 Clear 22 1011 74 10000 0.89 339 11:47 26.02.2021
2098 Clear 22 1012 74 10000 0.45 306 11:20 26.02.2021
2099 Clear 22 1012 74 10000 0.45 306 11:20 26.02.2021
2100 Clear 22 1012 74 10000 1 332 10:44 26.02.2021
2101 Clear 22 1012 73 10000 0.99 327 09:49 26.02.2021
2102 Clear 23 1012 72 10000 0.55 292 09:29 26.02.2021
2103 Clear 23 1013 72 10000 0.55 292 08:41 26.02.2021
2104 Clear 23 1014 71 10000 0.29 275 07:59 26.02.2021
2105 Clear 23 1014 71 10000 0.43 342 07:27 26.02.2021
2106 Clouds 23 1016 88 9656 0.55 269 06:35 26.02.2021
2107 Clouds 24 1016 88 10000 0.71 55 05:21 26.02.2021
2108 Clear 24 1014 88 10000 1.03 120 02:54 26.02.2021
2109 Clear 27 1014 69 10000 4.63 100 00:36 26.02.2021
2110 Clear 28 1014 69 10000 2.06 110 23:41 25.02.2021
2111 Clear 28 1014 69 10000 2.06 110 23:21 25.02.2021
2112 Clear 29 1015 65 10000 4.63 90 22:42 25.02.2021
2113 Clouds 29 1016 65 10000 5.14 90 21:56 25.02.2021
2114 Clouds 29 1016 65 10000 5.14 90 21:35 25.02.2021
2115 Clouds 29 1017 65 10000 2.57 80 20:58 25.02.2021
2116 Clouds 30 1017 65 10000 2.57 80 20:38 25.02.2021
2117 Clouds 29 1017 65 10000 2.57 80 20:20 25.02.2021
2118 Clouds 29 1018 62 10000 2.57 50 19:49 25.02.2021
2119 Clouds 30 1018 62 10000 2.57 50 19:21 25.02.2021
2120 Clear 29 1019 65 9656 2.06 110 18:48 25.02.2021
2121 Clear 29 1019 65 9656 2.06 110 18:19 25.02.2021
2122 Clouds 27 1019 74 9656 1.54 70 17:42 25.02.2021
2123 Clouds 27 1019 74 9656 1.54 70 17:23 25.02.2021
2124 Clear 26 1019 78 8047 0.33 97 16:38 25.02.2021
2125 Clear 26 1019 78 8047 0.54 276 16:20 25.02.2021
2126 Clouds 22 1018 94 6437 0.5 245 15:29 25.02.2021
2127 Clouds 21 1018 100 6437 0.5 245 14:41 25.02.2021
2128 Clouds 21 1018 94 8047 1.03 290 14:21 25.02.2021
2129 Clouds 20 1017 100 8047 0.23 214 13:49 25.02.2021
2130 Clouds 20 1017 100 8047 0.72 266 13:24 25.02.2021
2131 Clouds 19 1015 72 10000 0.72 266 12:46 25.02.2021
2132 Clouds 21 1015 73 10000 0.6 268 12:21 25.02.2021
2133 Clouds 21 1015 73 10000 0.6 268 12:21 25.02.2021
2134 Clouds 22 1015 72 10000 0.6 268 11:43 25.02.2021
2135 Clear 22 1015 72 10000 0.94 261 11:18 25.02.2021
2136 Clear 22 1015 72 10000 0.45 296 10:38 25.02.2021
2137 Clear 22 1015 72 10000 1.56 269 09:56 25.02.2021
2138 Clear 22 1015 72 10000 0.89 280 09:38 25.02.2021
2139 Clear 22 1015 72 10000 0.89 280 08:46 25.02.2021
2140 Clear 22 1016 73 10000 0.45 280 08:22 25.02.2021
2141 Clear 22 1016 73 10000 1.06 276 07:43 25.02.2021
2142 Clear 22 1018 94 10000 0.25 311 07:19 25.02.2021
2143 Clear 21 1018 94 10000 0.24 263 06:34 25.02.2021
2144 Clear 25 1014 78 9656 3.6 90 01:52 25.02.2021
2145 Clear 25 1014 78 9656 3.6 90 01:34 25.02.2021
2146 Clear 26 1013 73 9656 6.17 90 00:38 25.02.2021
2147 Clear 28 1013 65 8047 2.06 90 23:46 24.02.2021
2148 Clear 28 1014 69 8047 5.14 90 22:59 24.02.2021
2149 Clear 28 1014 69 8047 5.14 90 22:31 24.02.2021
2150 Clear 29 1015 61 8047 3.6 90 21:57 24.02.2021
2151 Clear 29 1015 61 8047 3.6 90 21:36 24.02.2021
2152 Clear 28 1016 65 8047 4.12 80 20:52 24.02.2021
2153 Clear 28 1016 65 8047 4.12 80 20:29 24.02.2021
2154 Clouds 28 1017 65 8047 2.06 110 19:52 24.02.2021
2155 Clouds 28 1017 65 8047 2.06 110 19:24 24.02.2021
2156 Clouds 28 1018 65 8047 2.57 180 18:54 24.02.2021
2157 Clouds 28 1018 65 8047 2.57 180 18:33 24.02.2021
2158 Clouds 26 1019 78 8047 2 155 17:45 24.02.2021
2159 Clouds 26 1019 78 8047 1.94 199 17:25 24.02.2021
2160 Clear 24 1019 94 6437 1.94 199 16:49 24.02.2021
2161 Clear 23 1019 94 6437 2.25 205 16:22 24.02.2021
2162 Clear 21 1018 100 6437 2.25 205 15:56 24.02.2021
2163 Clear 20 1018 100 6437 2.25 205 15:35 24.02.2021
2164 Mist 18 1018 100 4828 1.97 215 14:52 24.02.2021
2165 Mist 18 1018 100 4828 1.97 215 14:30 24.02.2021
2166 Clouds 17 1017 100 8047 1.93 195 13:55 24.02.2021
2167 Clouds 17 1017 100 8047 1.93 195 13:37 24.02.2021
2168 Clouds 18 1017 100 8047 1.42 187 13:18 24.02.2021
2169 Clear 19 1015 76 10000 0.89 235 12:41 24.02.2021
2170 Clear 19 1015 76 10000 0.45 235 12:23 24.02.2021
2171 Clear 18 1015 76 10000 1.07 171 11:36 24.02.2021
2172 Clear 19 1015 76 10000 0.45 235 10:47 24.02.2021
2173 Clear 19 1015 76 10000 1 153 10:26 24.02.2021
2174 Clear 19 1016 75 10000 0.45 288 09:30 24.02.2021
2175 Clear 18 1016 73 10000 0.45 288 08:52 24.02.2021
2176 Clear 19 1016 73 10000 0.45 288 08:33 24.02.2021
2177 Clear 20 1017 72 10000 0.45 288 07:42 24.02.2021
2178 Clouds 20 1019 100 9656 1.3 289 07:18 24.02.2021
2179 Clouds 21 1019 94 10000 1.61 340 05:27 24.02.2021
2180 Clear 23 1017 88 10000 2.06 10 02:22 24.02.2021
2181 Clear 26 1017 65 10000 4.63 80 23:39 23.02.2021
2182 Clouds 27 1017 65 10000 2.57 60 22:51 23.02.2021
2183 Clouds 27 1017 65 10000 2.57 60 22:23 23.02.2021
2184 Clouds 27 1018 61 10000 5.14 40 21:49 23.02.2021
2185 Clouds 27 1018 61 10000 5.14 40 21:26 23.02.2021
2186 Clouds 27 1019 57 10000 4.12 20 20:59 23.02.2021
2187 Clouds 27 1019 57 10000 4.12 20 20:38 23.02.2021
2188 Clouds 27 1019 57 10000 4.12 20 20:20 23.02.2021
2189 Clouds 27 1020 61 10000 3.09 40 19:44 23.02.2021
2190 Clouds 26 1020 61 10000 3.09 40 19:26 23.02.2021
2191 Clouds 26 1021 57 9656 4.12 350 18:44 23.02.2021
2192 Clouds 26 1021 57 9656 4.12 350 18:25 23.02.2021
2193 Clouds 25 1022 78 9656 1.54 40 17:52 23.02.2021
2194 Clouds 24 1022 78 9656 1.54 40 17:27 23.02.2021
2195 Clouds 23 1021 83 6437 2.06 350 16:46 23.02.2021
2196 Clouds 22 1021 83 6437 2.06 350 16:23 23.02.2021
2197 Mist 21 1020 94 4828 2.35 334 15:49 23.02.2021
2198 Haze 21 1020 94 4828 2.92 330 15:29 23.02.2021
2199 Clouds 20 1020 94 8047 2.92 330 14:50 23.02.2021
2200 Clouds 20 1020 94 8047 3.59 335 14:28 23.02.2021
2201 Clear 20 1020 94 10000 2.06 360 13:59 23.02.2021
2202 Clear 20 1020 94 10000 2.06 360 13:36 23.02.2021
2203 Clouds 21 1018 67 10000 1.79 355 12:57 23.02.2021
2204 Clouds 21 1018 67 10000 2.68 14 12:28 23.02.2021
2205 Clouds 21 1018 67 10000 2.24 12 11:58 23.02.2021
2206 Clouds 21 1018 68 10000 3.13 17 11:28 23.02.2021
2207 Clouds 21 1018 68 10000 0.89 5 10:56 23.02.2021
2208 Clouds 21 1018 68 10000 0.89 347 10:38 23.02.2021
2209 Clouds 21 1018 67 10000 1.79 5 09:58 23.02.2021
2210 Clouds 21 1018 67 10000 1.79 5 09:38 23.02.2021
2211 Clouds 21 1018 66 10000 1.34 355 09:20 23.02.2021
2212 Clouds 21 1018 66 10000 1.34 355 09:20 23.02.2021
2213 Clouds 22 1019 66 10000 0.89 11 08:44 23.02.2021
2214 Clouds 22 1019 65 10000 1.79 360 08:20 23.02.2021
2215 Clouds 22 1022 88 9656 3.09 360 06:52 23.02.2021
2216 Clouds 22 1022 94 9656 3.09 360 05:25 23.02.2021
2217 Clouds 23 1020 78 6437 7.2 20 02:37 23.02.2021
2218 Clouds 23 1019 78 6437 6.69 20 01:55 23.02.2021
2219 Clouds 23 1019 78 6437 6.17 20 00:19 23.02.2021
2220 Clouds 24 1018 73 6437 6.17 360 23:28 22.02.2021
2221 Clouds 24 1019 69 6437 6.17 10 22:42 22.02.2021
2222 Clouds 24 1019 69 6437 6.17 10 22:21 22.02.2021
2223 Clouds 25 1019 65 6437 5.14 20 21:56 22.02.2021
2224 Clouds 25 1019 65 6437 5.14 20 21:37 22.02.2021
2225 Clouds 25 1019 65 6437 5.14 20 21:19 22.02.2021
2226 Clouds 25 1020 61 6437 4.12 30 20:42 22.02.2021
2227 Clouds 25 1020 61 6437 4.12 30 20:23 22.02.2021
2228 Clouds 26 1020 57 6437 3.09 360 19:39 22.02.2021
2229 Clouds 26 1020 57 6437 3.09 360 19:21 22.02.2021
2230 Clouds 25 1021 64 6437 5.82 356 18:46 22.02.2021
2231 Clouds 25 1021 64 6437 4.8 358 18:28 22.02.2021
2232 Clouds 23 1021 83 6437 4.8 358 17:43 22.02.2021
2233 Clouds 22 1021 83 6437 4.52 357 17:18 22.02.2021
2234 Mist 22 1020 83 4828 4.52 357 16:47 22.02.2021
2235 Mist 22 1020 83 4828 4.71 354 16:25 22.02.2021
2236 Mist 20 1019 88 4828 1.54 330 15:31 22.02.2021
2237 Mist 20 1018 88 4828 1.54 320 14:49 22.02.2021
2238 Mist 19 1018 88 4828 1.54 320 14:30 22.02.2021
2239 Clouds 18 1017 94 9656 2.06 20 13:50 22.02.2021
2240 Clouds 18 1017 94 9656 2.06 20 13:25 22.02.2021
2241 Clouds 18 1015 72 10000 0.45 292 12:44 22.02.2021
2242 Clouds 17 1015 70 10000 0.45 292 12:22 22.02.2021
2243 Clouds 17 1015 70 10000 2.08 331 11:45 22.02.2021
2244 Clouds 17 1015 70 10000 1.13 307 11:25 22.02.2021
2245 Clouds 18 1015 70 10000 0.45 292 10:50 22.02.2021
2246 Clouds 17 1014 70 10000 0.45 292 10:31 22.02.2021
2247 Clouds 18 1014 70 10000 0.89 286 09:50 22.02.2021
2248 Clouds 17 1014 68 10000 1.14 259 09:30 22.02.2021
2249 Clouds 18 1014 67 10000 1.83 227 08:58 22.02.2021
2250 Clouds 18 1014 67 10000 1.83 227 08:39 22.02.2021
2251 Clouds 18 1015 67 10000 2.26 213 07:59 22.02.2021
2252 Clouds 18 1015 67 10000 0.89 263 07:27 22.02.2021
2253 Clear 18 1017 94 10000 2.24 185 06:46 22.02.2021
2254 Clear 19 1017 88 10000 2.79 153 05:46 22.02.2021
2255 Clear 21 1016 83 10000 1.03 110 03:48 22.02.2021
2256 Clouds 22 1015 68 10000 1.54 110 02:52 22.02.2021
2257 Clouds 23 1015 73 10000 1.54 90 00:49 22.02.2021
2258 Clouds 23 1015 73 10000 1.54 90 00:24 22.02.2021
2259 Clouds 24 1015 64 10000 3.09 90 23:35 21.02.2021
2260 Clouds 25 1015 61 10000 1.54 110 22:55 21.02.2021
2261 Clouds 25 1015 61 10000 1.54 110 22:24 21.02.2021
2262 Clouds 25 1017 57 10000 3.09 170 21:49 21.02.2021
2263 Clouds 26 1017 57 10000 3.09 170 21:30 21.02.2021
2264 Clouds 25 1018 50 10000 3.6 200 20:49 21.02.2021
2265 Clouds 26 1018 50 10000 3.6 200 20:20 21.02.2021
2266 Clouds 25 1019 53 10000 4.12 200 19:57 21.02.2021
2267 Clouds 26 1019 53 10000 4.12 200 19:36 21.02.2021
2268 Clouds 26 1019 53 10000 4.12 200 19:18 21.02.2021
2269 Clouds 24 1021 60 10000 2.57 190 18:26 21.02.2021
2270 Clear 23 1021 68 10000 2.06 210 17:47 21.02.2021
2271 Clear 22 1021 68 10000 2.06 210 17:20 21.02.2021
2272 Clouds 22 1021 73 10000 4.12 170 16:47 21.02.2021
2273 Clouds 21 1021 73 10000 4.12 170 16:26 21.02.2021
2274 Clouds 16 1021 94 10000 2.64 184 15:25 21.02.2021
2275 Clouds 14 1021 100 10000 1.54 200 14:58 21.02.2021
2276 Clouds 13 1021 100 10000 1.54 200 14:37 21.02.2021
2277 Clouds 13 1021 100 10000 1.54 200 14:37 21.02.2021
2278 Clouds 15 1021 94 10000 1.72 193 13:57 21.02.2021
2279 Clouds 15 1021 94 10000 1.14 212 13:29 21.02.2021
2280 Clouds 15 1019 69 10000 0.89 248 12:49 21.02.2021
2281 Clouds 18 1020 84 10000 0.82 239 12:26 21.02.2021
2282 Clouds 18 1020 84 10000 0.82 239 11:42 21.02.2021
2283 Clouds 16 1019 65 10000 0.93 229 10:48 21.02.2021
2284 Clouds 16 1019 63 10000 0.65 229 10:22 21.02.2021
2285 Clouds 17 1019 61 10000 0.65 229 09:47 21.02.2021
2286 Clouds 18 1020 60 10000 0.27 207 09:25 21.02.2021
2287 Clouds 18 1021 60 10000 0.45 248 08:37 21.02.2021
2288 Clouds 18 1022 59 10000 0.89 248 07:58 21.02.2021
2289 Clouds 18 1022 59 10000 0.45 248 07:23 21.02.2021
2290 Clouds 17 1024 88 10000 0.61 66 06:24 21.02.2021
2291 Clouds 18 1023 82 10000 3.09 20 02:43 21.02.2021
2292 Clouds 20 1022 73 10000 3.6 10 01:22 21.02.2021
2293 Clouds 20 1022 73 10000 3.09 50 00:22 21.02.2021
2294 Clouds 21 1022 68 10000 4.12 60 23:48 20.02.2021
2295 Clouds 21 1023 68 10000 5.14 60 22:58 20.02.2021
2296 Clouds 21 1023 68 10000 5.14 60 22:33 20.02.2021
2297 Clouds 22 1024 64 10000 6.17 80 21:57 20.02.2021
2298 Clouds 22 1024 64 10000 6.17 80 21:39 20.02.2021
2299 Clouds 22 1024 64 10000 6.17 80 21:18 20.02.2021
2300 Clouds 22 1025 60 10000 5.14 360 20:38 20.02.2021
2301 Clouds 22 1025 60 10000 5.14 360 20:19 20.02.2021
2302 Clouds 22 1026 60 10000 2.57 40 19:41 20.02.2021
2303 Clouds 22 1027 64 10000 4.63 340 18:55 20.02.2021
2304 Clouds 21 1027 64 10000 4.63 340 18:33 20.02.2021
2305 Clouds 21 1027 64 10000 4.63 340 18:33 20.02.2021
2306 Clouds 21 1027 64 10000 3.6 20 17:47 20.02.2021
2307 Clouds 21 1027 64 10000 3.6 20 17:28 20.02.2021
2308 Clouds 19 1027 72 9656 1.54 350 16:49 20.02.2021
2309 Clouds 19 1027 72 9656 1.54 350 16:23 20.02.2021
2310 Clouds 17 1027 77 9656 3.79 325 15:42 20.02.2021
2311 Clouds 16 1026 77 9656 3.82 326 14:52 20.02.2021
2312 Clouds 15 1026 77 9656 4.1 335 14:25 20.02.2021
2313 Clouds 15 1026 77 9656 4.1 335 13:58 20.02.2021
2314 Clouds 15 1026 77 9656 4.1 335 13:39 20.02.2021
2315 Clouds 15 1025 55 10000 0.89 336 13:20 20.02.2021
2316 Clouds 14 1025 56 10000 0.45 286 12:36 20.02.2021
2317 Clouds 15 1024 54 10000 0.45 286 11:51 20.02.2021
2318 Clouds 15 1024 54 10000 0.89 286 11:31 20.02.2021
2319 Clouds 16 1024 53 10000 1.79 321 10:50 20.02.2021
2320 Clouds 16 1025 53 10000 2.24 333 10:24 20.02.2021
2321 Clouds 16 1025 53 10000 1.34 324 09:47 20.02.2021
2322 Clouds 17 1026 53 10000 2.24 331 08:56 20.02.2021
2323 Clouds 17 1026 54 10000 4.02 350 08:24 20.02.2021
2324 Clouds 16 1030 72 9656 6.17 10 05:45 20.02.2021
2325 Clouds 16 1028 67 9656 7.72 350 02:32 20.02.2021
2326 Clouds 16 1028 67 9656 9.26 360 01:56 20.02.2021
2327 Clouds 16 1028 67 9656 9.26 360 00:59 20.02.2021
2328 Clouds 17 1027 59 10000 10.29 340 00:36 20.02.2021
2329 Clouds 17 1027 63 9656 10.29 360 23:27 19.02.2021
2330 Clouds 18 1027 55 9656 10.29 10 22:45 19.02.2021
2331 Clouds 18 1027 55 9656 10.29 10 22:20 19.02.2021
2332 Clouds 18 1028 59 9656 10.29 20 21:44 19.02.2021
2333 Clouds 18 1028 59 9656 10.29 20 21:23 19.02.2021
2334 Clouds 19 1028 52 9656 10.29 350 20:42 19.02.2021
2335 Clouds 19 1028 52 9656 10.29 350 20:24 19.02.2021
2336 Clouds 20 1029 52 10000 10.29 340 19:45 19.02.2021
2337 Clouds 20 1029 52 10000 10.29 340 19:20 19.02.2021
2338 Clouds 19 1029 55 10000 10.29 360 18:50 19.02.2021
2339 Clouds 18 1029 55 10000 10.29 360 18:26 19.02.2021
2340 Clouds 18 1029 55 10000 7.72 340 17:36 19.02.2021
2341 Clouds 17 1028 63 10000 7.72 20 16:41 19.02.2021
2342 Clouds 17 1028 63 10000 7.72 20 16:22 19.02.2021
2343 Clouds 17 1027 59 10000 7.72 360 15:54 19.02.2021
2344 Clouds 17 1027 59 10000 7.72 360 15:27 19.02.2021
2345 Clouds 17 1026 59 10000 10.29 360 14:48 19.02.2021
2346 Clouds 17 1026 59 10000 10.29 360 14:27 19.02.2021
2347 Clouds 17 1025 63 8047 10.29 360 13:54 19.02.2021
2348 Clouds 17 1025 63 8047 10.29 360 13:35 19.02.2021
2349 Clouds 18 1023 48 10000 9.83 15 12:52 19.02.2021
2350 Clouds 18 1022 50 10000 8.94 355 12:25 19.02.2021
2351 Clouds 18 1021 51 10000 9.39 360 11:54 19.02.2021
2352 Clouds 18 1021 51 10000 8.49 32 11:26 19.02.2021
2353 Clouds 18 1021 51 10000 11.62 348 10:55 19.02.2021
2354 Clouds 18 1021 50 10000 10.73 333 10:32 19.02.2021
2355 Clouds 19 1021 49 10000 13.41 33 09:52 19.02.2021
2356 Clouds 19 1021 49 10000 13.41 33 09:52 19.02.2021
2357 Clouds 19 1021 51 10000 11.62 5 09:27 19.02.2021
2358 Clouds 19 1021 51 10000 11.62 5 09:27 19.02.2021
2359 Clouds 19 1021 50 10000 11.62 18 08:55 19.02.2021
2360 Clouds 19 1020 50 10000 11.18 5 08:28 19.02.2021
2361 Clouds 19 1021 50 10000 11.62 355 07:54 19.02.2021
2362 Clouds 20 1021 50 10000 11.62 9 07:35 19.02.2021
2363 Clouds 20 1021 68 10000 10.29 360 06:55 19.02.2021
2364 Clouds 20 1021 68 10000 10.29 360 06:27 19.02.2021
2365 Clouds 20 1020 77 10000 7.2 360 04:41 19.02.2021
2366 Clouds 20 1016 77 9656 5.66 10 01:48 19.02.2021
2367 Clouds 21 1015 78 9656 8.23 10 00:37 19.02.2021
2368 Clouds 22 1014 73 8047 9.77 10 23:56 18.02.2021
2369 Clouds 22 1014 73 8047 9.77 10 23:35 18.02.2021
2370 Clouds 22 1014 73 9656 10.29 360 22:51 18.02.2021
2371 Clouds 22 1014 73 9656 10.29 360 22:30 18.02.2021
2372 Clouds 23 1014 73 9656 6.69 10 21:55 18.02.2021
2373 Clouds 23 1014 73 9656 6.69 10 21:27 18.02.2021
2374 Clouds 24 1015 69 9656 8.75 10 20:44 18.02.2021
2375 Clouds 25 1015 69 9656 8.75 10 20:24 18.02.2021
2376 Clouds 25 1015 69 9656 8.75 10 20:24 18.02.2021
2377 Clouds 24 1016 69 9656 4.63 10 19:56 18.02.2021
2378 Clouds 25 1016 69 9656 4.63 10 19:37 18.02.2021
2379 Clouds 25 1016 69 9656 4.63 10 19:18 18.02.2021
2380 Clouds 25 1016 65 9656 5.66 350 18:42 18.02.2021
2381 Clouds 25 1016 65 9656 5.66 350 18:24 18.02.2021
2382 Clouds 24 1016 69 6437 3.09 330 17:42 18.02.2021
2383 Clouds 24 1016 69 6437 3.09 330 17:23 18.02.2021
2384 Mist 22 1016 88 3219 1.54 340 16:41 18.02.2021
2385 Mist 21 1016 88 3219 1.54 340 16:22 18.02.2021
2386 Mist 18 1015 100 3219 6.68 345 15:39 18.02.2021
2387 Mist 18 1015 100 3219 6.25 342 15:21 18.02.2021
2388 Mist 18 1014 94 3219 6.25 342 14:49 18.02.2021
2389 Mist 17 1014 94 3219 5.89 337 14:29 18.02.2021
2390 Clouds 16 1013 100 6437 5.89 337 13:46 18.02.2021
2391 Clouds 16 1013 100 6437 5.59 336 13:20 18.02.2021
2392 Clear 16 1011 74 10000 0.89 225 12:53 18.02.2021
2393 Clear 16 1010 73 10000 6.05 335 12:25 18.02.2021
2394 Clear 17 1010 70 10000 0.89 225 11:47 18.02.2021
2395 Clear 17 1010 70 10000 0.89 225 11:47 18.02.2021
2396 Clear 17 1010 70 10000 0.89 225 11:47 18.02.2021
2397 Clear 17 1010 67 10000 1.34 225 11:27 18.02.2021
2398 Clear 18 1009 63 10000 6 336 10:52 18.02.2021
2399 Clear 19 1009 62 10000 0.89 317 10:31 18.02.2021
2400 Clear 21 1009 58 10000 2.68 5 09:50 18.02.2021
2401 Clear 21 1009 59 10000 3.58 20 09:26 18.02.2021
2402 Clear 21 1009 58 10000 4.47 5 08:48 18.02.2021
2403 Clear 21 1009 59 10000 5.81 11 08:29 18.02.2021
2404 Clear 21 1009 61 10000 4.02 9 07:35 18.02.2021
2405 Clear 20 1011 88 10000 3.09 360 06:58 18.02.2021
2406 Clear 21 1008 88 10000 1.54 10 03:52 18.02.2021
2407 Clear 21 1008 88 10000 1.54 10 03:52 18.02.2021
2408 Clouds 24 1006 65 10000 7.2 20 23:57 17.02.2021
2409 Clouds 24 1006 65 10000 7.2 20 23:37 17.02.2021
2410 Clouds 26 1006 54 9656 4.12 30 22:56 17.02.2021
2411 Clouds 27 1006 54 9656 4.12 30 22:27 17.02.2021
2412 Clouds 28 1007 48 8047 1.54 100 21:57 17.02.2021
2413 Clouds 28 1007 48 8047 1.54 100 21:23 17.02.2021
2414 Clouds 28 1008 51 9656 2.42 50 20:53 17.02.2021
2415 Clouds 28 1008 51 9656 2.42 50 20:33 17.02.2021
2416 Clouds 26 1009 61 8047 2.57 160 19:52 17.02.2021
2417 Clouds 26 1009 61 8047 2.57 160 19:34 17.02.2021
2418 Clouds 25 1010 69 8047 3.6 180 18:50 17.02.2021
2419 Clouds 24 1010 69 8047 3.6 180 18:31 17.02.2021
2420 Clouds 22 1010 78 8047 2.57 160 17:42 17.02.2021
2421 Clouds 22 1010 78 8047 2.57 160 17:21 17.02.2021
2422 Clouds 21 1010 83 8047 3.89 180 16:49 17.02.2021
2423 Clouds 21 1010 83 8047 4.05 184 16:28 17.02.2021
2424 Clouds 20 1010 88 8047 4.05 184 15:45 17.02.2021
2425 Clouds 20 1010 88 8047 3.91 192 15:27 17.02.2021
2426 Clouds 20 1010 88 8047 3.91 192 15:27 17.02.2021
2427 Clouds 19 1010 88 8047 3.91 192 14:51 17.02.2021
2428 Clouds 18 1010 94 8047 3.99 194 14:29 17.02.2021
2429 Clouds 18 1009 94 9656 3.99 194 13:52 17.02.2021
2430 Clouds 18 1009 94 9656 3.99 194 13:33 17.02.2021
2431 Clouds 18 1007 71 10000 0.45 219 12:57 17.02.2021
2432 Clouds 18 1008 71 10000 0.89 225 12:26 17.02.2021
2433 Clouds 18 1008 71 10000 0.89 216 11:47 17.02.2021
2434 Clouds 18 1008 70 10000 0.89 243 11:29 17.02.2021
2435 Clouds 18 1008 70 10000 0.45 238 10:50 17.02.2021
2436 Clouds 19 1008 70 10000 0.89 240 10:31 17.02.2021
2437 Clouds 18 1009 70 10000 3.05 210 09:58 17.02.2021
2438 Clouds 19 1009 69 10000 0.45 240 09:37 17.02.2021
2439 Clouds 19 1009 68 10000 1.34 265 08:49 17.02.2021
2440 Clouds 19 1010 68 10000 0.45 256 08:23 17.02.2021
2441 Clouds 19 1010 68 10000 0.89 244 07:55 17.02.2021
2442 Clouds 19 1013 88 10000 2.54 196 06:37 17.02.2021
2443 Clouds 19 1013 88 10000 2.54 196 06:37 17.02.2021
2444 Clouds 20 1013 77 10000 1.03 130 03:52 17.02.2021
2445 Clouds 20 1013 82 10000 2.1 84 02:31 17.02.2021
2446 Clouds 20 1013 77 10000 2.73 69 01:35 17.02.2021
2447 Clouds 20 1013 77 10000 3.09 60 00:28 17.02.2021
2448 Clouds 20 1014 73 10000 1.54 90 23:39 16.02.2021
2449 Clouds 21 1014 68 10000 2.57 70 22:47 16.02.2021
2450 Clouds 21 1014 68 10000 2.57 70 22:27 16.02.2021
2451 Clouds 22 1016 64 10000 2.06 90 21:59 16.02.2021
2452 Clouds 22 1016 64 10000 2.06 90 21:39 16.02.2021
2453 Clouds 22 1016 64 10000 2.06 90 21:21 16.02.2021
2454 Clouds 22 1017 64 10000 2.71 48 20:55 16.02.2021
2455 Clouds 22 1017 64 10000 2.12 24 20:24 16.02.2021
2456 Clouds 21 1019 64 10000 1.03 310 19:50 16.02.2021
2457 Clouds 21 1019 64 10000 1.03 310 19:29 16.02.2021
2458 Clouds 20 1020 64 10000 1.54 360 18:53 16.02.2021
2459 Clouds 21 1020 64 10000 1.54 360 18:27 16.02.2021
2460 Clouds 20 1021 68 10000 1.6 319 17:58 16.02.2021
2461 Clouds 19 1021 68 10000 1.6 319 17:38 16.02.2021
2462 Clouds 19 1021 68 10000 2.63 314 17:20 16.02.2021
2463 Clouds 18 1020 72 10000 2.63 314 16:44 16.02.2021
2464 Clouds 18 1020 72 10000 2.81 313 16:21 16.02.2021
2465 Clouds 17 1020 82 10000 2.81 313 15:42 16.02.2021
2466 Clouds 17 1020 82 10000 2.71 312 15:24 16.02.2021
2467 Clouds 16 1019 88 10000 2.71 312 14:42 16.02.2021
2468 Clouds 16 1019 88 10000 3.37 323 14:24 16.02.2021
2469 Clouds 17 1019 77 10000 3.37 323 13:47 16.02.2021
2470 Clouds 17 1019 77 10000 3.86 330 13:22 16.02.2021
2471 Clouds 17 1017 63 10000 3.13 27 12:43 16.02.2021
2472 Clouds 17 1017 63 10000 3.13 27 12:20 16.02.2021
2473 Clouds 17 1017 63 10000 4.02 17 11:44 16.02.2021
2474 Clouds 17 1017 63 10000 4.02 17 11:22 16.02.2021
2475 Clouds 17 1017 64 10000 4.47 5 10:49 16.02.2021
2476 Clouds 17 1018 64 10000 4.02 25 10:30 16.02.2021
2477 Clouds 17 1018 64 10000 4.47 26 09:55 16.02.2021
2478 Clouds 18 1018 63 10000 3.58 36 09:29 16.02.2021
2479 Clouds 18 1018 63 10000 3.58 36 08:53 16.02.2021
2480 Clouds 18 1019 63 10000 3.13 22 08:32 16.02.2021
2481 Clouds 18 1019 62 10000 4.02 26 07:59 16.02.2021
2482 Clouds 17 1021 77 10000 5.14 350 06:58 16.02.2021
2483 Clouds 17 1020 77 10000 7.72 360 03:20 16.02.2021
2484 Clouds 18 1018 72 10000 6.17 350 00:35 16.02.2021
2485 Clouds 18 1018 32 10000 5.14 10 23:30 15.02.2021
2486 Clouds 19 1018 68 10000 6.17 360 22:51 15.02.2021
2487 Clouds 20 1018 68 10000 6.17 360 22:33 15.02.2021
2488 Clouds 20 1018 64 10000 6.17 360 21:55 15.02.2021
2489 Clouds 21 1018 64 10000 6.17 360 21:36 15.02.2021
2490 Clouds 20 1018 64 10000 6.17 360 21:18 15.02.2021
2491 Clouds 21 1019 60 10000 6.17 360 20:41 15.02.2021
2492 Clouds 21 1019 60 10000 6.17 360 20:19 15.02.2021
2493 Clouds 21 1019 68 10000 6.17 10 19:42 15.02.2021
2494 Clouds 21 1019 68 10000 6.17 10 19:18 15.02.2021
2495 Clouds 20 1019 68 10000 6.17 360 18:42 15.02.2021
2496 Clouds 20 1019 68 10000 6.17 360 18:18 15.02.2021
2497 Clouds 20 1018 68 9656 7.72 350 17:41 15.02.2021
2498 Clouds 20 1018 68 9656 7.72 350 17:21 15.02.2021
2499 Clouds 20 1017 77 9656 6.17 360 16:47 15.02.2021
2500 Clouds 19 1017 77 9656 6.17 360 16:26 15.02.2021
2501 Clouds 19 1016 77 9656 7.72 360 15:46 15.02.2021
2502 Clouds 19 1016 77 9656 7.72 360 15:21 15.02.2021
2503 Clouds 20 1015 73 9656 6.17 360 14:49 15.02.2021
2504 Clouds 20 1015 73 9656 6.17 360 14:49 15.02.2021
2505 Clouds 20 1015 73 9656 6.17 360 14:21 15.02.2021
2506 Clouds 20 1014 73 8047 6.17 360 13:50 15.02.2021
2507 Clouds 20 1014 73 8047 6.17 360 13:28 15.02.2021
2508 Clouds 22 1011 59 10000 9.83 355 12:52 15.02.2021
2509 Clouds 22 1011 59 10000 8.49 34 12:33 15.02.2021
2510 Clouds 21 1011 62 10000 4.47 344 11:54 15.02.2021
2511 Clouds 21 1010 64 10000 5.36 15 11:28 15.02.2021
2512 Clouds 21 1010 63 10000 4.92 360 10:58 15.02.2021
2513 Clouds 21 1010 64 10000 4.47 360 10:40 15.02.2021
2514 Clouds 21 1010 64 10000 4.92 360 10:21 15.02.2021
2515 Clouds 21 1010 65 10000 4.92 355 09:51 15.02.2021
2516 Clouds 21 1010 67 10000 4.47 5 09:32 15.02.2021
2517 Clouds 21 1010 69 10000 3.58 343 08:34 15.02.2021
2518 Clouds 21 1010 69 10000 4.47 355 07:32 15.02.2021
2519 Clouds 21 1011 94 9656 2.06 350 06:42 15.02.2021
2520 Clouds 21 1014 94 10000 2.06 20 04:58 15.02.2021
2521 Clear 21 1009 88 10000 1.54 60 02:21 15.02.2021
2522 Clear 24 1008 69 10000 2.06 80 00:24 15.02.2021
2523 Clouds 24 1009 69 10000 4.22 33 23:30 14.02.2021
2524 Clouds 24 1009 69 10000 3.09 70 22:51 14.02.2021
2525 Clouds 24 1009 69 10000 3.09 70 22:30 14.02.2021
2526 Clouds 24 1010 69 9656 2.57 80 21:55 14.02.2021
2527 Clouds 24 1010 69 9656 2.57 80 21:32 14.02.2021
2528 Clouds 24 1012 69 9656 1.54 50 20:56 14.02.2021
2529 Clouds 24 1012 69 9656 1.54 50 20:31 14.02.2021
2530 Clouds 24 1013 64 9656 1.54 50 19:57 14.02.2021
2531 Clouds 24 1013 64 9656 1.54 50 19:35 14.02.2021
2532 Clouds 23 1014 73 9656 3.6 50 18:45 14.02.2021
2533 Clouds 22 1014 73 9656 3.6 50 18:24 14.02.2021
2534 Clouds 22 1014 73 9656 3.6 40 17:45 14.02.2021
2535 Clouds 22 1014 73 9656 3.6 40 17:25 14.02.2021
2536 Clouds 22 1014 73 9656 3.6 360 16:40 14.02.2021
2537 Clouds 22 1014 73 9656 3.6 360 16:20 14.02.2021
2538 Clouds 21 1013 83 9656 2.06 350 15:44 14.02.2021
2539 Clouds 20 1013 77 8047 2.06 360 14:59 14.02.2021
2540 Clouds 20 1013 77 8047 2.06 360 14:32 14.02.2021
2541 Clouds 20 1012 77 9656 3.09 20 13:57 14.02.2021
2542 Clouds 20 1012 77 9656 3.09 20 13:32 14.02.2021
2543 Clouds 20 1010 64 10000 3.58 14 12:49 14.02.2021
2544 Clouds 20 1010 65 10000 0.89 305 12:22 14.02.2021
2545 Clouds 20 1010 63 10000 1.34 360 11:51 14.02.2021
2546 Clouds 21 1010 65 10000 0.89 355 11:24 14.02.2021
2547 Clouds 21 1010 61 10000 1.79 335 10:49 14.02.2021
2548 Clouds 22 1010 61 10000 4.47 14 09:57 14.02.2021
2549 Clouds 22 1011 62 10000 2.24 360 09:38 14.02.2021
2550 Clouds 22 1011 62 10000 2.24 360 09:20 14.02.2021
2551 Clouds 22 1011 65 10000 3.58 360 08:40 14.02.2021
2552 Clouds 21 1011 67 10000 3.13 9 07:56 14.02.2021
2553 Clouds 21 1013 83 10000 3.6 10 06:51 14.02.2021
2554 Clouds 21 1013 88 10000 1.54 10 05:42 14.02.2021
2555 Clouds 20 1012 88 10000 3.6 10 03:31 14.02.2021
2556 Clouds 21 1012 83 10000 5.66 20 01:57 14.02.2021
2557 Clouds 22 1011 78 10000 4.12 10 00:47 14.02.2021
2558 Clouds 22 1011 78 10000 4.12 10 00:26 14.02.2021
2559 Clouds 23 1011 68 10000 6.69 30 23:40 13.02.2021
2560 Clouds 23 1011 68 10000 6.69 30 23:20 13.02.2021
2561 Clouds 23 1012 68 10000 7.72 30 22:41 13.02.2021
2562 Clouds 23 1012 68 10000 7.72 30 22:18 13.02.2021
2563 Clouds 23 1012 68 10000 6.17 360 21:42 13.02.2021
2564 Clouds 23 1013 68 10000 6.69 30 20:53 13.02.2021
2565 Clouds 23 1013 68 10000 6.69 30 20:28 13.02.2021
2566 Clouds 23 1014 68 10000 4.63 10 19:51 13.02.2021
2567 Clouds 23 1014 68 10000 4.63 10 19:25 13.02.2021
2568 Clouds 23 1014 68 10000 4.12 340 18:54 13.02.2021
2569 Clouds 23 1014 68 10000 4.12 340 18:34 13.02.2021
2570 Clouds 22 1015 78 10000 3.6 360 17:46 13.02.2021
2571 Clouds 21 1015 78 10000 3.6 360 17:26 13.02.2021
2572 Clouds 21 1014 83 10000 2.57 10 16:59 13.02.2021
2573 Clouds 20 1014 83 10000 2.57 10 16:41 13.02.2021
2574 Clouds 20 1014 88 10000 3.7 340 15:57 13.02.2021
2575 Clouds 20 1014 88 10000 3.25 340 15:27 13.02.2021
2576 Clouds 20 1013 82 10000 2.06 360 14:41 13.02.2021
2577 Clouds 20 1013 82 10000 2.06 360 14:19 13.02.2021
2578 Clouds 20 1013 88 9656 2.97 337 13:40 13.02.2021
2579 Clouds 20 1013 88 9656 2.31 327 13:22 13.02.2021
2580 Clouds 19 1010 71 10000 0.45 336 12:37 13.02.2021
2581 Clouds 19 1010 71 10000 0.45 336 12:18 13.02.2021
2582 Clouds 19 1010 73 10000 0.89 304 11:40 13.02.2021
2583 Clouds 19 1010 73 10000 0.89 304 11:18 13.02.2021
2584 Clouds 18 1010 73 10000 1.34 309 10:43 13.02.2021
2585 Clouds 18 1010 73 10000 1.34 309 10:23 13.02.2021
2586 Clouds 18 1011 73 10000 1.79 303 09:48 13.02.2021
2587 Clouds 18 1011 72 10000 1.79 355 09:28 13.02.2021
2588 Clouds 18 1011 72 10000 1.79 328 08:50 13.02.2021
2589 Clouds 18 1011 71 10000 1.79 343 08:19 13.02.2021
2590 Clouds 19 1011 68 10000 1.79 350 07:23 13.02.2021
2591 Clouds 20 1013 77 10000 5.14 350 06:24 13.02.2021
2592 Clouds 20 1013 77 10000 5.14 10 05:18 13.02.2021
2593 Clouds 20 1011 77 9656 6.17 350 02:44 13.02.2021
2594 Clouds 21 1010 78 8047 10.29 360 00:56 13.02.2021
2595 Clouds 21 1010 78 8047 10.29 360 00:56 13.02.2021
2596 Clouds 21 1010 78 8047 10.29 360 00:18 13.02.2021
2597 Clouds 23 1009 68 8047 10.29 10 23:45 12.02.2021
2598 Clouds 23 1009 68 8047 10.29 10 23:18 12.02.2021
2599 Clouds 23 1009 68 8047 10.29 360 22:32 12.02.2021
2600 Clouds 24 1010 69 8047 7.72 360 21:58 12.02.2021
2601 Clouds 24 1010 69 8047 7.72 360 21:39 12.02.2021
2602 Clouds 24 1010 69 8047 7.72 360 21:21 12.02.2021
2603 Clouds 25 1010 61 8047 7.72 10 20:40 12.02.2021
2604 Clouds 26 1010 61 8047 7.72 10 20:21 12.02.2021
2605 Clouds 26 1011 61 8047 7.72 360 19:49 12.02.2021
2606 Clouds 26 1011 61 8047 7.72 360 19:28 12.02.2021
2607 Clouds 26 1011 61 8047 7.72 360 18:35 12.02.2021
2608 Clouds 26 1011 61 8047 7.72 360 17:56 12.02.2021
2609 Clouds 25 1011 69 8047 5.14 360 17:35 12.02.2021
2610 Clouds 25 1010 73 8047 5.14 360 16:53 12.02.2021
2611 Clouds 25 1010 73 8047 5.14 360 16:18 12.02.2021
2612 Clouds 24 1009 83 6437 6.17 360 15:41 12.02.2021
2613 Clouds 24 1009 83 6437 6.17 360 15:19 12.02.2021
2614 Mist 24 1009 94 4023 2.06 350 14:34 12.02.2021
2615 Mist 24 1008 94 4828 1.54 360 13:49 12.02.2021
2616 Mist 24 1008 94 4828 1.54 360 13:29 12.02.2021
2617 Clouds 23 1009 91 10000 4.33 346 12:53 12.02.2021
2618 Clouds 24 1006 75 10000 1.34 5 12:35 12.02.2021
2619 Clouds 24 1006 75 10000 0.89 344 11:47 12.02.2021
2620 Clouds 24 1006 75 10000 1.34 348 11:21 12.02.2021
2621 Clouds 24 1006 75 10000 0.89 360 10:48 12.02.2021
2622 Clouds 24 1006 75 10000 0.45 342 09:59 12.02.2021
2623 Clouds 24 1006 74 10000 0.89 342 09:39 12.02.2021
2624 Clouds 24 1006 74 10000 0.89 342 09:21 12.02.2021
2625 Clouds 24 1006 74 10000 0.89 351 08:44 12.02.2021
2626 Clouds 24 1007 73 10000 1.34 35 08:21 12.02.2021
2627 Clouds 24 1007 73 10000 1.34 35 07:51 12.02.2021
2628 Clouds 24 1007 73 10000 1.34 35 07:51 12.02.2021
2629 Mist 24 1008 94 4828 0.64 37 07:21 12.02.2021
2630 Mist 25 1008 94 4828 0.76 28 06:49 12.02.2021
2631 Clouds 25 1008 94 6437 2.57 60 05:29 12.02.2021
2632 Clouds 25 1007 94 6437 2.06 360 03:32 12.02.2021
2633 Clear 28 1005 69 8047 2.57 70 00:28 12.02.2021
2634 Clear 29 1005 65 8047 5.14 90 23:23 11.02.2021
2635 Clear 29 1006 65 8047 4.12 80 22:59 11.02.2021
2636 Clear 29 1006 65 8047 4.12 80 22:41 11.02.2021
2637 Clear 29 1006 65 8047 4.12 80 22:22 11.02.2021
2638 Clouds 30 1006 66 6437 4.43 65 21:43 11.02.2021
2639 Clouds 30 1006 66 6437 4.4 74 21:24 11.02.2021
2640 Clouds 29 1008 70 6437 2.57 70 20:47 11.02.2021
2641 Clouds 29 1008 70 6437 2.57 70 20:23 11.02.2021
2642 Clouds 29 1009 65 6437 4.07 85 19:52 11.02.2021
2643 Clouds 29 1009 65 6437 4.07 85 19:34 11.02.2021
2644 Clouds 28 1010 69 6437 3.09 160 18:59 11.02.2021
2645 Clouds 28 1010 69 6437 3.09 160 18:31 11.02.2021
2646 Clouds 28 1011 74 6437 2.02 151 17:58 11.02.2021
2647 Clouds 27 1011 74 6437 2.02 151 17:37 11.02.2021
2648 Clouds 27 1011 74 6437 2.19 179 17:19 11.02.2021
2649 Mist 26 1011 78 4828 2.19 179 16:41 11.02.2021
2650 Mist 26 1011 78 4828 1.81 179 16:23 11.02.2021
2651 Mist 25 1011 88 4828 1.81 179 15:44 11.02.2021
2652 Mist 25 1011 88 4828 1.81 179 15:44 11.02.2021
2653 Mist 24 1011 88 4828 1.3 185 15:26 11.02.2021
2654 Mist 23 1010 94 4828 1.3 185 14:51 11.02.2021
2655 Haze 23 1010 94 4828 1.3 185 14:30 11.02.2021
2656 Clouds 23 1009 94 9656 1.11 215 13:42 11.02.2021
2657 Clouds 23 1008 73 10000 1.32 244 13:19 11.02.2021
2658 Clouds 23 1007 73 10000 0.45 289 12:53 11.02.2021
2659 Clouds 23 1007 73 10000 1.32 244 12:30 11.02.2021
2660 Clouds 23 1007 73 10000 2.11 247 11:47 11.02.2021
2661 Clouds 23 1008 73 10000 0.89 281 11:25 11.02.2021
2662 Clouds 24 1008 73 10000 0.45 288 10:45 11.02.2021
2663 Clouds 24 1008 74 10000 0.45 288 10:26 11.02.2021
2664 Clouds 24 1008 75 10000 0.89 288 09:54 11.02.2021
2665 Clear 23 1008 75 10000 1.37 196 09:24 11.02.2021
2666 Clear 23 1009 75 10000 0.45 271 08:53 11.02.2021
2667 Clear 23 1009 73 10000 0.45 281 08:24 11.02.2021
2668 Clear 23 1009 73 10000 0.45 281 07:38 11.02.2021
2669 Clouds 23 1012 94 9656 1.03 170 06:41 11.02.2021
2670 Clouds 24 1012 94 9656 1.03 340 05:33 11.02.2021
2671 Clear 24 1010 88 8047 1.03 100 02:29 11.02.2021
2672 Clear 26 1008 63 10000 2.24 112 00:54 11.02.2021
2673 Clear 27 1008 60 10000 2.68 113 00:21 11.02.2021
2674 Clear 27 1008 59 10000 4.02 88 23:44 10.02.2021
2675 Clouds 28 1008 59 10000 4.02 99 22:53 10.02.2021
2676 Clouds 28 1008 59 10000 4.02 99 22:53 10.02.2021
2677 Clouds 28 1008 58 10000 4.02 87 22:29 10.02.2021
2678 Clouds 28 1011 69 9656 3.33 87 21:59 10.02.2021
2679 Clouds 28 1011 69 9656 3.33 87 21:38 10.02.2021
2680 Clouds 28 1011 69 9656 3.31 96 21:19 10.02.2021
2681 Clouds 27 1012 74 8047 2.57 60 20:40 10.02.2021
2682 Clouds 27 1012 74 8047 2.57 60 20:22 10.02.2021
2683 Clouds 27 1014 74 9656 2.62 96 19:45 10.02.2021
2684 Clouds 27 1014 74 9656 1.25 91 19:24 10.02.2021
2685 Clouds 28 1014 69 8047 1.03 100 18:42 10.02.2021
2686 Clouds 28 1014 69 8047 1.03 100 18:22 10.02.2021
2687 Clouds 26 1015 78 6437 0.79 229 17:55 10.02.2021
2688 Clouds 26 1015 78 6437 1.66 256 17:24 10.02.2021
2689 Clouds 26 1015 78 6437 1.66 256 17:24 10.02.2021
2690 Mist 25 1015 88 4828 1.66 256 16:53 10.02.2021
2691 Mist 25 1015 88 4828 1.66 256 16:31 10.02.2021
2692 Mist 24 1015 94 4828 1.6 252 15:55 10.02.2021
2693 Mist 23 1015 94 4828 0.87 238 15:23 10.02.2021
2694 Mist 22 1014 94 1609 0.87 238 14:47 10.02.2021
2695 Mist 22 1014 94 1609 0.18 93 14:29 10.02.2021
2696 Mist 22 1014 100 4828 0.18 93 13:52 10.02.2021
2697 Mist 22 1014 100 4828 0.65 49 13:28 10.02.2021
2698 Clouds 23 1012 74 10000 0.89 197 12:50 10.02.2021
2699 Clouds 23 1011 74 10000 0.87 68 12:30 10.02.2021
2700 Clouds 23 1011 74 10000 0.87 68 12:30 10.02.2021
2701 Clouds 23 1011 74 10000 0.98 46 11:54 10.02.2021
2702 Clouds 23 1011 73 10000 0.98 46 11:36 10.02.2021
2703 Clouds 23 1011 73 10000 1.16 21 11:18 10.02.2021
2704 Clouds 23 1012 73 10000 1.09 344 10:22 10.02.2021
2705 Clouds 24 1012 73 10000 1.09 344 09:45 10.02.2021
2706 Clouds 24 1012 73 10000 1.24 340 09:26 10.02.2021
2707 Clouds 24 1013 73 10000 1.34 281 08:51 10.02.2021
2708 Clouds 24 1013 73 10000 0.89 296 08:30 10.02.2021
2709 Clouds 24 1016 100 8047 1.54 350 07:25 10.02.2021
2710 Clouds 24 1015 94 8047 1.54 360 05:40 10.02.2021
2711 Clouds 25 1013 88 6437 5.14 50 01:21 10.02.2021
2712 Clear 28 1012 69 8047 5.14 70 23:45 09.02.2021
2713 Clear 28 1012 69 8047 5.14 70 23:27 09.02.2021
2714 Clear 28 1013 65 8047 5.14 20 22:42 09.02.2021
2715 Clear 28 1013 65 8047 5.14 20 22:23 09.02.2021
2716 Clear 29 1014 61 8047 5.14 30 21:47 09.02.2021
2717 Clear 29 1014 61 8047 5.14 30 21:21 09.02.2021
2718 Clear 29 1014 61 6437 4.63 20 20:43 09.02.2021
2719 Clear 29 1014 61 6437 4.63 20 20:24 09.02.2021
2720 Haze 28 1016 74 4828 2.57 10 19:44 09.02.2021
2721 Haze 27 1016 74 4828 2.57 10 19:22 09.02.2021
2722 Clouds 27 1014 62 10000 1.79 53 18:44 09.02.2021
2723 Clouds 27 1014 62 10000 3.13 32 18:26 09.02.2021
2724 Haze 26 1016 83 3219 2.06 350 17:49 09.02.2021
2725 Haze 26 1016 83 3219 2.06 350 17:27 09.02.2021
2726 Mist 24 1016 94 1609 3.78 358 16:53 09.02.2021
2727 Mist 24 1016 94 1609 4.17 357 16:20 09.02.2021
2728 Mist 22 1015 94 1609 4.17 357 15:51 09.02.2021
2729 Mist 22 1015 94 1609 4.17 357 15:31 09.02.2021
2730 Mist 21 1014 94 1609 4.01 357 14:59 09.02.2021
2731 Mist 21 1014 94 1609 4.01 357 14:36 09.02.2021
2732 Mist 20 1014 94 1609 3.11 4 14:18 09.02.2021
2733 Clouds 20 1013 100 8047 3.11 4 13:40 09.02.2021
2734 Clouds 20 1013 100 8047 2.63 323 13:20 09.02.2021
2735 Clouds 21 1011 75 10000 1.34 332 12:43 09.02.2021
2736 Clouds 21 1011 75 10000 2.53 309 12:23 09.02.2021
2737 Clouds 22 1011 74 10000 2.53 309 11:44 09.02.2021
2738 Clouds 21 1011 73 10000 2.12 301 11:21 09.02.2021
2739 Clouds 22 1011 73 10000 0.45 297 10:57 09.02.2021
2740 Clouds 22 1011 72 10000 1.34 297 10:20 09.02.2021
2741 Clouds 23 1011 71 10000 1.34 292 09:51 09.02.2021
2742 Clouds 23 1011 71 10000 0.89 301 09:26 09.02.2021
2743 Clouds 23 1011 71 10000 0.89 281 08:53 09.02.2021
2744 Clouds 23 1011 71 10000 1.34 290 08:28 09.02.2021
2745 Clouds 23 1012 74 10000 0.45 307 07:39 09.02.2021
2746 Clear 23 1012 94 8047 1.54 90 04:59 09.02.2021
2747 Clear 23 1011 94 8047 1.03 130 03:45 09.02.2021
2748 Clear 25 1010 73 9656 1.03 130 01:38 09.02.2021
2749 Clouds 26 1009 69 9656 3.09 100 23:58 08.02.2021
2750 Clouds 26 1009 69 9656 3.09 100 23:22 08.02.2021
2751 Clouds 27 1010 73 9656 3.09 100 22:56 08.02.2021
2752 Clouds 26 1010 73 9656 3.09 100 22:38 08.02.2021
2753 Clouds 26 1010 73 9656 3.09 100 22:20 08.02.2021
2754 Clouds 28 1011 65 9656 3.09 80 21:38 08.02.2021
2755 Clouds 28 1011 65 9656 3.09 80 21:19 08.02.2021
2756 Clouds 28 1012 61 8047 1.54 190 20:44 08.02.2021
2757 Clouds 28 1012 61 8047 1.54 190 20:44 08.02.2021
2758 Clouds 28 1012 61 8047 1.54 190 20:23 08.02.2021
2759 Clouds 27 1014 65 8047 4.12 170 19:49 08.02.2021
2760 Clouds 27 1014 65 8047 4.12 170 19:27 08.02.2021
2761 Clouds 27 1015 65 8047 2.57 220 18:50 08.02.2021
2762 Clouds 27 1015 65 8047 2.57 220 18:50 08.02.2021
2763 Clouds 26 1015 65 8047 2.57 220 18:25 08.02.2021
2764 Clouds 26 1015 73 6437 2.57 180 17:47 08.02.2021
2765 Clouds 25 1015 73 6437 2.57 180 17:27 08.02.2021
2766 Mist 23 1014 88 4828 2.06 210 16:57 08.02.2021
2767 Haze 23 1014 88 4828 2.06 210 16:39 08.02.2021
2768 Haze 23 1014 88 4828 2.06 210 16:18 08.02.2021
2769 Mist 21 1014 94 3219 2.38 186 15:37 08.02.2021
2770 Mist 21 1014 94 3219 2.44 209 15:18 08.02.2021
2771 Haze 20 1013 100 3219 2.44 209 14:48 08.02.2021
2772 Mist 19 1013 100 3219 2.19 220 14:28 08.02.2021
2773 Clear 19 1013 100 6437 2.19 220 13:46 08.02.2021
2774 Clear 19 1013 100 6437 1.64 222 13:27 08.02.2021
2775 Clear 19 1011 76 10000 0.45 254 12:39 08.02.2021
2776 Clear 20 1011 76 10000 1.34 220 11:58 08.02.2021
2777 Clear 19 1011 76 10000 0.89 210 11:35 08.02.2021
2778 Clear 20 1011 75 10000 1.78 215 10:46 08.02.2021
2779 Clear 19 1011 75 10000 0.45 210 10:26 08.02.2021
2780 Clear 20 1011 72 10000 2.21 218 09:56 08.02.2021
2781 Clear 21 1011 73 10000 2.21 218 09:36 08.02.2021
2782 Clear 21 1011 73 10000 2.21 218 09:36 08.02.2021
2783 Clear 21 1011 73 10000 2.21 218 09:36 08.02.2021
2784 Clear 21 1012 71 10000 0.89 210 08:55 08.02.2021
2785 Clear 21 1012 70 10000 1.34 211 08:26 08.02.2021
2786 Clear 21 1012 71 10000 0.89 220 07:40 08.02.2021
2787 Clouds 21 1015 94 9656 1.54 190 06:33 08.02.2021
2788 Clouds 22 1015 88 9656 0.65 122 04:56 08.02.2021
2789 Clouds 23 1014 83 8047 1.54 50 02:26 08.02.2021
2790 Clouds 24 1014 78 6437 2.57 50 00:25 08.02.2021
2791 Clouds 25 1014 73 6437 4.12 50 23:53 07.02.2021
2792 Clouds 25 1014 73 6437 4.12 50 23:28 07.02.2021
2793 Clouds 25 1014 73 6437 6.17 50 22:56 07.02.2021
2794 Clouds 25 1014 73 6437 6.17 50 22:38 07.02.2021
2795 Clouds 25 1014 73 6437 6.17 50 22:19 07.02.2021
2796 Clouds 26 1015 73 6437 7.2 40 21:49 07.02.2021
2797 Clouds 26 1015 73 6437 7.2 40 21:24 07.02.2021
2798 Clouds 25 1016 73 6437 6.17 10 20:49 07.02.2021
2799 Clouds 25 1016 73 6437 6.17 10 20:27 07.02.2021
2800 Clouds 26 1016 73 6437 8.23 10 19:47 07.02.2021
2801 Clouds 26 1016 73 6437 8.23 10 19:28 07.02.2021
2802 Haze 26 1017 78 4828 6.17 360 18:45 07.02.2021
2803 Haze 26 1017 78 4828 6.17 360 18:27 07.02.2021
2804 Mist 25 1017 83 4828 6.17 10 17:57 07.02.2021
2805 Mist 25 1017 83 4828 6.17 10 17:38 07.02.2021
2806 Mist 24 1017 83 4828 6.17 10 17:18 07.02.2021
2807 Clouds 24 1016 83 6437 7.2 30 16:41 07.02.2021
2808 Clouds 24 1016 83 6437 7.2 30 16:20 07.02.2021
2809 Clouds 24 1016 78 6437 7.2 20 15:44 07.02.2021
2810 Clouds 24 1016 78 6437 7.2 20 15:21 07.02.2021
2811 Clouds 24 1015 83 8047 7.2 20 14:44 07.02.2021
2812 Clouds 23 1015 83 8047 7.2 20 14:26 07.02.2021
2813 Clouds 24 1015 78 9656 8.75 360 13:45 07.02.2021
2814 Clouds 24 1015 78 9656 8.75 360 13:26 07.02.2021
2815 Clouds 24 1013 62 10000 5.36 32 12:40 07.02.2021
2816 Clouds 24 1012 63 10000 7.6 28 12:21 07.02.2021
2817 Clouds 24 1012 64 10000 6.71 32 11:42 07.02.2021
2818 Clouds 24 1012 64 10000 6.26 30 11:24 07.02.2021
2819 Clouds 24 1012 63 10000 6.71 41 10:30 07.02.2021
2820 Clouds 24 1012 64 10000 4.47 5 09:57 07.02.2021
2821 Clouds 24 1012 64 10000 7.15 49 09:38 07.02.2021
2822 Clouds 25 1012 64 10000 6.26 47 09:18 07.02.2021
2823 Clouds 24 1012 64 10000 6.26 43 07:58 07.02.2021
2824 Clear 24 1013 94 9656 4.12 20 06:33 07.02.2021
2825 Clear 24 1012 94 9656 3.09 10 05:48 07.02.2021
2826 Clouds 24 1007 83 9656 2.8 79 02:52 07.02.2021
2827 Clouds 29 1005 58 10000 1.03 180 00:41 07.02.2021
2828 Clouds 30 1004 58 9656 2.57 160 23:58 06.02.2021
2829 Clouds 30 1004 58 9656 2.57 160 23:19 06.02.2021
2830 Clouds 30 1005 58 9656 2.06 170 22:25 06.02.2021
2831 Clouds 30 1005 61 8047 1.54 150 21:38 06.02.2021
2832 Clouds 29 1005 61 8047 1.54 150 21:20 06.02.2021
2833 Clouds 30 1007 58 8047 4.63 170 20:44 06.02.2021
2834 Clouds 30 1007 58 8047 4.63 170 20:23 06.02.2021
2835 Clouds 28 1008 65 8047 1.54 150 19:51 06.02.2021
2836 Clouds 28 1008 65 8047 1.54 150 19:26 06.02.2021
2837 Clouds 28 1009 69 6437 4.63 170 18:46 06.02.2021
2838 Clouds 27 1009 69 6437 4.63 170 18:27 06.02.2021
2839 Mist 26 1010 83 4828 2.06 150 17:41 06.02.2021
2840 Mist 25 1010 83 4828 2.06 150 17:21 06.02.2021
2841 Mist 25 1010 83 4828 2.06 150 17:21 06.02.2021
2842 Mist 24 1009 88 2414 2.06 190 16:57 06.02.2021
2843 Mist 23 1009 88 2414 2.06 190 16:34 06.02.2021
2844 Mist 23 1009 88 2414 2.06 190 16:34 06.02.2021
2845 Mist 22 1009 94 2414 1.54 210 15:55 06.02.2021
2846 Mist 22 1009 94 2414 1.54 210 15:36 06.02.2021
2847 Mist 22 1009 94 2414 1.54 210 15:18 06.02.2021
2848 Mist 21 1009 94 2414 1.03 220 14:43 06.02.2021
2849 Mist 21 1009 94 2414 1.03 220 14:22 06.02.2021
2850 Mist 21 1009 94 3219 1.54 200 13:47 06.02.2021
2851 Clouds 21 1007 75 10000 1.79 226 12:48 06.02.2021
2852 Clear 21 1007 75 10000 1.79 217 12:21 06.02.2021
2853 Clear 21 1006 75 10000 1.34 221 11:42 06.02.2021
2854 Clear 21 1006 74 10000 1.34 236 11:20 06.02.2021
2855 Clear 21 1006 72 10000 1.34 232 10:53 06.02.2021
2856 Clear 21 1006 67 10000 0.89 252 10:28 06.02.2021
2857 Clear 22 1006 64 10000 0.45 35 09:54 06.02.2021
2858 Clear 23 1006 64 10000 0.89 16 09:36 06.02.2021
2859 Clear 23 1006 62 10000 1.79 19 09:18 06.02.2021
2860 Clear 24 1007 59 10000 4.02 49 08:29 06.02.2021
2861 Clear 24 1007 59 10000 4.02 49 08:29 06.02.2021
2862 Clear 24 1007 58 10000 5.81 24 07:44 06.02.2021
2863 Clouds 23 1008 88 9656 5.14 10 05:42 06.02.2021
2864 Clear 24 1007 83 10000 3.09 360 03:47 06.02.2021
2865 Clear 27 1005 61 10000 3.09 50 01:30 06.02.2021
2866 Clear 29 1004 61 10000 3.09 80 00:45 06.02.2021
2867 Clear 29 1004 61 10000 3.09 80 00:18 06.02.2021
2868 Clear 31 1004 43 10000 2.06 200 23:41 05.02.2021
2869 Clear 31 1004 43 10000 2.06 200 23:23 05.02.2021
2870 Clear 32 1004 45 10000 2.57 180 22:43 05.02.2021
2871 Clear 32 1004 45 10000 2.57 180 22:18 05.02.2021
2872 Clear 32 1005 48 9656 1.54 220 21:40 05.02.2021
2873 Clear 31 1006 48 9656 5.66 170 20:58 05.02.2021
2874 Clear 31 1006 48 9656 5.66 170 20:37 05.02.2021
2875 Clear 29 1007 57 9656 2.57 160 19:47 05.02.2021
2876 Clear 28 1007 57 9656 2.57 160 19:19 05.02.2021
2877 Clear 27 1008 65 9656 4.12 170 18:43 05.02.2021
2878 Clear 26 1008 65 9656 4.12 170 18:19 05.02.2021
2879 Clear 23 1009 83 8047 2.06 200 17:42 05.02.2021
2880 Clear 23 1009 83 8047 2.06 200 17:20 05.02.2021
2881 Clear 21 1009 88 6437 2.57 170 16:43 05.02.2021
2882 Clear 20 1009 88 6437 2.57 170 16:21 05.02.2021
2883 Mist 18 1008 94 4828 2.06 190 15:50 05.02.2021
2884 Mist 18 1008 94 4828 2.06 190 15:23 05.02.2021
2885 Mist 17 1008 94 3219 3.09 200 14:40 05.02.2021
2886 Mist 17 1008 94 3219 3.09 200 14:21 05.02.2021
2887 Clear 17 1008 94 8047 5.55 188 13:53 05.02.2021
2888 Clear 17 1008 94 8047 5.55 188 13:33 05.02.2021
2889 Clear 17 1006 73 10000 1.34 227 12:45 05.02.2021
2890 Clear 17 1006 74 10000 1.34 213 12:24 05.02.2021
2891 Clear 17 1006 75 10000 0.89 225 11:40 05.02.2021
2892 Clear 17 1006 75 10000 0.89 233 11:21 05.02.2021
2893 Clear 17 1006 75 10000 0.89 230 10:49 05.02.2021
2894 Clear 17 1007 75 10000 0.89 230 10:26 05.02.2021
2895 Clear 17 1007 75 10000 0.45 234 09:43 05.02.2021
2896 Clear 17 1007 75 10000 0.45 234 09:25 05.02.2021
2897 Clear 18 1008 75 10000 0.89 234 08:47 05.02.2021
2898 Clear 18 1008 75 10000 1.34 233 07:52 05.02.2021
2899 Clear 17 1008 74 10000 0.89 247 07:34 05.02.2021
2900 Clear 18 1011 94 9656 3.81 193 06:42 05.02.2021
2901 Clear 19 1011 94 10000 3.66 180 05:35 05.02.2021
2902 Clear 22 1009 78 9656 1.54 120 02:27 05.02.2021
2903 Clear 23 1009 69 9656 1.54 90 01:59 05.02.2021
2904 Clear 24 1009 69 10000 1.54 100 00:38 05.02.2021
2905 Clear 25 1009 57 8047 4.12 90 00:19 05.02.2021
2906 Clear 26 1009 57 8047 4.12 90 23:44 04.02.2021
2907 Clear 26 1009 57 8047 4.12 90 23:25 04.02.2021
2908 Clear 26 1010 57 8047 1.54 110 22:55 04.02.2021
2909 Clear 27 1010 57 8047 1.54 110 22:37 04.02.2021
2910 Clear 27 1010 57 8047 1.54 110 22:18 04.02.2021
2911 Clear 27 1011 50 8047 2.06 150 21:41 04.02.2021
2912 Clear 27 1011 50 8047 2.06 150 21:18 04.02.2021
2913 Clear 27 1013 53 8047 5.14 170 20:45 04.02.2021
2914 Clear 26 1013 53 8047 5.14 170 20:25 04.02.2021
2915 Clear 25 1014 53 8047 1.54 150 19:41 04.02.2021
2916 Clear 24 1015 60 8047 3.09 190 18:51 04.02.2021
2917 Clear 24 1015 60 8047 3.09 190 18:24 04.02.2021
2918 Clear 22 1016 73 10000 2.06 210 17:51 04.02.2021
2919 Clear 22 1016 73 10000 2.06 210 17:24 04.02.2021
2920 Clear 20 1016 88 8047 2.57 210 16:56 04.02.2021
2921 Clear 19 1016 88 8047 2.57 210 16:37 04.02.2021
2922 Clear 19 1016 88 8047 2.57 210 16:18 04.02.2021
2923 Clear 17 1015 94 8047 5 184 15:39 04.02.2021
2924 Clear 17 1015 94 8047 4.67 185 15:20 04.02.2021
2925 Clear 15 1015 100 10000 4.67 185 14:41 04.02.2021
2926 Clear 15 1015 100 10000 4.07 186 14:20 04.02.2021
2927 Clear 15 1015 100 10000 4.07 186 13:44 04.02.2021
2928 Clouds 15 1013 76 10000 0.89 213 12:58 04.02.2021
2929 Clouds 15 1013 76 10000 0.89 213 12:36 04.02.2021
2930 Clouds 15 1013 75 10000 0.45 237 11:54 04.02.2021
2931 Clouds 15 1013 75 10000 0.45 237 11:33 04.02.2021
2932 Clouds 16 1013 70 10000 0.89 271 10:51 04.02.2021
2933 Clouds 17 1013 69 10000 0.89 271 10:21 04.02.2021
2934 Clouds 17 1013 69 10000 0.89 271 09:44 04.02.2021
2935 Clear 17 1016 88 10000 3.18 193 09:19 04.02.2021
2936 Clear 17 1016 88 10000 3.18 193 08:48 04.02.2021
2937 Clear 18 1016 88 10000 2.58 178 08:24 04.02.2021
2938 Clear 18 1017 88 10000 2.58 178 07:43 04.02.2021
2939 Clear 18 1017 88 10000 2.21 162 07:24 04.02.2021
2940 Clear 18 1017 88 10000 2.37 169 06:43 04.02.2021
2941 Clear 18 1017 94 10000 2.23 151 05:31 04.02.2021
2942 Clear 22 1016 73 10000 1.03 100 02:29 04.02.2021
2943 Clear 23 1015 53 10000 4.12 80 00:59 04.02.2021
2944 Clear 24 1015 57 10000 2.06 110 23:52 03.02.2021
2945 Clear 24 1015 57 10000 2.06 110 23:27 03.02.2021
2946 Clear 25 1016 57 10000 2.57 100 22:36 03.02.2021
2947 Clear 25 1016 57 10000 2.57 100 22:18 03.02.2021
2948 Clouds 25 1016 53 10000 1.03 110 21:41 03.02.2021
2949 Clouds 25 1016 53 10000 1.03 110 21:21 03.02.2021
2950 Clouds 25 1017 57 10000 3.09 90 20:48 03.02.2021
2951 Clouds 25 1017 57 10000 3.09 90 20:28 03.02.2021
2952 Clouds 25 1019 53 10000 4.38 121 19:52 03.02.2021
2953 Clouds 25 1019 53 10000 3.75 140 19:23 03.02.2021
2954 Clouds 24 1019 56 10000 3.75 140 18:51 03.02.2021
2955 Clouds 23 1019 56 10000 3.14 150 18:22 03.02.2021
2956 Clouds 24 1020 57 10000 3.14 150 17:57 03.02.2021
2957 Clouds 24 1020 57 10000 3.14 150 17:36 03.02.2021
2958 Clouds 24 1020 57 10000 2.8 171 17:18 03.02.2021
2959 Clear 22 1020 68 10000 2.8 171 16:36 03.02.2021
2960 Clouds 20 1019 88 9656 2.5 192 15:50 03.02.2021
2961 Clouds 19 1019 88 9656 2.5 192 15:30 03.02.2021
2962 Clouds 17 1019 82 9656 2.26 207 14:59 03.02.2021
2963 Clouds 17 1019 82 9656 2.26 207 14:40 03.02.2021
2964 Clouds 17 1019 82 9656 2.2 213 14:19 03.02.2021
2965 Clouds 17 1019 88 9656 2.2 213 13:43 03.02.2021
2966 Clouds 17 1019 88 9656 1.84 227 13:18 03.02.2021
2967 Clouds 18 1017 61 10000 0.45 271 12:39 03.02.2021
2968 Clouds 19 1017 61 10000 1.68 229 12:19 03.02.2021
2969 Clouds 19 1017 57 10000 1.68 229 11:41 03.02.2021
2970 Clouds 19 1017 58 10000 1.33 231 11:21 03.02.2021
2971 Clouds 19 1017 58 10000 1.01 239 10:27 03.02.2021
2972 Clouds 19 1017 58 10000 1.01 239 09:54 03.02.2021
2973 Clouds 19 1017 57 10000 0.45 271 09:35 03.02.2021
2974 Clouds 19 1018 59 10000 0.45 271 08:55 03.02.2021
2975 Clouds 19 1018 61 10000 0.45 271 08:37 03.02.2021
2976 Clouds 18 1018 60 10000 0.89 156 07:48 03.02.2021
2977 Clouds 20 1022 73 10000 1.43 107 06:42 03.02.2021
2978 Clouds 21 1021 68 10000 2.16 60 04:55 03.02.2021
2979 Clouds 21 1021 68 10000 2.16 60 04:37 03.02.2021
2980 Clouds 21 1021 68 10000 2.75 55 03:49 03.02.2021
2981 Clouds 21 1021 64 10000 3.04 55 02:38 03.02.2021
2982 Clouds 22 1020 64 10000 1.54 90 01:24 03.02.2021
2983 Clouds 23 1020 60 10000 3.6 60 00:23 03.02.2021
2984 Clouds 23 1020 56 10000 5.14 80 23:42 02.02.2021
2985 Clouds 23 1020 56 10000 5.14 80 23:23 02.02.2021
2986 Clouds 23 1021 60 10000 4.63 70 22:39 02.02.2021
2987 Clouds 23 1021 60 10000 4.63 70 22:19 02.02.2021
2988 Clouds 23 1021 64 10000 4.12 40 21:44 02.02.2021
2989 Clouds 24 1021 64 10000 4.12 40 21:23 02.02.2021
2990 Clouds 25 1022 57 10000 3.09 40 20:48 02.02.2021
2991 Clouds 24 1022 57 10000 3.09 40 20:21 02.02.2021
2992 Clouds 25 1024 53 10000 4.12 50 19:50 02.02.2021
2993 Clouds 24 1024 53 10000 4.12 50 19:32 02.02.2021
2994 Clouds 24 1024 53 10000 4.12 360 18:54 02.02.2021
2995 Clouds 25 1024 53 10000 4.12 360 18:36 02.02.2021
2996 Clouds 24 1024 53 10000 4.12 360 18:18 02.02.2021
2997 Clouds 23 1025 60 9656 2.57 340 17:37 02.02.2021
2998 Clouds 23 1025 60 9656 2.57 340 17:19 02.02.2021
2999 Clouds 22 1025 78 9656 2.06 310 16:43 02.02.2021
3000 Clouds 22 1025 78 9656 2.06 310 16:24 02.02.2021
3001 Clouds 19 1024 82 8047 3.95 344 15:42 02.02.2021
3002 Clouds 19 1024 82 8047 3.6 338 15:23 02.02.2021
3003 Clouds 18 1024 88 9656 3.6 338 14:50 02.02.2021
3004 Clouds 17 1024 88 9656 3.6 338 14:31 02.02.2021
3005 Clouds 17 1024 88 10000 3.58 333 13:56 02.02.2021
3006 Clouds 17 1024 88 10000 3.58 333 13:37 02.02.2021
3007 Clouds 17 1024 88 10000 3.65 332 13:19 02.02.2021
3008 Clouds 18 1022 66 10000 0.89 262 12:42 02.02.2021
3009 Clouds 18 1022 65 10000 0.89 262 11:45 02.02.2021
3010 Clouds 19 1021 63 10000 0.89 262 11:24 02.02.2021
3011 Clouds 19 1022 62 10000 0.89 262 10:56 02.02.2021
3012 Clouds 19 1022 61 10000 0.89 262 10:31 02.02.2021
3013 Clouds 20 1022 60 10000 0.45 355 09:48 02.02.2021
3014 Clouds 19 1023 61 10000 0.45 355 09:26 02.02.2021
3015 Clouds 19 1023 61 10000 0.45 355 09:26 02.02.2021
3016 Clouds 20 1023 58 10000 1.79 345 08:59 02.02.2021
3017 Clouds 20 1023 57 10000 1.79 355 08:32 02.02.2021
3018 Clear 21 1023 58 10000 3.13 5 07:37 02.02.2021
3019 Clouds 21 1026 68 10000 3.09 360 06:43 02.02.2021
3020 Clouds 21 1026 68 10000 3.6 360 05:53 02.02.2021
3021 Clouds 21 1025 64 10000 4.63 10 04:57 02.02.2021
3022 Clouds 22 1024 60 10000 6.69 20 02:45 02.02.2021
3023 Clouds 22 1024 60 10000 6.69 20 02:23 02.02.2021
3024 Clouds 22 1023 64 10000 8.75 350 00:36 02.02.2021
3025 Clouds 22 1023 68 10000 5.66 30 23:30 01.02.2021
3026 Clouds 22 1023 64 10000 5.66 360 22:51 01.02.2021
3027 Clouds 22 1023 64 10000 5.66 360 22:33 01.02.2021
3028 Clouds 23 1023 64 10000 6.17 360 21:53 01.02.2021
3029 Clouds 23 1023 64 10000 6.17 360 21:34 01.02.2021
3030 Clouds 23 1024 68 10000 8.75 10 20:57 01.02.2021
3031 Clouds 23 1024 68 10000 8.75 10 20:38 01.02.2021
3032 Clouds 23 1024 68 10000 8.75 10 20:19 01.02.2021
3033 Clouds 22 1025 73 9656 12.35 360 19:39 01.02.2021
3034 Clouds 22 1025 73 9656 12.35 360 19:20 01.02.2021
3035 Drizzle 21 1025 94 4828 6.17 10 18:49 01.02.2021
3036 Drizzle 20 1025 94 4828 6.17 10 18:27 01.02.2021
3037 Clouds 20 1025 100 3219 5.66 360 17:47 01.02.2021
3038 Clouds 21 1025 100 1609 5.14 10 17:24 01.02.2021
3039 Clouds 23 1025 94 2414 5.14 340 16:55 01.02.2021
3040 Clouds 25 1024 73 10000 6.69 20 16:29 01.02.2021
3041 Clouds 24 1023 83 9656 4.63 360 15:43 01.02.2021
3042 Clouds 24 1023 83 9656 4.63 360 15:43 01.02.2021
3043 Clouds 24 1023 83 9656 4.63 360 15:19 01.02.2021
3044 Clouds 23 1022 83 9656 3.09 30 14:52 01.02.2021
3045 Clouds 23 1022 83 9656 3.09 30 14:33 01.02.2021
3046 Clouds 23 1022 83 9656 3.6 360 13:49 01.02.2021
3047 Clouds 23 1022 83 9656 3.6 360 13:27 01.02.2021
3048 Clear 23 1020 67 10000 4.02 14 12:45 01.02.2021
3049 Clear 23 1019 68 10000 4.92 30 12:25 01.02.2021
3050 Clear 23 1019 68 10000 3.58 27 11:51 01.02.2021
3051 Clear 23 1019 69 10000 4.92 26 11:22 01.02.2021
3052 Clear 23 1019 71 10000 3.13 5 10:55 01.02.2021
3053 Clear 23 1019 72 10000 4.02 18 10:36 01.02.2021
3054 Clear 23 1019 72 10000 4.02 9 10:18 01.02.2021
3055 Clear 23 1019 71 10000 4.02 30 09:42 01.02.2021
3056 Clear 24 1019 72 10000 4.02 17 08:56 01.02.2021
3057 Clear 24 1019 70 10000 4.02 15 08:27 01.02.2021
3058 Clear 24 1020 70 10000 4.47 10 07:34 01.02.2021
3059 Clouds 24 1021 83 10000 7.72 360 05:27 01.02.2021
3060 Clouds 24 1019 83 9656 8.23 10 02:40 01.02.2021
3061 Clouds 25 1017 78 9656 7.72 360 00:27 01.02.2021
3062 Clouds 26 1016 73 10000 6.17 360 23:29 31.01.2021
3063 Clouds 27 1016 65 9656 9.26 40 22:41 31.01.2021
3064 Clouds 27 1016 65 9656 9.26 40 22:23 31.01.2021
3065 Clouds 27 1016 69 9656 7.72 40 21:47 31.01.2021
3066 Clouds 28 1016 69 9656 7.72 40 21:21 31.01.2021
3067 Clouds 27 1016 69 9656 6.17 30 20:46 31.01.2021
3068 Clouds 28 1016 69 9656 6.17 30 20:21 31.01.2021
3069 Clear 28 1016 65 9656 5.14 10 19:41 31.01.2021
3070 Clear 28 1016 65 9656 5.14 10 19:23 31.01.2021
3071 Clouds 28 1017 69 8047 1.54 50 18:57 31.01.2021
3072 Clouds 28 1017 69 8047 1.54 50 18:38 31.01.2021
3073 Clouds 27 1017 69 8047 1.54 50 18:19 31.01.2021
3074 Clear 26 1016 73 8047 3.07 1 17:44 31.01.2021
3075 Clear 26 1016 73 8047 2.16 320 17:22 31.01.2021
3076 Clear 23 1016 100 8047 2.16 320 16:42 31.01.2021
3077 Clear 23 1016 100 8047 2.13 304 16:22 31.01.2021
3078 Clouds 21 1015 94 8047 1.03 330 15:50 31.01.2021
3079 Clouds 20 1015 94 8047 1.03 330 15:28 31.01.2021
3080 Clear 19 1014 100 8047 1.77 293 14:40 31.01.2021
3081 Clear 19 1014 100 8047 1.49 304 14:19 31.01.2021
3082 Clear 19 1014 100 8047 1.49 304 13:48 31.01.2021
3083 Clear 19 1014 100 8047 1.55 307 13:23 31.01.2021
3084 Clouds 19 1011 78 10000 0.45 229 12:47 31.01.2021
3085 Clouds 19 1011 78 10000 1.38 285 12:21 31.01.2021
3086 Clouds 19 1011 78 10000 1.38 285 11:41 31.01.2021
3087 Clouds 19 1011 78 10000 1.7 216 11:21 31.01.2021
3088 Clouds 20 1011 78 10000 0.45 229 10:48 31.01.2021
3089 Clouds 19 1011 78 10000 0.89 229 10:30 31.01.2021
3090 Clouds 19 1011 78 10000 0.45 223 09:49 31.01.2021
3091 Clouds 19 1011 77 10000 1.61 224 08:59 31.01.2021
3092 Clouds 19 1011 77 10000 1.61 224 08:32 31.01.2021
3093 Clear 22 1014 94 10000 1.54 180 06:55 31.01.2021
3094 Clear 22 1013 94 10000 2.82 153 05:31 31.01.2021
3095 Clouds 26 1011 69 9656 2.06 140 00:40 31.01.2021
3096 Clouds 26 1011 69 9656 2.06 140 00:21 31.01.2021
3097 Clouds 28 1011 65 9656 1.54 130 23:28 30.01.2021
3098 Clouds 28 1012 65 10000 2.06 110 22:56 30.01.2021
3099 Clouds 28 1012 65 10000 2.06 110 22:29 30.01.2021
3100 Clouds 28 1013 61 9656 1.54 130 21:40 30.01.2021
3101 Clouds 28 1013 61 9656 1.54 130 21:20 30.01.2021
3102 Clouds 28 1015 65 8047 2.57 150 20:44 30.01.2021
3103 Clouds 28 1015 65 8047 2.57 150 20:26 30.01.2021
3104 Clouds 27 1016 69 8047 1.54 130 19:44 30.01.2021
3105 Clouds 26 1016 69 8047 1.54 130 19:25 30.01.2021
3106 Clouds 26 1017 73 8047 4.12 180 18:42 30.01.2021
3107 Clouds 26 1017 73 8047 4.12 180 18:21 30.01.2021
3108 Clouds 25 1017 78 8047 1.71 155 17:57 30.01.2021
3109 Clouds 25 1017 78 8047 1.64 188 17:19 30.01.2021
3110 Clouds 22 1017 88 8047 1.64 188 16:44 30.01.2021
3111 Clouds 22 1017 88 8047 1.71 206 16:24 30.01.2021
3112 Clouds 21 1016 100 8047 1.71 206 15:54 30.01.2021
3113 Clouds 21 1016 100 8047 1.71 206 15:36 30.01.2021
3114 Clouds 21 1016 100 8047 1.37 219 15:18 30.01.2021
3115 Clouds 19 1016 100 8047 1.37 219 14:41 30.01.2021
3116 Clouds 19 1016 100 8047 1.06 227 14:19 30.01.2021
3117 Clouds 20 1016 52 8047 1.21 247 13:29 30.01.2021
3118 Clouds 20 1014 77 10000 0.89 221 12:48 30.01.2021
3119 Clouds 21 1015 77 10000 1.84 249 12:28 30.01.2021
3120 Clouds 20 1015 76 10000 1.84 249 11:55 30.01.2021
3121 Clouds 21 1015 76 10000 2.12 259 11:25 30.01.2021
3122 Clouds 21 1015 76 10000 2.12 259 10:46 30.01.2021
3123 Clouds 21 1016 75 10000 2.18 275 09:44 30.01.2021
3124 Clouds 21 1016 75 10000 2.26 277 09:26 30.01.2021
3125 Clouds 21 1017 75 10000 2.26 277 08:47 30.01.2021
3126 Clouds 21 1017 74 10000 0.45 269 07:45 30.01.2021
3127 Mist 21 1020 94 4828 1.27 314 06:36 30.01.2021
3128 Clouds 22 1020 88 10000 2.95 352 04:28 30.01.2021
3129 Clouds 22 1020 88 10000 2.06 10 03:33 30.01.2021
3130 Clouds 22 1020 88 10000 2.57 10 02:23 30.01.2021
3131 Clouds 22 1020 88 10000 3.6 20 01:26 30.01.2021
3132 Clouds 23 1020 83 10000 5.14 20 00:35 30.01.2021
3133 Clouds 24 1019 78 10000 5.14 30 23:55 29.01.2021
3134 Clouds 24 1019 78 10000 5.14 30 23:28 29.01.2021
3135 Clouds 24 1020 78 10000 4.12 20 22:56 29.01.2021
3136 Clouds 24 1020 78 10000 4.12 20 22:37 29.01.2021
3137 Clouds 25 1021 69 10000 5.14 360 21:59 29.01.2021
3138 Clouds 25 1021 69 10000 5.14 360 21:28 29.01.2021
3139 Clouds 25 1022 69 10000 3.6 10 20:43 29.01.2021
3140 Clouds 25 1022 69 10000 3.6 10 20:24 29.01.2021
3141 Clouds 25 1023 73 9656 3.6 360 19:40 29.01.2021
3142 Clouds 25 1023 73 9656 3.6 360 19:21 29.01.2021
3143 Clouds 23 1024 78 9656 2.57 360 18:56 29.01.2021
3144 Clouds 23 1024 78 9656 3.6 340 17:51 29.01.2021
3145 Clouds 23 1024 78 9656 3.6 340 17:23 29.01.2021
3146 Clouds 22 1023 83 9656 1.54 330 16:58 29.01.2021
3147 Clouds 22 1023 83 9656 1.54 330 16:38 29.01.2021
3148 Clouds 22 1023 83 9656 1.54 330 16:19 29.01.2021
3149 Clouds 21 1023 94 9656 5.13 345 15:41 29.01.2021
3150 Clouds 21 1023 94 9656 5.13 345 15:41 29.01.2021
3151 Clouds 21 1023 94 9656 5.3 344 15:21 29.01.2021
3152 Clouds 20 1023 94 9656 5.69 344 14:23 29.01.2021
3153 Clouds 21 1023 94 9656 2.57 30 13:57 29.01.2021
3154 Clouds 21 1023 94 9656 2.57 30 13:33 29.01.2021
3155 Clouds 21 1021 70 10000 1.79 351 12:43 29.01.2021
3156 Clouds 21 1021 70 10000 1.79 351 12:19 29.01.2021
3157 Clouds 22 1021 69 10000 2.68 15 11:45 29.01.2021
3158 Clouds 22 1021 69 10000 2.68 15 11:18 29.01.2021
3159 Clouds 22 1021 69 10000 2.24 355 10:47 29.01.2021
3160 Clouds 22 1021 69 10000 1.79 355 10:25 29.01.2021
3161 Clouds 22 1022 67 10000 0.89 324 09:41 29.01.2021
3162 Clouds 22 1022 65 10000 1.34 355 08:52 29.01.2021
3163 Clouds 22 1022 63 10000 1.79 348 08:27 29.01.2021
3164 Clouds 22 1023 63 10000 1.34 333 07:51 29.01.2021
3165 Clouds 22 1023 62 10000 4.02 5 07:31 29.01.2021
3166 Clouds 22 1025 73 10000 5.14 350 06:49 29.01.2021
3167 Clouds 22 1025 68 10000 4.12 360 04:53 29.01.2021
3168 Clouds 22 1023 68 9656 4.12 10 02:26 29.01.2021
3169 Clouds 22 1023 73 9656 5.14 350 00:37 29.01.2021
3170 Clouds 22 1023 73 9656 5.14 350 00:19 29.01.2021
3171 Clouds 21 1023 83 9656 2.57 350 23:41 28.01.2021
3172 Clouds 21 1023 83 9656 2.57 350 23:22 28.01.2021
3173 Mist 20 1023 94 4828 4.12 330 22:42 28.01.2021
3174 Mist 20 1023 94 4828 4.12 330 22:24 28.01.2021
3175 Drizzle 20 1024 88 3219 6.17 350 21:48 28.01.2021
3176 Haze 20 1024 88 3219 6.17 350 21:30 28.01.2021
3177 Drizzle 20 1025 88 3219 5.14 360 20:47 28.01.2021
3178 Clouds 21 1025 88 6437 5.14 350 20:20 28.01.2021
3179 Clouds 21 1025 88 6437 5.14 350 19:59 28.01.2021
3180 Clouds 21 1025 88 6437 5.14 350 19:36 28.01.2021
3181 Clouds 21 1025 88 6437 5.14 350 19:18 28.01.2021
3182 Clouds 23 1025 64 9656 7.2 350 18:41 28.01.2021
3183 Clouds 23 1025 64 9656 7.2 350 18:19 28.01.2021
3184 Clouds 23 1025 68 9656 6.17 350 17:44 28.01.2021
3185 Clouds 23 1025 68 9656 6.17 350 17:24 28.01.2021
3186 Clouds 22 1024 78 6437 7.2 10 16:44 28.01.2021
3187 Clouds 22 1024 78 6437 7.2 10 16:22 28.01.2021
3188 Clouds 23 1023 64 9656 7.2 360 15:39 28.01.2021
3189 Clouds 23 1023 68 10000 6.17 360 14:58 28.01.2021
3190 Clouds 23 1023 68 10000 6.17 360 14:39 28.01.2021
3191 Clouds 23 1023 68 10000 6.17 360 14:20 28.01.2021
3192 Clouds 23 1023 68 10000 6.17 360 14:20 28.01.2021
3193 Clouds 23 1022 73 10000 7.2 360 13:43 28.01.2021
3194 Clouds 23 1020 57 10000 6.71 5 12:52 28.01.2021
3195 Clouds 24 1020 57 10000 5.81 355 12:33 28.01.2021
3196 Clouds 24 1020 56 10000 5.81 13 11:59 28.01.2021
3197 Clouds 24 1020 55 10000 4.47 360 11:40 28.01.2021
3198 Clouds 24 1020 55 10000 4.47 360 11:19 28.01.2021
3199 Clouds 24 1020 53 10000 6.26 355 10:50 28.01.2021
3200 Clouds 24 1020 54 10000 5.81 360 10:27 28.01.2021
3201 Clouds 24 1020 53 10000 6.26 355 09:44 28.01.2021
3202 Clouds 24 1020 53 10000 6.26 355 09:22 28.01.2021
3203 Clouds 24 1020 54 10000 5.81 360 08:49 28.01.2021
3204 Clouds 25 1020 53 10000 6.71 5 08:18 28.01.2021
3205 Clouds 24 1020 55 10000 6.26 15 07:42 28.01.2021
3206 Clouds 24 1022 69 10000 6.17 30 06:49 28.01.2021
3207 Clouds 24 1021 64 10000 11.32 10 05:28 28.01.2021
3208 Clouds 23 1020 83 8047 9.26 360 03:49 28.01.2021
3209 Clouds 24 1015 83 8047 9.26 20 00:57 28.01.2021
3210 Clear 26 1013 63 10000 12.52 360 23:43 27.01.2021
3211 Clear 27 1013 60 10000 12.07 25 23:23 27.01.2021
3212 Clear 28 1013 57 10000 8.94 26 22:41 27.01.2021
3213 Clear 28 1013 57 10000 8.94 26 22:21 27.01.2021
3214 Clear 28 1013 55 10000 9.83 23 21:42 27.01.2021
3215 Clear 28 1013 55 10000 9.83 23 21:22 27.01.2021
3216 Clear 29 1013 55 10000 10.73 33 20:47 27.01.2021
3217 Clear 29 1013 56 10000 8.49 14 20:20 27.01.2021
3218 Clear 29 1014 56 10000 7.6 51 19:43 27.01.2021
3219 Clouds 29 1014 56 10000 7.6 51 19:21 27.01.2021
3220 Clouds 28 1014 60 10000 6.26 38 18:45 27.01.2021
3221 Clouds 27 1014 61 10000 7.15 31 18:23 27.01.2021
3222 Clouds 27 1014 64 10000 5.81 11 17:52 27.01.2021
3223 Clouds 27 1013 65 10000 4.92 26 17:32 27.01.2021
3224 Clouds 26 1013 69 10000 3.13 30 16:54 27.01.2021
3225 Clouds 26 1012 69 10000 3.13 351 16:36 27.01.2021
3226 Clouds 26 1012 71 10000 2.24 54 16:18 27.01.2021
3227 Clouds 23 1011 78 10000 1.34 338 15:41 27.01.2021
3228 Clouds 22 1011 79 10000 1.34 334 15:23 27.01.2021
3229 Clouds 21 1010 78 10000 0.45 56 14:23 27.01.2021
3230 Clouds 21 1010 78 10000 0.45 56 13:49 27.01.2021
3231 Clouds 21 1010 78 10000 0.45 56 13:49 27.01.2021
3232 Clear 21 1009 78 10000 1.43 314 13:29 27.01.2021
3233 Clear 21 1009 77 10000 1.43 314 12:42 27.01.2021
3234 Clear 21 1009 77 10000 0.45 56 12:22 27.01.2021
3235 Clear 22 1008 77 10000 1.53 312 11:46 27.01.2021
3236 Clear 22 1008 77 10000 1.9 304 11:23 27.01.2021
3237 Clear 23 1008 77 10000 0.89 28 10:41 27.01.2021
3238 Clear 23 1008 77 10000 0.45 9 10:21 27.01.2021
3239 Clear 23 1008 77 10000 1.97 299 09:50 27.01.2021
3240 Clear 23 1008 77 10000 0.89 355 09:25 27.01.2021
3241 Clear 23 1009 77 10000 0.89 282 08:39 27.01.2021
3242 Clear 23 1009 77 10000 0.89 282 08:39 27.01.2021
3243 Clear 23 1008 74 10000 0.45 298 07:46 27.01.2021
3244 Clear 23 1008 72 10000 0.89 315 07:21 27.01.2021
3245 Clear 23 1009 69 10000 0.89 342 06:23 27.01.2021
3246 Clear 23 1009 67 10000 0.89 323 05:48 27.01.2021
3247 Clear 24 1008 63 10000 2.68 22 04:37 27.01.2021
3248 Clear 24 1006 63 10000 3.58 48 02:24 27.01.2021
3249 Clear 25 1006 62 10000 3.58 34 01:52 27.01.2021
3250 Clear 26 1005 58 10000 5.36 5 00:48 27.01.2021
3251 Clear 27 1005 55 10000 6.26 355 23:51 26.01.2021
3252 Clear 27 1005 55 10000 5.81 360 23:32 26.01.2021
3253 Clear 29 1004 48 10000 4.92 39 22:52 26.01.2021
3254 Clear 29 1004 45 10000 4.47 29 22:33 26.01.2021
3255 Clear 30 1006 58 10000 4.12 20 21:57 26.01.2021
3256 Clear 30 1006 58 10000 4.12 20 21:39 26.01.2021
3257 Clear 31 1006 58 10000 4.12 20 21:21 26.01.2021
3258 Clear 31 1007 51 10000 2.59 63 20:40 26.01.2021
3259 Clear 32 1007 51 10000 2.59 87 20:21 26.01.2021
3260 Clear 30 1008 54 10000 2.59 87 19:46 26.01.2021
3261 Clear 30 1008 54 10000 2.43 108 19:24 26.01.2021
3262 Clear 29 1008 65 10000 3.6 190 18:49 26.01.2021
3263 Clear 28 1008 65 10000 3.6 190 18:28 26.01.2021
3264 Clear 27 1008 73 10000 3.6 160 17:58 26.01.2021
3265 Clear 27 1008 73 10000 3.6 160 17:40 26.01.2021
3266 Clear 27 1008 73 10000 3.6 160 17:19 26.01.2021
3267 Clear 24 1007 88 9656 2.57 190 16:40 26.01.2021
3268 Clear 24 1007 88 9656 2.57 190 16:19 26.01.2021
3269 Clear 22 1007 94 9656 3.98 190 15:47 26.01.2021
3270 Clear 22 1007 94 9656 4.7 190 15:26 26.01.2021
3271 Clear 21 1006 94 9656 1.03 230 14:48 26.01.2021
3272 Clear 20 1006 94 9656 1.03 230 14:29 26.01.2021
3273 Clear 20 1006 94 9656 2.57 210 13:37 26.01.2021
3274 Clear 20 1006 94 9656 2.57 210 13:18 26.01.2021
3275 Clear 21 1004 69 10000 1.79 220 12:43 26.01.2021
3276 Clear 21 1004 68 10000 1.34 202 12:22 26.01.2021
3277 Clear 21 1004 68 10000 0.89 205 11:54 26.01.2021
3278 Clear 21 1004 68 10000 1.34 217 11:33 26.01.2021
3279 Clear 21 1004 67 10000 0.45 205 10:45 26.01.2021
3280 Clear 21 1004 67 10000 0.45 205 10:26 26.01.2021
3281 Clear 21 1004 67 10000 0.89 205 09:42 26.01.2021
3282 Clear 22 1005 65 10000 0.45 205 09:23 26.01.2021
3283 Clear 22 1005 65 10000 0.89 205 08:50 26.01.2021
3284 Clear 23 1005 64 10000 0.45 205 08:21 26.01.2021
3285 Clear 23 1005 64 10000 0.45 207 07:27 26.01.2021
3286 Clear 24 1006 63 10000 1.34 188 05:58 26.01.2021
3287 Clear 24 1006 68 10000 0.45 153 05:39 26.01.2021
3288 Clear 24 1007 94 6437 2.84 150 03:51 26.01.2021
3289 Clear 27 1005 74 6437 3.03 130 01:46 26.01.2021
3290 Clear 30 1005 55 8047 3.6 190 00:36 26.01.2021
3291 Clear 32 1005 55 6437 1.54 150 23:34 25.01.2021
3292 Clear 32 1005 51 6437 3.09 160 22:56 25.01.2021
3293 Clear 32 1005 51 6437 3.09 160 22:35 25.01.2021
3294 Clear 31 1006 55 6437 2.57 150 21:49 25.01.2021
3295 Clear 31 1006 55 6437 2.57 150 21:23 25.01.2021
3296 Haze 30 1007 66 4828 4.63 180 20:50 25.01.2021
3297 Haze 30 1007 66 4828 4.63 180 20:32 25.01.2021
3298 Haze 29 1008 69 4828 3.19 103 19:50 25.01.2021
3299 Haze 28 1008 69 4828 2.87 116 19:28 25.01.2021
3300 Haze 27 1009 74 4828 1.54 160 18:48 25.01.2021
3301 Haze 27 1009 74 4828 1.54 160 18:28 25.01.2021
3302 Mist 25 1010 83 4828 1.54 130 17:56 25.01.2021
3303 Mist 25 1010 83 4828 1.54 130 17:38 25.01.2021
3304 Mist 25 1010 83 4828 1.54 130 17:19 25.01.2021
3305 Mist 24 1010 100 4828 1.03 200 16:41 25.01.2021
3306 Mist 24 1010 100 4828 1.03 200 16:21 25.01.2021
3307 Mist 22 1009 100 3219 1.54 188 15:43 25.01.2021
3308 Fog 21 1009 100 805 1.03 180 15:24 25.01.2021
3309 Mist 21 1009 100 2414 1.74 232 14:40 25.01.2021
3310 Mist 21 1009 100 2414 2.33 242 14:19 25.01.2021
3311 Mist 21 1009 100 1609 2.33 242 13:47 25.01.2021
3312 Fog 21 1009 100 805 2.76 238 13:25 25.01.2021
3313 Clouds 22 1006 77 10000 2.76 238 12:45 25.01.2021
3314 Clouds 22 1007 77 10000 2.79 236 12:19 25.01.2021
3315 Clouds 22 1007 77 10000 2.79 236 11:47 25.01.2021
3316 Clouds 22 1007 77 10000 2.31 227 11:18 25.01.2021
3317 Clouds 22 1007 77 10000 2.31 227 10:39 25.01.2021
3318 Clouds 22 1007 77 10000 2.34 242 10:18 25.01.2021
3319 Clouds 22 1007 77 10000 2.34 242 09:42 25.01.2021
3320 Mist 22 1011 100 1609 2.32 239 09:23 25.01.2021
3321 Mist 22 1011 100 1609 2.24 208 08:27 25.01.2021
3322 Mist 23 1011 94 1609 2.24 208 07:31 25.01.2021
3323 Mist 22 1011 100 1609 1.65 177 06:53 25.01.2021
3324 Haze 24 1010 94 4828 2.06 130 03:39 25.01.2021
3325 Haze 25 1009 83 4828 2.06 90 01:30 25.01.2021
3326 Haze 25 1009 83 4828 2.06 90 01:30 25.01.2021
3327 Haze 27 1009 78 4828 3.09 90 23:41 24.01.2021
3328 Haze 27 1009 78 4828 3.09 90 23:19 24.01.2021
3329 Haze 28 1010 69 4828 3.09 90 22:42 24.01.2021
3330 Haze 28 1010 69 4828 3.09 90 22:20 24.01.2021
3331 Clouds 28 1011 65 6437 2.57 140 21:48 24.01.2021
3332 Clouds 28 1011 65 6437 2.57 140 21:24 24.01.2021
3333 Clouds 29 1012 61 6437 1.54 80 20:44 24.01.2021
3334 Clouds 29 1012 61 6437 1.54 80 20:21 24.01.2021
3335 Clouds 28 1013 65 6437 2.36 90 19:52 24.01.2021
3336 Clouds 28 1013 65 6437 1.67 116 19:27 24.01.2021
3337 Mist 27 1014 78 4828 1.59 131 18:58 24.01.2021
3338 Mist 27 1014 78 4828 1.59 131 18:39 24.01.2021
3339 Mist 27 1014 78 4828 1.59 131 18:39 24.01.2021
3340 Haze 27 1014 78 4828 1.56 171 18:20 24.01.2021
3341 Haze 26 1014 78 4828 1.56 171 17:50 24.01.2021
3342 Mist 26 1014 78 4828 2.02 204 17:28 24.01.2021
3343 Mist 24 1014 100 2414 2.02 204 16:58 24.01.2021
3344 Mist 23 1014 100 2414 2.02 204 16:38 24.01.2021
3345 Mist 23 1014 100 2414 2.21 220 16:18 24.01.2021
3346 Mist 22 1014 100 1609 2.21 220 15:43 24.01.2021
3347 Fog 21 1013 100 805 2.3 227 15:18 24.01.2021
3348 Fog 20 1013 100 10000 2.3 227 14:39 24.01.2021
3349 Fog 21 1013 100 10000 2.32 214 13:48 24.01.2021
3350 Fog 21 1013 100 10000 2.55 206 13:27 24.01.2021
3351 Clouds 22 1011 77 10000 0.45 208 12:49 24.01.2021
3352 Clouds 22 1011 77 10000 0.45 208 12:20 24.01.2021
3353 Clouds 22 1011 78 10000 0.89 223 11:51 24.01.2021
3354 Clouds 22 1011 77 10000 0.45 223 11:24 24.01.2021
3355 Clouds 22 1011 78 10000 0.89 223 10:49 24.01.2021
3356 Clouds 22 1010 76 10000 1.87 204 10:26 24.01.2021
3357 Clouds 23 1011 76 10000 0.45 223 09:23 24.01.2021
3358 Clouds 23 1011 76 10000 0.45 223 08:59 24.01.2021
3359 Clouds 23 1011 76 10000 1.89 159 08:24 24.01.2021
3360 Clouds 23 1013 94 9656 2.03 85 03:25 24.01.2021
3361 Clouds 24 1012 88 9656 2.13 81 02:18 24.01.2021
3362 Clouds 26 1011 78 6437 1.54 100 00:27 24.01.2021
3363 Clouds 27 1011 74 6437 4.63 80 23:57 23.01.2021
3364 Clouds 27 1011 74 6437 4.63 80 23:29 23.01.2021
3365 Clouds 28 1011 69 6437 2.06 50 22:57 23.01.2021
3366 Clouds 27 1011 69 6437 2.06 50 22:37 23.01.2021
3367 Clouds 29 1012 65 6437 3.09 70 21:53 23.01.2021
3368 Clouds 29 1012 65 6437 3.09 70 21:22 23.01.2021
3369 Haze 28 1014 69 4828 2.06 80 20:49 23.01.2021
3370 Haze 28 1014 69 4828 2.06 80 20:28 23.01.2021
3371 Haze 28 1014 65 4828 1.04 77 19:47 23.01.2021
3372 Haze 28 1014 65 4828 0.94 53 19:24 23.01.2021
3373 Haze 27 1015 69 4828 0.94 53 18:51 23.01.2021
3374 Haze 27 1015 69 4828 1.95 4 18:28 23.01.2021
3375 Haze 27 1016 78 3219 3.09 330 17:55 23.01.2021
3376 Haze 26 1016 78 3219 3.09 330 17:28 23.01.2021
3377 Mist 25 1016 88 3219 2.25 355 16:51 23.01.2021
3378 Mist 25 1016 88 3219 2.25 355 16:31 23.01.2021
3379 Mist 23 1015 100 3219 1.76 347 15:48 23.01.2021
3380 Mist 23 1015 100 3219 1.44 350 15:26 23.01.2021
3381 Clouds 22 1014 94 8047 1.44 350 14:37 23.01.2021
3382 Clouds 22 1014 94 8047 1.59 339 14:19 23.01.2021
3383 Mist 22 1014 100 4828 1.59 339 13:40 23.01.2021
3384 Mist 22 1014 100 4828 1.82 330 13:21 23.01.2021
3385 Clouds 23 1012 75 10000 1.41 344 12:41 23.01.2021
3386 Clouds 23 1012 75 10000 0.45 280 12:21 23.01.2021
3387 Clouds 23 1012 75 10000 1.34 280 11:34 23.01.2021
3388 Clouds 23 1012 76 10000 0.45 298 10:52 23.01.2021
3389 Clouds 23 1012 76 10000 0.45 298 10:22 23.01.2021
3390 Clouds 23 1012 76 10000 0.45 287 09:49 23.01.2021
3391 Clouds 23 1012 75 10000 1.03 31 08:57 23.01.2021
3392 Clouds 23 1012 74 10000 0.45 69 08:38 23.01.2021
3393 Clouds 23 1012 74 10000 1 23 07:37 23.01.2021
3394 Clouds 22 1014 100 8047 1.48 44 05:44 23.01.2021
3395 Clear 25 1011 78 10000 1.54 120 00:56 23.01.2021
3396 Clear 27 1011 69 10000 2.06 100 23:53 22.01.2021
3397 Clear 27 1011 69 10000 2.06 100 23:34 22.01.2021
3398 Clouds 28 1011 65 10000 5.14 90 22:40 22.01.2021
3399 Clouds 28 1011 65 10000 6.17 80 21:51 22.01.2021
3400 Clouds 28 1011 65 10000 6.17 80 21:32 22.01.2021
3401 Clouds 28 1013 65 10000 3.6 90 20:59 22.01.2021
3402 Clouds 28 1013 65 10000 3.6 90 20:39 22.01.2021
3403 Clouds 27 1014 74 9656 1.54 130 19:59 22.01.2021
3404 Clouds 27 1014 74 9656 1.54 130 19:26 22.01.2021
3405 Clouds 27 1014 78 9656 1.54 180 18:59 22.01.2021
3406 Clouds 26 1014 78 9656 1.54 180 18:40 22.01.2021
3407 Clouds 26 1014 78 9656 1.54 180 18:21 22.01.2021
3408 Mist 24 1015 100 4023 2.46 142 17:43 22.01.2021
3409 Mist 23 1015 100 4023 2.75 162 17:24 22.01.2021
3410 Mist 21 1015 100 1609 2.75 162 16:40 22.01.2021
3411 Fog 21 1015 100 402 2.47 174 16:20 22.01.2021
3412 Fog 20 1014 100 10000 2.35 190 15:29 22.01.2021
3413 Fog 20 1014 100 10000 2.35 190 14:58 22.01.2021
3414 Fog 19 1014 100 10000 2.35 190 14:30 22.01.2021
3415 Fog 19 1014 100 10000 2.35 190 14:30 22.01.2021
3416 Fog 19 1013 100 10000 2.58 198 13:47 22.01.2021
3417 Fog 19 1013 100 10000 2.93 190 13:28 22.01.2021
3418 Clear 20 1011 79 10000 3.02 190 12:45 22.01.2021
3419 Clear 20 1011 79 10000 0.45 211 12:22 22.01.2021
3420 Clear 20 1011 79 10000 2.72 198 11:46 22.01.2021
3421 Clear 20 1011 78 10000 0.45 207 10:55 22.01.2021
3422 Clear 20 1011 79 10000 2.12 205 10:35 22.01.2021
3423 Clear 21 1011 78 10000 0.89 207 09:57 22.01.2021
3424 Clear 21 1011 78 10000 1.45 180 09:27 22.01.2021
3425 Clear 22 1012 78 10000 0.45 207 08:50 22.01.2021
3426 Clear 22 1012 78 10000 0.45 207 08:25 22.01.2021
3427 Clear 21 1014 100 8047 1.07 186 07:31 22.01.2021
3428 Clouds 24 1014 88 10000 3.23 115 02:46 22.01.2021
3429 Clear 26 1013 78 10000 2.57 100 00:38 22.01.2021
3430 Clear 27 1014 74 10000 4.12 110 23:51 21.01.2021
3431 Clear 27 1014 74 10000 4.12 110 23:29 21.01.2021
3432 Clouds 28 1014 69 10000 3.09 80 22:49 21.01.2021
3433 Clouds 28 1014 69 10000 3.09 80 22:23 21.01.2021
3434 Clouds 29 1015 65 9656 2.57 120 21:43 21.01.2021
3435 Clouds 29 1015 65 9656 2.57 120 21:20 21.01.2021
3436 Clouds 28 1017 69 9656 1.03 110 20:48 21.01.2021
3437 Clouds 28 1017 69 9656 1.03 110 20:27 21.01.2021
3438 Clouds 28 1018 65 9656 2.29 98 19:51 21.01.2021
3439 Clouds 28 1018 65 9656 1.14 104 19:29 21.01.2021
3440 Clouds 27 1020 78 9656 1.14 104 18:56 21.01.2021
3441 Clouds 26 1020 78 9656 1.14 104 18:38 21.01.2021
3442 Clouds 26 1020 78 9656 0.64 104 18:19 21.01.2021
3443 Clouds 25 1020 78 8047 0.64 104 17:42 21.01.2021
3444 Clouds 25 1020 78 8047 0.32 355 17:19 21.01.2021
3445 Clouds 24 1021 88 6437 0.32 355 16:42 21.01.2021
3446 Clouds 23 1021 88 6437 0.86 318 16:24 21.01.2021
3447 Mist 22 1020 100 4828 0.86 318 15:58 21.01.2021
3448 Mist 22 1020 100 4828 0.86 318 15:33 21.01.2021
3449 Mist 21 1020 100 4828 0.81 318 14:52 21.01.2021
3450 Mist 21 1020 100 4828 0.81 318 14:31 21.01.2021
3451 Mist 21 1020 100 4828 1.27 323 13:48 21.01.2021
3452 Mist 21 1020 100 4828 1.48 318 13:27 21.01.2021
3453 Clouds 22 1018 78 10000 0.45 341 12:55 21.01.2021
3454 Clouds 22 1018 78 10000 1.31 304 12:37 21.01.2021
3455 Clouds 22 1018 78 10000 1.87 316 12:18 21.01.2021
3456 Clouds 21 1017 78 10000 1.87 316 11:43 21.01.2021
3457 Clouds 21 1017 78 10000 1.81 332 11:22 21.01.2021
3458 Clouds 21 1018 77 10000 1.81 332 10:43 21.01.2021
3459 Clouds 21 1018 78 10000 1.63 356 10:24 21.01.2021
3460 Clouds 21 1018 77 10000 1.63 356 09:40 21.01.2021
3461 Clouds 21 1018 77 10000 1.73 14 09:20 21.01.2021
3462 Clouds 21 1019 77 10000 0.45 341 08:35 21.01.2021
3463 Clouds 22 1019 76 10000 0.45 341 07:48 21.01.2021
3464 Clouds 22 1019 76 10000 0.45 342 07:26 21.01.2021
3465 Clouds 22 1022 94 9656 1.54 350 06:31 21.01.2021
3466 Clouds 23 1021 94 8047 2.06 350 04:55 21.01.2021
3467 Clouds 24 1020 94 10000 2.06 350 02:19 21.01.2021
3468 Clouds 25 1019 83 10000 5.14 70 00:42 21.01.2021
3469 Clouds 26 1019 78 10000 4.12 60 23:49 20.01.2021
3470 Clouds 26 1019 78 10000 4.12 60 23:25 20.01.2021
3471 Clouds 26 1019 78 9656 3.6 100 22:52 20.01.2021
3472 Clouds 26 1019 78 9656 3.6 100 22:30 20.01.2021
3473 Clouds 26 1019 83 10000 4.12 100 21:54 20.01.2021
3474 Clouds 26 1019 83 10000 4.12 100 21:23 20.01.2021
3475 Clouds 26 1020 83 10000 3.6 100 20:52 20.01.2021
3476 Clouds 26 1020 83 10000 3.6 100 20:52 20.01.2021
3477 Clouds 26 1020 83 10000 3.6 100 20:24 20.01.2021
3478 Clouds 26 1021 83 8047 4.12 70 19:49 20.01.2021
3479 Clouds 26 1021 83 8047 4.12 70 19:31 20.01.2021
3480 Clouds 26 1021 83 8047 4.12 70 19:31 20.01.2021
3481 Clouds 26 1022 88 6437 5.14 60 18:49 20.01.2021
3482 Rain 25 1022 88 6437 5.14 60 18:30 20.01.2021
3483 Clouds 25 1022 94 9656 3.09 60 17:53 20.01.2021
3484 Clouds 25 1022 94 9656 3.09 60 17:35 20.01.2021
3485 Mist 23 1021 100 4023 3.6 10 16:52 20.01.2021
3486 Mist 23 1021 100 4023 3.6 10 16:24 20.01.2021
3487 Clouds 22 1021 100 4023 3.6 360 15:45 20.01.2021
3488 Clouds 22 1020 94 8047 2.57 330 15:19 20.01.2021
3489 Clouds 21 1020 100 8047 3.84 325 14:43 20.01.2021
3490 Clouds 21 1020 100 8047 4.04 333 14:21 20.01.2021
3491 Clouds 21 1020 100 4828 3.6 350 13:40 20.01.2021
3492 Clouds 22 1018 77 10000 0.89 300 12:59 20.01.2021
3493 Clouds 22 1017 77 10000 3.58 320 12:35 20.01.2021
3494 Clouds 22 1017 77 10000 1.79 337 11:53 20.01.2021
3495 Clouds 22 1017 77 10000 0.89 332 11:34 20.01.2021
3496 Clouds 22 1018 77 10000 3.37 6 10:50 20.01.2021
3497 Clouds 22 1017 77 10000 1.34 318 10:28 20.01.2021
3498 Clouds 22 1018 76 10000 0.45 355 09:44 20.01.2021
3499 Clouds 22 1018 76 6963 1.79 355 09:23 20.01.2021
3500 Clouds 22 1018 74 6963 1.34 13 08:47 20.01.2021
3501 Clouds 22 1018 69 10000 0.89 343 08:24 20.01.2021
3502 Clouds 22 1019 68 10000 1.34 10 07:55 20.01.2021
3503 Clouds 22 1018 68 10000 1.79 342 07:25 20.01.2021
3504 Clouds 23 1021 83 10000 1.77 5 05:24 20.01.2021
3505 Clouds 23 1018 78 10000 3.09 10 02:59 20.01.2021
3506 Clouds 25 1017 69 10000 2.57 60 00:59 20.01.2021
3507 Clouds 25 1017 69 10000 2.57 60 00:25 20.01.2021
3508 Clouds 26 1017 65 10000 5.14 80 23:42 19.01.2021
3509 Clouds 26 1017 65 10000 5.14 80 23:18 19.01.2021
3510 Clouds 27 1017 57 10000 1.54 100 22:41 19.01.2021
3511 Clouds 27 1017 57 10000 1.54 100 22:22 19.01.2021
3512 Clouds 27 1017 54 10000 1.54 120 21:58 19.01.2021
3513 Clouds 27 1017 54 10000 1.54 120 21:39 19.01.2021
3514 Clouds 27 1018 57 10000 2.57 100 20:55 19.01.2021
3515 Clouds 27 1018 57 10000 2.57 100 20:36 19.01.2021
3516 Clouds 27 1018 57 10000 2.57 100 20:18 19.01.2021
3517 Clouds 27 1019 54 10000 3.09 100 19:37 19.01.2021
3518 Clouds 27 1019 54 10000 3.09 100 19:19 19.01.2021
3519 Clouds 25 1020 78 9656 1.54 170 18:39 19.01.2021
3520 Clouds 25 1020 78 9656 1.54 170 18:21 19.01.2021
3521 Mist 22 1020 88 4828 2.57 180 17:45 19.01.2021
3522 Mist 22 1020 88 4828 2.57 180 17:23 19.01.2021
3523 Mist 20 1019 100 1609 1.54 200 16:44 19.01.2021
3524 Mist 20 1019 100 1609 1.54 200 16:24 19.01.2021
3525 Fog 18 1018 100 10000 2.28 183 15:54 19.01.2021
3526 Fog 17 1018 100 10000 2.28 183 15:34 19.01.2021
3527 Fog 17 1018 100 10000 1.03 170 14:50 19.01.2021
3528 Fog 16 1018 100 10000 1.03 170 14:29 19.01.2021
3529 Fog 16 1018 100 10000 2.22 188 13:52 19.01.2021
3530 Fog 16 1018 100 10000 2.02 195 13:28 19.01.2021
3531 Clouds 17 1016 78 10000 0.45 205 12:58 19.01.2021
3532 Clouds 18 1015 78 10000 1.99 190 12:34 19.01.2021
3533 Clouds 18 1015 79 10000 0.45 204 11:57 19.01.2021
3534 Clouds 18 1015 78 10000 0.45 220 11:37 19.01.2021
3535 Clouds 18 1015 78 10000 0.45 220 11:37 19.01.2021
3536 Clouds 17 1015 78 10000 0.45 225 11:19 19.01.2021
3537 Clouds 17 1015 76 10000 2.08 212 10:41 19.01.2021
3538 Clouds 18 1015 77 10000 2.65 225 10:19 19.01.2021
3539 Clouds 18 1015 77 10000 0.45 225 09:46 19.01.2021
3540 Clouds 18 1015 76 10000 2.69 214 09:20 19.01.2021
3541 Clouds 19 1015 76 10000 2.69 214 08:34 19.01.2021
3542 Clear 19 1016 75 10000 0.45 222 07:53 19.01.2021
3543 Clouds 19 1018 100 10000 2.06 180 06:59 19.01.2021
3544 Clouds 21 1018 88 10000 4.18 122 04:18 19.01.2021
3545 Clouds 22 1017 88 10000 3.99 117 02:22 19.01.2021
3546 Clouds 24 1016 78 10000 2.06 100 00:37 19.01.2021
3547 Clouds 24 1016 78 10000 1.54 100 23:48 18.01.2021
3548 Clouds 24 1016 78 10000 1.54 100 23:26 18.01.2021
3549 Clouds 25 1016 69 9656 1.54 120 22:43 18.01.2021
3550 Clouds 25 1016 69 9656 1.54 120 22:21 18.01.2021
3551 Clouds 24 1017 83 8047 2.43 129 21:47 18.01.2021
3552 Clouds 23 1017 83 8047 2.39 150 21:23 18.01.2021
3553 Mist 22 1019 83 4828 2.39 150 20:57 18.01.2021
3554 Mist 22 1019 83 4828 2.39 150 20:34 18.01.2021
3555 Mist 21 1020 94 4023 1.03 340 19:54 18.01.2021
3556 Mist 21 1020 94 4023 1.03 340 19:35 18.01.2021
3557 Drizzle 21 1021 88 1609 3.79 133 18:48 18.01.2021
3558 Drizzle 21 1021 88 1609 3.25 138 18:48 18.01.2021
3559 Drizzle 21 1021 88 1609 3.5 125 18:27 18.01.2021
3560 Mist 21 1021 88 4828 3.09 50 17:47 18.01.2021
3561 Mist 21 1021 88 4828 3.09 50 17:29 18.01.2021
3562 Clouds 21 1021 88 6437 4.12 20 16:50 18.01.2021
3563 Clouds 21 1021 88 6437 4.12 20 16:27 18.01.2021
3564 Clouds 21 1020 88 8047 2.06 10 15:52 18.01.2021
3565 Clouds 21 1020 88 8047 2.06 10 15:27 18.01.2021
3566 Clouds 21 1019 88 10000 2.06 360 14:56 18.01.2021
3567 Clouds 21 1019 88 10000 2.06 360 14:38 18.01.2021
3568 Clouds 21 1019 88 10000 2.06 360 14:19 18.01.2021
3569 Clouds 21 1019 88 10000 2.06 360 13:44 18.01.2021
3570 Clouds 21 1019 88 10000 2.06 360 13:20 18.01.2021
3571 Clouds 21 1017 68 10000 0.45 355 12:45 18.01.2021
3572 Clouds 21 1017 67 10000 0.45 355 12:18 18.01.2021
3573 Clouds 21 1016 67 10000 1.43 44 11:42 18.01.2021
3574 Clouds 21 1016 67 10000 0.45 355 11:23 18.01.2021
3575 Clouds 21 1016 67 10000 0.96 24 10:47 18.01.2021
3576 Clouds 21 1016 67 10000 0.96 24 10:47 18.01.2021
3577 Clouds 21 1016 67 10000 0.45 355 10:21 18.01.2021
3578 Clouds 21 1016 68 10000 0.89 355 09:39 18.01.2021
3579 Clouds 21 1016 68 10000 1.58 334 09:18 18.01.2021
3580 Clouds 21 1016 69 10000 1.42 340 08:26 18.01.2021
3581 Clouds 21 1017 68 10000 0.45 242 07:54 18.01.2021
3582 Clouds 21 1019 88 9656 0.95 348 06:35 18.01.2021
3583 Clouds 20 1019 88 9656 0.95 344 06:35 18.01.2021
3584 Clouds 20 1019 88 9656 1.95 353 04:43 18.01.2021
3585 Clouds 20 1019 88 9656 2.38 16 04:24 18.01.2021
3586 Drizzle 21 1019 83 9656 1.03 330 03:47 18.01.2021
3587 Drizzle 21 1019 83 9656 1.03 330 03:26 18.01.2021
3588 Clouds 22 1018 78 9656 1.03 350 02:54 18.01.2021
3589 Clouds 22 1018 78 9656 1.03 350 02:19 18.01.2021
3590 Clouds 22 1017 78 8047 3.09 30 00:41 18.01.2021
3591 Clouds 23 1016 60 8047 1.54 70 23:51 17.01.2021
3592 Clouds 23 1016 60 8047 1.54 70 23:25 17.01.2021
3593 Clouds 24 1015 57 10000 1.54 100 22:50 17.01.2021
3594 Clouds 24 1015 57 10000 1.54 100 22:22 17.01.2021
3595 Clouds 24 1015 64 10000 1.54 80 21:43 17.01.2021
3596 Clouds 24 1015 64 10000 1.54 80 21:24 17.01.2021
3597 Clouds 24 1016 60 10000 3.09 160 20:51 17.01.2021
3598 Clouds 24 1016 60 10000 3.09 160 20:32 17.01.2021
3599 Clouds 25 1016 61 10000 4.12 200 19:53 17.01.2021
3600 Clouds 25 1016 61 10000 4.12 200 19:34 17.01.2021
3601 Clouds 25 1017 64 10000 4.63 180 18:53 17.01.2021
3602 Clouds 24 1017 64 10000 4.63 180 18:29 17.01.2021
3603 Clouds 23 1018 73 10000 5.07 173 17:50 17.01.2021
3604 Clouds 23 1018 73 10000 5.8 185 17:29 17.01.2021
3605 Clouds 19 1018 100 9656 5.8 185 16:45 17.01.2021
3606 Clouds 18 1018 100 9656 5.22 193 16:25 17.01.2021
3607 Clouds 18 1017 94 8047 5.22 193 15:53 17.01.2021
3608 Clouds 17 1017 94 8047 4.1 187 15:27 17.01.2021
3609 Clouds 17 1016 94 9656 4.1 187 14:59 17.01.2021
3610 Clouds 17 1016 94 9656 3.95 180 14:27 17.01.2021
3611 Clouds 17 1016 94 9656 3.95 180 13:59 17.01.2021
3612 Clouds 17 1016 94 9656 3.95 180 13:41 17.01.2021
3613 Clouds 17 1014 75 10000 0.45 186 13:21 17.01.2021
3614 Clouds 17 1013 75 10000 0.45 186 12:44 17.01.2021
3615 Clouds 17 1013 74 10000 0.45 186 12:24 17.01.2021
3616 Clouds 18 1013 74 10000 1.34 211 11:25 17.01.2021
3617 Clouds 18 1013 73 10000 1.34 194 10:51 17.01.2021
3618 Clouds 18 1013 72 10000 1.34 198 10:25 17.01.2021
3619 Clouds 18 1014 72 10000 1.34 233 09:50 17.01.2021
3620 Clouds 18 1015 70 10000 1.34 242 08:59 17.01.2021
3621 Clouds 18 1015 70 10000 0.89 263 08:40 17.01.2021
3622 Drizzle 19 1020 30 9656 2.82 117 04:30 17.01.2021
3623 Clouds 20 1019 77 10000 3.17 69 02:51 17.01.2021
3624 Clouds 20 1019 77 10000 2.57 360 00:57 17.01.2021
3625 Clouds 20 1019 77 10000 2.57 360 00:21 17.01.2021
3626 Clouds 20 1019 77 10000 2.57 10 23:52 16.01.2021
3627 Clouds 20 1019 77 10000 2.57 10 23:22 16.01.2021
3628 Clouds 21 1019 73 10000 3.6 360 22:53 16.01.2021
3629 Clouds 21 1019 73 10000 3.6 360 22:19 16.01.2021
3630 Clouds 21 1020 73 10000 3.09 10 21:45 16.01.2021
3631 Clouds 21 1020 73 10000 3.09 10 21:22 16.01.2021
3632 Clouds 20 1021 77 10000 4.12 10 20:47 16.01.2021
3633 Clouds 20 1021 77 10000 4.12 10 20:23 16.01.2021
3634 Clouds 21 1022 73 10000 4.12 360 19:49 16.01.2021
3635 Clouds 21 1022 73 10000 4.12 360 19:29 16.01.2021
3636 Clouds 21 1023 73 9656 4.63 10 18:46 16.01.2021
3637 Clouds 21 1023 73 9656 4.63 10 18:27 16.01.2021
3638 Clouds 22 1023 68 9656 3.6 20 17:50 16.01.2021
3639 Clouds 22 1023 68 9656 3.6 20 17:30 16.01.2021
3640 Clouds 21 1021 63 10000 5.36 18 16:51 16.01.2021
3641 Clouds 21 1021 63 10000 5.36 18 16:33 16.01.2021
3642 Clouds 21 1022 77 9656 6.69 360 15:55 16.01.2021
3643 Clouds 21 1022 77 9656 6.69 360 15:36 16.01.2021
3644 Clouds 20 1022 77 9656 6.17 10 14:31 16.01.2021
3645 Clouds 20 1021 77 9656 4.12 10 13:50 16.01.2021
3646 Clouds 20 1021 77 9656 4.12 10 13:30 16.01.2021
3647 Clouds 21 1019 63 10000 5.81 11 12:47 16.01.2021
3648 Clouds 21 1019 63 10000 4.47 15 12:22 16.01.2021
3649 Clouds 21 1019 63 10000 4.02 337 11:55 16.01.2021
3650 Clouds 21 1019 63 10000 4.47 355 11:25 16.01.2021
3651 Clouds 21 1018 62 10000 5.81 5 10:50 16.01.2021
3652 Clouds 21 1018 62 10000 6.26 360 10:30 16.01.2021
3653 Clouds 21 1019 62 10000 4.47 5 09:42 16.01.2021
3654 Clouds 21 1019 62 10000 4.47 355 09:19 16.01.2021
3655 Clouds 21 1021 68 9656 2.06 320 07:53 16.01.2021
3656 Clouds 22 1021 68 10000 7.72 340 06:44 16.01.2021
3657 Clouds 22 1021 68 10000 7.72 340 06:44 16.01.2021
3658 Clouds 21 1020 78 9656 5.14 20 04:52 16.01.2021
3659 Clouds 21 1018 78 9656 5.14 20 02:58 16.01.2021
3660 Clouds 21 1018 78 9656 5.14 20 02:25 16.01.2021
3661 Clouds 22 1017 68 10000 7.72 10 00:44 16.01.2021
3662 Clouds 22 1017 68 10000 7.72 10 00:20 16.01.2021
3663 Clouds 23 1016 60 10000 7.72 10 23:28 15.01.2021
3664 Clouds 23 1016 64 10000 5.14 360 22:27 15.01.2021
3665 Clouds 24 1017 64 9656 7.72 340 21:48 15.01.2021
3666 Clouds 24 1017 64 9656 7.72 340 21:30 15.01.2021
3667 Clouds 25 1017 61 10000 6.17 30 20:42 15.01.2021
3668 Clouds 25 1017 61 10000 6.17 30 20:23 15.01.2021
3669 Clouds 25 1018 64 9656 5.14 340 19:43 15.01.2021
3670 Clouds 25 1018 64 9656 5.14 340 19:24 15.01.2021
3671 Clouds 24 1018 64 10000 5.14 340 18:45 15.01.2021
3672 Clouds 24 1018 64 10000 5.14 340 18:20 15.01.2021
3673 Clouds 24 1018 57 9656 7.72 360 17:54 15.01.2021
3674 Clouds 25 1018 57 9656 7.72 360 17:28 15.01.2021
3675 Clouds 24 1018 68 10000 6.69 10 16:59 15.01.2021
3676 Clouds 24 1018 68 10000 6.69 10 16:40 15.01.2021
3677 Clouds 24 1018 68 10000 6.69 10 16:40 15.01.2021
3678 Clouds 24 1018 68 10000 6.69 10 16:20 15.01.2021
3679 Clouds 21 1017 100 8047 2.06 20 15:37 15.01.2021
3680 Clouds 21 1017 100 8047 2.06 20 15:18 15.01.2021
3681 Clouds 19 1016 100 10000 3.09 350 14:38 15.01.2021
3682 Clouds 19 1016 100 10000 3.09 350 14:18 15.01.2021
3683 Clouds 18 1015 100 10000 5.67 7 13:40 15.01.2021
3684 Clouds 18 1015 100 10000 2.73 343 13:19 15.01.2021
3685 Clouds 18 1013 76 10000 2.73 343 12:45 15.01.2021
3686 Clouds 18 1013 77 10000 1.18 300 12:22 15.01.2021
3687 Clouds 18 1012 76 10000 0.45 217 11:42 15.01.2021
3688 Clouds 18 1012 76 10000 1.37 219 11:18 15.01.2021
3689 Clouds 18 1012 76 10000 1.37 219 10:48 15.01.2021
3690 Clouds 18 1012 74 10000 2.22 202 10:21 15.01.2021
3691 Clouds 19 1012 74 10000 2.22 202 09:48 15.01.2021
3692 Clouds 19 1012 73 10000 0.89 217 09:29 15.01.2021
3693 Clouds 19 1013 71 10000 0.45 217 08:28 15.01.2021
3694 Clouds 19 1013 71 10000 2.55 207 07:44 15.01.2021
3695 Clouds 19 1013 70 10000 0.45 217 07:23 15.01.2021
3696 Clouds 20 1015 88 10000 1.65 230 06:36 15.01.2021
3697 Clouds 22 1015 83 10000 2.65 144 02:44 15.01.2021
3698 Clouds 24 1014 69 10000 1.54 110 00:42 15.01.2021
3699 Clouds 25 1014 65 10000 1.03 110 23:30 14.01.2021
3700 Clouds 25 1014 65 10000 1.54 120 22:57 14.01.2021
3701 Clouds 25 1014 65 10000 1.54 120 22:37 14.01.2021
3702 Clouds 25 1014 65 10000 1.54 120 22:19 14.01.2021
3703 Clouds 25 1014 61 10000 3.09 70 21:39 14.01.2021
3704 Clouds 25 1014 61 10000 3.09 70 21:20 14.01.2021
3705 Clouds 26 1016 54 10000 2.06 160 20:47 14.01.2021
3706 Clouds 26 1016 54 10000 2.06 160 20:18 14.01.2021
3707 Clouds 26 1016 54 10000 2.06 160 20:18 14.01.2021
3708 Clouds 25 1017 57 10000 1.54 150 19:38 14.01.2021
3709 Clouds 25 1017 57 10000 1.54 150 19:18 14.01.2021
3710 Clouds 25 1018 60 10000 1.66 124 18:44 14.01.2021
3711 Clouds 22 1019 73 10000 2.57 210 17:59 14.01.2021
3712 Clouds 22 1019 73 10000 2.57 210 17:38 14.01.2021
3713 Clouds 22 1019 73 10000 2.57 210 17:19 14.01.2021
3714 Clouds 21 1019 77 8047 1.59 237 16:37 14.01.2021
3715 Clouds 19 1018 88 8047 1.8 233 15:55 14.01.2021
3716 Clouds 18 1018 88 8047 1.8 233 15:34 14.01.2021
3717 Clouds 17 1018 88 9656 1.65 208 14:49 14.01.2021
3718 Clouds 17 1018 88 9656 1.65 208 14:31 14.01.2021
3719 Clouds 17 1018 88 9656 1.77 196 13:56 14.01.2021
3720 Clouds 17 1018 88 9656 1.36 212 13:25 14.01.2021
3721 Clouds 18 1016 65 10000 0.45 218 12:58 14.01.2021
3722 Clouds 18 1016 65 10000 0.45 218 12:23 14.01.2021
3723 Clouds 18 1016 66 10000 0.45 218 11:59 14.01.2021
3724 Clouds 18 1016 66 10000 2.01 210 11:41 14.01.2021
3725 Clouds 18 1016 66 10000 1.83 213 11:19 14.01.2021
3726 Clouds 17 1016 66 10000 0.89 218 10:42 14.01.2021
3727 Clouds 17 1016 66 10000 0.89 218 10:19 14.01.2021
3728 Clouds 17 1017 66 10000 0.89 218 09:44 14.01.2021
3729 Clouds 17 1017 66 10000 0.89 218 09:22 14.01.2021
3730 Clouds 18 1018 65 10000 0.89 253 08:39 14.01.2021
3731 Clouds 18 1018 65 10000 0.89 253 08:19 14.01.2021
3732 Clouds 18 1019 63 10000 0.89 254 07:41 14.01.2021
3733 Clouds 19 1021 82 10000 1.99 283 06:38 14.01.2021
3734 Clouds 20 1022 73 10000 4.12 10 04:59 14.01.2021
3735 Clouds 21 1020 64 10000 7.72 360 00:34 14.01.2021
3736 Clouds 22 1020 60 10000 6.17 360 23:33 13.01.2021
3737 Clouds 23 1020 56 10000 6.17 350 22:51 13.01.2021
3738 Clouds 23 1020 56 10000 6.17 350 22:26 13.01.2021
3739 Clouds 22 1021 56 10000 4.12 350 21:50 13.01.2021
3740 Clouds 22 1021 56 10000 4.12 350 21:24 13.01.2021
3741 Clouds 22 1022 60 10000 5.14 340 20:51 13.01.2021
3742 Clouds 22 1022 60 10000 5.14 340 20:28 13.01.2021
3743 Clouds 21 1024 64 9656 7.72 360 19:56 13.01.2021
3744 Clouds 21 1024 64 9656 7.72 360 19:31 13.01.2021
3745 Clouds 21 1024 68 9656 6.69 10 18:53 13.01.2021
3746 Clouds 21 1024 68 9656 6.69 10 18:53 13.01.2021
3747 Clouds 20 1024 68 9656 6.69 10 18:34 13.01.2021
3748 Clouds 20 1025 68 9656 5.14 360 17:51 13.01.2021
3749 Clouds 20 1025 68 9656 5.14 360 17:19 13.01.2021
3750 Clouds 19 1024 68 9656 6.17 350 16:47 13.01.2021
3751 Clouds 19 1024 68 9656 6.17 350 16:21 13.01.2021
3752 Clouds 18 1023 72 10000 6.17 360 15:49 13.01.2021
3753 Clouds 18 1023 72 10000 6.17 360 15:31 13.01.2021
3754 Clouds 18 1023 72 10000 6.17 360 14:33 13.01.2021
3755 Clouds 18 1023 72 10000 6.17 360 13:50 13.01.2021
3756 Clouds 18 1023 72 10000 6.17 360 13:26 13.01.2021
3757 Clouds 18 1021 60 10000 3.58 355 12:46 13.01.2021
3758 Clouds 18 1021 60 10000 3.58 355 12:27 13.01.2021
3759 Clouds 18 1021 61 10000 1.34 351 11:53 13.01.2021
3760 Clouds 18 1021 61 10000 1.34 336 11:34 13.01.2021
3761 Clouds 18 1021 61 10000 0.89 290 10:50 13.01.2021
3762 Clouds 18 1020 61 10000 0.89 336 10:30 13.01.2021
3763 Clouds 18 1021 61 10000 0.89 331 09:51 13.01.2021
3764 Clouds 18 1021 61 10000 0.89 298 09:30 13.01.2021
3765 Clouds 18 1022 60 10000 0.89 313 08:49 13.01.2021
3766 Clouds 18 1022 59 10000 2.24 355 08:25 13.01.2021
3767 Clouds 18 1022 59 10000 4.02 344 07:32 13.01.2021
3768 Clouds 18 1024 77 10000 4.12 340 06:51 13.01.2021
3769 Clouds 18 1024 77 10000 5.14 10 04:20 13.01.2021
3770 Clouds 17 1023 77 10000 6.69 20 03:44 13.01.2021
3771 Clouds 17 1023 77 10000 6.69 20 03:24 13.01.2021
3772 Clouds 17 1023 82 10000 4.63 10 01:18 13.01.2021
3773 Clouds 18 1022 77 10000 5.14 20 23:52 12.01.2021
3774 Clouds 18 1022 77 10000 5.14 20 23:20 12.01.2021
3775 Clouds 19 1022 72 10000 6.69 360 22:45 12.01.2021
3776 Clouds 19 1022 72 10000 6.69 360 22:23 12.01.2021
3777 Clouds 20 1023 68 10000 6.69 360 21:49 12.01.2021
3778 Clouds 20 1023 68 10000 6.69 360 21:26 12.01.2021
3779 Clouds 20 1024 64 10000 10.29 10 20:48 12.01.2021
3780 Clouds 20 1024 64 10000 10.29 10 20:27 12.01.2021
3781 Clouds 20 1025 68 10000 7.2 20 19:47 12.01.2021
3782 Clouds 20 1025 68 10000 7.2 20 19:26 12.01.2021
3783 Clouds 21 1026 60 10000 6.69 30 18:42 12.01.2021
3784 Clouds 21 1026 60 10000 6.69 30 18:23 12.01.2021
3785 Clouds 20 1026 60 10000 2.57 350 17:39 12.01.2021
3786 Clouds 20 1026 60 10000 2.57 350 17:19 12.01.2021
3787 Clouds 20 1026 68 10000 1.03 340 16:43 12.01.2021
3788 Clouds 19 1026 68 10000 1.03 340 16:22 12.01.2021
3789 Clouds 17 1026 82 10000 5.6 326 15:29 12.01.2021
3790 Clouds 17 1025 88 10000 5.6 326 14:59 12.01.2021
3791 Clouds 16 1025 88 10000 5.6 326 14:41 12.01.2021
3792 Clouds 16 1025 88 10000 5.44 333 14:19 12.01.2021
3793 Clouds 16 1025 88 9656 5.44 333 13:50 12.01.2021
3794 Clouds 17 1023 65 10000 1.34 274 12:50 12.01.2021
3795 Clouds 17 1023 65 10000 0.89 271 12:21 12.01.2021
3796 Clouds 17 1023 62 10000 1.34 254 11:40 12.01.2021
3797 Clouds 17 1023 56 10000 2.24 281 10:50 12.01.2021
3798 Clouds 17 1023 56 10000 2.68 325 10:21 12.01.2021
3799 Clouds 17 1023 57 10000 1.79 330 09:57 12.01.2021
3800 Clouds 17 1023 56 10000 1.34 300 09:27 12.01.2021
3801 Clouds 17 1024 55 10000 1.34 349 08:46 12.01.2021
3802 Clouds 17 1024 55 10000 1.34 349 08:23 12.01.2021
3803 Clouds 17 1024 54 10000 1.79 320 07:35 12.01.2021
3804 Clouds 18 1026 68 10000 4.12 350 06:26 12.01.2021
3805 Clouds 18 1026 68 10000 6.17 340 05:30 12.01.2021
3806 Clouds 18 1025 68 10000 9.26 360 03:26 12.01.2021
3807 Clouds 17 1024 72 10000 5.14 340 02:19 12.01.2021
3808 Clouds 17 1024 72 9656 5.14 350 01:28 12.01.2021
3809 Clouds 18 1023 68 9656 7.72 360 23:51 11.01.2021
3810 Clouds 18 1023 68 9656 7.72 360 23:23 11.01.2021
3811 Clouds 18 1023 68 9656 7.72 10 22:58 11.01.2021
3812 Clouds 18 1023 68 9656 7.72 10 22:39 11.01.2021
3813 Clouds 18 1023 68 9656 7.72 10 22:18 11.01.2021
3814 Clouds 18 1023 68 9656 5.14 350 21:37 11.01.2021
3815 Clouds 18 1023 68 9656 5.14 350 21:18 11.01.2021
3816 Clouds 18 1023 68 9656 5.14 360 20:41 11.01.2021
3817 Clouds 18 1023 68 9656 5.14 360 20:41 11.01.2021
3818 Clouds 18 1023 68 9656 5.14 360 20:22 11.01.2021
3819 Clouds 19 1024 68 9656 8.23 350 19:54 11.01.2021
3820 Clouds 19 1024 68 9656 8.23 350 19:25 11.01.2021
3821 Clouds 19 1024 63 9656 10.29 360 18:45 11.01.2021
3822 Clouds 19 1024 63 9656 10.29 360 18:25 11.01.2021
3823 Clouds 18 1024 68 9656 10.29 360 17:44 11.01.2021
3824 Clouds 18 1024 68 9656 10.29 360 17:26 11.01.2021
3825 Clouds 19 1023 68 9656 7.72 360 16:57 11.01.2021
3826 Clouds 19 1023 68 9656 7.72 360 16:36 11.01.2021
3827 Clouds 19 1023 68 9656 7.72 360 16:18 11.01.2021
3828 Clouds 19 1022 72 9656 7.72 360 15:44 11.01.2021
3829 Clouds 19 1022 72 9656 7.72 360 15:25 11.01.2021
3830 Clouds 20 1022 72 9656 7.72 350 14:39 11.01.2021
3831 Clouds 19 1021 82 9656 7.72 360 13:50 11.01.2021
3832 Clouds 19 1021 82 9656 7.72 360 13:25 11.01.2021
3833 Clouds 19 1019 65 10000 10.28 355 12:49 11.01.2021
3834 Clouds 19 1019 68 10000 9.39 20 12:30 11.01.2021
3835 Clouds 20 1018 69 10000 9.83 5 11:56 11.01.2021
3836 Clouds 21 1018 68 10000 9.39 355 11:26 11.01.2021
3837 Clouds 21 1017 64 10000 2.24 327 10:47 11.01.2021
3838 Clouds 21 1017 64 10000 1.79 290 10:24 11.01.2021
3839 Clouds 21 1017 64 10000 1.34 326 09:39 11.01.2021
3840 Clouds 21 1017 64 10000 1.34 307 09:20 11.01.2021
3841 Clouds 21 1017 64 10000 0.89 325 08:44 11.01.2021
3842 Clouds 21 1017 63 10000 1.34 338 08:18 11.01.2021
3843 Clouds 21 1017 65 10000 1.79 342 07:26 11.01.2021
3844 Clouds 20 1018 88 10000 0.54 93 06:58 11.01.2021
3845 Clouds 22 1015 78 10000 3.75 108 03:27 11.01.2021
3846 Clouds 23 1014 68 9656 3.6 93 01:29 11.01.2021
3847 Clouds 24 1014 61 10000 3.09 110 23:59 10.01.2021
3848 Clouds 25 1014 61 10000 3.09 110 23:30 10.01.2021
3849 Clouds 26 1014 53 9656 1.54 160 22:48 10.01.2021
3850 Clouds 26 1014 53 9656 1.54 160 22:23 10.01.2021
3851 Clouds 26 1015 53 10000 1.54 130 21:44 10.01.2021
3852 Clouds 26 1015 53 10000 1.54 130 21:20 10.01.2021
3853 Clouds 26 1016 50 10000 5.14 180 20:53 10.01.2021
3854 Clouds 26 1016 50 10000 5.14 180 20:32 10.01.2021
3855 Clouds 26 1018 57 10000 4.12 170 19:43 10.01.2021
3856 Clouds 26 1018 57 10000 4.12 170 19:25 10.01.2021
3857 Clouds 25 1019 69 10000 3.09 190 18:49 10.01.2021
3858 Clouds 25 1019 69 10000 3.09 190 18:21 10.01.2021
3859 Clouds 25 1019 69 10000 3.09 190 18:21 10.01.2021
3860 Clouds 23 1019 68 10000 2.06 200 17:28 10.01.2021
3861 Clouds 22 1019 94 10000 3.21 196 16:59 10.01.2021
3862 Clouds 21 1019 94 10000 3.21 196 16:32 10.01.2021
3863 Clouds 19 1018 100 9656 3.24 202 15:54 10.01.2021
3864 Clouds 19 1018 100 9656 3.33 192 15:25 10.01.2021
3865 Clouds 18 1018 100 10000 3.33 192 14:50 10.01.2021
3866 Clouds 18 1018 100 10000 3.33 192 14:31 10.01.2021
3867 Clouds 18 1017 100 10000 3.55 191 13:54 10.01.2021
3868 Clouds 18 1017 100 10000 3.55 191 13:36 10.01.2021
3869 Clouds 18 1017 100 10000 3.36 189 13:18 10.01.2021
3870 Clouds 19 1016 76 10000 0.45 238 12:42 10.01.2021
3871 Clouds 19 1015 76 10000 0.89 238 11:58 10.01.2021
3872 Clouds 19 1015 76 10000 1.34 213 11:22 10.01.2021
3873 Clouds 19 1015 75 10000 0.89 235 10:58 10.01.2021
3874 Clouds 19 1015 75 10000 0.89 235 10:30 10.01.2021
3875 Clouds 19 1016 73 10000 1.34 233 09:58 10.01.2021
3876 Clouds 19 1016 72 10000 1.34 221 09:24 10.01.2021
3877 Clouds 19 1017 71 10000 0.45 196 08:20 10.01.2021
3878 Clouds 19 1017 70 10000 0.89 196 07:28 10.01.2021
3879 Clouds 20 1019 94 10000 4.39 119 06:19 10.01.2021
3880 Clouds 20 1020 88 10000 4.39 119 05:35 10.01.2021
3881 Clouds 21 1019 78 10000 4.34 99 02:56 10.01.2021
3882 Clouds 22 1018 73 10000 1.03 120 00:48 10.01.2021
3883 Clouds 22 1018 73 10000 2.06 40 23:47 09.01.2021
3884 Clouds 22 1018 73 10000 2.06 40 23:28 09.01.2021
3885 Clouds 23 1018 73 10000 2.57 60 22:44 09.01.2021
3886 Clouds 23 1018 73 10000 2.57 60 22:18 09.01.2021
3887 Clouds 24 1019 69 10000 3.67 94 21:56 09.01.2021
3888 Clouds 24 1019 69 10000 3.67 94 21:37 09.01.2021
3889 Clouds 24 1019 69 10000 2.79 94 21:18 09.01.2021
3890 Clouds 22 1021 83 9656 2.06 320 20:39 09.01.2021
3891 Clouds 20 1022 88 9656 1.03 310 19:44 09.01.2021
3892 Clouds 20 1022 88 9656 1.03 310 19:22 09.01.2021
3893 Drizzle 20 1023 94 8047 1.54 20 18:41 09.01.2021
3894 Drizzle 20 1023 94 8047 1.54 20 18:20 09.01.2021
3895 Drizzle 20 1023 88 3219 1.03 90 17:46 09.01.2021
3896 Mist 20 1023 88 3219 1.03 90 17:27 09.01.2021
3897 Clouds 20 1023 94 9656 1.24 30 16:33 09.01.2021
3898 Clouds 18 1022 100 9656 1.24 1 15:52 09.01.2021
3899 Clouds 18 1022 100 9656 1.24 1 15:32 09.01.2021
3900 Clouds 18 1022 94 10000 1.03 320 14:40 09.01.2021
3901 Clouds 18 1022 94 10000 1.03 320 14:20 09.01.2021
3902 Clouds 18 1021 94 10000 1.54 320 13:48 09.01.2021
3903 Clouds 18 1021 94 10000 1.54 320 13:29 09.01.2021
3904 Clouds 18 1020 76 10000 1.79 309 12:48 09.01.2021
3905 Clouds 18 1019 76 10000 2.68 306 12:22 09.01.2021
3906 Clouds 18 1019 76 10000 1.79 304 11:55 09.01.2021
3907 Clouds 18 1020 76 10000 1.34 294 11:30 09.01.2021
3908 Clouds 18 1020 76 10000 1.79 299 10:52 09.01.2021
3909 Clouds 18 1020 76 10000 1.34 304 10:30 09.01.2021
3910 Clouds 18 1020 75 10000 2.24 333 09:53 09.01.2021
3911 Clouds 18 1020 75 10000 2.24 317 09:28 09.01.2021
3912 Clouds 19 1021 74 10000 1.34 344 08:34 09.01.2021
3913 Clouds 19 1023 94 10000 2.29 13 06:58 09.01.2021
3914 Clouds 19 1023 94 10000 2.29 13 06:39 09.01.2021
3915 Clouds 20 1023 94 9656 1.54 360 04:47 09.01.2021
3916 Clouds 22 1022 73 10000 3.09 360 03:21 09.01.2021
3917 Clouds 22 1022 73 10000 3.6 360 02:30 09.01.2021
3918 Clouds 22 1021 73 9656 3.09 20 01:45 09.01.2021
3919 Clouds 22 1021 73 9656 5.66 30 00:35 09.01.2021
3920 Clouds 23 1020 64 9656 4.63 40 23:57 08.01.2021
3921 Clouds 24 1020 57 10000 4.12 40 22:56 08.01.2021
3922 Clouds 25 1020 57 10000 4.12 40 22:18 08.01.2021
3923 Clouds 25 1020 50 9656 5.14 70 21:35 08.01.2021
3924 Clouds 26 1021 47 9656 3.6 30 20:42 08.01.2021
3925 Clouds 26 1021 47 9656 3.6 30 20:23 08.01.2021
3926 Clouds 25 1023 47 8047 5.14 60 19:44 08.01.2021
3927 Clouds 25 1023 47 8047 5.14 60 19:21 08.01.2021
3928 Clouds 25 1023 88 6437 3.6 340 18:34 08.01.2021
3929 Haze 24 1024 53 4828 1.54 280 17:56 08.01.2021
3930 Haze 23 1024 53 4828 1.54 280 17:35 08.01.2021
3931 Haze 22 1023 68 4828 2.22 343 16:51 08.01.2021
3932 Haze 22 1023 68 4828 2.22 343 16:51 08.01.2021
3933 Haze 21 1023 68 4828 2.32 324 16:20 08.01.2021
3934 Clouds 18 1023 77 6437 2.32 324 15:40 08.01.2021
3935 Clouds 17 1022 82 8047 2.58 319 14:42 08.01.2021
3936 Clouds 16 1022 82 8047 2.59 319 14:23 08.01.2021
3937 Clouds 15 1021 88 9656 2.55 307 13:23 08.01.2021
3938 Clouds 16 1019 62 10000 0.45 280 12:53 08.01.2021
3939 Clouds 15 1019 61 10000 2.38 289 12:26 08.01.2021
3940 Clouds 16 1019 61 10000 0.45 280 11:59 08.01.2021
3941 Clouds 16 1019 61 10000 0.45 280 11:41 08.01.2021
3942 Clouds 16 1019 61 10000 0.45 280 11:20 08.01.2021
3943 Clouds 16 1019 60 10000 0.45 280 10:46 08.01.2021
3944 Clouds 16 1019 59 10000 0.45 279 10:23 08.01.2021
3945 Clouds 16 1019 58 10000 0.45 279 09:41 08.01.2021
3946 Clouds 16 1019 59 10000 0.89 279 09:20 08.01.2021
3947 Clouds 17 1020 59 10000 2.58 317 07:44 08.01.2021
3948 Clouds 19 1022 73 10000 2.06 360 07:25 08.01.2021
3949 Clouds 21 1022 68 10000 3.6 10 04:18 08.01.2021
3950 Clouds 24 1018 46 10000 7.72 350 23:44 07.01.2021
3951 Clouds 24 1018 46 10000 7.72 350 23:25 07.01.2021
3952 Clouds 25 1018 44 10000 8.75 20 22:36 07.01.2021
3953 Clouds 24 1018 46 10000 11.32 10 21:52 07.01.2021
3954 Clouds 24 1018 46 10000 11.32 10 21:33 07.01.2021
3955 Clouds 25 1018 44 10000 10.29 360 20:56 07.01.2021
3956 Clouds 25 1018 44 10000 10.29 360 20:38 07.01.2021
3957 Clouds 25 1019 47 10000 13.89 340 19:50 07.01.2021
3958 Clouds 25 1019 47 10000 13.89 340 19:30 07.01.2021
3959 Clouds 25 1020 50 9656 5.14 360 18:50 07.01.2021
3960 Clouds 25 1020 50 9656 5.14 360 18:21 07.01.2021
3961 Clouds 25 1020 60 10000 10.29 360 17:36 07.01.2021
3962 Clouds 24 1020 60 10000 10.29 360 17:18 07.01.2021
3963 Clouds 24 1020 64 10000 16.98 330 16:42 07.01.2021
3964 Clouds 24 1020 64 10000 16.98 330 16:18 07.01.2021
3965 Clouds 23 1019 78 9656 8.75 350 15:31 07.01.2021
3966 Clouds 23 1017 83 10000 3.6 360 14:39 07.01.2021
3967 Clouds 23 1017 83 10000 3.6 360 14:20 07.01.2021
3968 Clouds 22 1017 100 9656 9.11 335 13:31 07.01.2021
3969 Clouds 22 1014 77 10000 0.45 274 12:57 07.01.2021
3970 Clouds 22 1014 76 10000 3.78 13 12:29 07.01.2021
3971 Clouds 22 1013 75 10000 3.78 13 11:48 07.01.2021
3972 Clouds 22 1013 76 10000 2.59 358 11:29 07.01.2021
3973 Clouds 22 1013 74 10000 2.59 358 10:39 07.01.2021
3974 Clouds 22 1013 72 10000 0.45 338 10:19 07.01.2021
3975 Clouds 23 1013 71 10000 0.45 338 09:42 07.01.2021
3976 Clouds 23 1013 71 10000 1.34 345 08:53 07.01.2021
3977 Clouds 23 1013 72 10000 1.34 335 08:24 07.01.2021
3978 Clouds 23 1013 72 10000 0.72 15 07:43 07.01.2021
3979 Clouds 23 1015 94 9656 1.13 129 06:51 07.01.2021
3980 Clouds 24 1012 88 10000 3.1 90 03:18 07.01.2021
3981 Clouds 25 1011 78 10000 3.1 90 00:25 07.01.2021
3982 Clouds 26 1011 74 10000 2.6 110 23:35 06.01.2021
3983 Clouds 26 1011 74 10000 3.1 100 22:36 06.01.2021
3984 Clouds 28 1012 65 10000 3.6 100 21:42 06.01.2021
3985 Clouds 28 1013 62 10000 1.5 140 21:22 06.01.2021
3986 Clouds 28 1013 62 10000 1.5 140 20:50 06.01.2021
3987 Clouds 28 1014 61 10000 3.6 180 20:22 06.01.2021
3988 Clouds 28 1014 61 10000 3.6 180 19:48 06.01.2021
3989 Clouds 28 1014 61 10000 3.6 180 19:29 06.01.2021
3990 Clouds 27 1015 69 10000 2.6 190 18:50 06.01.2021
3991 Clear 27 1013 54 10000 1.34 172 18:32 06.01.2021
3992 Clear 26 1016 78 10000 2.48 169 17:47 06.01.2021
3993 Clear 25 1016 78 10000 2.83 179 17:28 06.01.2021
3994 Clear 25 1016 83 9656 2.83 179 16:59 06.01.2021
3995 Clear 25 1016 83 9656 2.83 179 16:36 06.01.2021
3996 Clouds 23 1015 94 9656 2.1 180 16:18 06.01.2021
3997 Clouds 21 1015 94 9656 2.1 180 15:43 06.01.2021
3998 Clear 21 1014 74 10000 0.45 187 15:23 06.01.2021
3999 Clouds 21 1015 100 9656 2.01 191 14:32 06.01.2021
4000 Clouds 21 1015 94 9656 1.48 206 13:55 06.01.2021
4001 Clouds 21 1015 94 9656 1.34 217 13:27 06.01.2021
4002 Clouds 21 1013 73 10000 0.89 263 12:58 06.01.2021
4003 Clouds 21 1013 74 10000 0.45 248 12:32 06.01.2021
4004 Clouds 21 1013 74 10000 1.3 218 11:46 06.01.2021
4005 Clouds 21 1013 74 10000 0.45 248 11:23 06.01.2021
4006 Clouds 21 1013 73 10000 1.66 230 10:43 06.01.2021
4007 Clouds 21 1013 72 10000 0.45 198 09:52 06.01.2021
4008 Clouds 21 1014 72 10000 0.45 198 09:31 06.01.2021
4009 Clouds 21 1014 71 10000 0.45 289 08:52 06.01.2021
4010 Clouds 22 1015 71 10000 0.45 289 08:19 06.01.2021
4011 Clouds 22 1015 71 10000 0.45 289 08:19 06.01.2021
4012 Clouds 22 1015 70 10000 1.34 288 07:51 06.01.2021
4013 Clouds 21 1017 94 10000 0.8 256 06:44 06.01.2021
4014 Clouds 22 1018 94 10000 0.38 347 05:28 06.01.2021
4015 Clouds 22 1017 94 10000 1.5 340 02:59 06.01.2021
4016 Clouds 22 1017 94 10000 1.5 340 02:40 06.01.2021
4017 Clouds 22 1017 88 9656 2.1 360 02:19 06.01.2021
4018 Clouds 23 1016 88 9656 5.1 350 23:48 05.01.2021
4019 Clouds 22 1016 94 8047 2.6 10 22:55 05.01.2021
4020 Clouds 22 1016 94 8047 2.6 10 22:36 05.01.2021
4021 Clouds 22 1017 94 8047 5.1 350 22:18 05.01.2021
4022 Clouds 22 1018 100 8047 5.1 350 21:21 05.01.2021
4023 Clouds 22 1018 100 8047 5.1 350 20:30 05.01.2021
4024 Clouds 22 1019 94 4828 6.2 360 19:46 05.01.2021
4025 Clouds 22 1019 94 4828 6.2 360 19:27 05.01.2021
4026 Clouds 22 1019 94 4828 6.2 20 18:50 05.01.2021
4027 Clouds 22 1019 94 4828 6.2 20 18:28 05.01.2021
4028 Clouds 22 1019 94 4828 6.2 20 18:28 05.01.2021
4029 Clouds 21 1019 94 4828 6.2 10 17:54 05.01.2021
4030 Clouds 22 1019 94 4828 6.2 10 17:32 05.01.2021
4031 Clouds 24 1019 83 9656 5.1 360 16:57 05.01.2021
4032 Clouds 24 1019 83 9656 5.1 360 16:36 05.01.2021
4033 Clouds 24 1018 88 9656 5.1 360 16:18 05.01.2021
4034 Clouds 23 1018 88 9656 5.1 360 15:44 05.01.2021
4035 Clouds 23 1017 88 8047 3.6 360 14:48 05.01.2021
4036 Clouds 23 1017 94 8047 4.1 360 14:18 05.01.2021
4037 Clouds 23 1017 94 8047 4.1 360 13:44 05.01.2021
4038 Clouds 23 1015 68 10000 3.58 355 13:20 05.01.2021
4039 Clouds 23 1015 69 10000 2.24 355 12:46 05.01.2021
4040 Clouds 23 1015 69 10000 2.24 350 12:20 05.01.2021
4041 -273 0 0 0 0 0 11:34 05.01.2021
4042 Clouds 23 1015 70 10000 2.24 350 11:33 05.01.2021
4043 Clouds 23 1015 70 10000 2.24 350 11:31 05.01.2021
4044 Clouds 22 1015 68 10000 0.89 345 10:45 05.01.2021
4045 Clouds 22 1015 67 10000 0.45 323 10:24 05.01.2021
4046 Clouds 23 1015 63 10000 2.24 332 09:45 05.01.2021
4047 Clouds 23 1015 62 10000 1.34 327 09:25 05.01.2021
4048 Clouds 23 1016 62 10000 1.34 345 08:19 05.01.2021
4049 Clouds 23 1018 83 10000 3.9 339 05:38 05.01.2021
4050 Clouds 24 1018 78 10000 3.1 20 03:40 05.01.2021
4051 Clouds 25 1016 65 10000 5.1 20 00:24 05.01.2021
4052 Clouds 26 1016 61 10000 4.1 20 23:43 04.01.2021
4053 Clouds 26 1015 51 10000 4.47 18 23:24 04.01.2021
4054 Clouds 26 1016 57 10000 4.1 350 22:46 04.01.2021
4055 Clouds 26 1016 61 10000 4.1 20 22:21 04.01.2021
4056 Clouds 26 1016 61 10000 4.1 20 21:40 04.01.2021
4057 Clouds 26 1017 65 10000 3.6 40 21:20 04.01.2021
4058 Clouds 26 1017 65 10000 3.6 40 20:38 04.01.2021
4059 Clouds 25 1018 73 10000 3.1 360 20:19 04.01.2021
4060 Clouds 25 1018 73 10000 3.1 360 19:42 04.01.2021
4061 Clouds 23 1019 78 10000 3.6 350 19:19 04.01.2021
4062 Clouds 23 1019 78 10000 3.6 350 18:44 04.01.2021
4063 Clouds 23 1019 83 10000 3.1 360 17:56 04.01.2021
4064 Clouds 23 1019 83 10000 3.1 360 17:37 04.01.2021
4065 Clouds 23 1019 83 10000 1.5 330 17:18 04.01.2021
4066 Clouds 22 1019 83 10000 1.5 330 16:40 04.01.2021
4067 Clouds 22 1018 63 10000 1.34 321 16:22 04.01.2021
4068 Clouds 21 1018 94 9656 4.81 343 15:47 04.01.2021
4069 Clouds 21 1018 88 9656 1.5 320 15:21 04.01.2021
4070 Clouds 20 1017 93 9656 4.63 349 13:57 04.01.2021
4071 Clouds 20 1017 93 9656 4.63 349 13:57 04.01.2021
4072 Clouds 20 1017 93 9656 4.63 349 13:35 04.01.2021
4073 Clouds 19 1015 71 10000 3.69 350 12:55 04.01.2021
4074 Clouds 18 1015 72 10000 3.69 350 12:30 04.01.2021
4075 Clouds 18 1015 72 10000 2.25 347 11:41 04.01.2021
4076 Clouds 18 1015 70 10000 0.45 270 11:18 04.01.2021
4077 Clouds 19 1015 69 10000 1.4 341 10:44 04.01.2021
4078 Clouds 18 1015 67 10000 0.45 270 10:22 04.01.2021
4079 Clouds 20 1015 65 10000 1.76 328 09:26 04.01.2021
4080 Clouds 20 1016 64 10000 1.76 328 08:57 04.01.2021
4081 Clouds 21 1016 64 10000 2.14 336 08:22 04.01.2021
4082 Clouds 21 1016 64 10000 0.89 273 07:46 04.01.2021
4083 Clouds 21 1019 83 10000 1.5 340 05:36 04.01.2021
4084 Clouds 21 1019 83 10000 2.6 350 04:56 04.01.2021
4085 Clouds 21 1018 83 10000 3.6 30 02:24 04.01.2021
4086 Haze 22 1017 83 9656 2.6 20 00:20 04.01.2021
4087 Haze 22 1017 83 9656 2.6 20 23:37 03.01.2021
4088 Haze 23 1018 69 9656 4.1 30 22:57 03.01.2021
4089 Haze 24 1018 69 9656 4.1 30 22:39 03.01.2021
4090 Haze 24 1018 64 9656 5.1 40 22:21 03.01.2021
4091 Haze 24 1018 64 9656 5.1 40 21:40 03.01.2021
4092 Haze 24 1019 69 8047 3.1 10 20:56 03.01.2021
4093 Haze 24 1019 69 8047 3.1 10 20:38 03.01.2021
4094 Haze 24 1020 64 8047 4.6 30 20:18 03.01.2021
4095 Haze 24 1020 64 8047 4.6 30 19:44 03.01.2021
4096 Haze 24 1020 64 8047 4.6 30 19:22 03.01.2021
4097 Haze 25 1021 61 6437 3.1 10 18:43 03.01.2021
4098 Haze 24 1022 73 6437 2.6 320 18:21 03.01.2021
4099 Haze 23 1022 73 6437 2.6 320 17:51 03.01.2021
4100 Haze 23 1022 73 6437 2.6 320 17:26 03.01.2021
4101 Mist 22 1021 77 4828 3.99 345 16:45 03.01.2021
4102 Mist 21 1021 88 4828 3.61 348 16:20 03.01.2021
4103 Mist 20 1021 88 4828 3.61 348 15:52 03.01.2021
4104 Mist 20 1021 88 4828 3.61 348 15:34 03.01.2021
4105 Haze 20 1021 88 9656 3.76 346 14:58 03.01.2021
4106 Haze 19 1021 88 9656 3.76 346 14:31 03.01.2021
4107 Haze 19 1020 88 8047 4.01 341 13:47 03.01.2021
4108 Haze 19 1020 88 8047 4.25 337 13:23 03.01.2021
4109 Clouds 19 1019 62 10000 0.45 279 12:50 03.01.2021
4110 Clouds 20 1018 59 10000 3.9 338 11:43 03.01.2021
4111 Clouds 20 1018 59 10000 0.45 279 11:24 03.01.2021
4112 Clouds 19 1018 59 10000 0.45 279 10:45 03.01.2021
4113 Clouds 19 1018 59 10000 0.45 279 10:18 03.01.2021
4114 Clouds 20 1018 57 10000 0.45 279 09:41 03.01.2021
4115 Clouds 20 1018 57 10000 0.45 279 09:22 03.01.2021
4116 Clouds 21 1019 53 10000 0.89 304 07:42 03.01.2021
4117 Clouds 21 1022 73 10000 3.6 340 05:58 03.01.2021
4118 Clouds 21 1020 72 10000 5.1 340 02:27 03.01.2021
4119 Clouds 20 1020 72 10000 6.7 10 01:45 03.01.2021
4120 Sand 20 1019 73 10000 6.7 350 00:18 03.01.2021
4121 Sand 21 1019 73 10000 6.7 350 23:28 02.01.2021
4122 Sand 22 1018 68 10000 11.8 360 22:52 02.01.2021
4123 Sand 22 1018 68 10000 11.8 360 22:32 02.01.2021
4124 Sand 23 1018 64 10000 9.3 340 21:50 02.01.2021
4125 Sand 23 1018 64 10000 9.3 340 21:31 02.01.2021
4126 Sand 23 1019 60 10000 8.7 360 20:50 02.01.2021
4127 Sand 24 1019 60 10000 8.7 360 20:28 02.01.2021
4128 Clouds 25 1020 64 10000 8.2 10 19:52 02.01.2021
4129 Clouds 25 1021 65 10000 4.6 340 19:20 02.01.2021
4130 Clouds 25 1021 65 10000 4.6 340 18:53 02.01.2021
4131 Clouds 26 1021 65 10000 4.6 340 18:33 02.01.2021
4132 Clouds 24 1020 78 10000 4.6 360 17:57 02.01.2021
4133 Clouds 23 1020 78 10000 4.6 360 17:38 02.01.2021
4134 Clouds 23 1020 83 10000 5.7 330 16:49 02.01.2021
4135 Clouds 22 1020 83 10000 5.7 330 16:23 02.01.2021
4136 Clouds 22 1019 88 10000 5.1 10 15:51 02.01.2021
4137 Clouds 22 1019 88 10000 5.1 10 15:28 02.01.2021
4138 Clouds 22 1019 88 10000 3.1 360 14:53 02.01.2021
4139 Clouds 22 1019 88 10000 3.1 360 14:33 02.01.2021
4140 Clouds 22 1018 88 10000 3.6 10 13:44 02.01.2021
4141 Clouds 23 1016 64 10000 2.24 360 12:59 02.01.2021
4142 Clouds 23 1015 64 10000 3.58 360 12:40 02.01.2021
4143 Clouds 23 1015 64 10000 3.58 9 12:19 02.01.2021
4144 Clouds 23 1015 64 10000 3.13 5 11:38 02.01.2021
4145 Clouds 23 1015 65 10000 2.24 5 11:20 02.01.2021
4146 Clouds 22 1014 66 10000 1.79 351 10:41 02.01.2021
4147 Clouds 22 1014 66 10000 1.79 12 10:23 02.01.2021
4148 Clouds 22 1014 66 10000 0.89 336 09:43 02.01.2021
4149 Clouds 22 1014 66 10000 1.34 331 09:20 02.01.2021
4150 Clouds 22 1014 66 10000 0.45 355 08:48 02.01.2021
4151 Clouds 22 1014 67 10000 1.79 340 08:19 02.01.2021
4152 Clouds 22 1017 88 10000 1 320 07:25 02.01.2021
4153 Clouds 22 1017 88 10000 1 320 06:57 02.01.2021
4154 Clouds 22 1016 88 10000 1 350 05:57 02.01.2021
4155 Clouds 23 1015 88 10000 2.6 10 02:52 02.01.2021
4156 Clouds 25 1014 78 10000 4.1 30 00:43 02.01.2021
4157 Clouds 25 1014 78 10000 4.1 30 00:23 02.01.2021
4158 Clouds 26 1014 69 10000 6.2 40 23:37 01.01.2021
4159 Clouds 27 1013 61 10000 4.1 10 23:19 01.01.2021
4160 Clouds 27 1013 61 10000 4.1 10 22:44 01.01.2021
4161 Clouds 27 1014 65 10000 6.2 20 22:21 01.01.2021
4162 Clouds 27 1014 65 10000 6.2 20 21:42 01.01.2021
4163 Clouds 27 1014 61 9656 5.1 20 21:20 01.01.2021
4164 Clouds 27 1014 61 9656 5.1 20 20:50 01.01.2021
4165 Clouds 27 1014 61 9656 5.1 20 20:50 01.01.2021
4166 Clouds 28 1015 54 9656 5.1 10 20:19 01.01.2021
4167 Clouds 28 1015 54 9656 5.1 10 19:42 01.01.2021
4168 Clouds 28 1015 54 9656 5.1 10 19:22 01.01.2021
4169 Clouds 27 1016 65 8047 4.1 330 18:47 01.01.2021
4170 Clouds 27 1016 65 8047 4.1 330 18:28 01.01.2021
4171 Clouds 26 1016 65 6437 3.1 360 17:50 01.01.2021
4172 Clouds 26 1016 65 6437 3.1 360 17:24 01.01.2021
4173 Clouds 23 1016 83 6437 4.48 332 16:52 01.01.2021
4174 Clouds 23 1016 83 6437 4.55 328 16:28 01.01.2021
4175 Haze 21 1015 88 4828 4.55 328 15:42 01.01.2021
4176 Drizzle 20 1014 94 8047 4.53 327 14:50 01.01.2021
4177 Drizzle 21 1014 94 8047 4.53 327 14:31 01.01.2021
4178 Clouds 21 1013 88 9656 1 330 13:40 01.01.2021
4179 Clouds 22 1011 66 10000 1.34 332 13:20 01.01.2021
4180 Clouds 23 1011 64 10000 2.68 11 12:37 01.01.2021
4181 Clouds 23 1011 63 10000 3.58 355 12:18 01.01.2021
4182 Clouds 23 1010 61 10000 4.92 17 11:39 01.01.2021
4183 Clouds 23 1010 62 10000 4.92 5 11:18 01.01.2021
4184 Clouds 23 1009 61 10000 4.92 344 10:34 01.01.2021
4185 Clouds 23 1009 64 10000 5.36 23 09:45 01.01.2021
4186 Clouds 23 1009 65 10000 6.26 5 08:52 01.01.2021
4187 Clouds 23 1009 64 10000 5.81 15 08:25 01.01.2021
4188 Clear 24 1009 78 9656 3.6 360 04:52 01.01.2021
4189 Clear 24 1006 57 10000 5.81 21 02:25 01.01.2021
4190 Clear 25 1004 73 9656 7.2 360 00:38 01.01.2021
4191 Clouds 26 1004 58 9656 5.7 10 00:20 01.01.2021
4192 Clouds 29 1003 51 9656 3.6 360 23:22 31.12.2020
4193 Clouds 30 1003 51 9656 3.6 360 22:56 31.12.2020
4194 Clouds 30 1003 51 9656 3.6 360 22:37 31.12.2020
4195 Clouds 30 1003 55 9656 2.6 30 22:19 31.12.2020
4196 Clouds 30 1003 55 9656 2.6 30 21:45 31.12.2020
4197 Clouds 30 1004 45 9656 1.5 240 21:21 31.12.2020
4198 Clouds 30 1004 45 9656 1.5 240 20:47 31.12.2020
4199 Clouds 30 1005 54 9656 2.4 45 19:59 31.12.2020
4200 Clouds 30 1005 54 9656 2.4 45 19:38 31.12.2020
4201 Clear 28 1005 65 9656 1.57 123 19:20 31.12.2020
4202 Clear 27 1005 65 9656 1.57 123 18:42 31.12.2020
4203 Clear 26 1006 73 6437 5.7 190 18:23 31.12.2020
4204 Clear 25 1006 73 6437 5.7 190 17:42 31.12.2020
4205 Mist 23 1005 83 6437 2.69 197 17:21 31.12.2020
4206 Mist 23 1005 83 6437 2.69 197 16:40 31.12.2020
4207 Haze 21 1005 93 6437 2.98 224 16:21 31.12.2020
4208 Mist 20 1005 93 6437 2.98 224 15:45 31.12.2020
4209 Haze 19 1004 93 6437 3.31 209 15:21 31.12.2020
4210 Mist 18 1004 93 6437 3.31 209 14:54 31.12.2020
4211 Mist 18 1004 93 6437 3.31 209 14:36 31.12.2020
4212 Clear 18 1004 93 9656 2.1 190 14:18 31.12.2020
4213 Clear 18 1004 93 9656 2.1 190 13:38 31.12.2020
4214 Clear 18 1002 72 10000 1.34 240 13:19 31.12.2020
4215 Clear 18 1002 73 10000 1.79 209 12:52 31.12.2020
4216 Clear 18 1002 72 10000 1.79 223 12:32 31.12.2020
4217 Clear 18 1002 70 10000 1.79 201 11:48 31.12.2020
4218 Clear 18 1002 70 10000 1.34 206 11:30 31.12.2020
4219 Clear 19 1002 68 10000 1.79 204 10:46 31.12.2020
4220 Clear 19 1002 68 10000 1.34 203 10:27 31.12.2020
4221 Clear 19 1002 67 10000 1.34 235 09:50 31.12.2020
4222 Clear 19 1003 68 10000 1.34 211 09:26 31.12.2020
4223 Clear 19 1003 67 10000 5.03 171 08:50 31.12.2020
4224 Clear 20 1003 69 10000 0.89 184 08:31 31.12.2020
4225 Clear 20 1004 73 10000 4.96 170 07:56 31.12.2020
4226 Clear 20 1004 72 10000 4.91 168 07:25 31.12.2020
4227 Haze 22 1007 94 8047 4.12 171 05:30 31.12.2020
4228 Haze 23 1007 88 10000 2.81 123 03:38 31.12.2020
4229 Haze 23 1006 83 9656 1.5 100 02:44 31.12.2020
4230 Haze 23 1006 83 9656 1.5 100 02:25 31.12.2020
4231 Haze 24 1006 83 6437 1.5 110 01:43 31.12.2020
4232 Clear 23 1005 58 10000 2.68 105 01:21 31.12.2020
4233 Haze 26 1005 65 9656 1.5 110 00:41 31.12.2020
4234 Haze 28 1005 45 9656 1.5 160 23:41 30.12.2020
4235 Clear 28 1006 42 10000 2.6 150 23:19 30.12.2020
4236 Clear 29 1006 42 10000 2.6 150 22:43 30.12.2020
4237 Clear 29 1004 31 10000 3.13 178 22:23 30.12.2020
4238 Haze 28 1007 48 9656 2.1 170 21:38 30.12.2020
4239 Haze 28 1009 48 9656 1.5 140 21:19 30.12.2020
4240 Haze 28 1009 48 9656 1.5 140 20:41 30.12.2020
4241 Haze 28 1010 51 8047 4.1 160 20:20 30.12.2020
4242 Haze 28 1010 51 8047 4.1 160 19:39 30.12.2020
4243 Haze 27 1012 57 6437 3.6 180 19:19 30.12.2020
4244 Haze 26 1012 57 6437 3.6 180 18:42 30.12.2020
4245 Clear 27 1010 44 10000 2.24 153 18:23 30.12.2020
4246 Haze 26 1013 57 6437 3.31 166 17:50 30.12.2020
4247 Clear 26 1011 46 10000 1.79 161 17:31 30.12.2020
4248 Haze 22 1013 77 6437 3.02 186 16:52 30.12.2020
4249 Clear 22 1011 52 10000 0.45 195 16:25 30.12.2020
4250 Haze 18 1013 87 9656 2.69 201 15:45 30.12.2020
4251 Haze 17 1013 93 9656 2.61 212 15:24 30.12.2020
4252 Haze 16 1013 93 9656 2.61 212 14:43 30.12.2020
4253 Haze 16 1013 93 9656 3.06 215 14:22 30.12.2020
4254 Clear 17 1011 68 10000 0.45 257 13:20 30.12.2020
4255 Clear 17 1011 70 10000 0.45 257 12:27 30.12.2020
4256 Clear 17 1011 71 10000 3.26 215 11:49 30.12.2020
4257 Clear 17 1011 70 10000 0.89 257 11:24 30.12.2020
4258 Clear 17 1011 71 10000 3.04 219 10:59 30.12.2020
4259 Clear 17 1011 71 10000 0.89 257 10:39 30.12.2020
4260 Clear 17 1012 71 10000 0.89 250 10:20 30.12.2020
4261 Clear 17 1012 68 10000 0.45 226 09:47 30.12.2020
4262 Clear 17 1012 68 10000 0.89 227 09:18 30.12.2020
4263 Clear 18 1013 67 10000 0.45 258 08:23 30.12.2020
4264 Clear 18 1013 67 10000 2.94 210 07:28 30.12.2020
4265 Clear 19 1016 88 10000 1 270 06:43 30.12.2020
4266 Clear 20 1016 88 10000 2.32 188 05:50 30.12.2020
4267 Clear 21 1016 88 10000 2.32 188 05:31 30.12.2020
4268 Clear 21 1015 83 10000 3.56 128 03:45 30.12.2020
4269 Clear 21 1015 83 10000 4.61 123 03:25 30.12.2020
4270 Clear 22 1014 73 10000 4.61 123 02:36 30.12.2020
4271 Clear 23 1014 64 10000 5.1 118 01:49 30.12.2020
4272 Clear 23 1014 64 10000 5.1 118 01:30 30.12.2020
4273 Clear 24 1014 57 10000 3.1 90 00:46 30.12.2020
4274 Clear 25 1014 57 10000 3.1 90 00:26 30.12.2020
4275 Clear 25 1014 54 10000 2.6 80 23:52 29.12.2020
4276 Clear 26 1014 54 10000 2.6 80 23:34 29.12.2020
4277 Clear 26 1015 57 10000 3.1 80 22:50 29.12.2020
4278 Clear 26 1015 57 10000 3.1 80 22:31 29.12.2020
4279 Clear 27 1015 51 10000 3.6 80 21:56 29.12.2020
4280 Clear 28 1015 51 10000 3.6 80 21:37 29.12.2020
4281 Clouds 27 1017 37 10000 3.6 180 21:19 29.12.2020
4282 Clouds 28 1017 37 10000 3.6 180 20:42 29.12.2020
4283 Clouds 28 1018 47 10000 2.61 113 20:22 29.12.2020
4284 Clouds 27 1018 47 10000 2.61 113 19:45 29.12.2020
4285 Clear 26 1019 57 10000 1 150 19:21 29.12.2020
4286 Clear 26 1019 57 10000 1 150 19:21 29.12.2020
4287 Clear 26 1019 57 10000 1 150 18:50 29.12.2020
4288 Clear 25 1019 57 10000 1 150 18:28 29.12.2020
4289 Clear 24 1020 60 10000 2.33 175 17:47 29.12.2020
4290 Mist 23 1020 73 10000 2.47 202 17:23 29.12.2020
4291 Mist 22 1020 73 10000 2.47 202 16:54 29.12.2020
4292 Clear 22 1018 51 10000 0.45 244 16:26 29.12.2020
4293 Mist 19 1019 88 10000 2.67 235 15:42 29.12.2020
4294 Mist 17 1019 87 10000 3 252 15:23 29.12.2020
4295 Mist 16 1019 87 10000 3 252 14:45 29.12.2020
4296 Clear 15 1019 93 10000 3.19 253 14:27 29.12.2020
4297 Clear 15 1019 93 10000 3.19 253 13:55 29.12.2020
4298 Clouds 15 1017 68 10000 3.07 253 13:23 29.12.2020
4299 Clouds 16 1017 67 10000 3.02 253 12:45 29.12.2020
4300 Clouds 16 1017 67 10000 2.67 253 12:26 29.12.2020
4301 Clouds 16 1017 66 10000 0.45 278 11:58 29.12.2020
4302 Clouds 16 1017 65 10000 2.67 253 11:31 29.12.2020
4303 Clouds 16 1017 65 10000 2.02 242 10:40 29.12.2020
4304 Clouds 17 1017 65 10000 1.39 222 09:59 29.12.2020
4305 Clouds 17 1017 65 10000 1.39 222 09:37 29.12.2020
4306 Clouds 17 1020 82 9656 0.9 196 09:18 29.12.2020
4307 Clouds 18 1020 82 9656 0.9 196 08:43 29.12.2020
4308 Clouds 18 1020 82 9656 0.61 174 07:33 29.12.2020
4309 Clouds 18 1021 88 10000 0.66 250 06:55 29.12.2020
4310 Clouds 19 1020 88 10000 0.29 138 05:33 29.12.2020
4311 Clear 22 1017 54 10000 0.89 123 01:27 29.12.2020
4312 Clear 25 1018 50 10000 3.6 90 00:24 29.12.2020
4313 Clear 25 1018 50 10000 3.6 90 23:36 28.12.2020
4314 Clouds 27 1018 44 10000 2.6 100 22:30 28.12.2020
4315 Clouds 26 1019 47 10000 2.1 110 21:47 28.12.2020
4316 Clouds 26 1019 47 10000 2.1 110 21:29 28.12.2020
4317 Clouds 26 1020 50 10000 1.5 130 20:46 28.12.2020
4318 Clouds 27 1020 50 10000 1.5 130 20:28 28.12.2020
4319 Clouds 26 1021 50 9656 2.1 100 19:58 28.12.2020
4320 Clouds 26 1021 50 9656 2.1 100 19:38 28.12.2020
4321 Clouds 26 1021 53 8047 2.6 180 19:20 28.12.2020
4322 Clouds 25 1021 53 8047 2.6 180 18:43 28.12.2020
4323 Clouds 25 1021 60 8047 1.59 184 18:21 28.12.2020
4324 Clouds 24 1021 60 8047 1.59 184 17:37 28.12.2020
4325 Clear 22 1021 82 6437 2.28 220 17:18 28.12.2020
4326 Clear 20 1021 82 6437 2.28 220 16:31 28.12.2020
4327 Clouds 18 1020 93 6437 2.68 226 15:54 28.12.2020
4328 Clouds 17 1020 93 6437 2.68 226 15:36 28.12.2020
4329 Mist 15 1019 100 4828 2.7 230 14:34 28.12.2020
4330 Mist 15 1019 77 6437 2.79 224 13:48 28.12.2020
4331 Clear 14 1018 72 10000 2.42 217 13:21 28.12.2020
4332 Clouds 16 1017 70 10000 2.28 203 12:29 28.12.2020
4333 Clouds 16 1017 69 10000 0.45 210 11:56 28.12.2020
4334 Clouds 16 1017 68 10000 2.28 203 11:37 28.12.2020
4335 Clouds 17 1017 69 10000 0.45 210 11:18 28.12.2020
4336 Clouds 19 1019 84 10000 2.47 204 10:29 28.12.2020
4337 Clouds 17 1016 67 10000 2.47 204 09:58 28.12.2020
4338 Clouds 17 1016 65 10000 0.45 210 09:37 28.12.2020
4339 Clouds 17 1017 65 10000 0.45 210 09:18 28.12.2020
4340 Clouds 20 1019 77 10000 2.37 154 06:53 28.12.2020
4341 Clouds 20 1019 77 10000 2.87 132 05:23 28.12.2020
4342 Clouds 21 1018 73 10000 3.22 126 03:34 28.12.2020
4343 Clear 22 1017 68 10000 1.5 100 01:55 28.12.2020
4344 Clouds 24 1016 53 10000 2.1 180 23:58 27.12.2020
4345 Clouds 25 1016 53 10000 2.1 180 23:35 27.12.2020
4346 Clouds 26 1016 54 10000 1 110 22:40 27.12.2020
4347 Clouds 26 1016 54 10000 1 110 21:55 27.12.2020
4348 Clouds 26 1017 47 10000 1.5 160 21:22 27.12.2020
4349 Clouds 25 1017 47 10000 1.5 160 20:32 27.12.2020
4350 Clouds 25 1018 53 10000 1 230 19:24 27.12.2020
4351 Clear 25 1019 60 10000 4.1 180 18:50 27.12.2020
4352 Clear 24 1019 73 9656 3.6 180 18:21 27.12.2020
4353 Clear 23 1019 73 9656 3.6 180 17:57 27.12.2020
4354 Clear 23 1019 73 9656 3.6 180 17:35 27.12.2020
4355 Clear 21 1019 88 8047 2.92 191 16:57 27.12.2020
4356 Clear 21 1019 88 8047 2.74 204 16:23 27.12.2020
4357 Mist 17 1019 100 8047 1 240 15:34 27.12.2020
4358 Mist 16 1018 93 6437 2.62 206 14:53 27.12.2020
4359 Mist 16 1018 93 6437 2.62 206 14:35 27.12.2020
4360 Clear 16 1017 100 9656 1.95 226 13:36 27.12.2020
4361 Clouds 16 1015 73 10000 0.45 259 12:56 27.12.2020
4362 Clouds 17 1015 73 10000 0.45 259 12:25 27.12.2020
4363 Clouds 17 1015 68 10000 0.45 259 11:42 27.12.2020
4364 Clouds 18 1015 66 10000 2.49 284 11:20 27.12.2020
4365 Clouds 18 1015 66 10000 2.49 284 11:20 27.12.2020
4366 Clouds 18 1015 66 10000 2.49 284 10:40 27.12.2020
4367 Clouds 18 1015 65 10000 0.45 259 10:19 27.12.2020
4368 Clouds 18 1015 66 10000 0.89 259 09:37 27.12.2020
4369 Clouds 18 1016 66 10000 0.45 259 08:28 27.12.2020
4370 Clouds 19 1017 63 10000 0.47 246 07:29 27.12.2020
4371 Clouds 20 1019 82 10000 2.02 119 05:59 27.12.2020
4372 Clouds 20 1019 82 10000 2.02 119 05:38 27.12.2020
4373 Clouds 21 1018 77 10000 1.94 79 03:25 27.12.2020
4374 Clouds 21 1017 73 10000 1.5 80 02:25 27.12.2020
4375 Clouds 22 1017 64 10000 2.6 110 00:56 27.12.2020
4376 Clouds 23 1017 60 10000 1.5 100 23:44 26.12.2020
4377 Clouds 23 1017 60 10000 2.6 90 23:24 26.12.2020
4378 Clouds 23 1017 60 10000 2.6 90 22:46 26.12.2020
4379 Clouds 24 1018 50 10000 1.5 140 22:19 26.12.2020
4380 Clouds 24 1018 50 10000 1.5 140 21:53 26.12.2020
4381 Clouds 24 1018 50 10000 1.5 140 21:29 26.12.2020
4382 Clouds 25 1019 53 10000 2.68 58 20:46 26.12.2020
4383 Clouds 24 1019 53 10000 2.19 48 20:24 26.12.2020
4384 Haze 24 1021 50 9656 1.5 170 19:42 26.12.2020
4385 Haze 24 1021 50 9656 1.5 170 19:20 26.12.2020
4386 Haze 23 1022 60 9656 1.5 200 18:35 26.12.2020
4387 Haze 21 1023 64 8047 2.6 190 17:48 26.12.2020
4388 Haze 21 1023 64 8047 2.6 190 17:29 26.12.2020
4389 Haze 19 1023 82 8047 2.36 276 16:40 26.12.2020
4390 Haze 17 1022 93 9656 3.03 273 16:19 26.12.2020
4391 Haze 16 1022 93 9656 3.28 271 15:23 26.12.2020
4392 Haze 15 1022 87 9656 3.28 271 14:41 26.12.2020
4393 Haze 15 1021 93 9656 2.91 273 14:20 26.12.2020
4394 Haze 15 1021 93 9656 2.91 273 13:39 26.12.2020
4395 Clouds 16 1020 64 10000 0.89 198 13:20 26.12.2020
4396 Clouds 16 1020 65 10000 0.89 290 12:41 26.12.2020
4397 Clouds 16 1020 65 10000 0.45 290 12:19 26.12.2020
4398 Clouds 16 1020 65 10000 0.45 290 11:42 26.12.2020
4399 Clouds 16 1020 65 10000 0.89 290 11:20 26.12.2020
4400 Clouds 16 1020 65 10000 0.45 301 10:49 26.12.2020
4401 Clouds 17 1020 67 10000 0.45 301 10:27 26.12.2020
4402 Clouds 17 1021 68 10000 0.45 302 09:49 26.12.2020
4403 Clouds 18 1022 65 10000 0.45 140 08:56 26.12.2020
4404 Clouds 17 1022 67 10000 1.86 301 08:20 26.12.2020
4405 Clouds 17 1026 88 9656 1.92 320 07:21 26.12.2020
4406 Clouds 17 1026 93 9656 2.01 314 05:52 26.12.2020
4407 Clouds 19 1025 68 10000 2.89 14 02:48 26.12.2020
4408 Clouds 20 1025 60 10000 1.5 360 00:41 26.12.2020
4409 Clouds 20 1025 56 10000 3.6 40 23:58 25.12.2020
4410 Clouds 21 1025 56 10000 3.6 40 23:38 25.12.2020
4411 Clouds 21 1025 52 10000 5.1 350 23:20 25.12.2020
4412 Clouds 21 1025 52 10000 5.1 350 22:28 25.12.2020
4413 Clouds 21 1026 52 10000 3.6 10 21:46 25.12.2020
4414 Clouds 21 1024 39 10000 4.47 24 21:28 25.12.2020
4415 Clouds 21 1027 49 10000 1.5 20 20:47 25.12.2020
4416 Clouds 21 1027 49 10000 1.5 20 20:27 25.12.2020
4417 Clouds 21 1028 49 10000 3.1 340 19:43 25.12.2020
4418 Haze 21 1029 49 9656 3.6 310 18:55 25.12.2020
4419 Mist 21 1029 49 9656 3.6 310 18:35 25.12.2020
4420 Mist 19 1030 63 9656 6.01 340 17:35 25.12.2020
4421 Clouds 18 1030 67 10000 6.07 336 16:56 25.12.2020
4422 Clouds 18 1029 55 10000 6.45 335 16:25 25.12.2020
4423 Clouds 18 1029 55 10000 6.45 335 15:51 25.12.2020
4424 Clouds 18 1029 55 10000 6.45 335 15:32 25.12.2020
4425 Clouds 17 1028 72 10000 6.37 338 14:38 25.12.2020
4426 Clouds 17 1028 67 10000 6.35 338 14:19 25.12.2020
4427 Clouds 17 1028 67 10000 6.35 338 13:43 25.12.2020
4428 Clouds 17 1028 67 10000 6.93 336 13:24 25.12.2020
4429 Clouds 18 1025 46 10000 2.68 322 12:29 25.12.2020
4430 Clouds 18 1025 40 10000 4.02 323 11:50 25.12.2020
4431 Clouds 18 1025 40 10000 3.58 341 11:25 25.12.2020
4432 Clouds 18 1025 39 10000 2.68 333 10:49 25.12.2020
4433 Clouds 18 1025 38 10000 3.13 328 10:22 25.12.2020
4434 Clouds 18 1026 38 10000 3.13 340 09:27 25.12.2020
4435 Clouds 18 1026 38 10000 3.13 340 09:27 25.12.2020
4436 Clouds 18 1026 37 10000 4.47 333 08:45 25.12.2020
4437 Clouds 19 1026 36 10000 7.15 12 07:45 25.12.2020
4438 Clouds 19 1028 52 9656 7.7 350 06:44 25.12.2020
4439 Sand 19 1024 55 9656 10.3 360 02:36 25.12.2020
4440 Sand 19 1021 59 4828 12.9 350 00:38 25.12.2020
4441 Sand 21 1019 52 4828 12.9 360 23:40 24.12.2020
4442 Sand 21 1020 49 4828 12.9 360 23:21 24.12.2020
4443 Sand 22 1020 49 4828 12.9 360 22:26 24.12.2020
4444 Sand 23 1019 56 4828 14.4 350 21:54 24.12.2020
4445 Sand 23 1019 56 4828 14.4 350 21:27 24.12.2020
4446 Sand 23 1018 78 3219 12.9 350 20:18 24.12.2020
4447 Clear 28 1016 58 8047 7.7 350 18:22 24.12.2020
4448 Clear 29 1016 58 8047 7.7 350 17:45 24.12.2020
4449 Clouds 26 1018 72 10000 10.98 352 17:26 24.12.2020
4450 Mist 24 1015 88 6437 3.6 360 16:26 24.12.2020
4451 Mist 22 1014 100 4828 2.6 360 15:49 24.12.2020
4452 Mist 21 1014 100 4828 2.6 360 15:26 24.12.2020
4453 Mist 20 1013 94 4828 2.1 350 14:58 24.12.2020
4454 Mist 20 1013 94 4828 2.1 350 14:38 24.12.2020
4455 Mist 20 1013 94 4828 2.1 350 14:38 24.12.2020
4456 Mist 19 1012 100 1609 1.55 274 14:20 24.12.2020
4457 Mist 19 1012 100 6437 1.55 274 13:39 24.12.2020
4458 Clear 19 1010 80 10000 2.16 223 13:19 24.12.2020
4459 Clear 19 1009 80 10000 2.16 223 12:40 24.12.2020
4460 Clear 19 1009 80 10000 0.45 242 12:19 24.12.2020
4461 Clear 19 1009 80 10000 3.4 192 11:39 24.12.2020
4462 Clear 20 1009 80 10000 3.43 184 11:20 24.12.2020
4463 Clear 21 1008 80 10000 0.45 241 10:46 24.12.2020
4464 Clear 21 1009 80 10000 0.45 242 10:28 24.12.2020
4465 Clear 21 1009 80 10000 0.45 242 09:51 24.12.2020
4466 Clear 21 1009 80 10000 0.45 242 09:23 24.12.2020
4467 Clear 21 1010 79 10000 2.52 195 07:57 24.12.2020
4468 Clear 21 1010 79 10000 2.52 195 07:37 24.12.2020
4469 Clear 21 1012 94 9656 3.12 188 06:34 24.12.2020
4470 Clear 23 1010 76 10000 0.45 144 04:24 24.12.2020
4471 Clear 24 1011 78 9656 2.1 90 01:53 24.12.2020
4472 Clear 24 1011 78 9656 2.1 90 01:53 24.12.2020
4473 Clear 25 1011 78 9656 2.1 90 01:28 24.12.2020
4474 Clouds 26 1011 69 10000 2.1 100 00:44 24.12.2020
4475 Clouds 27 1011 65 10000 1 110 00:19 24.12.2020
4476 Clouds 28 1011 65 10000 1 110 23:40 23.12.2020
4477 Clouds 28 1012 62 10000 4.6 80 23:21 23.12.2020
4478 Clouds 28 1012 62 10000 4.6 80 22:48 23.12.2020
4479 Clear 28 1010 58 10000 4.92 107 22:27 23.12.2020
4480 Clouds 29 1013 66 10000 1.5 120 21:48 23.12.2020
4481 Clouds 29 1014 58 10000 1.5 140 21:23 23.12.2020
4482 Clouds 29 1014 58 10000 1.5 140 20:46 23.12.2020
4483 Clouds 29 1014 58 10000 1.5 140 20:28 23.12.2020
4484 Clouds 28 1016 65 9656 4.6 180 19:58 23.12.2020
4485 Clouds 28 1016 65 9656 4.6 180 19:37 23.12.2020
4486 Clouds 27 1017 69 9656 3.19 132 19:19 23.12.2020
4487 Clouds 26 1017 69 9656 3.35 133 18:40 23.12.2020
4488 Clear 25 1017 83 6437 2.6 160 17:58 23.12.2020
4489 Clear 25 1017 83 6437 2.6 160 17:36 23.12.2020
4490 Mist 24 1017 88 4828 2.1 160 17:18 23.12.2020
4491 Mist 21 1017 100 1609 3.21 179 16:40 23.12.2020
4492 Fog 21 1017 100 805 3.27 192 16:22 23.12.2020
4493 Fog 21 1017 100 805 3.27 192 15:46 23.12.2020
4494 Fog 20 1017 100 805 3.05 203 15:26 23.12.2020
4495 Fog 19 1017 100 805 3.05 203 14:58 23.12.2020
4496 Fog 18 1016 100 10000 3.05 203 14:37 23.12.2020
4497 Fog 18 1016 100 10000 3 200 14:18 23.12.2020
4498 Fog 18 1016 100 10000 3 200 13:43 23.12.2020
4499 Clear 18 1014 80 10000 0.89 221 13:19 23.12.2020
4500 Clouds 18 1014 80 10000 0.45 220 12:46 23.12.2020
4501 Clouds 18 1014 80 10000 0.45 220 12:21 23.12.2020
4502 Clouds 18 1014 79 10000 0.45 220 11:46 23.12.2020
4503 Clouds 19 1014 80 10000 0.45 220 10:59 23.12.2020
4504 Clouds 19 1014 80 10000 0.89 220 10:41 23.12.2020
4505 Clouds 19 1014 80 10000 0.89 220 10:22 23.12.2020
4506 Clouds 19 1014 79 10000 0.45 220 09:28 23.12.2020
4507 Clouds 21 1015 79 10000 0.45 220 08:44 23.12.2020
4508 Clouds 21 1015 79 10000 0.89 220 08:20 23.12.2020
4509 Clouds 21 1016 79 10000 0.45 220 07:27 23.12.2020
4510 Clouds 21 1019 94 10000 1.08 217 06:39 23.12.2020
4511 Clouds 22 1019 94 10000 1.21 243 05:26 23.12.2020
4512 Haze 23 1019 88 9656 1.21 243 04:53 23.12.2020
4513 Clouds 25 1017 78 10000 2.6 30 00:34 23.12.2020
4514 Haze 25 1017 78 9656 2.6 10 23:48 22.12.2020
4515 Haze 25 1017 78 9656 2.6 10 23:28 22.12.2020
4516 Haze 25 1017 78 9656 2.6 360 22:44 22.12.2020
4517 Haze 25 1017 78 9656 2.6 360 22:25 22.12.2020
4518 Haze 24 1018 83 8047 2.1 340 21:57 22.12.2020
4519 Haze 24 1018 83 8047 2.1 340 21:38 22.12.2020
4520 Haze 23 1019 88 6437 2.1 350 21:18 22.12.2020
4521 Haze 23 1019 88 6437 2.1 350 20:47 22.12.2020
4522 Mist 23 1020 94 3219 3.6 360 20:21 22.12.2020
4523 Drizzle 23 1020 94 3219 3.6 360 19:44 22.12.2020
4524 Drizzle 23 1021 94 4023 2.6 10 19:21 22.12.2020
4525 Drizzle 23 1021 94 4023 2.6 10 18:50 22.12.2020
4526 Drizzle 23 1021 94 4023 2.6 10 18:29 22.12.2020
4527 Drizzle 22 1022 94 4023 1.5 350 17:51 22.12.2020
4528 Drizzle 23 1021 88 4828 2.16 328 17:25 22.12.2020
4529 Drizzle 22 1021 83 4828 2.6 50 16:55 22.12.2020
4530 Drizzle 22 1021 83 4828 2.6 50 16:36 22.12.2020
4531 Haze 21 1021 88 8047 2.63 322 16:18 22.12.2020
4532 Haze 21 1021 88 8047 2.63 322 15:42 22.12.2020
4533 Haze 21 1021 88 8047 2.89 311 15:20 22.12.2020
4534 Haze 20 1020 88 9656 2.89 311 14:43 22.12.2020
4535 Haze 20 1020 93 9656 2.87 309 14:25 22.12.2020
4536 Haze 20 1020 93 9656 2.87 309 13:47 22.12.2020
4537 Clouds 20 1018 73 10000 0.89 302 13:19 22.12.2020
4538 Clouds 20 1018 75 10000 1.34 306 12:56 22.12.2020
4539 Clouds 20 1017 75 10000 0.89 307 12:38 22.12.2020
4540 Clouds 20 1017 74 10000 1.79 293 12:19 22.12.2020
4541 Clouds 20 1017 76 10000 1.34 279 11:41 22.12.2020
4542 Clouds 20 1017 76 10000 0.89 292 11:22 22.12.2020
4543 Clouds 21 1017 76 10000 0.89 292 10:55 22.12.2020
4544 Clouds 21 1017 76 10000 1.34 323 10:27 22.12.2020
4545 Clouds 21 1018 77 10000 0.89 320 09:58 22.12.2020
4546 Clouds 19 1018 75 10000 2.58 316 09:30 22.12.2020
4547 Clouds 21 1018 74 10000 2.44 332 08:57 22.12.2020
4548 Clouds 21 1018 74 10000 0.45 320 08:38 22.12.2020
4549 Clouds 22 1018 70 10000 0.89 320 07:57 22.12.2020
4550 Clouds 22 1021 88 10000 1.5 350 07:26 22.12.2020
4551 Clouds 22 1021 88 10000 2.03 358 05:54 22.12.2020
4552 Clouds 22 1021 88 10000 2.14 9 05:25 22.12.2020
4553 Clouds 23 1020 78 9656 5.7 50 01:48 22.12.2020
4554 Clouds 24 1019 78 10000 3.1 10 00:23 22.12.2020
4555 Clouds 25 1019 73 10000 2.6 350 23:43 21.12.2020
4556 Clouds 25 1019 69 10000 5.1 360 23:19 21.12.2020
4557 Clouds 25 1019 69 10000 5.1 360 22:36 21.12.2020
4558 Clouds 25 1019 69 10000 8.2 40 22:18 21.12.2020
4559 Clouds 25 1019 69 10000 8.2 40 21:46 21.12.2020
4560 Clouds 25 1019 69 10000 8.2 40 21:27 21.12.2020
4561 Clouds 25 1020 73 10000 5.1 20 20:43 21.12.2020
4562 Clouds 25 1021 69 10000 3.6 30 20:21 21.12.2020
4563 Clouds 25 1021 69 10000 3.6 30 19:47 21.12.2020
4564 Mist 24 1022 78 10000 5.1 30 19:20 21.12.2020
4565 Mist 24 1022 78 10000 5.1 30 18:57 21.12.2020
4566 Mist 24 1022 78 10000 5.1 30 18:39 21.12.2020
4567 Mist 23 1022 83 9656 5.7 40 18:20 21.12.2020
4568 Mist 22 1022 83 9656 5.7 40 17:42 21.12.2020
4569 Mist 22 1021 83 9656 6.2 40 17:22 21.12.2020
4570 Mist 22 1021 83 9656 6.2 40 16:41 21.12.2020
4571 Clouds 23 1021 73 10000 3.1 360 16:19 21.12.2020
4572 Clouds 23 1021 73 10000 3.1 360 15:41 21.12.2020
4573 Clouds 23 1020 78 9656 5.39 352 14:58 21.12.2020
4574 Clouds 23 1019 78 10000 3.1 350 14:23 21.12.2020
4575 Clouds 22 1019 78 10000 3.1 350 13:54 21.12.2020
4576 Clouds 22 1019 78 10000 3.1 350 13:35 21.12.2020
4577 Clouds 22 1017 64 10000 0.89 328 12:59 21.12.2020
4578 Clouds 22 1017 65 10000 0.89 327 12:39 21.12.2020
4579 Clouds 22 1017 65 10000 0.45 283 12:19 21.12.2020
4580 Clouds 21 1017 66 10000 0.45 283 11:43 21.12.2020
4581 Clouds 21 1016 66 10000 0.45 283 11:22 21.12.2020
4582 Clouds 21 1016 66 10000 0.45 283 10:57 21.12.2020
4583 Clouds 22 1017 64 10000 0.89 283 10:38 21.12.2020
4584 Clouds 23 1017 62 10000 1.34 311 09:55 21.12.2020
4585 Clouds 23 1017 61 10000 1.79 351 09:37 21.12.2020
4586 Clouds 23 1017 61 10000 3.13 355 09:18 21.12.2020
4587 Clouds 23 1017 62 10000 3.58 5 08:21 21.12.2020
4588 Clouds 24 1020 69 10000 5.1 340 06:48 21.12.2020
4589 Clouds 24 1019 73 10000 7.7 350 04:59 21.12.2020
4590 Clouds 24 1019 73 10000 7.7 10 03:46 21.12.2020
4591 Clouds 25 1016 73 9656 5.1 360 00:35 21.12.2020
4592 Clouds 26 1016 69 9656 7.7 20 23:39 20.12.2020
4593 Clouds 27 1015 61 9656 7.7 350 23:20 20.12.2020
4594 Clouds 28 1015 61 9656 7.7 350 22:43 20.12.2020
4595 Clouds 28 1016 58 9656 5.1 360 22:22 20.12.2020
4596 Clouds 28 1016 58 9656 5.1 360 21:41 20.12.2020
4597 Clouds 28 1017 65 8047 9.3 10 21:22 20.12.2020
4598 Clouds 28 1017 65 8047 9.3 10 20:54 20.12.2020
4599 Clouds 28 1017 65 8047 9.3 10 20:26 20.12.2020
4600 Clouds 28 1018 69 9656 9.3 20 19:58 20.12.2020
4601 Clouds 27 1018 69 9656 9.3 20 19:38 20.12.2020
4602 Clouds 27 1019 74 9656 7.7 30 19:20 20.12.2020
4603 Clear 27 1017 59 10000 7.6 34 18:42 20.12.2020
4604 Clear 27 1017 59 10000 7.6 34 18:42 20.12.2020
4605 Clouds 27 1019 74 9656 7.7 30 18:23 20.12.2020
4606 Clouds 27 1019 74 9656 7.7 30 17:46 20.12.2020
4607 Clouds 26 1019 74 9656 7.7 30 17:28 20.12.2020
4608 Clouds 26 1019 74 9656 7.7 30 17:28 20.12.2020
4609 Clouds 25 1018 88 8047 2.1 20 16:47 20.12.2020
4610 Clear 26 1017 65 10000 5.36 42 16:28 20.12.2020
4611 Clouds 21 1017 100 6437 3.68 352 15:50 20.12.2020
4612 Clouds 20 1017 100 6437 3.21 355 15:26 20.12.2020
4613 Mist 20 1016 100 6437 3.21 355 14:56 20.12.2020
4614 Mist 20 1016 100 6437 3.21 355 14:34 20.12.2020
4615 Clouds 20 1016 100 9656 1 300 13:48 20.12.2020
4616 Clouds 20 1016 100 9656 1 300 13:29 20.12.2020
4617 Clouds 21 1014 78 10000 3.46 350 12:59 20.12.2020
4618 Clouds 20 1014 78 10000 3.46 350 12:39 20.12.2020
4619 Clouds 20 1014 78 10000 2.6 339 12:21 20.12.2020
4620 Clouds 21 1014 78 10000 2.6 339 11:45 20.12.2020
4621 Clouds 21 1014 78 10000 0.45 276 11:26 20.12.2020
4622 Clouds 20 1014 77 10000 1.7 342 10:48 20.12.2020
4623 Clouds 21 1014 77 10000 0.45 275 10:21 20.12.2020
4624 Clouds 21 1014 77 10000 0.45 273 09:46 20.12.2020
4625 Clouds 21 1014 77 10000 0.45 271 09:27 20.12.2020
4626 Clouds 21 1014 77 10000 0.45 271 09:27 20.12.2020
4627 Clouds 21 1014 77 10000 1.61 336 08:59 20.12.2020
4628 Clouds 21 1014 77 10000 1.61 336 08:40 20.12.2020
4629 Clouds 22 1015 76 10000 0.35 302 07:28 20.12.2020
4630 Clear 22 1017 94 9656 0.26 183 06:18 20.12.2020
4631 Clouds 24 1015 88 9656 3.13 91 02:24 20.12.2020
4632 Clouds 25 1014 74 10000 3.1 100 00:39 20.12.2020
4633 Clouds 28 1014 65 10000 3.1 100 23:22 19.12.2020
4634 Clouds 28 1014 65 10000 3.1 100 22:59 19.12.2020
4635 Clouds 28 1014 65 10000 3.1 100 22:40 19.12.2020
4636 Clouds 29 1015 62 10000 4.1 80 22:20 19.12.2020
4637 Clouds 29 1015 62 10000 4.1 80 21:43 19.12.2020
4638 Clouds 29 1015 62 10000 4.1 80 21:25 19.12.2020
4639 Clouds 29 1016 55 10000 1.5 130 20:48 19.12.2020
4640 Clouds 29 1014 54 10000 2.68 103 20:23 19.12.2020
4641 Clouds 28 1018 61 9656 2.3 104 19:56 19.12.2020
4642 Clouds 28 1018 61 9656 2.3 104 19:38 19.12.2020
4643 Clouds 28 1018 58 9656 1.5 200 19:19 19.12.2020
4644 Clouds 28 1018 58 9656 1.5 200 18:33 19.12.2020
4645 Clouds 27 1019 65 9656 3.1 200 17:55 19.12.2020
4646 Clouds 26 1019 65 9656 3.1 200 17:30 19.12.2020
4647 Clouds 23 1018 88 8047 2.45 209 16:57 19.12.2020
4648 Clouds 23 1018 88 8047 2.45 209 16:38 19.12.2020
4649 Mist 21 1018 100 6437 2.69 208 16:19 19.12.2020
4650 Mist 20 1018 100 6437 2.69 208 15:47 19.12.2020
4651 Mist 19 1017 100 6437 2.13 208 15:18 19.12.2020
4652 Haze 18 1017 100 6437 2.13 208 14:35 19.12.2020
4653 Clear 18 1017 100 9656 2.22 209 13:42 19.12.2020
4654 Clouds 19 1016 78 10000 0.45 219 13:21 19.12.2020
4655 Clouds 19 1015 78 10000 0.45 219 12:55 19.12.2020
4656 Clouds 19 1015 76 10000 1.94 205 12:37 19.12.2020
4657 Clouds 19 1015 76 10000 1.94 205 12:37 19.12.2020
4658 Clouds 19 1015 76 10000 1.51 211 12:19 19.12.2020
4659 Clouds 20 1015 70 10000 0.45 219 11:42 19.12.2020
4660 Clouds 21 1015 69 10000 0.45 254 10:48 19.12.2020
4661 Clouds 21 1015 69 10000 0.45 254 10:29 19.12.2020
4662 Clouds 21 1015 69 10000 0.45 254 10:00 19.12.2020
4663 Clouds 21 1016 69 10000 1.61 235 09:41 19.12.2020
4664 Clouds 21 1018 83 10000 1.51 249 08:58 19.12.2020
4665 Clouds 21 1019 94 10000 1.74 266 08:18 19.12.2020
4666 Clouds 21 1020 94 10000 2.39 276 07:19 19.12.2020
4667 Clouds 21 1020 94 10000 2.38 273 06:44 19.12.2020
4668 Clouds 22 1020 88 10000 2.11 266 05:23 19.12.2020
4669 Clouds 22 1020 88 10000 1.24 270 03:48 19.12.2020
4670 Clouds 24 1019 73 10000 1.7 81 00:42 19.12.2020
4671 Clouds 25 1019 73 10000 1.5 40 00:21 19.12.2020
4672 Clouds 25 1019 73 10000 1.5 40 23:51 18.12.2020
4673 Clouds 25 1019 73 10000 1.5 40 23:29 18.12.2020
4674 Clouds 25 1019 69 10000 2.52 68 22:57 18.12.2020
4675 Clouds 25 1019 69 10000 2.52 68 22:39 18.12.2020
4676 Clouds 25 1020 69 10000 2.6 10 22:19 18.12.2020
4677 Clouds 25 1020 69 10000 2.6 10 21:43 18.12.2020
4678 Clouds 25 1021 65 10000 2.6 50 21:22 18.12.2020
4679 Clouds 25 1018 52 10000 0.45 88 20:25 18.12.2020
4680 Clouds 25 1022 73 10000 3.1 50 19:51 18.12.2020
4681 Clouds 25 1019 53 10000 2.68 25 19:25 18.12.2020
4682 Clouds 25 1022 69 10000 5.1 20 18:47 18.12.2020
4683 Clouds 25 1022 69 10000 5.1 20 18:28 18.12.2020
4684 Clouds 24 1022 73 10000 3.1 340 17:52 18.12.2020
4685 Clouds 23 1023 78 10000 2.19 338 17:21 18.12.2020
4686 Clouds 23 1023 78 10000 2.19 338 16:48 18.12.2020
4687 Clouds 22 1022 82 10000 2.47 327 16:22 18.12.2020
4688 Clouds 21 1022 82 10000 2.47 327 15:54 18.12.2020
4689 Clouds 21 1022 82 10000 2.47 327 15:34 18.12.2020
4690 Clouds 21 1022 82 8047 2.71 329 14:58 18.12.2020
4691 Clouds 20 1022 82 8047 2.71 329 14:39 18.12.2020
4692 Clouds 20 1022 82 8047 2.95 347 14:19 18.12.2020
4693 Clouds 20 1022 82 8047 2.95 347 13:42 18.12.2020
4694 Clouds 21 1020 60 10000 0.45 326 13:23 18.12.2020
4695 Clouds 21 1020 59 10000 0.89 333 12:44 18.12.2020
4696 Clouds 21 1020 60 10000 1.34 322 11:31 18.12.2020
4697 Clouds 21 1019 59 10000 0.89 331 10:59 18.12.2020
4698 Clouds 21 1019 58 10000 0.89 315 10:37 18.12.2020
4699 Clouds 21 1020 58 10000 0.89 313 10:19 18.12.2020
4700 Clouds 21 1020 57 10000 0.89 319 09:38 18.12.2020
4701 Clouds 21 1020 57 10000 0.89 316 09:20 18.12.2020
4702 Clouds 21 1020 57 10000 1.34 344 08:52 18.12.2020
4703 Clouds 21 1023 82 10000 3.32 338 08:22 18.12.2020
4704 Clouds 21 1023 77 10000 4.1 350 07:20 18.12.2020
4705 Clouds 21 1023 77 10000 4.1 350 06:59 18.12.2020
4706 Clouds 21 1024 77 10000 2.6 360 05:45 18.12.2020
4707 Clouds 21 1024 77 10000 2.6 360 05:27 18.12.2020
4708 Clouds 21 1023 77 10000 4.1 350 04:43 18.12.2020
4709 Haze 21 1022 77 9656 4.1 30 01:47 18.12.2020
4710 Haze 21 1022 77 9656 4.1 30 01:47 18.12.2020
4711 Haze 21 1022 77 9656 4.1 30 01:47 18.12.2020
4712 Haze 21 1022 77 9656 4.1 30 01:47 18.12.2020
4713 Clouds 21 1021 77 10000 5.1 20 00:55 18.12.2020
4714 Clouds 22 1021 73 10000 7.7 330 23:55 17.12.2020
4715 Clouds 22 1019 56 10000 7.15 11 23:25 17.12.2020
4716 Clouds 22 1019 56 10000 7.15 11 23:25 17.12.2020
4717 Clouds 22 1021 73 10000 7.2 360 22:49 17.12.2020
4718 Clouds 22 1021 73 10000 7.2 360 22:28 17.12.2020
4719 Clouds 23 1021 69 10000 6.2 20 21:47 17.12.2020
4720 Clouds 23 1021 69 10000 6.2 20 21:25 17.12.2020
4721 Clouds 24 1021 61 10000 6.7 350 20:56 17.12.2020
4722 Clouds 25 1021 61 10000 6.7 350 20:37 17.12.2020
4723 Clouds 24 1023 64 10000 6.2 360 20:18 17.12.2020
4724 Clouds 25 1023 64 10000 6.2 360 19:44 17.12.2020
4725 Clouds 24 1023 69 10000 6.2 360 19:23 17.12.2020
4726 Clouds 23 1023 69 10000 6.2 360 18:41 17.12.2020
4727 Clouds 24 1021 50 10000 6.26 9 18:23 17.12.2020
4728 Haze 23 1023 69 9656 4.6 10 17:53 17.12.2020
4729 Haze 23 1023 69 9656 4.6 10 17:32 17.12.2020
4730 Haze 23 1023 69 9656 4.6 10 17:32 17.12.2020
4731 Clouds 23 1022 73 10000 5.1 10 16:44 17.12.2020
4732 Clouds 23 1021 73 10000 4.1 360 16:24 17.12.2020
4733 Clouds 22 1021 73 10000 4.1 360 15:52 17.12.2020
4734 Clouds 22 1021 73 10000 4.1 360 15:31 17.12.2020
4735 Clouds 22 1020 77 10000 4.1 360 14:55 17.12.2020
4736 Haze 21 1020 77 9656 5.1 360 14:31 17.12.2020
4737 Haze 21 1020 77 9656 5.1 360 13:52 17.12.2020
4738 Haze 21 1020 77 9656 5.1 360 13:33 17.12.2020
4739 Clouds 22 1018 55 10000 4.92 355 12:47 17.12.2020
4740 Clouds 22 1018 55 10000 4.02 355 12:25 17.12.2020
4741 Clouds 22 1017 55 10000 5.36 5 11:45 17.12.2020
4742 Clouds 21 1019 77 10000 4.1 350 11:25 17.12.2020
4743 Clouds 21 1019 77 10000 4.1 350 10:55 17.12.2020
4744 Clouds 21 1019 77 10000 4.6 350 10:19 17.12.2020
4745 Clouds 21 1019 77 10000 4.6 350 09:28 17.12.2020
4746 Clouds 21 1019 73 10000 8.2 10 07:54 17.12.2020
4747 Clouds 21 1019 73 10000 8.2 10 07:35 17.12.2020
4748 Clouds 21 1020 73 10000 4.1 20 06:54 17.12.2020
4749 Clouds 21 1020 73 10000 4.1 20 06:32 17.12.2020
4750 Clouds 21 1019 73 10000 5.7 20 05:58 17.12.2020
4751 Clouds 24 1015 60 10000 9.8 10 00:38 17.12.2020
4752 Clouds 25 1015 57 10000 7.2 360 23:52 16.12.2020
4753 Clouds 25 1014 61 10000 8.7 20 23:20 16.12.2020
4754 Clouds 25 1014 61 10000 8.7 20 22:55 16.12.2020
4755 Clouds 25 1014 61 10000 8.7 20 22:35 16.12.2020
4756 Clouds 27 1014 51 10000 7.7 360 21:52 16.12.2020
4757 Clouds 27 1014 51 10000 7.7 360 21:34 16.12.2020
4758 Clouds 26 1015 57 10000 10.3 350 20:55 16.12.2020
4759 Clouds 26 1015 57 10000 10.3 350 20:37 16.12.2020
4760 Clouds 26 1015 57 10000 10.3 350 20:37 16.12.2020
4761 Clouds 27 1016 57 10000 12.9 350 20:18 16.12.2020
4762 Clouds 27 1016 65 10000 9.3 360 19:20 16.12.2020
4763 Clouds 26 1016 65 10000 9.3 360 18:54 16.12.2020
4764 Clouds 26 1016 65 10000 9.3 360 18:27 16.12.2020
4765 Clouds 26 1016 69 10000 7.7 10 17:47 16.12.2020
4766 Clouds 26 1016 69 10000 7.7 10 17:28 16.12.2020
4767 Clouds 25 1016 73 10000 2.1 350 16:39 16.12.2020
4768 Mist 23 1014 88 10000 2.6 320 16:21 16.12.2020
4769 Mist 22 1014 88 10000 2.6 320 15:50 16.12.2020
4770 Mist 23 1012 73 10000 4.6 40 15:26 16.12.2020
4771 Mist 23 1012 73 10000 4.6 40 14:47 16.12.2020
4772 Mist 24 1012 73 10000 4.6 40 14:28 16.12.2020
4773 Clouds 24 1012 78 10000 4.6 60 13:49 16.12.2020
4774 Clouds 25 1012 78 10000 4.6 60 13:28 16.12.2020
4775 Clouds 24 1010 64 10000 4.92 75 12:55 16.12.2020
4776 Clouds 23 1010 79 10000 2.24 27 12:34 16.12.2020
4777 Clouds 21 1009 80 10000 2.68 360 11:40 16.12.2020
4778 Clouds 21 1009 80 10000 2.68 360 11:22 16.12.2020
4779 Clouds 21 1008 80 10000 1.34 347 10:46 16.12.2020
4780 Clouds 20 1008 79 10000 0.89 279 10:22 16.12.2020
4781 Clouds 20 1008 79 10000 0.89 217 09:42 16.12.2020
4782 Clouds 20 1008 79 10000 0.89 232 08:36 16.12.2020
4783 Clouds 20 1008 78 10000 0.45 232 07:52 16.12.2020
4784 Clouds 21 1009 77 10000 0.45 232 07:33 16.12.2020
4785 Clear 20 1011 100 10000 3.62 174 06:41 16.12.2020
4786 Clouds 23 1009 88 10000 3.5 126 02:26 16.12.2020
4787 Clouds 25 1008 69 10000 2.1 100 00:23 16.12.2020
4788 Clouds 26 1008 69 10000 2.1 100 23:44 15.12.2020
4789 Clouds 28 1008 51 10000 2.1 160 22:46 15.12.2020
4790 Clouds 29 1008 51 10000 2.1 160 22:24 15.12.2020
4791 Clouds 29 1010 51 10000 2.1 150 21:51 15.12.2020
4792 Clouds 29 1010 51 10000 2.1 150 21:25 15.12.2020
4793 Clouds 28 1012 54 10000 1.5 150 20:58 15.12.2020
4794 Clouds 28 1012 54 10000 1.5 150 20:39 15.12.2020
4795 Clouds 28 1013 57 10000 2.6 170 20:21 15.12.2020
4796 Clouds 27 1013 57 10000 2.6 170 19:41 15.12.2020
4797 Clouds 26 1015 57 10000 2.1 200 19:23 15.12.2020
4798 Clouds 26 1015 57 10000 2.1 200 18:39 15.12.2020
4799 Clouds 25 1015 60 10000 2.96 173 18:20 15.12.2020
4800 Clouds 25 1015 60 10000 2.96 173 17:43 15.12.2020
4801 Clouds 23 1015 73 10000 2.84 195 17:22 15.12.2020
4802 Clouds 23 1015 73 10000 2.84 195 16:38 15.12.2020
4803 Clouds 20 1015 93 9656 1.5 200 16:19 15.12.2020
4804 Clouds 18 1015 93 9656 1.5 200 15:37 15.12.2020
4805 Clouds 16 1015 100 9656 1 180 14:59 15.12.2020
4806 Clouds 15 1015 100 9656 1 180 14:41 15.12.2020
4807 Clouds 16 1015 93 9656 2.86 220 14:19 15.12.2020
4808 Clouds 16 1015 93 9656 2.86 220 13:47 15.12.2020
4809 Clouds 16 1015 93 9656 3.09 216 13:22 15.12.2020
4810 Clouds 16 1013 68 10000 0.45 242 12:44 15.12.2020
4811 Clouds 16 1013 68 10000 0.45 242 12:19 15.12.2020
4812 Clouds 17 1014 68 10000 0.89 242 11:50 15.12.2020
4813 Clouds 17 1014 67 10000 0.45 242 11:21 15.12.2020
4814 Clouds 17 1014 66 10000 0.45 242 10:47 15.12.2020
4815 Clouds 18 1014 66 10000 1.34 247 10:20 15.12.2020
4816 Clouds 19 1015 64 10000 1.34 253 09:42 15.12.2020
4817 Clear 19 1015 65 10000 0.45 230 09:23 15.12.2020
4818 Clear 18 1016 65 10000 0.45 230 08:40 15.12.2020
4819 Clear 18 1016 65 10000 0.89 230 08:21 15.12.2020
4820 Clear 18 1016 65 10000 0.89 230 07:43 15.12.2020
4821 Clear 18 1020 82 10000 1.96 309 06:53 15.12.2020
4822 Clear 19 1020 82 10000 2.6 10 05:37 15.12.2020
4823 Clouds 22 1019 64 9656 7.7 350 00:39 15.12.2020
4824 Clouds 22 1018 64 9656 10.3 20 23:51 14.12.2020
4825 Clouds 22 1018 64 9656 12.9 360 23:19 14.12.2020
4826 Clouds 22 1018 64 9656 12.9 360 22:44 14.12.2020
4827 Clouds 23 1019 60 9656 10.3 10 22:19 14.12.2020
4828 Clouds 23 1019 60 9656 10.3 10 21:40 14.12.2020
4829 Clouds 24 1020 57 9656 7.7 350 21:18 14.12.2020
4830 Clouds 24 1020 57 9656 7.7 350 20:46 14.12.2020
4831 Clouds 25 1020 57 9656 7.7 350 20:27 14.12.2020
4832 Clouds 25 1020 57 9656 10.3 350 19:41 14.12.2020
4833 Clouds 25 1021 57 8047 10.3 20 19:23 14.12.2020
4834 Clouds 26 1021 57 8047 10.3 20 18:43 14.12.2020
4835 Clouds 26 1021 61 8047 5.1 350 18:23 14.12.2020
4836 Clouds 25 1021 61 8047 5.1 350 17:38 14.12.2020
4837 Clouds 25 1020 69 8047 7.7 340 17:19 14.12.2020
4838 Clouds 25 1020 69 8047 7.7 340 17:19 14.12.2020
4839 Clouds 25 1020 69 8047 7.7 340 16:40 14.12.2020
4840 Haze 24 1019 73 6437 10.3 360 16:22 14.12.2020
4841 Haze 24 1019 73 6437 10.3 360 15:33 14.12.2020
4842 Haze 24 1019 73 6437 10.3 360 15:33 14.12.2020
4843 Mist 23 1018 88 3219 12.38 343 14:50 14.12.2020
4844 Mist 23 1018 88 3219 13.4 342 14:29 14.12.2020
4845 Clouds 22 1018 88 8047 1.5 350 13:56 14.12.2020
4846 Clouds 22 1018 88 8047 1.5 350 13:34 14.12.2020
4847 Clouds 24 1015 71 10000 3.13 348 12:56 14.12.2020
4848 Clouds 25 1015 71 10000 4.47 15 12:32 14.12.2020
4849 Clouds 25 1014 72 10000 5.36 42 11:56 14.12.2020
4850 Clouds 25 1014 72 10000 6.71 28 11:23 14.12.2020
4851 Clouds 22 1014 79 10000 1.34 47 10:28 14.12.2020
4852 Clouds 22 1014 77 10000 0.89 339 09:53 14.12.2020
4853 Clear 22 1014 76 10000 0.89 355 08:57 14.12.2020
4854 Clear 23 1014 75 10000 1.34 355 08:39 14.12.2020
4855 Clear 23 1014 75 10000 0.89 320 07:59 14.12.2020
4856 Mist 22 1015 94 4828 0.3 303 07:22 14.12.2020
4857 Mist 22 1015 94 4828 1.17 345 06:43 14.12.2020
4858 Haze 23 1013 94 8047 1.39 116 03:58 14.12.2020
4859 Haze 23 1012 94 8047 1.5 110 02:23 14.12.2020
4860 Haze 25 1011 74 6437 2.1 90 00:49 14.12.2020
4861 Haze 25 1011 74 6437 2.1 90 00:27 14.12.2020
4862 Haze 27 1010 65 6437 2.6 90 23:44 13.12.2020
4863 Haze 28 1011 65 6437 2.6 80 22:58 13.12.2020
4864 Haze 28 1011 65 6437 2.6 80 22:39 13.12.2020
4865 Haze 28 1011 69 6437 3.1 110 22:18 13.12.2020
4866 Haze 28 1011 69 6437 3.1 110 21:41 13.12.2020
4867 Haze 28 1012 65 6437 1.5 170 20:55 13.12.2020
4868 Haze 28 1012 65 6437 1.5 170 20:28 13.12.2020
4869 Haze 27 1013 69 6437 1.5 130 19:48 13.12.2020
4870 Haze 27 1013 69 6437 1.5 130 19:24 13.12.2020
4871 Mist 26 1014 74 4828 3.6 170 18:54 13.12.2020
4872 Mist 26 1014 74 4828 3.6 170 18:36 13.12.2020
4873 Mist 26 1015 74 4023 4.6 180 18:18 13.12.2020
4874 Mist 25 1015 83 4828 1.5 200 17:44 13.12.2020
4875 Mist 23 1015 100 4828 1.5 190 17:18 13.12.2020
4876 Mist 22 1015 100 4828 1.5 190 16:46 13.12.2020
4877 Mist 21 1015 100 4828 1.5 190 16:28 13.12.2020
4878 Mist 19 1015 100 1609 2.48 192 15:45 13.12.2020
4879 Mist 19 1015 100 1609 2.35 205 15:26 13.12.2020
4880 Fog 18 1014 100 805 2.35 205 14:46 13.12.2020
4881 Fog 18 1014 100 805 2.28 214 14:28 13.12.2020
4882 Fog 18 1013 100 805 2.28 214 13:48 13.12.2020
4883 Fog 18 1013 100 805 2.28 214 13:30 13.12.2020
4884 Clouds 18 1011 80 10000 0.89 233 12:55 13.12.2020
4885 Clouds 19 1011 80 10000 0.89 233 12:24 13.12.2020
4886 Clouds 19 1011 80 10000 0.89 233 12:24 13.12.2020
4887 Clouds 21 1010 80 10000 0.45 233 11:54 13.12.2020
4888 Clouds 21 1010 80 10000 0.45 233 11:31 13.12.2020
4889 Clouds 21 1010 81 10000 0.89 233 10:43 13.12.2020
4890 Clouds 21 1010 81 10000 0.89 233 10:21 13.12.2020
4891 Clouds 20 1011 80 10000 2.15 194 09:37 13.12.2020
4892 Clouds 20 1011 80 10000 0.45 232 08:47 13.12.2020
4893 Clouds 20 1011 80 10000 1.34 228 08:23 13.12.2020
4894 Mist 20 1015 100 8047 1.37 229 05:50 13.12.2020
4895 Clouds 22 1013 94 8047 1 360 02:43 13.12.2020
4896 Clouds 23 1013 88 8047 1 360 01:59 13.12.2020
4897 Clouds 23 1013 88 8047 1 360 01:33 13.12.2020
4898 Clouds 25 1011 67 10000 1.79 49 00:37 13.12.2020
4899 Clouds 26 1011 62 10000 1.79 27 23:33 12.12.2020
4900 Clouds 27 1010 60 10000 2.68 59 22:59 12.12.2020
4901 Clouds 27 1010 59 10000 3.13 22 22:28 12.12.2020
4902 Clouds 27 1010 59 10000 3.13 30 21:46 12.12.2020
4903 Clouds 27 1011 58 10000 4.47 57 21:19 12.12.2020
4904 Clouds 27 1011 57 10000 4.02 16 20:43 12.12.2020
4905 Clouds 27 1011 57 10000 4.02 16 20:19 12.12.2020
4906 Clouds 28 1012 54 10000 3.58 59 19:51 12.12.2020
4907 Clouds 27 1013 56 10000 3.13 51 19:33 12.12.2020
4908 Clouds 27 1013 56 10000 3.13 51 19:33 12.12.2020
4909 Clouds 27 1016 65 9656 1.5 30 18:52 12.12.2020
4910 Clouds 27 1016 65 9656 1.5 30 18:33 12.12.2020
4911 Mist 26 1016 69 8047 3.6 360 17:59 12.12.2020
4912 Mist 26 1016 69 8047 3.6 360 17:40 12.12.2020
4913 Mist 22 1015 88 8047 1.5 350 16:30 12.12.2020
4914 Mist 20 1014 93 8047 1.5 340 15:53 12.12.2020
4915 Mist 20 1014 93 8047 1.5 340 15:35 12.12.2020
4916 Haze 18 1013 93 8047 2.34 319 14:53 12.12.2020
4917 Mist 17 1013 100 9656 2.04 276 14:20 12.12.2020
4918 Mist 17 1013 100 9656 2.04 276 13:40 12.12.2020
4919 Mist 17 1013 100 9656 2.41 230 13:22 12.12.2020
4920 Clouds 17 1010 79 10000 2.39 225 12:32 12.12.2020
4921 Clouds 17 1010 77 10000 3.1 202 11:18 12.12.2020
4922 Clouds 20 1012 92 10000 3.1 202 10:42 12.12.2020
4923 Clear 18 1011 76 10000 0.89 70 09:20 12.12.2020
4924 Clear 21 1012 88 10000 1 50 03:39 12.12.2020
4925 Clouds 24 1010 73 10000 2.6 90 00:48 12.12.2020
4926 Clouds 27 1010 54 10000 3.1 70 22:50 11.12.2020
4927 Clear 27 1012 54 9656 1 110 20:52 11.12.2020
4928 Clouds 25 1015 65 9656 2.91 141 18:56 11.12.2020
4929 Clouds 21 1015 82 8047 3.41 181 16:45 11.12.2020
4930 Haze 14 1014 100 4828 3.49 195 14:24 11.12.2020
4931 Clouds 18 1015 90 10000 3.72 191 13:25 11.12.2020
4932 Clear 15 1012 78 10000 0.89 242 12:21 11.12.2020
4933 Clear 19 1014 89 10000 4.24 182 11:52 11.12.2020
4934 Clear 16 1012 77 10000 0.45 242 10:56 11.12.2020
4935 Clouds 17 1012 73 10000 0.45 242 09:42 11.12.2020
4936 Clear 19 1017 82 10000 3.33 190 06:25 11.12.2020
4937 Clear 21 1017 77 10000 3.34 166 05:20 11.12.2020
4938 Clouds 22 1016 73 10000 4.19 140 02:38 11.12.2020
4939 Clear 23 1014 55 10000 3.13 123 00:34 11.12.2020
4940 Clouds 26 1015 61 10000 3.6 100 22:56 10.12.2020
4941 Clouds 26 1016 61 10000 2.6 90 21:37 10.12.2020
4942 Clouds 27 1017 51 10000 3.6 200 20:47 10.12.2020
4943 Clouds 26 1018 54 10000 3.32 132 19:49 10.12.2020
4944 Clouds 26 1020 57 10000 3.1 180 19:21 10.12.2020
4945 Clouds 25 1020 57 10000 3.1 180 18:44 10.12.2020
4946 Clear 22 1020 77 10000 2.73 193 16:49 10.12.2020
4947 Clear 19 1019 93 10000 2.69 216 15:50 10.12.2020
4948 Clear 17 1019 93 10000 2.77 227 14:58 10.12.2020
4949 Clear 16 1019 93 10000 2.77 227 14:38 10.12.2020
4950 Clear 14 1017 71 10000 2.37 245 13:23 10.12.2020
4951 Clear 16 1017 69 10000 2.43 244 11:43 10.12.2020
4952 Clear 17 1018 66 10000 2.34 242 09:21 10.12.2020
4953 Clear 18 1019 65 10000 2.21 241 07:59 10.12.2020
4954 Clear 18 1022 88 10000 1.82 241 06:46 10.12.2020
4955 Clear 20 1022 73 10000 0.99 114 03:55 10.12.2020
4956 Clear 21 1021 77 10000 1.5 60 02:24 10.12.2020
4957 Clouds 24 1020 60 10000 1.5 80 00:28 10.12.2020
4958 Clouds 25 1021 57 10000 4.6 60 22:58 09.12.2020
4959 Clouds 26 1023 50 10000 3.6 70 20:37 09.12.2020
4960 Clouds 26 1024 47 10000 1.5 110 19:34 09.12.2020
4961 Clouds 24 1026 53 10000 1.5 330 17:53 09.12.2020
4962 Clouds 22 1026 64 10000 1.5 280 16:52 09.12.2020
4963 Clouds 20 1025 72 10000 2.84 283 16:23 09.12.2020
4964 Clouds 18 1025 72 10000 2.84 283 15:31 09.12.2020
4965 Clouds 16 1025 77 10000 3 281 14:40 09.12.2020
4966 Clouds 16 1025 82 10000 3.03 285 14:18 09.12.2020
4967 Clouds 16 1023 58 10000 1.34 293 13:19 09.12.2020
4968 Clouds 16 1023 59 10000 1.34 288 12:45 09.12.2020
4969 Clouds 16 1022 61 10000 1.34 289 11:53 09.12.2020
4970 Clouds 16 1022 60 10000 1.34 286 10:59 09.12.2020
4971 Clouds 17 1023 59 10000 1.34 295 09:39 09.12.2020
4972 Clouds 16 1024 62 10000 3.43 298 07:57 09.12.2020
4973 Clear 18 1026 88 10000 3.27 322 05:55 09.12.2020
4974 Clear 20 1025 77 10000 4.15 355 03:54 09.12.2020
4975 Clear 22 1024 68 10000 3.6 20 01:56 09.12.2020
4976 Clear 24 1023 38 10000 6.2 20 23:44 08.12.2020
4977 Clear 25 1022 44 10000 4.6 30 23:18 08.12.2020
4978 Clouds 25 1023 47 10000 6.2 30 21:30 08.12.2020
4979 Clouds 26 1025 41 10000 4.1 20 19:40 08.12.2020
4980 Clear 25 1026 47 10000 4.1 350 18:59 08.12.2020
4981 Clear 24 1027 47 10000 4.1 20 17:56 08.12.2020
4982 Mist 20 1025 82 10000 2.45 290 15:54 08.12.2020
4983 Mist 16 1025 87 10000 2.82 295 14:31 08.12.2020
4984 Clear 16 1024 87 10000 2.92 297 13:35 08.12.2020
4985 Clear 16 1022 65 10000 0.89 306 12:29 08.12.2020
4986 Clear 17 1022 62 10000 0.45 309 11:51 08.12.2020
4987 Clear 18 1022 56 10000 0.89 316 10:47 08.12.2020
4988 Clear 19 1022 52 10000 0.89 325 10:28 08.12.2020
4989 Clear 19 1022 54 10000 1.34 330 08:53 08.12.2020
4990 Clouds 19 1025 56 10000 3.6 340 07:18 08.12.2020
4991 Clouds 21 1024 56 10000 2.1 330 03:42 08.12.2020
4992 Clouds 21 1022 64 10000 6.13 359 00:47 08.12.2020
4993 Clouds 22 1022 64 10000 6.55 359 00:25 08.12.2020
4994 Clouds 23 1021 46 10000 3.1 10 22:43 07.12.2020
4995 Clouds 23 1021 46 10000 3.1 330 21:56 07.12.2020
4996 Clouds 24 1022 44 10000 2.6 360 20:31 07.12.2020
4997 Clouds 24 1024 38 10000 2.1 70 18:43 07.12.2020
4998 Clouds 23 1024 56 10000 1 290 17:28 07.12.2020
4999 Clouds 21 1024 82 10000 3.83 330 16:55 07.12.2020
5000 Clouds 19 1023 77 10000 4.73 335 15:36 07.12.2020
5001 Clouds 20 1022 56 10000 1 290 14:51 07.12.2020
5002 Clouds 20 1022 49 10000 4.1 360 14:18 07.12.2020
5003 Clouds 22 1020 31 10000 5.36 355 13:21 07.12.2020
5004 Clouds 19 1019 55 10000 1.34 338 11:44 07.12.2020
5005 Clouds 18 1019 61 10000 0.45 259 11:19 07.12.2020
5006 Clouds 19 1019 47 10000 1.79 305 09:56 07.12.2020
5007 Clouds 20 1019 46 10000 1.79 341 08:26 07.12.2020
5008 Clouds 20 1021 64 10000 6.2 360 06:36 07.12.2020
5009 Clouds 20 1021 64 10000 7.7 360 04:50 07.12.2020
5010 Clouds 20 1018 72 10000 7.7 360 01:55 07.12.2020
5011 Clouds 21 1017 72 10000 7.7 360 00:27 07.12.2020
5012 Clouds 21 1017 72 10000 7.7 10 22:28 06.12.2020
5013 Clouds 21 1017 73 10000 7.7 10 20:58 06.12.2020
5014 Clouds 21 1017 73 10000 7.7 10 20:34 06.12.2020
5015 Clouds 21 1018 73 10000 8.7 10 19:56 06.12.2020
5016 Clouds 22 1019 68 10000 7.7 350 18:40 06.12.2020
5017 Clouds 21 1019 73 10000 8.2 10 16:56 06.12.2020
5018 Clouds 21 1018 77 10000 7.7 340 15:37 06.12.2020
5019 Clouds 20 1016 82 8047 7.7 340 13:56 06.12.2020
5020 Clouds 21 1014 61 10000 4.92 5 12:52 06.12.2020
5021 Clouds 21 1014 61 10000 4.92 5 12:18 06.12.2020
5022 Clouds 21 1014 65 10000 0.45 80 11:34 06.12.2020
5023 Clouds 21 1014 64 10000 1.99 321 10:51 06.12.2020
5024 Clouds 20 1015 66 10000 1.82 297 09:59 06.12.2020
5025 Clouds 20 1016 65 10000 0.89 260 08:30 06.12.2020
5026 Clouds 20 1019 88 10000 2.65 292 06:50 06.12.2020
5027 Clouds 21 1017 77 10000 5.1 360 01:50 06.12.2020
5028 Clouds 22 1016 68 10000 6.2 20 00:42 06.12.2020
5029 Clouds 22 1016 68 10000 6.2 20 00:23 06.12.2020
5030 Clouds 23 1016 69 10000 4.1 50 22:47 05.12.2020
5031 Clouds 24 1016 64 10000 5.7 20 22:20 05.12.2020
5032 Clouds 24 1016 64 10000 5.7 20 21:50 05.12.2020
5033 Clouds 24 1016 64 10000 5.7 20 21:26 05.12.2020
5034 Clouds 24 1019 60 10000 3.6 50 19:43 05.12.2020
5035 Haze 24 1020 60 9656 2.6 360 18:40 05.12.2020
5036 Haze 24 1021 60 9656 2.6 350 17:33 05.12.2020
5037 Haze 22 1021 73 9656 3.25 316 16:31 05.12.2020
5038 Haze 20 1020 88 8047 3.57 323 15:54 05.12.2020
5039 Haze 18 1019 82 9656 3.41 321 14:27 05.12.2020
5040 Haze 18 1019 82 9656 3.41 321 14:27 05.12.2020
5041 Clouds 19 1017 61 10000 3.44 324 12:20 05.12.2020
5042 Clouds 18 1017 61 10000 3.44 324 11:40 05.12.2020
5043 Clouds 18 1017 59 10000 3.29 328 10:31 05.12.2020
5044 Clouds 19 1021 68 10000 1 330 07:48 05.12.2020
5045 Clouds 19 1022 68 10000 1.5 340 06:40 05.12.2020
5046 Clouds 20 1021 72 10000 5.7 10 03:54 05.12.2020
5047 Clouds 21 1019 64 10000 5.1 350 23:52 04.12.2020
5048 Clouds 22 1019 60 10000 5.7 360 22:24 04.12.2020
5049 Clouds 22 1020 60 10000 6.2 10 20:25 04.12.2020
5050 Clouds 22 1021 60 10000 7.2 20 18:53 04.12.2020
5051 Clouds 22 1022 60 10000 8.2 20 18:19 04.12.2020
5052 Clouds 22 1022 60 10000 8.2 20 17:29 04.12.2020
5053 Mist 21 1021 68 10000 5.1 20 15:39 04.12.2020
5054 Clouds 20 1020 77 10000 1 330 13:40 04.12.2020
5055 Clouds 20 1020 77 10000 1 330 13:21 04.12.2020
5056 Clouds 19 1017 60 10000 1.34 327 12:49 04.12.2020
5057 Clouds 17 1017 64 10000 1.34 275 10:40 04.12.2020
5058 Clouds 17 1017 63 10000 0.45 278 09:46 04.12.2020
5059 Clear 20 1020 77 9656 5.7 360 06:43 04.12.2020
5060 Clear 21 1020 77 9656 8.2 10 05:59 04.12.2020
5061 Clouds 21 1017 73 9656 7.7 360 01:56 04.12.2020
5062 Clouds 25 1016 61 10000 7.7 10 22:52 03.12.2020
5063 Clouds 25 1016 61 10000 7.7 10 22:27 03.12.2020
5064 Clouds 26 1017 65 9656 7.7 10 20:49 03.12.2020
5065 Clear 26 1018 65 9656 7.7 10 19:29 03.12.2020
5066 Clouds 26 1019 69 8047 9.8 240 18:53 03.12.2020
5067 Clouds 25 1019 69 8047 3.1 360 17:53 03.12.2020
5068 Clouds 26 1018 69 8047 1.5 360 17:18 03.12.2020
5069 Clouds 23 1018 88 8047 7.34 340 15:52 03.12.2020
5070 Clouds 22 1018 88 8047 7.34 340 15:30 03.12.2020
5071 Clouds 22 1017 88 8047 5.7 340 14:48 03.12.2020
5072 Clouds 21 1016 88 9656 4.89 338 13:36 03.12.2020
5073 Clouds 21 1014 67 10000 2.4 322 12:26 03.12.2020
5074 Clouds 22 1014 67 10000 0.45 289 11:31 03.12.2020
5075 Clouds 22 1014 66 10000 0.45 288 10:18 03.12.2020
5076 Clouds 20 1016 94 10000 1.02 118 06:27 03.12.2020
5077 Clear 22 1014 83 10000 2.58 109 02:45 03.12.2020
5078 Clear 24 1013 69 10000 1.5 120 00:57 03.12.2020
5079 Clouds 26 1013 54 10000 3.6 100 22:47 02.12.2020
5080 Clouds 26 1013 54 10000 3.6 100 22:26 02.12.2020
5081 Clear 28 1015 51 10000 2.6 190 21:18 02.12.2020
5082 Clear 27 1015 51 10000 2.6 190 20:44 02.12.2020
5083 Clear 28 1015 51 10000 2.6 190 20:26 02.12.2020
5084 Clear 26 1017 57 10000 3.1 170 18:37 02.12.2020
5085 Clouds 25 1018 64 10000 3.1 200 17:45 02.12.2020
5086 Clear 24 1016 53 10000 3.13 239 17:27 02.12.2020
5087 Clouds 19 1017 93 10000 2.48 186 15:21 02.12.2020
5088 Clouds 19 1014 70 10000 0.89 189 12:45 02.12.2020
5089 Clouds 19 1014 69 10000 1.34 249 10:29 02.12.2020
5090 Clouds 19 1015 70 10000 0.89 257 09:22 02.12.2020
5091 Clouds 19 1019 88 10000 2.18 258 04:39 02.12.2020
5092 Clouds 24 1019 57 10000 3.1 40 22:21 01.12.2020
5093 Clouds 24 1019 57 10000 3.1 40 21:41 01.12.2020
5094 Clouds 23 1020 49 10000 3.13 27 19:35 01.12.2020
5095 Haze 22 1024 56 8047 2.6 350 17:58 01.12.2020
5096 Haze 21 1024 68 8047 2.6 330 16:37 01.12.2020
5097 Haze 18 1023 82 9656 4.05 331 13:39 01.12.2020
5098 Clouds 19 1021 61 10000 0.45 344 12:25 01.12.2020
5099 Clouds 19 1021 62 10000 3.55 327 11:27 01.12.2020
5100 Clouds 18 1022 63 10000 3.55 327 10:39 01.12.2020
5101 Clouds 18 1022 58 10000 0.45 340 09:24 01.12.2020
5102 Clouds 20 1025 56 10000 3.6 330 06:50 01.12.2020
5103 Sand 21 1022 56 10000 7.7 360 01:53 01.12.2020
5104 Sand 21 1021 64 10000 10.8 360 00:56 01.12.2020
5105 Sand 21 1021 60 10000 11.8 340 23:21 30.11.2020
5106 Sand 21 1021 60 10000 11.8 340 22:45 30.11.2020
5107 Sand 21 1021 60 10000 11.8 340 22:25 30.11.2020
5108 Clouds 22 1021 60 10000 7.2 10 20:57 30.11.2020
5109 Clouds 23 1022 68 10000 6.7 10 19:42 30.11.2020
5110 Clouds 22 1022 73 10000 10.3 360 18:24 30.11.2020
5111 Clouds 22 1022 73 10000 10.3 360 17:51 30.11.2020
5112 Clouds 22 1021 73 10000 9.8 360 16:58 30.11.2020
5113 Clouds 22 1021 73 10000 9.8 360 16:38 30.11.2020
5114 Drizzle 22 1019 78 10000 7.2 350 14:47 30.11.2020
5115 Clouds 22 1019 83 10000 3.1 360 13:53 30.11.2020
5116 Clouds 22 1019 83 10000 3.1 360 13:53 30.11.2020
5117 Clouds 23 1016 72 10000 5.81 21 12:27 30.11.2020
5118 Clouds 23 1016 75 10000 5.36 15 11:58 30.11.2020
5119 Rain 23 1016 78 10000 3.13 327 10:28 30.11.2020
5120 Clouds 22 1016 78 10000 1.79 296 09:51 30.11.2020
5121 Clouds 25 1018 88 9656 1.5 40 07:18 30.11.2020
5122 Clear 28 1014 69 10000 4.6 40 00:54 30.11.2020
5123 Clouds 30 1013 70 9656 3.1 60 21:53 29.11.2020
5124 Clouds 30 1013 70 9656 3.1 60 21:53 29.11.2020
5125 Clouds 29 1013 70 9656 3.1 60 21:32 29.11.2020
5126 Clouds 30 1014 58 9656 1 70 20:38 29.11.2020
5127 Clouds 28 1016 78 8047 0.09 48 17:48 29.11.2020
5128 Clouds 26 1015 88 6437 1.89 243 16:27 29.11.2020
5129 Clouds 22 1013 100 9656 1.43 237 13:24 29.11.2020
5130 Clouds 23 1010 80 10000 1.34 264 11:49 29.11.2020
5131 Clouds 23 1010 80 10000 0.89 282 10:53 29.11.2020
5132 Clouds 23 1011 79 10000 1.56 137 08:39 29.11.2020
5133 Clouds 23 1014 100 10000 2.37 132 06:33 29.11.2020
5134 Clear 28 1011 70 10000 2.1 120 23:54 28.11.2020
5135 Clouds 29 1011 66 8047 4.31 98 22:56 28.11.2020
5136 Clouds 30 1013 66 8047 2.1 150 20:49 28.11.2020
5137 Clouds 29 1014 74 10000 2.34 98 19:50 28.11.2020
5138 Clouds 28 1014 74 10000 1.07 112 19:23 28.11.2020
5139 Clouds 29 1015 62 9656 2.1 170 18:44 28.11.2020
5140 Clear 28 1015 69 10000 0.68 248 17:47 28.11.2020
5141 Clear 27 1015 78 8047 2.01 269 16:44 28.11.2020
5142 Mist 22 1014 100 3219 3.27 280 14:54 28.11.2020
5143 Clouds 22 1011 80 10000 2.43 281 12:35 28.11.2020
5144 Clear 23 1011 76 10000 0.47 279 10:36 28.11.2020
5145 Clouds 24 1014 94 10000 0.81 149 06:42 28.11.2020
5146 Clear 25 1013 88 10000 1.87 126 03:32 28.11.2020
5147 Clear 26 1012 78 10000 2.6 100 01:50 28.11.2020
5148 Clear 30 1012 58 10000 4.6 80 22:56 27.11.2020
5149 Clouds 30 1013 66 10000 4.1 90 21:33 27.11.2020
5150 Clouds 30 1014 62 10000 2.6 140 20:31 27.11.2020
5151 Haze 31 1015 58 8047 1.73 135 19:25 27.11.2020
5152 Haze 30 1016 70 8047 2.6 210 18:44 27.11.2020
5153 Mist 23 1015 100 4828 0.9 262 14:56 27.11.2020
5154 Haze 21 1015 100 6437 0.9 256 13:29 27.11.2020
5155 Clear 22 1012 80 10000 0.9 256 12:47 27.11.2020
5156 Clear 23 1012 80 10000 1.2 261 11:49 27.11.2020
5157 Clear 23 1012 79 10000 1.35 216 10:50 27.11.2020
5158 Clear 23 1012 79 10000 1.58 166 10:19 27.11.2020
5159 Clouds 24 1013 76 10000 0.45 240 07:29 27.11.2020
5160 Clear 29 1011 56 10000 4.02 88 22:28 26.11.2020
5161 Clear 29 1011 56 10000 4.47 97 21:57 26.11.2020
5162 Clouds 30 1014 66 9656 1.5 80 21:25 26.11.2020
5163 Clouds 30 1015 62 9656 1 130 19:19 26.11.2020
5164 Clear 28 1017 65 9656 0.09 258 17:53 26.11.2020
5165 Clear 23 1015 71 10000 0.89 318 14:57 26.11.2020
5166 Mist 22 1016 94 9656 1.5 310 13:42 26.11.2020
5167 Clouds 22 1014 76 10000 2.07 282 12:44 26.11.2020
5168 Clouds 22 1014 76 10000 2.49 282 11:47 26.11.2020
5169 Clouds 23 1013 75 10000 0.45 321 10:37 26.11.2020
5170 Clouds 23 1014 74 10000 2.63 287 09:48 26.11.2020
5171 Clouds 23 1014 74 10000 2.17 298 09:29 26.11.2020
5172 Clouds 24 1015 73 10000 0.45 321 08:39 26.11.2020
5173 Clouds 24 1017 94 9656 1.42 324 06:50 26.11.2020
5174 Clear 29 1012 62 10000 3.6 70 23:54 25.11.2020
5175 Clear 30 1014 58 10000 1.5 120 20:46 25.11.2020
5176 Clear 29 1015 62 10000 2.07 126 19:56 25.11.2020
5177 Clear 28 1016 61 10000 1.5 90 18:28 25.11.2020
5178 Clear 26 1016 74 9656 2.38 182 17:23 25.11.2020
5179 Mist 20 1016 94 9656 2.29 203 15:41 25.11.2020
5180 Clear 18 1014 93 9656 2.97 216 13:58 25.11.2020
5181 Clear 18 1014 93 9656 2.97 216 13:38 25.11.2020
5182 Clear 19 1012 80 10000 0.45 227 11:58 25.11.2020
5183 Clear 19 1012 80 10000 0.89 227 11:18 25.11.2020
5184 Clear 21 1013 78 10000 0.45 227 09:19 25.11.2020
5185 Clear 21 1013 78 10000 0.89 232 08:44 25.11.2020
5186 Clear 22 1015 88 10000 2.64 178 05:18 25.11.2020
5187 Clear 24 1014 83 10000 2.96 145 02:53 25.11.2020
5188 Clear 27 1013 69 10000 3.1 110 00:28 25.11.2020
5189 Clear 28 1012 65 10000 3.1 90 23:52 24.11.2020
5190 Clear 28 1012 65 10000 3.1 90 23:34 24.11.2020
5191 Clear 29 1014 62 10000 3.1 80 21:51 24.11.2020
5192 Clear 29 1014 62 10000 3.1 80 21:31 24.11.2020
5193 Clear 29 1015 54 10000 2.79 126 20:45 24.11.2020
5194 Clear 28 1018 65 10000 3.1 180 18:57 24.11.2020
5195 Clear 26 1019 69 10000 2.1 210 17:31 24.11.2020
5196 Clear 25 1019 83 10000 3.15 195 16:54 24.11.2020
5197 Clear 25 1019 83 10000 3.15 195 16:35 24.11.2020
5198 Clear 22 1018 94 10000 3.01 204 15:54 24.11.2020
5199 Clear 21 1018 100 10000 2.49 214 15:19 24.11.2020
5200 Clear 20 1018 100 10000 2.49 214 14:43 24.11.2020
5201 Clear 20 1017 94 10000 2.1 237 12:55 24.11.2020
5202 Clouds 20 1015 79 10000 2.19 241 12:22 24.11.2020
5203 Clouds 20 1015 79 10000 0.45 229 11:58 24.11.2020
5204 Clear 20 1015 79 10000 0.45 277 10:47 24.11.2020
5205 Clear 21 1015 77 10000 2.18 243 10:25 24.11.2020
5206 Clear 21 1016 73 10000 0.45 277 09:35 24.11.2020
5207 Clear 22 1016 70 10000 0.89 277 08:26 24.11.2020
5208 Clouds 23 1019 88 10000 1.5 50 04:49 24.11.2020
5209 Clouds 27 1017 57 10000 5.1 10 23:28 23.11.2020
5210 Clouds 28 1017 58 10000 6.2 30 21:38 23.11.2020
5211 Clouds 29 1019 58 10000 6.2 20 20:56 23.11.2020
5212 Clouds 29 1019 58 10000 6.2 20 20:28 23.11.2020
5213 Clouds 29 1020 48 10000 5.1 40 19:32 23.11.2020
5214 Clouds 27 1021 69 10000 2.1 330 17:27 23.11.2020
5215 Clouds 26 1021 73 9656 3.1 360 16:54 23.11.2020
5216 Clouds 21 1019 93 9656 5.1 328 14:49 23.11.2020
5217 Clouds 20 1019 94 9656 5.49 331 13:43 23.11.2020
5218 Clear 23 1017 61 10000 2.68 360 12:38 23.11.2020
5219 Clear 21 1017 68 10000 0.45 274 11:50 23.11.2020
5220 Clear 23 1016 61 10000 1.79 360 11:25 23.11.2020
5221 Clear 23 1017 61 10000 1.79 346 09:42 23.11.2020
5222 Clear 24 1017 59 10000 3.13 17 08:49 23.11.2020
5223 Clouds 24 1018 60 10000 2.24 360 07:29 23.11.2020
5224 Clouds 26 1017 74 10000 5.7 10 00:39 23.11.2020
5225 Clouds 27 1016 65 10000 5.1 10 23:38 22.11.2020
5226 Clouds 28 1017 61 10000 7.7 10 22:18 22.11.2020
5227 Clouds 29 1018 58 10000 7.2 10 20:54 22.11.2020
5228 Clouds 29 1018 58 10000 4.6 10 19:58 22.11.2020
5229 Clouds 28 1019 61 10000 5.1 20 18:54 22.11.2020
5230 Smoke 27 1020 65 10000 3.6 360 17:33 22.11.2020
5231 Mist 24 1019 83 10000 2.6 310 15:58 22.11.2020
5232 Mist 22 1019 88 10000 3.58 314 14:40 22.11.2020
5233 Clouds 22 1016 69 10000 1.34 328 12:50 22.11.2020
5234 Clouds 22 1016 68 10000 1.34 316 12:18 22.11.2020
5235 Clouds 22 1016 69 10000 1.34 323 11:35 22.11.2020
5236 Clouds 23 1016 68 10000 1.79 323 10:45 22.11.2020
5237 Clouds 22 1016 70 10000 1.34 286 09:42 22.11.2020
5238 Clouds 25 1018 78 10000 6.2 20 01:50 22.11.2020
5239 Clouds 27 1018 65 10000 7.2 20 23:53 21.11.2020
5240 Clouds 27 1018 69 10000 6.2 360 22:25 21.11.2020
5241 Clouds 28 1019 69 10000 5.1 360 21:30 21.11.2020
5242 Clouds 28 1019 65 10000 6.7 350 20:35 21.11.2020
5243 Clouds 27 1021 78 10000 6.2 360 19:57 21.11.2020
5244 Clouds 27 1021 78 10000 6.2 360 19:36 21.11.2020
5245 Clouds 26 1021 78 10000 6.2 10 18:28 21.11.2020
5246 Clouds 28 1021 65 10000 3.1 360 17:26 21.11.2020
5247 Clouds 26 1021 78 10000 3.1 20 16:39 21.11.2020
5248 Clouds 24 1021 83 10000 1 320 15:22 21.11.2020
5249 Clouds 22 1020 94 10000 1 340 14:43 21.11.2020
5250 Clouds 22 1020 94 10000 5.51 338 14:21 21.11.2020
5251 Clouds 22 1020 86 10000 4.9 335 12:29 21.11.2020
5252 Clouds 22 1020 86 10000 4.9 335 11:58 21.11.2020
5253 Clear 22 1021 86 10000 4.84 333 10:41 21.11.2020
5254 Clear 22 1020 86 10000 4.65 332 09:59 21.11.2020
5255 Clouds 22 1021 86 10000 4.7 331 08:51 21.11.2020
5256 Clouds 22 1021 88 10000 2.1 360 06:35 21.11.2020
5257 Clouds 23 1021 78 10000 1.5 340 04:39 21.11.2020
5258 Clouds 23 1020 83 10000 7.18 352 01:21 21.11.2020
5259 Clouds 27 1018 61 10000 7.2 360 23:55 20.11.2020
5260 Clouds 26 1019 65 10000 4.1 360 22:25 20.11.2020
5261 Clouds 26 1019 65 10000 5.7 10 21:41 20.11.2020
5262 Clouds 26 1019 65 10000 5.7 10 21:41 20.11.2020
5263 Clouds 26 1019 65 10000 5.7 10 21:20 20.11.2020
5264 Clouds 22 1022 90 10000 5.11 326 19:44 20.11.2020
5265 Clouds 23 1022 83 10000 5.48 322 18:37 20.11.2020
5266 Clouds 22 1022 100 6437 6.07 334 17:51 20.11.2020
5267 Rain 22 1023 89 10000 6.38 339 17:24 20.11.2020
5268 Clouds 22 1022 94 8047 6.38 339 16:38 20.11.2020
5269 Clouds 21 1021 94 10000 6.61 339 15:56 20.11.2020
5270 Clouds 21 1021 94 10000 7.1 342 15:25 20.11.2020
5271 Clouds 21 1020 94 10000 8.63 344 13:45 20.11.2020
5272 Rain 23 1019 84 6091 9.73 348 13:18 20.11.2020
5273 Clouds 22 1020 88 7253 6.65 333 12:34 20.11.2020
5274 Clouds 22 1020 83 7431 7.32 339 11:45 20.11.2020
5275 Clouds 23 1020 79 10000 7.42 335 10:53 20.11.2020
5276 Clouds 24 1021 75 10000 7.32 337 08:53 20.11.2020
5277 Clouds 24 1022 73 10000 7.6 335 08:24 20.11.2020
5278 Clouds 24 1022 73 10000 7.6 335 07:32 20.11.2020
5279 Clouds 25 1021 73 10000 4.6 10 03:44 20.11.2020
5280 Clouds 26 1019 65 10000 8.2 360 22:35 19.11.2020
5281 Clouds 28 1019 58 10000 6.2 360 21:55 19.11.2020
5282 Clouds 28 1019 58 10000 6.2 360 21:34 19.11.2020
5283 Clouds 28 1021 51 10000 7.7 10 20:31 19.11.2020
5284 Clouds 28 1022 51 10000 7.7 10 19:49 19.11.2020
5285 Clouds 28 1022 51 10000 7.7 10 19:23 19.11.2020
5286 Clouds 27 1023 57 10000 5.1 20 17:39 19.11.2020
5287 Clouds 25 1023 65 10000 2.6 320 16:48 19.11.2020
5288 Clear 21 1022 77 9656 6.64 343 15:32 19.11.2020
5289 Clouds 19 1022 88 10000 5.79 339 14:39 19.11.2020
5290 Clear 20 1021 82 10000 1.5 330 13:45 19.11.2020
5291 Clouds 22 1023 81 10000 6.16 342 12:58 19.11.2020
5292 Clouds 22 1023 81 10000 6.16 342 12:34 19.11.2020
5293 Clouds 22 1023 81 10000 6.1 345 11:44 19.11.2020
5294 Clouds 22 1023 81 10000 6.46 346 11:23 19.11.2020
5295 Clouds 22 1023 81 10000 6.46 346 10:52 19.11.2020
5296 Clouds 22 1023 79 10000 6.85 346 09:55 19.11.2020
5297 Clouds 22 1023 79 10000 6.85 346 09:36 19.11.2020
5298 Rain 23 1023 79 10000 7.02 345 09:18 19.11.2020
5299 Clouds 23 1024 78 10000 7.19 346 07:59 19.11.2020
5300 Clouds 24 1021 73 10000 7.7 360 01:53 19.11.2020
5301 Clouds 26 1020 65 10000 6.2 360 00:56 19.11.2020
5302 Clouds 26 1020 65 10000 5.1 350 23:47 18.11.2020
5303 Clouds 26 1020 65 10000 5.1 350 23:24 18.11.2020
5304 Clouds 27 1020 61 10000 7.2 350 22:30 18.11.2020
5305 Clouds 27 1020 61 10000 7.7 350 21:45 18.11.2020
5306 Clouds 27 1020 61 10000 7.7 350 21:27 18.11.2020
5307 Clouds 27 1021 61 10000 10.3 360 20:40 18.11.2020
5308 Clouds 28 1022 58 10000 6.7 360 19:45 18.11.2020
5309 Clouds 28 1022 58 10000 6.7 360 19:24 18.11.2020
5310 Clouds 26 1022 69 10000 10.3 360 18:48 18.11.2020
5311 Clouds 25 1022 69 9656 5.7 360 17:55 18.11.2020
5312 Clouds 24 1022 78 9656 3.6 360 16:58 18.11.2020
5313 Clouds 24 1022 78 9656 3.6 360 16:21 18.11.2020
5314 Mist 23 1021 83 10000 8.7 10 14:43 18.11.2020
5315 Haze 23 1021 83 10000 8.7 10 14:25 18.11.2020
5316 Rain 23 1022 84 10000 9.04 346 13:29 18.11.2020
5317 Clouds 24 1022 85 6552 7.83 1 12:44 18.11.2020
5318 Clouds 24 1021 86 6760 6.95 2 11:57 18.11.2020
5319 Rain 23 1021 88 7181 4.92 360 11:22 18.11.2020
5320 Clouds 23 1021 88 7181 4.92 360 10:30 18.11.2020
5321 Clouds 23 1022 89 5731 7.51 341 08:43 18.11.2020
5322 Rain 24 1022 83 10000 9.85 346 07:29 18.11.2020
5323 Clouds 23 1022 88 10000 5.1 360 04:47 18.11.2020
5324 Drizzle 25 1019 69 9656 5.1 350 00:21 18.11.2020
5325 Clouds 27 1019 65 10000 5.1 350 23:25 17.11.2020
5326 Clouds 27 1019 65 10000 6.2 350 22:44 17.11.2020
5327 Clouds 27 1019 65 10000 6.2 350 22:26 17.11.2020
5328 Clouds 26 1019 69 10000 5.1 360 21:47 17.11.2020
5329 Clouds 26 1019 69 10000 5.1 360 21:23 17.11.2020
5330 Clouds 27 1020 61 10000 5.1 360 20:43 17.11.2020
5331 Clouds 27 1020 61 10000 5.1 360 20:23 17.11.2020
5332 Clouds 28 1021 58 10000 5.1 360 19:44 17.11.2020
5333 Clouds 27 1021 61 10000 5.1 360 18:23 17.11.2020
5334 Clouds 27 1023 63 10000 11.01 356 17:28 17.11.2020
5335 Clouds 26 1021 61 10000 6.2 350 16:35 17.11.2020
5336 Clouds 24 1021 69 10000 1.5 360 15:57 17.11.2020
5337 Clouds 24 1021 69 10000 1.5 360 15:35 17.11.2020
5338 Clouds 24 1020 69 9656 2.1 350 14:58 17.11.2020
5339 Clouds 24 1020 69 9656 2.1 350 14:29 17.11.2020
5340 Clouds 24 1020 69 9656 2.1 350 13:45 17.11.2020
5341 Clouds 24 1020 69 9656 2.1 350 13:21 17.11.2020
5342 Clouds 24 1021 73 10000 9.76 348 12:41 17.11.2020
5343 Clouds 24 1020 74 10000 9.53 345 11:44 17.11.2020
5344 Clouds 24 1020 77 10000 8.42 344 10:57 17.11.2020
5345 Clouds 24 1020 77 10000 8.42 344 10:37 17.11.2020
5346 Clouds 24 1021 79 10000 7.38 340 09:51 17.11.2020
5347 Clouds 24 1021 79 10000 7.38 340 09:30 17.11.2020
5348 Clouds 23 1022 79 10000 7.57 324 08:25 17.11.2020
5349 Clouds 23 1022 79 10000 7.57 324 07:50 17.11.2020
5350 Clouds 24 1021 73 10000 5.1 350 06:59 17.11.2020
5351 Clouds 22 1020 88 8047 7.7 360 04:28 17.11.2020
5352 Clouds 24 1018 73 10000 10.3 360 02:55 17.11.2020
5353 Clouds 25 1017 73 10000 10.3 360 01:31 17.11.2020
5354 Clouds 26 1017 74 10000 10.3 360 00:56 17.11.2020
5355 Clouds 27 1016 69 10000 12.9 360 23:51 16.11.2020
5356 Clouds 27 1016 69 10000 12.9 360 23:29 16.11.2020
5357 Clouds 29 1017 58 10000 6.2 360 22:48 16.11.2020
5358 Clouds 29 1017 58 10000 6.2 360 22:21 16.11.2020
5359 Clouds 30 1017 58 10000 5.1 360 21:48 16.11.2020
5360 Clouds 30 1017 58 10000 5.1 360 21:25 16.11.2020
5361 Clouds 30 1018 58 10000 5.1 360 20:54 16.11.2020
5362 Clouds 30 1018 58 10000 5.1 360 20:25 16.11.2020
5363 Clouds 28 1019 69 10000 10.3 360 19:39 16.11.2020
5364 Clouds 28 1019 69 10000 10.3 360 19:21 16.11.2020
5365 Clouds 28 1020 61 10000 7.7 340 18:41 16.11.2020
5366 Clouds 27 1021 65 10000 5.1 10 17:51 16.11.2020
5367 Clouds 27 1022 64 10000 8.63 341 17:22 16.11.2020
5368 Clouds 25 1020 78 10000 1.5 340 16:54 16.11.2020
5369 Clouds 25 1020 78 10000 1.5 340 16:29 16.11.2020
5370 Clouds 24 1019 83 10000 8.46 335 15:57 16.11.2020
5371 Clouds 24 1019 83 10000 8.46 335 15:37 16.11.2020
5372 Clear 21 1018 94 10000 8.1 332 15:19 16.11.2020
5373 Clear 21 1018 94 10000 7.84 331 14:28 16.11.2020
5374 Clouds 24 1017 73 10000 2.1 330 13:31 16.11.2020
5375 Clear 23 1020 81 10000 7.81 331 12:33 16.11.2020
5376 Clear 24 1019 81 10000 7.98 339 11:44 16.11.2020
5377 Clear 24 1019 81 10000 8.13 344 11:25 16.11.2020
5378 Clear 24 1019 81 10000 8.13 344 10:48 16.11.2020
5379 Clear 24 1019 81 10000 8.08 348 10:26 16.11.2020
5380 Clear 24 1019 81 10000 8.08 348 09:56 16.11.2020
5381 Clear 24 1019 81 10000 8.08 348 09:37 16.11.2020
5382 Clear 24 1019 83 10000 7.49 351 08:49 16.11.2020
5383 Clouds 24 1019 84 10000 6.62 353 08:26 16.11.2020
5384 Clouds 24 1019 84 10000 6.62 353 07:36 16.11.2020
5385 Clouds 26 1019 78 9656 4.1 10 06:47 16.11.2020
5386 Clouds 26 1019 78 9656 3.1 10 05:50 16.11.2020
5387 Clouds 26 1018 83 9656 3.6 360 04:33 16.11.2020
5388 Clouds 27 1015 78 9656 7.2 50 01:46 16.11.2020
5389 Clouds 27 1015 78 9656 7.2 50 01:46 16.11.2020
5390 Clouds 28 1014 78 9656 4.6 40 00:53 16.11.2020
5391 Clear 29 1014 70 9656 5.7 50 23:43 15.11.2020
5392 Clouds 30 1014 70 9656 7.2 30 23:21 15.11.2020
5393 Clouds 30 1014 70 9656 7.2 30 22:37 15.11.2020
5394 Clouds 31 1014 58 9656 2.1 340 22:18 15.11.2020
5395 Clouds 31 1014 58 9656 2.1 340 21:37 15.11.2020
5396 Clouds 30 1015 70 8047 3.1 90 21:19 15.11.2020
5397 Clouds 30 1015 70 8047 3.1 90 20:40 15.11.2020
5398 Clouds 30 1016 62 8047 4.46 39 19:59 15.11.2020
5399 Clouds 30 1016 62 8047 4.46 39 19:41 15.11.2020
5400 Clouds 30 1016 62 8047 3.45 16 19:21 15.11.2020
5401 Clouds 29 1016 70 6437 3.6 28 18:45 15.11.2020
5402 Clouds 29 1016 70 6437 2.82 20 18:25 15.11.2020
5403 Clouds 26 1017 78 6437 1 330 17:59 15.11.2020
5404 Clouds 26 1017 78 6437 1 330 17:40 15.11.2020
5405 Clouds 25 1016 94 8047 2.17 2 17:22 15.11.2020
5406 Clouds 25 1016 94 8047 2.17 2 16:44 15.11.2020
5407 Clouds 24 1015 94 8047 1.91 328 16:19 15.11.2020
5408 Clouds 24 1015 94 8047 1.91 328 15:44 15.11.2020
5409 Clouds 24 1015 94 8047 1.83 302 15:25 15.11.2020
5410 Clouds 23 1014 100 8047 1.83 302 14:54 15.11.2020
5411 Clouds 23 1014 100 8047 1.6 279 14:26 15.11.2020
5412 Clouds 23 1013 100 9656 1.6 279 13:43 15.11.2020
5413 Clouds 23 1013 100 9656 1.2 268 13:21 15.11.2020
5414 Clear 24 1014 91 10000 1.2 268 12:46 15.11.2020
5415 Clear 24 1014 91 10000 1.63 277 12:46 15.11.2020
5416 Clear 24 1013 91 10000 1.26 275 12:19 15.11.2020
5417 Clear 24 1013 91 10000 1.26 275 12:19 15.11.2020
5418 Clear 24 1013 91 10000 1.26 275 11:44 15.11.2020
5419 Clear 24 1013 90 10000 0.8 267 11:19 15.11.2020
5420 Clear 24 1013 90 10000 0.8 267 10:51 15.11.2020
5421 Clear 24 1013 90 10000 0.8 267 10:30 15.11.2020
5422 Clear 24 1013 90 10000 0.66 224 09:52 15.11.2020
5423 Clear 24 1013 90 10000 0.66 224 09:32 15.11.2020
5424 Clear 24 1013 90 10000 0.81 193 08:55 15.11.2020
5425 Clear 24 1013 90 10000 0.81 193 08:32 15.11.2020
5426 Clear 24 1014 89 10000 0.79 179 07:44 15.11.2020
5427 Clouds 24 1014 94 10000 0.7 147 06:25 15.11.2020
5428 Clear 24 1013 94 10000 1.16 121 04:53 15.11.2020
5429 Smoke 26 1012 83 10000 1 100 01:37 15.11.2020
5430 Clouds 28 1011 74 10000 4.1 90 00:30 15.11.2020
5431 Clouds 29 1011 70 10000 3.1 80 23:44 14.11.2020
5432 Clouds 30 1012 66 10000 4.6 100 22:54 14.11.2020
5433 Clouds 30 1012 66 10000 4.6 100 22:33 14.11.2020
5434 Clouds 31 1012 58 10000 1 120 21:56 14.11.2020
5435 Clouds 31 1012 58 10000 1 120 21:37 14.11.2020
5436 Clouds 31 1013 62 10000 1 110 21:19 14.11.2020
5437 Clouds 31 1013 62 10000 1 110 20:37 14.11.2020
5438 Clouds 29 1015 66 10000 1.5 100 20:19 14.11.2020
5439 Clouds 29 1015 66 10000 1.5 100 19:36 14.11.2020
5440 Clouds 30 1015 62 10000 1.93 52 18:57 14.11.2020
5441 Clouds 30 1015 62 10000 1.93 52 18:38 14.11.2020
5442 Clouds 27 1016 74 9656 1.5 10 18:20 14.11.2020
5443 Clouds 27 1016 74 9656 1.5 10 17:42 14.11.2020
5444 Clouds 27 1016 74 9656 1.5 10 17:23 14.11.2020
5445 Mist 25 1016 78 9656 1.43 305 16:51 14.11.2020
5446 Mist 25 1016 78 9656 2.3 291 16:26 14.11.2020
5447 Mist 22 1016 94 10000 2.3 291 15:53 14.11.2020
5448 Mist 22 1016 94 10000 2.3 291 15:30 14.11.2020
5449 Mist 21 1015 94 10000 2.43 288 14:50 14.11.2020
5450 Haze 21 1015 94 10000 2.64 289 14:28 14.11.2020
5451 Mist 21 1015 94 10000 2.64 289 13:50 14.11.2020
5452 Clear 23 1015 85 10000 2.7 290 13:27 14.11.2020
5453 Clear 23 1015 84 10000 2.71 286 12:49 14.11.2020
5454 Clear 23 1015 84 10000 2.71 286 12:49 14.11.2020
5455 Clear 23 1015 84 10000 2.71 286 12:30 14.11.2020
5456 Clear 24 1015 84 10000 2.45 286 11:48 14.11.2020
5457 Clear 24 1015 84 10000 2.45 286 11:30 14.11.2020
5458 Clear 24 1015 84 10000 1.78 287 10:51 14.11.2020
5459 Clear 24 1016 84 10000 1.62 288 10:27 14.11.2020
5460 Clear 24 1016 84 10000 1.62 288 09:58 14.11.2020
5461 Clear 24 1016 84 10000 1.62 288 09:39 14.11.2020
5462 Clear 24 1016 84 10000 1.85 289 09:21 14.11.2020
5463 Clear 24 1016 84 10000 1.85 289 08:40 14.11.2020
5464 Clear 24 1016 85 10000 2.07 289 07:55 14.11.2020
5465 Clear 24 1016 85 10000 2.07 289 07:36 14.11.2020
5466 Clouds 23 1017 94 9656 2.37 285 06:37 14.11.2020
5467 Clear 24 1017 88 10000 2.34 286 06:19 14.11.2020
5468 Clear 25 1017 88 10000 2.03 296 04:30 14.11.2020
5469 Clear 26 1015 78 10000 1.5 70 01:25 14.11.2020
5470 Clear 26 1014 73 10000 3.66 58 23:54 13.11.2020
5471 Clear 26 1014 73 10000 3.66 58 23:33 13.11.2020
5472 Clear 27 1014 70 10000 3.97 59 22:56 13.11.2020
5473 Clear 27 1014 70 10000 3.97 59 22:38 13.11.2020
5474 Clear 27 1014 70 10000 4.06 60 22:19 13.11.2020
5475 Clear 27 1014 70 10000 4.06 60 21:42 13.11.2020
5476 Clear 28 1015 70 10000 3.92 62 21:22 13.11.2020
5477 Clear 28 1015 70 10000 3.92 62 20:50 13.11.2020
5478 Clear 28 1016 69 10000 3.15 59 20:23 13.11.2020
5479 Clear 28 1016 69 10000 3.15 59 19:47 13.11.2020
5480 Clouds 28 1017 69 10000 2.27 51 19:24 13.11.2020
5481 Clouds 28 1017 69 10000 2.27 51 18:58 13.11.2020
5482 Clear 28 1017 68 10000 2.54 49 18:30 13.11.2020
5483 Clear 28 1018 70 10000 1.62 25 17:43 13.11.2020
5484 Clear 27 1019 71 10000 1.13 336 17:20 13.11.2020
5485 Clear 27 1019 71 10000 1.13 336 16:50 13.11.2020
5486 Clear 26 1019 77 10000 1.79 288 16:25 13.11.2020
5487 Clear 26 1019 77 10000 1.79 288 15:55 13.11.2020
5488 Clear 26 1019 77 10000 1.79 288 15:32 13.11.2020
5489 Clouds 22 1016 100 6437 1.9 283 14:52 13.11.2020
5490 Clouds 22 1016 100 6437 1.62 275 14:28 13.11.2020
5491 Clouds 22 1016 100 8047 1.62 275 13:54 13.11.2020
5492 Clouds 22 1016 100 8047 1.14 281 13:29 13.11.2020
5493 Clouds 23 1016 86 10000 1.02 269 12:52 13.11.2020
5494 Clouds 24 1016 85 10000 0.62 263 12:27 13.11.2020
5495 Clouds 24 1016 85 10000 0.62 263 11:56 13.11.2020
5496 Clouds 24 1016 85 10000 0.62 263 11:37 13.11.2020
5497 Clouds 24 1016 85 10000 0.42 218 10:59 13.11.2020
5498 Clouds 24 1016 85 10000 0.42 218 10:40 13.11.2020
5499 Clouds 24 1016 85 10000 0.46 217 10:22 13.11.2020
5500 Clouds 24 1016 85 10000 0.46 217 09:47 13.11.2020
5501 Clouds 24 1016 84 10000 0.39 165 09:25 13.11.2020
5502 Clouds 24 1016 84 10000 0.39 165 08:52 13.11.2020
5503 Clouds 24 1016 83 10000 0.84 116 08:22 13.11.2020
5504 Clouds 24 1016 83 10000 0.84 116 07:48 13.11.2020
5505 Clouds 25 1016 82 10000 1.41 107 07:27 13.11.2020
5506 Clouds 24 1017 94 10000 1.41 107 06:50 13.11.2020
5507 Clouds 24 1016 94 10000 1.38 85 06:20 13.11.2020
5508 Clouds 24 1016 94 10000 1.38 85 05:39 13.11.2020
5509 Clear 25 1014 88 10000 1.5 70 02:22 13.11.2020
5510 Clear 26 1014 83 9656 2.96 44 01:36 13.11.2020
5511 Clear 28 1013 74 10000 2.6 80 00:34 13.11.2020
5512 Clouds 28 1013 74 10000 3.1 70 23:43 12.11.2020
5513 Clouds 27 1013 75 10000 3.98 59 23:20 12.11.2020
5514 Clear 30 1013 66 10000 4.1 80 22:52 12.11.2020
5515 Clear 30 1013 66 10000 4.1 80 22:33 12.11.2020
5516 Clouds 30 1013 66 10000 5.1 90 21:57 12.11.2020
5517 Clouds 30 1013 66 10000 5.1 90 21:38 12.11.2020
5518 Clouds 30 1014 66 10000 4.1 100 21:18 12.11.2020
5519 Clouds 30 1014 66 10000 4.1 100 20:40 12.11.2020
5520 Clouds 30 1015 66 10000 2.6 100 20:21 12.11.2020
5521 Clouds 30 1015 66 10000 2.6 100 19:52 12.11.2020
5522 Clouds 30 1015 66 10000 2.6 100 19:33 12.11.2020
5523 Clouds 28 1013 74 10000 1.5 10 18:56 12.11.2020
5524 Clouds 28 1013 74 10000 1.5 10 18:37 12.11.2020
5525 Clouds 29 1016 74 10000 3.14 76 18:18 12.11.2020
5526 Clouds 29 1016 74 10000 3.14 76 17:39 12.11.2020
5527 Clouds 25 1015 94 10000 2.26 88 17:20 12.11.2020
5528 Clouds 25 1015 94 10000 2.26 88 16:44 12.11.2020
5529 Clouds 25 1015 94 10000 1.67 91 16:23 12.11.2020
5530 Clouds 24 1015 94 10000 1.67 91 15:46 12.11.2020
5531 Clouds 24 1015 94 10000 1.31 85 15:26 12.11.2020
5532 Clouds 24 1014 94 10000 1.31 85 14:47 12.11.2020
5533 Clouds 24 1014 94 10000 1.24 70 14:27 12.11.2020
5534 Clouds 23 1014 100 10000 1.24 70 13:57 12.11.2020
5535 Clouds 23 1014 100 10000 1.24 70 13:37 12.11.2020
5536 Clouds 25 1015 82 10000 1.04 49 13:18 12.11.2020
5537 Clouds 25 1015 82 10000 1.04 49 12:44 12.11.2020
5538 Clouds 24 1014 83 10000 0.89 46 12:23 12.11.2020
5539 Clouds 24 1014 83 10000 0.89 46 11:50 12.11.2020
5540 Clouds 24 1014 84 10000 1.04 62 11:29 12.11.2020
5541 Clouds 24 1014 84 10000 1.04 62 10:45 12.11.2020
5542 Clouds 24 1014 85 10000 1.68 72 10:27 12.11.2020
5543 Clouds 24 1014 85 10000 1.68 72 09:49 12.11.2020
5544 Clouds 25 1014 85 10000 2.25 68 09:23 12.11.2020
5545 Clouds 25 1014 85 10000 2.25 68 08:57 12.11.2020
5546 Clouds 25 1014 85 10000 2.25 68 08:39 12.11.2020
5547 Clouds 25 1014 83 10000 2.6 60 08:19 12.11.2020
5548 Clouds 25 1014 83 10000 2.6 60 07:50 12.11.2020
5549 Clouds 25 1014 88 9656 1 80 07:22 12.11.2020
5550 Clouds 25 1014 88 9656 1 80 06:50 12.11.2020
5551 Clouds 25 1014 88 9656 2.83 56 05:35 12.11.2020
5552 Clouds 26 1013 88 9656 1 80 03:23 12.11.2020
5553 Clouds 26 1012 88 9656 1 70 02:41 12.11.2020
5554 Clouds 29 1010 74 10000 3.1 60 23:59 11.11.2020
5555 Clouds 29 1010 74 10000 3.1 60 23:25 11.11.2020
5556 Clouds 30 1010 70 9656 2.6 100 22:59 11.11.2020
5557 Clouds 30 1010 70 9656 2.6 100 22:39 11.11.2020
5558 Clouds 30 1011 70 9656 2.6 100 22:21 11.11.2020
5559 Clouds 30 1011 70 9656 2.6 100 21:43 11.11.2020
5560 Clouds 30 1011 70 9656 2.6 100 21:25 11.11.2020
5561 Clouds 29 1012 70 9656 3.6 90 20:59 11.11.2020
5562 Clouds 29 1012 70 9656 3.6 90 20:40 11.11.2020
5563 Clouds 29 1012 70 9656 3.6 90 20:21 11.11.2020
5564 Clouds 31 1012 62 8047 3.87 60 19:49 11.11.2020
5565 Clouds 31 1012 62 8047 3.87 60 19:49 11.11.2020
5566 Clouds 31 1012 62 8047 3.87 60 19:31 11.11.2020
5567 Clouds 29 1013 70 9656 2.1 70 18:54 11.11.2020
5568 Clouds 29 1013 70 9656 2.1 70 18:33 11.11.2020
5569 Clouds 29 1014 70 8047 2.38 62 17:43 11.11.2020
5570 Clear 27 1013 78 6437 1.45 55 17:23 11.11.2020
5571 Clear 27 1013 78 6437 1.45 55 16:55 11.11.2020
5572 Clear 27 1013 78 6437 1.45 55 16:34 11.11.2020
5573 Mist 25 1013 88 6437 0.69 26 15:53 11.11.2020
5574 Mist 25 1013 88 6437 0.37 50 15:27 11.11.2020
5575 Mist 23 1012 94 8047 1 320 14:59 11.11.2020
5576 Mist 23 1012 94 8047 1 320 14:38 11.11.2020
5577 Clouds 23 1011 94 9656 0.57 107 13:57 11.11.2020
5578 Clouds 23 1011 94 9656 0.57 107 13:57 11.11.2020
5579 Clouds 23 1011 94 9656 0.57 107 13:38 11.11.2020
5580 Clouds 25 1012 88 10000 0.77 101 12:52 11.11.2020
5581 Rain 25 1012 89 10000 1.39 105 12:21 11.11.2020
5582 Clouds 25 1012 89 10000 1.39 105 11:50 11.11.2020
5583 Clouds 25 1012 89 10000 1.39 105 11:30 11.11.2020
5584 Clouds 25 1012 89 10000 1.51 100 10:43 11.11.2020
5585 Rain 25 1012 89 10000 1.65 88 10:24 11.11.2020
5586 Clouds 25 1012 89 10000 1.65 88 09:49 11.11.2020
5587 Clouds 25 1012 89 10000 1.87 78 09:28 11.11.2020
5588 Clouds 25 1012 89 10000 1.87 78 08:51 11.11.2020
5589 Clouds 25 1012 89 10000 1.87 78 08:30 11.11.2020
5590 Clouds 25 1012 88 10000 2.08 81 07:58 11.11.2020
5591 Clouds 25 1012 88 10000 2.08 81 07:39 11.11.2020
5592 Mist 23 1011 94 9656 1.56 83 06:30 11.11.2020
5593 Mist 23 1011 94 9656 1.56 83 06:30 11.11.2020
5594 Clear 24 1010 88 10000 1.61 79 04:48 11.11.2020
5595 Clear 26 1007 83 10000 1 100 01:35 11.11.2020
5596 Clear 28 1006 74 10000 2.6 80 00:55 11.11.2020
5597 Clear 28 1006 74 10000 2.6 80 00:22 11.11.2020
5598 Clear 29 1006 70 10000 2.1 100 23:25 10.11.2020
5599 Clear 30 1006 62 10000 3.6 80 22:59 10.11.2020
5600 Clear 30 1006 62 10000 3.6 80 22:37 10.11.2020
5601 Clear 32 1006 52 10000 1 180 22:19 10.11.2020
5602 Clear 32 1006 52 10000 1 180 22:19 10.11.2020
5603 Clear 32 1006 52 10000 1 180 21:40 10.11.2020
5604 Smoke 32 1008 55 10000 2.1 170 21:22 10.11.2020
5605 Smoke 32 1008 55 10000 2.1 170 20:43 10.11.2020
5606 Smoke 32 1008 55 10000 2.1 170 20:23 10.11.2020
5607 Clouds 30 1009 58 10000 4.1 180 19:57 10.11.2020
5608 Clouds 30 1009 58 10000 4.1 180 19:39 10.11.2020
5609 Clouds 30 1009 58 10000 4.1 180 19:20 10.11.2020
5610 Clouds 29 1011 66 10000 1 190 18:41 10.11.2020
5611 Clear 28 1012 69 10000 3.6 180 18:21 10.11.2020
5612 Clear 28 1012 69 10000 3.6 180 17:47 10.11.2020
5613 Clear 28 1012 69 10000 3.6 180 17:28 10.11.2020
5614 Mist 26 1012 78 9656 2.1 200 16:58 10.11.2020
5615 Mist 26 1012 78 9656 2.1 200 16:39 10.11.2020
5616 Mist 22 1011 94 6437 3.3 192 16:21 10.11.2020
5617 Mist 22 1011 94 6437 3.3 192 15:47 10.11.2020
5618 Mist 22 1011 94 6437 3.08 197 15:27 10.11.2020
5619 Mist 21 1011 100 6437 3.08 197 14:43 10.11.2020
5620 Mist 21 1011 100 6437 2.79 202 14:23 10.11.2020
5621 Mist 21 1010 100 8047 2.79 202 13:58 10.11.2020
5622 Mist 21 1010 100 8047 2.79 202 13:37 10.11.2020
5623 Clouds 22 1011 88 10000 2.53 207 13:19 10.11.2020
5624 Clouds 22 1011 88 10000 2.54 205 12:45 10.11.2020
5625 Clouds 22 1011 87 10000 2.38 207 12:24 10.11.2020
5626 Clouds 22 1011 87 10000 2.38 207 11:41 10.11.2020
5627 Clouds 23 1012 84 10000 2.15 202 11:21 10.11.2020
5628 Clouds 23 1012 84 10000 2.15 202 10:56 10.11.2020
5629 Clouds 23 1012 84 10000 2.15 202 10:36 10.11.2020
5630 Clouds 23 1012 82 10000 1.91 189 10:18 10.11.2020
5631 Clouds 23 1010 76 10000 1.91 189 09:41 10.11.2020
5632 Clouds 23 1010 76 10000 1.42 182 09:23 10.11.2020
5633 Clouds 23 1010 76 10000 1.42 182 08:52 10.11.2020
5634 Clouds 23 1010 76 10000 1.03 175 08:26 10.11.2020
5635 Clouds 23 1010 76 10000 0.45 267 07:44 10.11.2020
5636 Clouds 23 1013 94 10000 1.04 152 07:21 10.11.2020
5637 Clouds 23 1013 94 10000 1.18 140 06:40 10.11.2020
5638 Clear 24 1013 88 10000 1.12 122 05:41 10.11.2020
5639 Clear 24 1013 88 10000 1.23 112 04:49 10.11.2020
5640 Clouds 26 1011 78 10000 1 70 02:18 10.11.2020
5641 Clouds 26 1011 78 10000 1 70 01:25 10.11.2020
5642 Smoke 29 1010 66 10000 1.5 100 23:54 09.11.2020
5643 Smoke 29 1010 66 10000 1.5 100 23:24 09.11.2020
5644 Clouds 29 1011 66 10000 2.6 60 22:44 09.11.2020
5645 Clouds 29 1011 66 10000 2.6 60 22:24 09.11.2020
5646 Smoke 29 1011 70 10000 4.1 60 21:46 09.11.2020
5647 Smoke 29 1011 70 10000 4.1 60 21:27 09.11.2020
5648 Clouds 30 1012 66 10000 3.6 70 20:46 09.11.2020
5649 Clouds 30 1012 66 10000 3.6 70 20:24 09.11.2020
5650 Clouds 30 1013 62 10000 3.1 60 19:59 09.11.2020
5651 Clouds 30 1013 62 10000 3.1 60 19:40 09.11.2020
5652 Clouds 30 1013 62 10000 3.1 60 19:21 09.11.2020
5653 Clouds 29 1014 74 10000 2.26 87 18:41 09.11.2020
5654 Clouds 29 1014 74 10000 2.3 80 18:41 09.11.2020
5655 Clouds 28 1014 78 10000 1.46 85 18:20 09.11.2020
5656 Clouds 28 1014 78 10000 1.46 85 17:48 09.11.2020
5657 Clouds 27 1014 78 10000 0.35 148 17:29 09.11.2020
5658 Clouds 27 1014 74 10000 0.35 148 16:46 09.11.2020
5659 Clouds 27 1014 74 10000 1.22 271 16:27 09.11.2020
5660 Clouds 25 1014 88 10000 1.22 271 15:50 09.11.2020
5661 Clouds 25 1014 88 10000 1.22 271 15:30 09.11.2020
5662 Clouds 25 1014 88 10000 1.22 271 15:30 09.11.2020
5663 Clouds 24 1013 100 10000 1 320 14:56 09.11.2020
5664 Clouds 23 1013 100 10000 1 320 14:37 09.11.2020
5665 Clouds 23 1013 94 9656 1.94 273 14:19 09.11.2020
5666 Clouds 23 1013 94 9656 1.94 273 14:19 09.11.2020
5667 Clouds 22 1013 94 9656 1.94 273 13:42 09.11.2020
5668 Clouds 22 1011 77 10000 1.49 269 13:19 09.11.2020
5669 Clouds 23 1011 76 10000 1.49 269 12:45 09.11.2020
5670 Clouds 23 1011 76 10000 0.76 264 12:21 09.11.2020
5671 Clouds 23 1011 76 10000 0.45 240 11:43 09.11.2020
5672 Clouds 23 1011 75 10000 0.58 258 11:24 09.11.2020
5673 Clouds 24 1011 74 10000 0.45 240 10:58 09.11.2020
5674 Clouds 24 1011 74 10000 0.58 258 10:40 09.11.2020
5675 Clouds 24 1011 74 10000 0.29 280 10:21 09.11.2020
5676 Clouds 23 1011 75 10000 0.29 280 09:30 09.11.2020
5677 Clouds 23 1011 75 10000 0.23 310 08:55 09.11.2020
5678 Clouds 23 1011 75 10000 0.5 296 08:28 09.11.2020
5679 Clouds 24 1012 75 10000 0.5 296 07:57 09.11.2020
5680 Clouds 23 1014 94 10000 0.54 303 07:23 09.11.2020
5681 Clouds 23 1014 94 10000 0.6 317 06:55 09.11.2020
5682 Clouds 24 1015 94 10000 0.3 333 05:38 09.11.2020
5683 Clear 25 1012 83 10000 2.21 70 01:59 09.11.2020
5684 Clear 25 1012 83 10000 2.21 70 01:41 09.11.2020
5685 Clouds 27 1012 74 10000 2.6 90 00:55 09.11.2020
5686 Clouds 28 1012 69 10000 2.6 60 23:47 08.11.2020
5687 Clouds 28 1012 69 10000 2.6 60 23:28 08.11.2020
5688 Clouds 28 1012 69 10000 3.6 70 22:43 08.11.2020
5689 Clouds 28 1012 69 10000 3.6 70 22:22 08.11.2020
5690 Clouds 28 1012 69 10000 3.6 70 21:47 08.11.2020
5691 Clouds 28 1012 69 10000 3.6 70 21:23 08.11.2020
5692 Clouds 29 1013 66 10000 2.1 40 20:57 08.11.2020
5693 Clouds 29 1013 66 10000 2.1 40 20:38 08.11.2020
5694 Clouds 29 1014 58 10000 1.5 20 20:20 08.11.2020
5695 Clouds 29 1014 58 10000 1.5 20 19:45 08.11.2020
5696 Clouds 29 1014 58 10000 1.5 20 19:22 08.11.2020
5697 Clouds 28 1014 69 10000 1.97 52 18:57 08.11.2020
5698 Clouds 28 1014 69 10000 1.97 52 18:39 08.11.2020
5699 Clouds 27 1015 74 10000 1.14 19 18:20 08.11.2020
5700 Clouds 27 1015 74 10000 1.14 19 17:42 08.11.2020
5701 Clouds 27 1014 78 10000 1.3 317 17:21 08.11.2020
5702 Clouds 27 1014 78 10000 1.3 317 16:59 08.11.2020
5703 Clouds 26 1014 78 10000 1.3 317 16:38 08.11.2020
5704 Clouds 24 1014 94 10000 2.18 285 16:20 08.11.2020
5705 Clouds 24 1014 94 10000 2.18 285 15:46 08.11.2020
5706 Clouds 23 1014 94 10000 2.47 278 15:27 08.11.2020
5707 Clouds 21 1013 100 10000 2.47 278 14:43 08.11.2020
5708 Clouds 21 1013 100 10000 2.54 279 14:24 08.11.2020
5709 Clouds 20 1013 100 10000 2.54 279 13:56 08.11.2020
5710 Clouds 20 1013 100 10000 2.31 290 13:26 08.11.2020
5711 Clouds 20 1013 100 10000 2.31 290 13:26 08.11.2020
5712 Clouds 21 1011 78 10000 0.45 267 12:57 08.11.2020
5713 Clouds 21 1010 78 10000 2.3 298 12:39 08.11.2020
5714 Clouds 21 1010 77 10000 0.45 267 12:19 08.11.2020
5715 Clouds 21 1010 77 10000 2.26 299 11:55 08.11.2020
5716 Clouds 21 1010 76 10000 0.45 267 11:36 08.11.2020
5717 Clouds 21 1010 76 10000 2.34 294 11:18 08.11.2020
5718 Clouds 21 1010 77 10000 0.45 267 10:41 08.11.2020
5719 Clouds 21 1010 75 10000 0.45 267 10:18 08.11.2020
5720 Clouds 22 1011 75 10000 0.45 267 09:41 08.11.2020
5721 Clouds 22 1011 74 10000 0.89 267 09:19 08.11.2020
5722 Clouds 22 1011 72 10000 0.89 268 08:45 08.11.2020
5723 Clouds 22 1011 71 10000 0.45 268 08:22 08.11.2020
5724 Clouds 22 1011 71 10000 0.89 268 07:53 08.11.2020
5725 Clouds 22 1012 71 10000 0.89 263 07:31 08.11.2020
5726 Clouds 23 1014 88 10000 2.23 336 06:27 08.11.2020
5727 Clouds 23 1014 88 10000 2.23 336 05:54 08.11.2020
5728 Clear 23 1014 83 10000 2.76 351 04:51 08.11.2020
5729 Clouds 26 1013 74 10000 3.6 30 02:20 08.11.2020
5730 Clear 27 1012 69 10000 5.7 20 01:19 08.11.2020
5731 Clear 27 1012 69 10000 5.7 20 01:19 08.11.2020
5732 Clear 27 1012 69 10000 5.7 20 01:19 08.11.2020
5733 Clear 27 1012 69 10000 5.7 20 00:31 08.11.2020
5734 Clear 27 1012 69 10000 5.7 20 00:31 08.11.2020
5735 Clear 28 1012 61 10000 4.6 30 23:51 07.11.2020
5736 Clear 28 1012 61 10000 4.6 30 23:31 07.11.2020
5737 Clear 28 1012 61 10000 4.6 30 23:31 07.11.2020
5738 Clear 29 1012 58 10000 5.1 40 22:48 07.11.2020
5739 Clear 29 1012 58 10000 5.1 40 22:28 07.11.2020
5740 Clouds 30 1013 51 10000 4.6 30 21:58 07.11.2020
5741 Clouds 30 1013 51 10000 4.6 30 21:40 07.11.2020
5742 Clouds 30 1014 45 10000 3.6 50 21:19 07.11.2020
5743 Clouds 30 1014 45 10000 3.6 50 20:45 07.11.2020
5744 Clouds 30 1014 45 10000 3.6 50 20:27 07.11.2020
5745 Clouds 30 1015 45 10000 4.1 40 19:46 07.11.2020
5746 Clouds 30 1015 45 10000 4.1 40 19:27 07.11.2020
5747 Clouds 30 1015 45 10000 4.1 360 18:43 07.11.2020
5748 Clouds 30 1015 45 10000 4.1 360 18:25 07.11.2020
5749 Clouds 29 1016 54 10000 5.1 350 17:48 07.11.2020
5750 Clouds 28 1016 54 10000 5.1 350 17:29 07.11.2020
5751 Clouds 26 1016 73 10000 2.43 327 16:46 07.11.2020
5752 Clouds 26 1016 73 10000 2.41 302 16:26 07.11.2020
5753 Clouds 24 1016 88 10000 2.41 302 15:58 07.11.2020
5754 Clouds 24 1016 88 10000 2.41 302 15:39 07.11.2020
5755 Clouds 23 1015 88 10000 2.63 298 15:20 07.11.2020
5756 Clouds 22 1015 88 10000 2.63 298 14:42 07.11.2020
5757 Clouds 22 1015 88 10000 2.93 302 14:24 07.11.2020
5758 Clouds 23 1015 83 10000 2.93 302 13:50 07.11.2020
5759 Clouds 23 1015 83 10000 3.11 307 13:29 07.11.2020
5760 Clouds 23 1012 61 10000 0.89 309 12:42 07.11.2020
5761 Clouds 23 1012 62 10000 0.45 314 12:19 07.11.2020
5762 Clouds 23 1012 61 10000 3.56 320 11:41 07.11.2020
5763 Clouds 23 1012 61 10000 3.5 328 11:22 07.11.2020
5764 Clouds 23 1012 57 10000 1.34 300 10:45 07.11.2020
5765 Clouds 23 1012 57 10000 1.34 300 10:25 07.11.2020
5766 Clouds 24 1012 57 10000 0.89 310 09:49 07.11.2020
5767 Clouds 24 1012 56 10000 1.34 329 09:26 07.11.2020
5768 Clouds 24 1013 53 10000 1.34 50 08:51 07.11.2020
5769 Clouds 24 1013 53 10000 1.34 50 08:33 07.11.2020
5770 Clouds 24 1013 54 10000 0.45 320 07:49 07.11.2020
5771 Clouds 25 1015 69 10000 4.1 360 07:18 07.11.2020
5772 Clouds 25 1015 69 10000 4.1 360 06:43 07.11.2020
5773 Clouds 26 1015 65 10000 6.2 10 04:32 07.11.2020
5774 Clouds 26 1014 73 10000 8.2 360 03:23 07.11.2020
5775 Clouds 26 1013 69 10000 9.8 360 01:28 07.11.2020
5776 Clouds 26 1013 69 10000 9.8 360 01:28 07.11.2020
5777 Clouds 26 1013 69 10000 6.2 360 00:41 07.11.2020
5778 Clouds 26 1013 69 10000 6.7 360 23:49 06.11.2020
5779 Clouds 27 1013 61 10000 6.2 360 23:19 06.11.2020
5780 Clouds 27 1013 61 10000 6.2 360 22:41 06.11.2020
5781 Clouds 27 1014 69 10000 7.7 10 22:19 06.11.2020
5782 Clouds 27 1014 69 10000 7.7 10 22:19 06.11.2020
5783 Clouds 27 1014 69 10000 7.7 10 21:44 06.11.2020
5784 Clouds 26 1014 69 10000 7.7 10 21:21 06.11.2020
5785 Clouds 26 1015 65 10000 6.2 350 20:51 06.11.2020
5786 Clouds 27 1015 69 10000 6.2 360 20:22 06.11.2020
5787 Clouds 26 1015 69 10000 6.2 360 19:55 06.11.2020
5788 Clouds 26 1015 69 10000 6.2 360 19:37 06.11.2020
5789 Clouds 26 1015 69 10000 6.2 360 19:19 06.11.2020
5790 Clouds 26 1016 61 10000 6.2 10 18:44 06.11.2020
5791 Clouds 26 1016 61 10000 6.2 10 18:22 06.11.2020
5792 Clouds 26 1017 65 10000 4.6 350 17:51 06.11.2020
5793 Clouds 26 1017 65 10000 4.6 350 17:25 06.11.2020
5794 Clouds 26 1016 69 10000 3.1 360 16:49 06.11.2020
5795 Clouds 25 1016 69 10000 3.1 360 16:27 06.11.2020
5796 Mist 24 1016 83 10000 7.53 335 15:49 06.11.2020
5797 Mist 24 1016 83 10000 8.11 332 15:28 06.11.2020
5798 Mist 22 1015 83 10000 8.11 332 14:53 06.11.2020
5799 Mist 21 1015 83 10000 7.96 336 14:26 06.11.2020
5800 Clouds 22 1013 61 10000 7.96 336 13:45 06.11.2020
5801 Clouds 22 1013 61 10000 7.59 338 13:24 06.11.2020
5802 Clouds 22 1013 59 10000 0.45 290 12:45 06.11.2020
5803 Clouds 22 1013 59 10000 0.45 290 12:23 06.11.2020
5804 Clouds 22 1013 59 10000 0.45 320 11:49 06.11.2020
5805 Clouds 22 1013 57 10000 0.89 297 11:28 06.11.2020
5806 Clouds 23 1013 50 10000 0.89 290 10:44 06.11.2020
5807 Clouds 24 1013 49 10000 1.79 300 10:25 06.11.2020
5808 Clouds 23 1016 77 10000 6.88 327 09:49 06.11.2020
5809 Clouds 23 1017 77 10000 7.05 331 09:22 06.11.2020
5810 Clouds 23 1017 77 10000 7.05 331 08:51 06.11.2020
5811 Clouds 23 1017 76 10000 7.45 335 08:29 06.11.2020
5812 Clouds 23 1017 76 10000 7.45 335 07:50 06.11.2020
5813 Clouds 23 1017 76 10000 7.45 335 07:31 06.11.2020
5814 Clouds 25 1017 69 10000 7.7 10 06:57 06.11.2020
5815 Clouds 25 1017 69 10000 7.7 10 06:22 06.11.2020
5816 Clouds 26 1017 65 10000 5.1 360 03:48 06.11.2020
5817 Clouds 26 1016 69 10000 5.1 360 00:51 06.11.2020
5818 Clouds 26 1016 69 10000 5.1 360 00:21 06.11.2020
5819 Clouds 26 1016 69 10000 5.1 360 00:21 06.11.2020
5820 Clouds 28 1015 58 10000 5.1 360 23:31 05.11.2020
5821 Clouds 28 1016 58 10000 10.3 360 22:58 05.11.2020
5822 Clouds 28 1016 58 10000 10.3 360 22:37 05.11.2020
5823 Clouds 28 1016 54 10000 10.3 360 22:19 05.11.2020
5824 Clouds 29 1016 54 10000 10.3 360 21:43 05.11.2020
5825 Clouds 29 1016 54 10000 10.3 360 21:43 05.11.2020
5826 Clouds 29 1016 54 10000 10.3 360 21:21 05.11.2020
5827 Clouds 29 1017 51 10000 8.2 360 20:48 05.11.2020
5828 Clouds 29 1017 51 10000 8.2 360 20:28 05.11.2020
5829 Clouds 29 1018 54 10000 6.7 350 19:59 05.11.2020
5830 Clouds 29 1018 54 10000 6.7 350 19:40 05.11.2020
5831 Clouds 29 1018 54 10000 6.7 350 19:22 05.11.2020
5832 Clouds 28 1019 61 10000 7.2 30 18:45 05.11.2020
5833 Clouds 28 1019 61 10000 7.2 30 18:26 05.11.2020
5834 Clouds 28 1020 58 10000 4.6 10 17:52 05.11.2020
5835 Clouds 28 1020 58 10000 4.6 10 17:29 05.11.2020
5836 Clouds 26 1020 69 10000 7.6 347 16:58 05.11.2020
5837 Clouds 26 1020 69 10000 7.6 347 16:40 05.11.2020
5838 Clouds 24 1019 78 10000 2.1 320 16:19 05.11.2020
5839 Clouds 23 1019 78 10000 2.1 320 15:43 05.11.2020
5840 Clouds 23 1019 78 10000 2.1 320 15:21 05.11.2020
5841 Clouds 21 1019 83 10000 6.86 338 14:45 05.11.2020
5842 Clouds 21 1019 83 10000 6.32 335 14:25 05.11.2020
5843 Clouds 21 1019 88 10000 6.32 335 13:42 05.11.2020
5844 Clouds 21 1019 88 10000 5.73 329 13:23 05.11.2020
5845 Clouds 23 1017 62 10000 1.79 297 12:50 05.11.2020
5846 Rain 23 1017 62 10000 1.34 355 12:25 05.11.2020
5847 Clouds 23 1017 61 10000 3.13 316 11:54 05.11.2020
5848 Rain 23 1017 61 10000 3.13 316 11:28 05.11.2020
5849 Clouds 23 1017 60 10000 4.47 350 10:53 05.11.2020
5850 Clouds 23 1017 61 10000 5.81 342 10:33 05.11.2020
5851 Clouds 22 1017 67 10000 2.68 318 09:59 05.11.2020
5852 Clouds 22 1017 67 10000 2.68 318 09:41 05.11.2020
5853 Rain 22 1017 67 10000 2.68 318 09:21 05.11.2020
5854 Clouds 22 1020 79 10000 6.15 328 08:43 05.11.2020
5855 Rain 24 1017 56 10000 2.68 335 08:25 05.11.2020
5856 Rain 24 1018 56 10000 3.13 348 07:29 05.11.2020
5857 Clouds 24 1021 83 10000 6.29 338 06:52 05.11.2020
5858 Clouds 24 1021 83 10000 6.04 332 06:34 05.11.2020
5859 Clouds 25 1020 69 10000 5.1 20 04:19 05.11.2020
5860 Clouds 26 1019 65 10000 5.1 350 01:22 05.11.2020
5861 Clouds 26 1019 65 10000 6.2 10 00:29 05.11.2020
5862 Clouds 27 1019 57 10000 7.7 20 23:44 04.11.2020
5863 Clouds 27 1019 57 10000 7.7 20 23:44 04.11.2020
5864 Clouds 27 1019 57 10000 7.7 20 23:25 04.11.2020
5865 Clouds 28 1019 48 10000 7.2 10 22:45 04.11.2020
5866 Clouds 28 1019 48 10000 7.2 10 22:24 04.11.2020
5867 Clouds 28 1019 54 10000 6.7 20 21:51 04.11.2020
5868 Clouds 29 1019 54 10000 6.7 20 21:29 04.11.2020
5869 Clear 29 1020 42 10000 6.7 360 20:56 04.11.2020
5870 Clear 29 1020 42 10000 6.7 360 20:38 04.11.2020
5871 Clouds 29 1021 42 10000 7.7 10 20:19 04.11.2020
5872 Clouds 29 1021 42 10000 7.7 10 19:44 04.11.2020
5873 Clouds 29 1021 42 10000 7.7 10 19:44 04.11.2020
5874 Clouds 29 1021 42 10000 7.7 10 19:44 04.11.2020
5875 Clouds 29 1021 42 10000 7.7 10 19:44 04.11.2020
5876 Clouds 29 1021 42 10000 7.7 10 19:26 04.11.2020
5877 Clear 29 1022 54 10000 6.7 360 18:44 04.11.2020
5878 Clear 28 1022 54 10000 6.7 360 18:25 04.11.2020
5879 Clouds 27 1023 57 10000 4.1 350 17:56 04.11.2020
5880 Clouds 27 1023 57 10000 4.1 350 17:38 04.11.2020
5881 Clouds 26 1022 69 10000 4.16 337 17:19 04.11.2020
5882 Clouds 24 1022 69 10000 4.16 337 16:38 04.11.2020
5883 Clouds 23 1022 77 10000 3.71 313 16:19 04.11.2020
5884 Clouds 21 1022 77 10000 3.71 313 15:44 04.11.2020
5885 Clouds 21 1022 77 10000 4.07 303 15:24 04.11.2020
5886 Clouds 20 1022 82 10000 4.07 303 14:47 04.11.2020
5887 Clouds 20 1022 82 10000 4.9 311 14:26 04.11.2020
5888 Clouds 19 1021 88 10000 4.9 311 13:56 04.11.2020
5889 Clouds 19 1021 88 10000 4.9 311 13:37 04.11.2020
5890 Clouds 19 1019 63 10000 0.45 298 13:19 04.11.2020
5891 Clouds 19 1019 63 10000 5.04 317 12:47 04.11.2020
5892 Clouds 19 1019 65 10000 1.34 304 12:24 04.11.2020
5893 Clouds 18 1019 67 10000 0.45 294 11:48 04.11.2020
5894 Clouds 18 1019 67 10000 0.45 291 11:30 04.11.2020
5895 Clouds 18 1019 66 10000 0.45 291 10:58 04.11.2020
5896 Clouds 18 1019 66 10000 0.45 279 10:39 04.11.2020
5897 Clouds 18 1019 66 10000 0.45 279 10:21 04.11.2020
5898 Clouds 20 1019 61 10000 1.79 303 09:44 04.11.2020
5899 Clouds 20 1019 61 10000 1.79 303 09:20 04.11.2020
5900 Clouds 21 1020 58 10000 1.79 310 08:42 04.11.2020
5901 Clouds 21 1020 58 10000 1.79 310 08:18 04.11.2020
5902 Clouds 21 1020 58 10000 1.79 310 08:18 04.11.2020
5903 Clouds 22 1020 56 10000 1.34 322 07:42 04.11.2020
5904 Clear 22 1023 78 10000 1 350 07:23 04.11.2020
5905 Clear 22 1023 78 10000 1 350 06:41 04.11.2020
5906 Clear 23 1023 69 10000 2.1 340 05:54 04.11.2020
5907 Clouds 25 1021 69 10000 5.7 10 02:31 04.11.2020
5908 Clouds 25 1021 65 10000 5.7 20 01:40 04.11.2020
5909 Clouds 26 1021 65 10000 6.7 360 00:27 04.11.2020
5910 Clouds 26 1020 61 10000 8.7 360 23:33 03.11.2020
5911 Clouds 27 1021 61 10000 7.7 10 22:59 03.11.2020
5912 Clouds 27 1021 61 10000 7.7 10 22:40 03.11.2020
5913 Clouds 27 1021 57 10000 6.7 30 22:20 03.11.2020
5914 Clouds 27 1021 57 10000 6.7 30 21:43 03.11.2020
5915 Clouds 27 1021 57 10000 6.7 30 21:25 03.11.2020
5916 Clouds 28 1022 58 10000 6.2 10 20:49 03.11.2020
5917 Clouds 28 1022 58 10000 6.2 10 20:27 03.11.2020
5918 Clouds 28 1022 58 10000 6.2 10 20:27 03.11.2020
5919 Clouds 28 1023 54 10000 4.6 350 19:57 03.11.2020
5920 Clouds 28 1023 54 10000 4.6 350 19:38 03.11.2020
5921 Clouds 27 1023 57 10000 5.7 360 19:19 03.11.2020
5922 Clouds 27 1023 57 10000 5.7 360 18:41 03.11.2020
5923 Clouds 27 1024 57 10000 6.7 30 18:19 03.11.2020
5924 Clouds 27 1024 57 10000 6.7 30 17:47 03.11.2020
5925 Clouds 27 1024 57 10000 6.7 30 17:29 03.11.2020
5926 Clouds 26 1023 61 10000 7.7 20 16:52 03.11.2020
5927 Clouds 26 1023 61 10000 7.7 20 16:31 03.11.2020
5928 Clouds 25 1023 69 10000 4.1 360 15:58 03.11.2020
5929 Clouds 25 1023 69 10000 4.1 360 15:40 03.11.2020
5930 Clouds 24 1022 64 10000 4.6 360 15:19 03.11.2020
5931 Clouds 24 1022 64 10000 4.6 360 14:43 03.11.2020
5932 Clouds 24 1022 64 10000 4.6 360 14:25 03.11.2020
5933 Clouds 23 1022 69 9656 1.5 340 13:42 03.11.2020
5934 Clouds 23 1022 69 9656 1.5 340 13:21 03.11.2020
5935 Clouds 24 1020 50 10000 2.24 360 12:47 03.11.2020
5936 Rain 24 1020 48 10000 2.68 355 12:26 03.11.2020
5937 Clouds 24 1020 48 10000 2.24 333 11:47 03.11.2020
5938 Rain 24 1020 48 10000 2.68 313 11:26 03.11.2020
5939 Clouds 24 1020 46 10000 4.47 355 10:59 03.11.2020
5940 Clouds 24 1020 46 10000 3.13 350 10:38 03.11.2020
5941 Clouds 24 1020 47 10000 4.02 355 10:18 03.11.2020
5942 Clouds 24 1020 51 10000 5.81 355 09:45 03.11.2020
5943 Clouds 24 1020 52 10000 6.26 13 09:24 03.11.2020
5944 Clouds 24 1020 52 10000 5.81 340 08:49 03.11.2020
5945 Clouds 24 1020 53 10000 5.81 19 08:30 03.11.2020
5946 Clouds 24 1021 47 10000 7.15 9 07:41 03.11.2020
5947 Clouds 25 1023 61 10000 8.7 20 07:20 03.11.2020
5948 Clouds 25 1023 61 10000 8.7 20 06:34 03.11.2020
5949 Clouds 25 1023 53 10000 6.2 10 04:37 03.11.2020
5950 Clouds 26 1021 41 10000 5.7 360 00:46 03.11.2020
5951 Clouds 26 1021 41 10000 5.7 360 00:24 03.11.2020
5952 Clouds 27 1021 47 10000 8.7 350 23:46 02.11.2020
5953 Clouds 27 1021 47 10000 8.7 350 23:28 02.11.2020
5954 Sand 28 1021 39 10000 10.8 340 22:44 02.11.2020
5955 Sand 28 1021 39 10000 10.8 340 22:25 02.11.2020
5956 Sand 28 1021 42 10000 14.9 350 21:56 02.11.2020
5957 Sand 28 1021 42 10000 14.9 350 21:36 02.11.2020
5958 Clouds 28 1021 51 10000 12.3 10 21:18 02.11.2020
5959 Clouds 27 1021 51 10000 12.3 10 20:38 02.11.2020
5960 Clouds 29 1022 42 10000 6.2 30 20:18 02.11.2020
5961 Clouds 29 1022 42 10000 6.2 30 20:18 02.11.2020
5962 Clouds 29 1022 42 10000 6.2 30 19:43 02.11.2020
5963 Clouds 29 1022 42 10000 6.2 30 19:25 02.11.2020
5964 Clouds 28 1023 51 10000 7.7 360 18:43 02.11.2020
5965 Clouds 28 1023 51 10000 7.7 360 18:22 02.11.2020
5966 Clouds 28 1023 45 10000 11.8 360 17:58 02.11.2020
5967 Clouds 28 1023 45 10000 11.8 360 17:40 02.11.2020
5968 Clouds 27 1023 51 10000 7.7 340 17:20 02.11.2020
5969 Clouds 27 1023 51 10000 7.7 340 16:43 02.11.2020
5970 Clouds 27 1023 51 10000 7.7 340 16:24 02.11.2020
5971 Clouds 26 1022 57 10000 10.3 360 15:44 02.11.2020
5972 Clouds 26 1022 57 10000 10.3 360 15:24 02.11.2020
5973 Clouds 25 1021 53 10000 5.7 360 14:58 02.11.2020
5974 Clouds 25 1021 53 10000 5.7 360 14:37 02.11.2020
5975 Clouds 24 1021 60 10000 3.6 350 14:18 02.11.2020
5976 Clouds 24 1021 60 10000 3.6 350 13:42 02.11.2020
5977 Clouds 24 1021 60 10000 3.6 350 13:21 02.11.2020
5978 Clear 24 1019 40 10000 3.58 302 12:40 02.11.2020
5979 Clear 23 1023 67 10000 10.14 340 12:20 02.11.2020
5980 Clear 23 1023 67 10000 10.14 340 11:39 02.11.2020
5981 Clear 25 1019 40 10000 6.26 360 11:19 02.11.2020
5982 Clear 25 1019 51 10000 7.15 360 10:43 02.11.2020
5983 Clear 26 1019 51 10000 7.6 360 10:22 02.11.2020
5984 Clear 26 1020 47 10000 9.83 13 09:51 02.11.2020
5985 Clear 26 1020 46 10000 7.15 13 09:24 02.11.2020
5986 Clear 26 1020 46 10000 7.6 16 08:46 02.11.2020
5987 Clear 26 1020 46 10000 8.94 5 08:26 02.11.2020
5988 Clear 26 1020 50 10000 8.94 360 07:53 02.11.2020
5989 Clouds 25 1022 69 10000 5.1 360 07:22 02.11.2020
5990 Clouds 25 1022 69 10000 5.1 360 06:36 02.11.2020
5991 Clear 26 1020 54 10000 8.05 9 03:55 02.11.2020
5992 Clouds 26 1019 53 10000 8.49 5 01:25 02.11.2020
5993 Clouds 26 1018 52 10000 9.83 338 00:36 02.11.2020
5994 Clouds 27 1019 61 10000 7.7 360 23:44 01.11.2020
5995 Clouds 27 1019 61 10000 7.7 360 23:25 01.11.2020
5996 Clouds 28 1017 45 10000 10.28 13 22:47 01.11.2020
5997 Clouds 28 1017 44 10000 10.73 28 22:27 01.11.2020
5998 Clouds 28 1018 46 10000 10.28 27 21:59 01.11.2020
5999 Clouds 28 1017 45 10000 9.83 13 21:39 01.11.2020
6000 Clouds 28 1018 44 10000 9.83 27 21:21 01.11.2020
6001 Clouds 28 1018 46 10000 8.94 355 20:42 01.11.2020
6002 Clouds 28 1018 46 10000 8.94 355 20:42 01.11.2020
6003 Clouds 28 1018 46 10000 8.05 5 20:24 01.11.2020
6004 Clouds 29 1019 43 10000 8.94 5 19:44 01.11.2020
6005 Clear 29 1019 45 10000 7.6 5 19:26 01.11.2020
6006 Clear 28 1020 47 10000 8.49 15 18:55 01.11.2020
6007 Clear 28 1020 46 10000 8.05 355 18:36 01.11.2020
6008 Clouds 28 1022 65 10000 6.2 360 18:18 01.11.2020
6009 Clouds 28 1022 65 10000 6.2 360 17:43 01.11.2020
6010 Clouds 28 1022 65 10000 6.2 360 17:24 01.11.2020
6011 Clouds 28 1022 65 10000 6.2 360 17:24 01.11.2020
6012 Clear 28 1020 49 10000 4.92 355 16:42 01.11.2020
6013 Clear 27 1020 48 10000 4.02 339 16:21 01.11.2020
6014 Clear 26 1020 50 10000 2.68 360 15:55 01.11.2020
6015 Clear 26 1020 53 10000 2.68 321 15:37 01.11.2020
6016 Clouds 23 1021 88 10000 1.5 320 15:18 01.11.2020
6017 Clouds 21 1021 88 10000 1.5 320 14:45 01.11.2020
6018 Clouds 21 1021 88 10000 1.5 320 14:22 01.11.2020
6019 Clouds 21 1020 88 10000 5.02 335 13:49 01.11.2020
6020 Clouds 21 1020 88 10000 5.02 335 13:31 01.11.2020
6021 Clouds 21 1018 65 10000 1.79 316 12:56 01.11.2020
6022 Clouds 21 1018 65 10000 1.79 306 12:37 01.11.2020
6023 Clouds 21 1018 65 10000 1.79 299 12:18 01.11.2020
6024 Clouds 21 1018 66 10000 0.89 304 11:44 01.11.2020
6025 Clouds 21 1018 65 10000 0.89 298 11:18 01.11.2020
6026 Clouds 21 1018 65 10000 0.89 298 10:41 01.11.2020
6027 Clouds 21 1017 65 10000 1.34 309 10:22 01.11.2020
6028 Clouds 21 1017 65 10000 1.34 315 09:47 01.11.2020
6029 Clouds 21 1018 64 10000 1.34 305 08:52 01.11.2020
6030 Clouds 21 1018 65 10000 0.89 306 08:33 01.11.2020
6031 Clouds 21 1018 65 10000 0.45 294 07:45 01.11.2020
6032 Clouds 22 1021 88 10000 1.5 340 06:22 01.11.2020
6033 Clouds 25 1018 78 10000 4.6 30 01:53 01.11.2020
6034 Clear 26 1018 69 10000 4.1 350 00:55 01.11.2020
6035 Clear 27 1018 61 10000 4.6 10 23:42 31.10.2020
6036 Clear 28 1018 54 10000 4.6 20 23:19 31.10.2020
6037 Clear 28 1018 54 10000 4.6 20 22:43 31.10.2020
6038 Clear 28 1018 54 10000 4.6 20 22:23 31.10.2020
6039 Clear 28 1019 58 10000 4.6 10 21:46 31.10.2020
6040 Clear 28 1019 58 10000 4.6 10 21:21 31.10.2020
6041 Clouds 29 1020 51 10000 4.6 360 20:41 31.10.2020
6042 Clouds 28 1020 48 10000 6.2 50 20:19 31.10.2020
6043 Clouds 28 1020 48 10000 6.2 50 19:44 31.10.2020
6044 Clouds 28 1020 48 10000 6.2 50 19:24 31.10.2020
6045 Clouds 28 1021 48 10000 2.1 330 18:56 31.10.2020
6046 Clouds 28 1021 48 10000 2.1 330 18:38 31.10.2020
6047 Clear 27 1022 54 10000 1.5 330 17:44 31.10.2020
6048 Clear 27 1022 54 10000 1.5 330 17:25 31.10.2020
6049 Clear 25 1021 69 10000 2.45 335 16:55 31.10.2020
6050 Clear 25 1021 69 10000 2.45 335 16:33 31.10.2020
6051 Clouds 23 1021 77 10000 2.81 318 15:55 31.10.2020
6052 Clouds 21 1021 77 10000 2.94 319 15:26 31.10.2020
6053 Clear 20 1020 93 10000 2.94 319 14:53 31.10.2020
6054 Clear 19 1020 93 10000 2.94 319 14:32 31.10.2020
6055 Clear 18 1020 88 10000 2.96 327 13:53 31.10.2020
6056 Clear 18 1020 88 10000 3.25 326 13:29 31.10.2020
6057 Clouds 18 1018 66 10000 3.25 326 12:56 31.10.2020
6058 Clouds 19 1018 64 10000 0.45 275 12:22 31.10.2020
6059 Clouds 19 1018 64 10000 0.45 304 11:41 31.10.2020
6060 Clouds 19 1018 64 10000 0.45 304 11:23 31.10.2020
6061 Clouds 19 1018 64 10000 0.45 304 10:42 31.10.2020
6062 Clouds 19 1018 64 10000 0.45 304 10:19 31.10.2020
6063 Clouds 20 1018 59 10000 0.45 321 09:39 31.10.2020
6064 Clouds 20 1018 59 10000 0.45 321 09:20 31.10.2020
6065 Clouds 21 1019 55 10000 1.34 321 08:26 31.10.2020
6066 Clouds 22 1019 50 10000 2.68 337 07:42 31.10.2020
6067 Clouds 22 1022 68 10000 3.1 340 07:23 31.10.2020
6068 Clouds 22 1022 68 10000 3.1 340 06:36 31.10.2020
6069 Clouds 23 1021 69 10000 4.6 350 03:49 31.10.2020
6070 Clouds 23 1020 69 10000 6.7 350 02:39 31.10.2020
6071 Clouds 25 1019 57 10000 6.2 350 00:55 31.10.2020
6072 Clouds 25 1019 57 10000 9.3 360 23:58 30.10.2020
6073 Clouds 26 1019 57 10000 9.3 360 23:38 30.10.2020
6074 Clouds 26 1019 50 10000 7.7 360 23:20 30.10.2020
6075 Clouds 26 1019 50 10000 7.7 360 22:39 30.10.2020
6076 Clouds 26 1019 50 10000 7.7 360 22:20 30.10.2020
6077 Clouds 27 1019 50 10000 10.3 360 21:49 30.10.2020
6078 Clouds 26 1019 50 10000 10.3 360 21:26 30.10.2020
6079 Clouds 26 1020 47 10000 7.2 360 20:45 30.10.2020
6080 Clouds 26 1020 47 10000 7.2 360 20:27 30.10.2020
6081 Clouds 26 1021 47 10000 7.7 20 19:59 30.10.2020
6082 Clouds 26 1021 47 10000 7.7 20 19:39 30.10.2020
6083 Clouds 26 1021 47 10000 7.7 20 19:18 30.10.2020
6084 Clouds 26 1022 47 10000 7.7 360 18:41 30.10.2020
6085 Clouds 26 1022 47 10000 7.7 360 18:22 30.10.2020
6086 Clouds 26 1022 50 10000 6.2 360 17:46 30.10.2020
6087 Clouds 26 1022 50 10000 6.2 360 17:21 30.10.2020
6088 Clouds 25 1022 50 10000 6.2 360 16:50 30.10.2020
6089 Clouds 25 1021 53 10000 9.3 350 16:25 30.10.2020
6090 Clouds 25 1021 64 10000 4.1 360 15:44 30.10.2020
6091 Clouds 25 1021 64 10000 4.1 360 15:26 30.10.2020
6092 Clouds 24 1020 64 9656 4.1 20 14:58 30.10.2020
6093 Clouds 24 1020 64 9656 4.1 20 14:39 30.10.2020
6094 Clouds 24 1020 64 9656 4.1 20 14:21 30.10.2020
6095 Clouds 23 1019 69 9656 5.7 10 13:42 30.10.2020
6096 Clouds 24 1018 57 10000 5.81 360 13:20 30.10.2020
6097 Clouds 24 1017 57 10000 5.81 5 12:46 30.10.2020
6098 Clouds 24 1017 58 10000 5.81 16 12:22 30.10.2020
6099 Clouds 24 1017 58 10000 7.6 11 11:54 30.10.2020
6100 Clouds 24 1017 59 10000 5.36 360 11:20 30.10.2020
6101 Clouds 24 1017 59 10000 6.26 14 10:50 30.10.2020
6102 Clouds 24 1016 59 10000 6.71 348 10:25 30.10.2020
6103 Clouds 24 1016 59 10000 8.05 360 09:47 30.10.2020
6104 Clouds 24 1016 60 10000 6.71 17 09:25 30.10.2020
6105 Clouds 24 1016 60 10000 8.05 355 08:55 30.10.2020
6106 Clouds 24 1017 61 10000 6.71 5 08:31 30.10.2020
6107 Clouds 24 1017 60 10000 6.71 5 07:52 30.10.2020
6108 Clouds 24 1017 60 10000 7.15 27 07:33 30.10.2020
6109 Clouds 24 1019 73 10000 7.7 360 06:49 30.10.2020
6110 Clouds 24 1019 73 10000 5.1 10 05:31 30.10.2020
6111 Clouds 24 1016 69 10000 8.7 360 02:41 30.10.2020
6112 Clouds 25 1015 69 10000 11.3 330 00:47 30.10.2020
6113 Clouds 25 1014 69 10000 7.2 20 23:57 29.10.2020
6114 Clouds 25 1014 69 10000 7.2 20 23:39 29.10.2020
6115 Clouds 26 1014 65 10000 9.8 20 23:21 29.10.2020
6116 Clouds 27 1014 65 10000 9.8 20 22:43 29.10.2020
6117 Clouds 27 1014 65 10000 9.8 20 22:24 29.10.2020
6118 Clouds 27 1014 65 10000 9.3 10 21:40 29.10.2020
6119 Clouds 27 1014 65 10000 9.3 10 21:21 29.10.2020
6120 Clouds 26 1015 74 10000 8.2 10 20:42 29.10.2020
6121 Clouds 26 1016 74 10000 5.1 10 20:20 29.10.2020
6122 Clouds 26 1016 74 10000 5.1 10 20:20 29.10.2020
6123 Clouds 27 1016 74 10000 5.1 10 19:45 29.10.2020
6124 Clouds 27 1016 74 10000 5.1 10 19:22 29.10.2020
6125 Clouds 26 1017 83 10000 4.6 360 18:58 29.10.2020
6126 Clouds 26 1017 83 10000 4.6 360 18:39 29.10.2020
6127 Clouds 27 1017 78 10000 6.7 360 18:20 29.10.2020
6128 Clouds 26 1017 78 10000 6.7 360 17:41 29.10.2020
6129 Clouds 25 1016 94 9656 2.1 360 17:21 29.10.2020
6130 Clouds 25 1016 94 9656 2.1 360 16:47 29.10.2020
6131 Clouds 24 1016 100 6437 3.1 340 16:21 29.10.2020
6132 Clouds 24 1016 100 6437 3.1 340 15:57 29.10.2020
6133 Clouds 23 1016 100 6437 3.1 340 15:38 29.10.2020
6134 Clouds 23 1015 100 4828 6.2 350 15:19 29.10.2020
6135 Clouds 23 1015 100 6437 5.1 360 14:45 29.10.2020
6136 Drizzle 24 1014 100 8047 4.1 340 14:23 29.10.2020
6137 Drizzle 24 1014 100 8047 4.1 340 13:48 29.10.2020
6138 Drizzle 24 1014 100 8047 4.1 340 13:28 29.10.2020
6139 Clouds 25 1011 79 10000 3.58 360 12:44 29.10.2020
6140 Rain 25 1011 79 10000 3.58 360 12:21 29.10.2020
6141 Clouds 25 1011 79 10000 0.89 36 11:58 29.10.2020
6142 Clouds 26 1010 80 10000 1.79 36 11:40 29.10.2020
6143 Clouds 26 1010 80 10000 1.79 36 11:40 29.10.2020
6144 Rain 26 1010 80 10000 1.79 36 11:21 29.10.2020
6145 Clouds 26 1011 80 10000 4.02 38 10:37 29.10.2020
6146 Clouds 26 1011 80 10000 4.02 38 10:37 29.10.2020
6147 Rain 26 1011 80 10000 4.02 38 10:19 29.10.2020
6148 Clouds 26 1010 80 10000 3.13 317 09:50 29.10.2020
6149 Rain 25 1010 80 10000 2.24 346 09:27 29.10.2020
6150 Clouds 24 1011 76 10000 4.47 5 08:48 29.10.2020
6151 Rain 26 1011 78 10000 1.79 333 08:26 29.10.2020
6152 Clouds 26 1011 77 10000 1.34 318 07:52 29.10.2020
6153 Clouds 26 1013 88 10000 5.57 8 07:23 29.10.2020
6154 Clouds 26 1013 88 10000 5.57 8 06:53 29.10.2020
6155 Clouds 27 1012 83 10000 3.1 50 04:50 29.10.2020
6156 Clouds 28 1009 69 10000 2.24 19 02:32 29.10.2020
6157 Clouds 28 1008 65 10000 1.79 23 00:45 29.10.2020
6158 Clouds 28 1008 66 10000 2.24 44 00:23 29.10.2020
6159 Clouds 29 1007 64 10000 2.24 90 23:44 28.10.2020
6160 Clouds 29 1007 64 10000 2.24 90 23:20 28.10.2020
6161 Clouds 29 1007 62 10000 2.24 21 22:44 28.10.2020
6162 Clouds 29 1007 62 10000 2.24 21 22:26 28.10.2020
6163 Clouds 29 1009 70 9656 3.1 50 21:46 28.10.2020
6164 Clouds 29 1009 70 9656 3.1 50 21:26 28.10.2020
6165 Clouds 29 1010 70 9656 2.6 20 20:59 28.10.2020
6166 Clouds 30 1010 70 9656 2.6 20 20:41 28.10.2020
6167 Clouds 29 1011 74 9656 3.99 35 20:19 28.10.2020
6168 Clouds 30 1011 74 9656 3.99 35 19:47 28.10.2020
6169 Clouds 29 1011 74 9656 2.99 37 19:27 28.10.2020
6170 Clouds 28 1012 74 9656 2.99 37 18:46 28.10.2020
6171 Clouds 28 1012 74 9656 1.55 26 18:20 28.10.2020
6172 Clouds 28 1012 74 9656 1.55 26 17:44 28.10.2020
6173 Clouds 28 1012 74 9656 0.56 351 17:25 28.10.2020
6174 Clouds 27 1012 88 8047 0.56 351 16:49 28.10.2020
6175 Clouds 27 1012 88 8047 0.56 351 16:31 28.10.2020
6176 Clouds 25 1011 94 9656 1.01 252 15:46 28.10.2020
6177 Clear 26 1010 73 10000 0.89 298 15:20 28.10.2020
6178 Clear 25 1009 75 10000 0.89 286 14:58 28.10.2020
6179 Clouds 23 1009 100 10000 1.06 238 14:38 28.10.2020
6180 Clear 24 1009 78 10000 0.45 281 14:19 28.10.2020
6181 Clouds 22 1007 80 10000 0.99 213 12:39 28.10.2020
6182 Clouds 22 1007 80 10000 1.33 202 12:21 28.10.2020
6183 Clouds 22 1007 79 10000 1.33 202 11:44 28.10.2020
6184 Clouds 22 1007 79 10000 1.81 201 11:23 28.10.2020
6185 Clouds 23 1007 77 10000 0.45 184 10:59 28.10.2020
6186 Clouds 23 1007 77 10000 0.89 173 10:40 28.10.2020
6187 Clouds 23 1007 77 10000 0.89 173 10:22 28.10.2020
6188 Clouds 23 1007 75 10000 1.79 215 09:41 28.10.2020
6189 Clouds 23 1007 75 10000 2.03 234 09:22 28.10.2020
6190 Clouds 23 1007 73 10000 2.03 234 08:49 28.10.2020
6191 Clouds 24 1008 73 10000 0.89 271 08:27 28.10.2020
6192 Clouds 23 1008 72 10000 0.45 230 07:49 28.10.2020
6193 Clouds 24 1008 71 10000 0.89 229 07:30 28.10.2020
6194 Clouds 24 1011 88 10000 2.48 235 06:42 28.10.2020
6195 Clouds 25 1011 83 10000 1.1 266 05:52 28.10.2020
6196 Clear 25 1010 83 10000 0.92 339 05:20 28.10.2020
6197 Clear 26 1010 83 10000 1.69 18 04:25 28.10.2020
6198 Clouds 27 1008 83 10000 2.6 360 02:26 28.10.2020
6199 Clouds 27 1008 78 10000 1.5 20 01:50 28.10.2020
6200 Clouds 29 1008 70 10000 2.6 70 00:21 28.10.2020
6201 Clouds 30 1008 66 10000 4.6 10 23:38 27.10.2020
6202 Clouds 30 1008 62 10000 4.1 80 23:20 27.10.2020
6203 Clouds 31 1006 48 10000 3.58 36 22:42 27.10.2020
6204 Clouds 30 1008 62 10000 3.6 60 22:19 27.10.2020
6205 Clouds 31 1008 62 10000 3.6 60 21:56 27.10.2020
6206 Clouds 31 1008 62 10000 3.6 60 21:37 27.10.2020
6207 Clouds 31 1008 62 10000 3.6 60 21:37 27.10.2020
6208 Clouds 31 1008 62 10000 3.6 60 21:37 27.10.2020
6209 Clouds 32 1009 55 10000 3.1 40 21:19 27.10.2020
6210 Clouds 32 1009 55 10000 3.1 40 20:43 27.10.2020
6211 Clouds 32 1009 55 10000 3.1 40 20:22 27.10.2020
6212 Clouds 31 1010 62 10000 2.72 19 19:39 27.10.2020
6213 Clouds 31 1010 62 10000 2.16 25 19:21 27.10.2020
6214 Clouds 30 1011 66 10000 2.16 25 18:59 27.10.2020
6215 Clouds 30 1011 66 10000 2.47 26 18:40 27.10.2020
6216 Haze 30 1012 70 9656 2.11 15 18:20 27.10.2020
6217 Haze 29 1012 70 9656 2.11 15 17:43 27.10.2020
6218 Clouds 28 1012 74 10000 1.68 346 17:21 27.10.2020
6219 Clouds 28 1012 74 10000 1.68 346 17:21 27.10.2020
6220 Clouds 28 1012 74 10000 1.68 346 16:54 27.10.2020
6221 Clouds 28 1012 74 10000 1.68 346 16:36 27.10.2020
6222 Clouds 27 1012 83 10000 1.5 310 16:18 27.10.2020
6223 Clouds 26 1012 83 10000 1.5 310 15:40 27.10.2020
6224 Clouds 25 1011 94 10000 2.1 310 15:20 27.10.2020
6225 Clouds 24 1011 94 10000 2.1 310 14:48 27.10.2020
6226 Clouds 23 1011 94 10000 2.1 310 14:28 27.10.2020
6227 Clouds 23 1010 94 10000 1.91 278 13:54 27.10.2020
6228 Clouds 23 1010 94 10000 2.44 280 13:24 27.10.2020
6229 Clouds 23 1008 71 10000 2.44 280 12:42 27.10.2020
6230 Clouds 23 1008 71 10000 2.55 272 12:24 27.10.2020
6231 Clouds 24 1007 71 10000 0.89 307 11:43 27.10.2020
6232 Clouds 24 1008 71 10000 0.89 304 11:25 27.10.2020
6233 Clouds 23 1008 71 10000 1.61 273 10:51 27.10.2020
6234 Clouds 23 1008 71 10000 1.61 273 10:33 27.10.2020
6235 Clouds 24 1008 71 10000 0.89 286 09:47 27.10.2020
6236 Clouds 24 1008 70 10000 0.45 286 09:27 27.10.2020
6237 Clouds 23 1008 71 10000 0.72 259 08:49 27.10.2020
6238 Clouds 24 1008 69 10000 0.45 286 08:26 27.10.2020
6239 Clouds 24 1009 68 10000 0.74 233 07:47 27.10.2020
6240 Clouds 24 1009 68 10000 0.65 224 07:29 27.10.2020
6241 Clouds 24 1011 88 10000 0.77 235 06:49 27.10.2020
6242 Clear 25 1011 83 10000 0.67 197 06:19 27.10.2020
6243 Clear 25 1011 83 10000 0.67 197 05:44 27.10.2020
6244 Clear 25 1011 78 10000 1.03 120 04:57 27.10.2020
6245 Clouds 28 1009 69 10000 1.5 120 02:40 27.10.2020
6246 Clouds 30 1008 62 10000 2.6 80 00:59 27.10.2020
6247 Clouds 30 1008 62 10000 1 110 23:57 26.10.2020
6248 Clouds 31 1008 62 10000 1 110 23:36 26.10.2020
6249 Clouds 31 1008 62 10000 1 110 23:36 26.10.2020
6250 Clouds 32 1008 59 10000 2.1 110 22:55 26.10.2020
6251 Clouds 32 1008 59 10000 2.1 110 22:29 26.10.2020
6252 Clouds 32 1009 59 10000 1 130 21:56 26.10.2020
6253 Clouds 32 1009 59 10000 1 130 21:36 26.10.2020
6254 Clouds 32 1011 46 10000 1 150 21:18 26.10.2020
6255 Clouds 32 1011 46 10000 1 150 20:46 26.10.2020
6256 Clouds 32 1011 46 10000 1 150 20:26 26.10.2020
6257 Clouds 32 1012 55 10000 3.1 190 19:49 26.10.2020
6258 Clouds 32 1012 55 10000 3.1 190 19:28 26.10.2020
6259 Clouds 31 1013 58 10000 1 200 18:57 26.10.2020
6260 Clouds 31 1013 58 10000 1 200 18:36 26.10.2020
6261 Clouds 30 1014 74 10000 1.08 154 18:18 26.10.2020
6262 Clouds 29 1014 74 10000 1.08 154 17:41 26.10.2020
6263 Clear 29 1013 78 10000 1.58 217 17:23 26.10.2020
6264 Clear 28 1013 78 10000 1.58 217 16:45 26.10.2020
6265 Clouds 27 1013 88 10000 2.35 230 16:22 26.10.2020
6266 Clouds 27 1013 88 10000 2.35 230 15:45 26.10.2020
6267 Clouds 27 1013 88 10000 2.45 236 15:26 26.10.2020
6268 Clouds 25 1012 100 9656 2.45 236 14:59 26.10.2020
6269 Clouds 24 1012 100 9656 2.45 236 14:38 26.10.2020
6270 Clouds 23 1012 94 9656 2.18 237 13:58 26.10.2020
6271 Clouds 23 1012 94 9656 2.18 237 13:36 26.10.2020
6272 Clouds 23 1010 77 10000 1.72 232 13:18 26.10.2020
6273 Clouds 23 1010 78 10000 1.79 241 12:42 26.10.2020
6274 Clouds 23 1010 78 10000 1.79 241 12:42 26.10.2020
6275 Clouds 23 1010 78 10000 1.35 244 12:23 26.10.2020
6276 Clouds 23 1010 77 10000 1.35 244 11:47 26.10.2020
6277 Clouds 23 1009 77 10000 0.45 274 11:23 26.10.2020
6278 Clouds 23 1009 76 10000 0.45 274 10:57 26.10.2020
6279 Clouds 23 1009 77 10000 1.1 237 10:38 26.10.2020
6280 Clouds 23 1009 77 10000 1.12 231 10:19 26.10.2020
6281 Clouds 23 1009 76 10000 1.12 231 09:39 26.10.2020
6282 Clouds 24 1009 75 10000 0.45 274 09:18 26.10.2020
6283 Clouds 24 1010 75 10000 1.59 224 08:27 26.10.2020
6284 Clouds 24 1010 75 10000 1.59 224 07:52 26.10.2020
6285 Clouds 24 1010 75 10000 1.59 224 07:31 26.10.2020
6286 Clear 24 1013 94 10000 1.18 210 05:58 26.10.2020
6287 Clear 26 1012 83 10000 1.59 110 04:20 26.10.2020
6288 Clear 26 1012 83 10000 1.99 89 03:21 26.10.2020
6289 Clouds 28 1010 74 10000 2.42 81 01:36 26.10.2020
6290 Clouds 29 1010 70 10000 1.5 90 00:39 26.10.2020
6291 Clouds 29 1010 66 10000 2.6 90 00:21 26.10.2020
6292 Clouds 30 1010 66 10000 2.6 90 23:37 25.10.2020
6293 Clouds 31 1010 59 10000 1.5 110 22:59 25.10.2020
6294 Clouds 32 1010 59 10000 1.5 110 22:39 25.10.2020
6295 Clouds 32 1011 59 10000 2.6 90 22:19 25.10.2020
6296 Clouds 32 1011 59 10000 2.6 90 21:39 25.10.2020
6297 Clouds 32 1012 55 10000 2.1 50 21:19 25.10.2020
6298 Clouds 32 1012 55 10000 2.1 50 20:44 25.10.2020
6299 Clouds 32 1012 55 10000 2.1 50 20:25 25.10.2020
6300 Clouds 31 1014 62 10000 2.1 200 19:58 25.10.2020
6301 Clouds 31 1014 62 10000 2.1 200 19:39 25.10.2020
6302 Clouds 31 1014 62 10000 2.1 200 19:20 25.10.2020
6303 Clouds 31 1015 66 10000 1.46 43 18:41 25.10.2020
6304 Clouds 31 1015 66 10000 0.51 340 18:23 25.10.2020
6305 Clouds 30 1015 66 10000 0.51 340 17:58 25.10.2020
6306 Clouds 30 1015 66 10000 0.51 340 17:38 25.10.2020
6307 Clouds 29 1015 74 10000 1.68 278 17:19 25.10.2020
6308 Clouds 29 1015 74 10000 1.68 278 16:47 25.10.2020
6309 Clouds 28 1015 74 10000 2.67 273 16:28 25.10.2020
6310 Clouds 28 1015 74 10000 2.67 273 16:28 25.10.2020
6311 Clouds 26 1015 88 10000 2.67 273 15:50 25.10.2020
6312 Clouds 26 1015 88 10000 2.86 278 15:29 25.10.2020
6313 Clouds 24 1014 100 10000 2.86 278 14:55 25.10.2020
6314 Clouds 23 1014 100 10000 2.86 278 14:32 25.10.2020
6315 Clear 22 1014 100 10000 2.94 289 13:58 25.10.2020
6316 Clear 22 1014 100 10000 2.94 289 13:39 25.10.2020
6317 Clear 22 1014 100 10000 2.96 302 13:18 25.10.2020
6318 Clouds 23 1012 76 10000 0.89 279 12:46 25.10.2020
6319 Rain 23 1012 75 10000 1.34 280 12:25 25.10.2020
6320 Clouds 23 1011 74 10000 0.45 254 11:43 25.10.2020
6321 Rain 23 1011 72 10000 0.89 255 11:21 25.10.2020
6322 Clouds 24 1011 71 10000 0.45 284 10:56 25.10.2020
6323 Clouds 24 1011 71 10000 0.45 284 10:38 25.10.2020
6324 Clouds 24 1011 70 10000 0.45 284 10:19 25.10.2020
6325 Clouds 25 1012 66 10000 1.34 292 09:39 25.10.2020
6326 Clouds 26 1012 66 10000 0.89 320 09:19 25.10.2020
6327 Clouds 27 1012 66 10000 1.79 336 08:40 25.10.2020
6328 Rain 27 1012 65 10000 0.89 298 08:22 25.10.2020
6329 Clouds 25 1016 84 10000 3.53 327 07:46 25.10.2020
6330 Clouds 25 1016 85 10000 3.74 317 06:57 25.10.2020
6331 Clouds 25 1016 85 10000 3.74 317 06:30 25.10.2020
6332 Clouds 27 1016 88 10000 2.6 360 05:22 25.10.2020
6333 Clouds 27 1015 83 10000 2.1 20 04:50 25.10.2020
6334 Clouds 28 1013 83 10000 3.1 30 02:38 25.10.2020
6335 Clouds 29 1013 74 10000 6.2 360 01:32 25.10.2020
6336 Clouds 30 1012 66 10000 7.2 10 00:48 25.10.2020
6337 Clouds 31 1013 62 10000 6.2 10 00:19 25.10.2020
6338 Clouds 31 1013 62 10000 6.2 10 23:52 24.10.2020
6339 Clouds 31 1013 62 10000 6.2 10 23:25 24.10.2020
6340 Clouds 32 1013 55 10000 7.2 10 22:43 24.10.2020
6341 Clouds 32 1013 55 10000 7.2 10 22:24 24.10.2020
6342 Clouds 32 1014 52 10000 7.2 30 21:59 24.10.2020
6343 Clouds 32 1014 52 10000 7.2 30 21:39 24.10.2020
6344 Clouds 32 1014 52 10000 7.2 30 21:20 24.10.2020
6345 Clouds 32 1015 49 10000 7.7 20 20:47 24.10.2020
6346 Clouds 32 1015 49 10000 7.7 20 20:22 24.10.2020
6347 Clouds 32 1016 58 10000 4.6 350 19:47 24.10.2020
6348 Clouds 32 1016 58 10000 4.6 350 19:27 24.10.2020
6349 Clouds 31 1017 62 10000 3.6 360 18:56 24.10.2020
6350 Clouds 30 1017 62 10000 3.6 360 18:38 24.10.2020
6351 Clouds 29 1017 66 10000 2.6 340 18:19 24.10.2020
6352 Clouds 29 1017 66 10000 2.6 340 17:37 24.10.2020
6353 Mist 28 1017 78 10000 4.24 326 17:19 24.10.2020
6354 Mist 26 1017 78 10000 4.24 326 16:42 24.10.2020
6355 Mist 25 1016 88 10000 3.96 323 16:19 24.10.2020
6356 Mist 24 1016 88 10000 3.96 323 15:39 24.10.2020
6357 Mist 23 1016 88 10000 3.48 322 15:19 24.10.2020
6358 Clear 23 1015 94 10000 3.5 325 14:46 24.10.2020
6359 Clear 23 1015 94 10000 3.25 317 14:27 24.10.2020
6360 Clear 24 1015 88 10000 2.1 330 13:45 24.10.2020
6361 Clear 24 1015 88 10000 2.1 330 13:22 24.10.2020
6362 Clouds 24 1012 77 10000 1.34 300 12:42 24.10.2020
6363 Clouds 24 1012 77 10000 1.34 300 12:21 24.10.2020
6364 Clouds 24 1012 77 10000 0.89 298 11:51 24.10.2020
6365 Clouds 24 1012 77 10000 0.45 298 11:27 24.10.2020
6366 Clouds 24 1012 77 10000 0.89 305 10:52 24.10.2020
6367 Clouds 24 1012 76 10000 0.89 302 10:33 24.10.2020
6368 Clouds 24 1013 76 10000 0.89 285 09:50 24.10.2020
6369 Clouds 24 1013 77 10000 0.89 287 09:32 24.10.2020
6370 Clouds 24 1013 77 10000 2.94 328 08:58 24.10.2020
6371 Clouds 24 1013 76 10000 2.6 339 08:19 24.10.2020
6372 Clouds 24 1013 77 10000 2.6 339 07:53 24.10.2020
6373 Clouds 25 1015 88 10000 1 320 07:25 24.10.2020
6374 Clouds 25 1015 88 10000 1 320 06:53 24.10.2020
6375 Clouds 25 1015 88 10000 1 320 06:23 24.10.2020
6376 Clouds 27 1012 83 10000 2.6 60 02:56 24.10.2020
6377 Clear 29 1010 61 10000 2.68 61 01:20 24.10.2020
6378 Clouds 31 1011 62 10000 4.1 40 00:41 24.10.2020
6379 Clouds 31 1011 62 10000 4.1 40 00:21 24.10.2020
6380 Clouds 31 1011 62 10000 2.1 40 23:49 23.10.2020
6381 Clouds 31 1011 62 10000 2.1 40 23:26 23.10.2020
6382 Clouds 32 1011 62 10000 2.6 110 22:57 23.10.2020
6383 Clouds 32 1011 62 10000 2.6 110 22:37 23.10.2020
6384 Clouds 32 1011 62 10000 2.6 110 22:18 23.10.2020
6385 Clouds 31 1012 66 10000 1 110 21:45 23.10.2020
6386 Clouds 31 1012 66 10000 1 110 21:24 23.10.2020
6387 Clouds 32 1013 59 10000 1 120 20:41 23.10.2020
6388 Clouds 32 1013 59 10000 1 120 20:23 23.10.2020
6389 Clouds 31 1014 62 10000 2.1 170 19:52 23.10.2020
6390 Clouds 31 1014 62 10000 2.1 170 19:32 23.10.2020
6391 Clouds 29 1014 74 10000 0.85 57 18:55 23.10.2020
6392 Clouds 29 1014 74 10000 0.85 57 18:34 23.10.2020
6393 Clouds 28 1014 78 10000 0.71 279 17:51 23.10.2020
6394 Clouds 28 1014 78 10000 1.44 269 17:27 23.10.2020
6395 Clouds 28 1013 78 10000 1.44 269 16:56 23.10.2020
6396 Clouds 28 1013 78 10000 1.44 269 16:56 23.10.2020
6397 Clouds 26 1013 94 10000 1 310 16:37 23.10.2020
6398 Clouds 26 1013 94 10000 1 310 16:37 23.10.2020
6399 Clouds 25 1012 94 10000 1.64 261 16:19 23.10.2020
6400 Clouds 24 1012 94 10000 1.64 261 15:42 23.10.2020
6401 Clouds 24 1012 94 10000 1.68 263 15:23 23.10.2020
6402 Clear 23 1012 94 10000 1.68 263 14:53 23.10.2020
6403 Clear 23 1012 94 10000 1.68 263 14:34 23.10.2020
6404 Clear 23 1012 94 9656 1.73 267 13:56 23.10.2020
6405 Clear 23 1012 94 9656 1.75 270 13:37 23.10.2020
6406 Clouds 23 1010 80 10000 0.45 238 13:19 23.10.2020
6407 Clouds 23 1010 79 10000 0.45 238 12:42 23.10.2020
6408 Clouds 23 1010 79 10000 0.45 238 12:23 23.10.2020
6409 Clouds 23 1010 79 10000 1.83 267 11:46 23.10.2020
6410 Clouds 24 1010 78 10000 0.45 238 11:21 23.10.2020
6411 Clouds 24 1010 79 10000 0.45 234 10:43 23.10.2020
6412 Clouds 24 1010 79 10000 0.45 234 10:25 23.10.2020
6413 Clouds 24 1011 78 10000 0.89 223 09:44 23.10.2020
6414 Clouds 24 1011 78 10000 0.45 223 09:26 23.10.2020
6415 Clouds 24 1011 76 10000 0.45 235 08:52 23.10.2020
6416 Clouds 24 1011 75 10000 0.45 235 08:30 23.10.2020
6417 Clouds 25 1011 73 10000 1.57 295 07:30 23.10.2020
6418 Clouds 25 1014 94 10000 1.5 340 06:57 23.10.2020
6419 Clouds 26 1013 88 10000 1.5 350 06:20 23.10.2020
6420 Clouds 27 1013 88 10000 2.58 356 04:45 23.10.2020
6421 Clouds 28 1011 83 10000 2.6 20 02:32 23.10.2020
6422 Clouds 29 1011 70 10000 3.6 360 01:22 23.10.2020
6423 Clouds 30 1011 62 10000 3.1 360 00:33 23.10.2020
6424 Clouds 30 1011 70 10000 4.1 70 23:40 22.10.2020
6425 Clouds 31 1011 59 10000 2.6 70 23:19 22.10.2020
6426 Clouds 32 1011 59 10000 2.6 70 22:47 22.10.2020
6427 Clouds 31 1011 59 10000 2.6 70 22:26 22.10.2020
6428 Clouds 31 1012 58 10000 4.1 20 21:58 22.10.2020
6429 Clouds 31 1012 58 10000 4.1 20 21:39 22.10.2020
6430 Clouds 31 1010 51 10000 2.68 85 21:20 22.10.2020
6431 Haze 31 1013 55 9656 3.1 20 20:44 22.10.2020
6432 Haze 31 1013 55 9656 3.1 20 20:25 22.10.2020
6433 Haze 30 1013 58 6437 3.6 360 19:44 22.10.2020
6434 Haze 30 1013 58 6437 3.6 360 19:44 22.10.2020
6435 Clouds 31 1011 49 10000 2.24 36 19:21 22.10.2020
6436 Clouds 31 1011 52 10000 2.68 48 18:58 22.10.2020
6437 Clouds 30 1012 57 10000 1.34 52 18:37 22.10.2020
6438 Haze 29 1013 78 4828 1.22 251 18:18 22.10.2020
6439 Haze 29 1013 78 4828 1.22 251 17:43 22.10.2020
6440 Haze 27 1013 88 4828 1.88 266 17:20 22.10.2020
6441 Haze 26 1013 88 4828 1.88 266 16:45 22.10.2020
6442 Haze 26 1013 88 4828 2.18 275 16:24 22.10.2020
6443 Clouds 23 1013 100 8047 2.18 275 15:49 22.10.2020
6444 Clouds 23 1013 100 8047 2.29 275 15:27 22.10.2020
6445 Clear 23 1012 100 10000 2.29 275 14:55 22.10.2020
6446 Clear 22 1012 100 10000 2.29 275 14:36 22.10.2020
6447 Clear 22 1012 100 10000 2.29 275 14:36 22.10.2020
6448 Clear 22 1012 100 10000 2.49 279 14:18 22.10.2020
6449 Clear 23 1012 100 10000 2.49 279 13:41 22.10.2020
6450 Clear 23 1012 100 10000 2.63 284 13:22 22.10.2020
6451 Clouds 23 1010 80 10000 0.89 284 12:31 22.10.2020
6452 Clouds 23 1010 80 10000 2.84 282 11:58 22.10.2020
6453 Clouds 23 1010 79 10000 2.84 282 11:38 22.10.2020
6454 Clouds 23 1010 79 10000 3.07 284 11:18 22.10.2020
6455 Clouds 23 1010 79 10000 3.07 284 10:46 22.10.2020
6456 Clouds 23 1010 78 10000 0.45 245 10:24 22.10.2020
6457 Clouds 24 1010 73 10000 0.45 245 09:42 22.10.2020
6458 Clouds 24 1011 73 10000 0.45 245 09:18 22.10.2020
6459 Clouds 24 1011 71 10000 0.45 245 08:39 22.10.2020
6460 Clouds 24 1011 71 10000 0.45 245 08:20 22.10.2020
6461 Clouds 26 1012 64 10000 3.83 326 07:43 22.10.2020
6462 Clouds 26 1013 83 10000 2.1 360 07:18 22.10.2020
6463 Clouds 27 1013 83 10000 2.1 360 06:38 22.10.2020
6464 Clouds 27 1013 88 10000 2.6 10 06:18 22.10.2020
6465 Clouds 27 1013 88 10000 2.6 10 05:37 22.10.2020
6466 Clouds 28 1011 83 10000 3.6 20 02:55 22.10.2020
6467 Clouds 29 1011 74 10000 5.1 10 00:50 22.10.2020
6468 Clouds 30 1011 70 10000 4.6 10 00:18 22.10.2020
6469 Clouds 30 1011 70 10000 4.6 10 23:38 21.10.2020
6470 Clouds 31 1012 66 10000 3.1 40 22:59 21.10.2020
6471 Clouds 31 1012 66 10000 3.1 40 22:37 21.10.2020
6472 Clouds 31 1013 62 10000 3.6 60 22:19 21.10.2020
6473 Clouds 31 1013 62 10000 3.6 60 21:45 21.10.2020
6474 Clear 31 1013 55 10000 4.6 350 21:19 21.10.2020
6475 Clear 31 1013 55 10000 4.6 350 20:55 21.10.2020
6476 Clear 31 1013 55 10000 4.6 350 20:36 21.10.2020
6477 Clear 31 1014 55 10000 4.6 10 20:18 21.10.2020
6478 Clear 31 1014 55 10000 4.6 10 19:40 21.10.2020
6479 Clear 31 1014 55 10000 4.6 10 19:22 21.10.2020
6480 Clear 30 1014 66 10000 2.54 330 18:48 21.10.2020
6481 Clear 30 1014 66 10000 2.68 305 18:26 21.10.2020
6482 Clear 28 1014 78 10000 2.68 305 17:48 21.10.2020
6483 Clouds 28 1012 64 10000 1.34 248 17:21 21.10.2020
6484 Clouds 25 1013 94 10000 2.98 293 16:57 21.10.2020
6485 Clouds 25 1013 94 10000 2.98 293 16:36 21.10.2020
6486 Clouds 24 1013 94 10000 3.1 295 16:18 21.10.2020
6487 Clouds 22 1013 94 10000 3.1 295 15:44 21.10.2020
6488 Clouds 22 1013 94 10000 3.1 295 15:21 21.10.2020
6489 Clear 22 1012 100 10000 3.1 295 14:46 21.10.2020
6490 Clear 22 1012 100 10000 2.89 292 14:28 21.10.2020
6491 Clear 22 1012 100 10000 3.07 293 13:46 21.10.2020
6492 Clear 22 1012 100 10000 3.05 296 13:27 21.10.2020
6493 Clouds 23 1010 80 10000 3.05 296 12:55 21.10.2020
6494 Clouds 22 1010 80 10000 0.89 266 12:37 21.10.2020
6495 Clouds 22 1010 80 10000 0.89 266 12:18 21.10.2020
6496 Clouds 23 1010 80 10000 0.45 254 11:40 21.10.2020
6497 Clouds 23 1010 80 10000 0.45 254 11:20 21.10.2020
6498 Clouds 23 1010 80 10000 0.45 253 10:46 21.10.2020
6499 Clouds 23 1011 79 10000 0.45 253 10:25 21.10.2020
6500 Clouds 23 1011 79 10000 0.89 253 09:53 21.10.2020
6501 Clouds 23 1011 79 10000 0.89 253 09:53 21.10.2020
6502 Clouds 23 1011 79 10000 0.89 253 09:33 21.10.2020
6503 Clouds 23 1011 78 10000 0.45 253 08:56 21.10.2020
6504 Clouds 23 1011 78 10000 0.45 253 08:56 21.10.2020
6505 Clouds 23 1011 78 10000 0.45 253 08:38 21.10.2020
6506 Clear 24 1011 77 10000 0.89 253 08:19 21.10.2020
6507 Clear 24 1011 77 10000 0.89 253 08:19 21.10.2020
6508 Clear 24 1011 75 10000 0.45 9 07:37 21.10.2020
6509 Clouds 26 1013 83 10000 2.1 10 06:52 21.10.2020
6510 Clouds 26 1013 83 10000 2.1 10 06:27 21.10.2020
6511 Clouds 27 1012 83 10000 2.1 360 04:47 21.10.2020
6512 Clouds 29 1010 70 10000 2.1 50 00:51 21.10.2020
6513 Clouds 30 1011 66 10000 2.6 30 23:49 20.10.2020
6514 Clouds 31 1011 66 10000 3.1 50 22:53 20.10.2020
6515 Clouds 30 1011 66 10000 3.1 50 22:28 20.10.2020
6516 Clouds 30 1012 66 10000 4.1 50 21:50 20.10.2020
6517 Clouds 30 1012 66 10000 4.1 50 21:20 20.10.2020
6518 Clouds 29 1013 70 10000 2.6 10 20:45 20.10.2020
6519 Clouds 29 1013 70 10000 2.6 10 20:26 20.10.2020
6520 Clouds 29 1014 74 10000 2.6 30 19:59 20.10.2020
6521 Clouds 30 1014 74 10000 2.6 30 19:41 20.10.2020
6522 Clouds 30 1014 74 10000 2.6 30 19:21 20.10.2020
6523 Clouds 29 1014 74 10000 1.5 360 18:47 20.10.2020
6524 Clouds 29 1014 74 10000 1.5 360 18:29 20.10.2020
6525 Clouds 27 1014 88 10000 3.43 360 17:47 20.10.2020
6526 Clouds 27 1014 88 10000 2.7 336 17:29 20.10.2020
6527 Clouds 25 1014 100 9656 2.7 336 16:48 20.10.2020
6528 Clouds 24 1014 100 9656 2.62 333 16:28 20.10.2020
6529 Clouds 23 1014 100 10000 2.62 333 15:56 20.10.2020
6530 Clouds 23 1014 100 10000 2.62 333 15:38 20.10.2020
6531 Clouds 23 1014 100 10000 2.61 327 15:19 20.10.2020
6532 Clouds 22 1013 100 10000 2.61 327 14:41 20.10.2020
6533 Clouds 22 1013 100 10000 2.47 315 14:22 20.10.2020
6534 Clouds 23 1013 94 10000 2.08 324 13:44 20.10.2020
6535 Clouds 23 1013 94 10000 1.97 318 13:23 20.10.2020
6536 Clouds 23 1011 75 10000 0.45 40 12:58 20.10.2020
6537 Clouds 24 1011 75 10000 4.02 24 12:40 20.10.2020
6538 Rain 24 1011 75 10000 4.02 24 12:21 20.10.2020
6539 Clouds 24 1011 73 10000 1.79 296 11:40 20.10.2020
6540 Rain 24 1011 76 10000 0.45 329 11:20 20.10.2020
6541 Clear 24 1011 76 10000 0.45 329 10:37 20.10.2020
6542 Rain 24 1011 76 10000 0.45 329 10:19 20.10.2020
6543 Clear 24 1012 75 10000 0.89 273 09:38 20.10.2020
6544 Rain 24 1012 75 10000 0.89 273 09:18 20.10.2020
6545 Clear 25 1012 74 10000 0.89 312 08:37 20.10.2020
6546 Clear 26 1012 66 10000 1.34 281 07:53 20.10.2020
6547 Rain 26 1012 66 10000 1.34 281 07:26 20.10.2020
6548 Clouds 26 1014 88 10000 1 320 06:31 20.10.2020
6549 Clouds 26 1014 88 10000 2.6 360 05:43 20.10.2020
6550 Clouds 28 1013 83 10000 1.5 360 03:56 20.10.2020
6551 Clouds 28 1012 83 10000 3.1 20 02:19 20.10.2020
6552 Clouds 30 1011 66 10000 3.1 50 00:59 20.10.2020
6553 Clouds 30 1011 66 10000 3.1 50 00:41 20.10.2020
6554 Clouds 30 1011 66 10000 3.1 50 00:20 20.10.2020
6555 Clouds 32 1011 59 10000 2.6 60 23:41 19.10.2020
6556 Clouds 32 1011 59 10000 2.6 60 23:21 19.10.2020
6557 Clouds 32 1012 59 10000 3.6 30 22:43 19.10.2020
6558 Clouds 32 1012 59 10000 3.6 30 22:21 19.10.2020
6559 Clouds 32 1013 55 10000 3.6 330 21:43 19.10.2020
6560 Clouds 32 1013 55 10000 3.6 330 21:22 19.10.2020
6561 Clouds 30 1014 79 10000 3.29 27 20:46 19.10.2020
6562 Clouds 30 1014 79 10000 2.91 10 20:27 19.10.2020
6563 Clouds 28 1015 83 9656 3.58 11 19:50 19.10.2020
6564 Clouds 27 1015 83 9656 3 352 19:24 19.10.2020
6565 Clouds 28 1016 74 10000 1 10 18:54 19.10.2020
6566 Clouds 28 1016 74 10000 1 10 18:36 19.10.2020
6567 Clouds 29 1016 74 10000 1 10 18:18 19.10.2020
6568 Clouds 29 1016 70 10000 2.79 324 17:43 19.10.2020
6569 Clouds 29 1016 70 10000 2.78 298 17:23 19.10.2020
6570 Haze 27 1015 83 10000 2.78 298 16:43 19.10.2020
6571 Haze 26 1015 83 10000 2.54 290 16:24 19.10.2020
6572 Clear 24 1013 72 10000 0.45 283 15:43 19.10.2020
6573 Rain 24 1013 72 10000 2.37 297 15:24 19.10.2020
6574 Clear 24 1012 72 10000 2.37 297 14:51 19.10.2020
6575 Rain 24 1012 72 10000 2.34 310 14:24 19.10.2020
6576 Clouds 24 1012 73 10000 0.89 298 13:52 19.10.2020
6577 Clouds 24 1012 72 10000 0.45 314 13:32 19.10.2020
6578 Clouds 24 1012 72 10000 0.45 314 12:51 19.10.2020
6579 Clouds 24 1012 72 10000 0.45 314 12:33 19.10.2020
6580 Clouds 24 1011 72 10000 0.89 314 11:51 19.10.2020
6581 Rain 24 1012 72 10000 0.45 311 11:26 19.10.2020
6582 Clouds 24 1012 72 10000 0.89 286 10:56 19.10.2020
6583 Clouds 24 1012 72 10000 0.89 286 10:38 19.10.2020
6584 Rain 24 1012 72 10000 1.34 295 10:19 19.10.2020
6585 Clouds 24 1013 73 10000 0.89 301 09:42 19.10.2020
6586 Clouds 24 1013 73 10000 1.34 294 09:19 19.10.2020
6587 Clouds 24 1013 72 10000 0.89 306 08:48 19.10.2020
6588 Rain 25 1013 72 10000 0.89 290 08:23 19.10.2020
6589 Clouds 25 1014 72 10000 0.45 281 07:43 19.10.2020
6590 Clouds 26 1016 88 10000 2.1 360 07:19 19.10.2020
6591 Clouds 26 1015 88 10000 1 10 06:18 19.10.2020
6592 Clear 27 1013 83 10000 2.6 70 03:48 19.10.2020
6593 Clouds 28 1013 83 10000 3.6 60 02:23 19.10.2020
6594 Clouds 30 1013 62 10000 4.6 90 00:49 19.10.2020
6595 Clouds 30 1013 62 10000 4.6 90 00:24 19.10.2020
6596 Clouds 31 1013 58 10000 3.1 80 23:47 18.10.2020
6597 Clouds 31 1013 58 10000 3.1 80 23:24 18.10.2020
6598 Clouds 31 1013 58 10000 2.1 80 22:48 18.10.2020
6599 Clouds 31 1013 58 10000 2.1 80 22:22 18.10.2020
6600 Clouds 31 1014 59 10000 3.6 30 21:53 18.10.2020
6601 Clouds 32 1014 59 10000 3.6 30 21:30 18.10.2020
6602 Clouds 31 1015 62 10000 3.6 50 20:59 18.10.2020
6603 Clouds 31 1015 62 10000 3.6 50 20:39 18.10.2020
6604 Clouds 31 1015 62 10000 3.6 50 20:19 18.10.2020
6605 Clouds 30 1016 55 10000 2.1 22 19:43 18.10.2020
6606 Clouds 30 1016 55 10000 1.63 356 19:22 18.10.2020
6607 Clouds 30 1016 62 10000 1.63 356 18:48 18.10.2020
6608 Clouds 30 1016 62 10000 1.83 322 18:25 18.10.2020
6609 Clouds 27 1016 78 10000 1.83 322 17:43 18.10.2020
6610 Clouds 27 1016 78 10000 2.37 306 17:25 18.10.2020
6611 Clouds 25 1016 88 10000 1 310 16:45 18.10.2020
6612 Clouds 25 1016 88 10000 1 310 16:26 18.10.2020
6613 Clouds 23 1016 94 10000 1 310 15:57 18.10.2020
6614 Clouds 23 1016 94 10000 1 310 15:39 18.10.2020
6615 Clear 22 1015 94 9656 1 330 15:19 18.10.2020
6616 Clear 22 1015 94 9656 1 330 14:52 18.10.2020
6617 Clear 22 1015 94 9656 1 330 14:28 18.10.2020
6618 Clear 22 1015 100 9656 2.19 303 13:56 18.10.2020
6619 Clear 22 1015 100 9656 2.19 303 13:37 18.10.2020
6620 Clouds 23 1013 77 10000 1.34 293 13:18 18.10.2020
6621 Clouds 23 1013 77 10000 1.34 271 12:41 18.10.2020
6622 Clouds 23 1013 76 10000 0.89 280 12:21 18.10.2020
6623 Clouds 23 1013 77 10000 0.89 283 11:41 18.10.2020
6624 Clouds 23 1013 76 10000 0.89 279 11:22 18.10.2020
6625 Clouds 23 1014 75 10000 1.34 279 10:41 18.10.2020
6626 Clouds 23 1014 75 10000 1.34 279 10:21 18.10.2020
6627 Clouds 23 1014 72 10000 0.89 270 09:51 18.10.2020
6628 Clouds 24 1014 71 10000 0.89 287 09:23 18.10.2020
6629 Clouds 24 1015 70 10000 0.89 303 08:58 18.10.2020
6630 Clouds 24 1015 69 10000 0.89 285 08:37 18.10.2020
6631 Rain 24 1015 67 10000 0.89 288 08:19 18.10.2020
6632 Rain 26 1015 64 10000 1.79 337 07:29 18.10.2020
6633 Clouds 27 1017 83 10000 4.1 10 04:51 18.10.2020
6634 Clouds 27 1015 78 10000 6.2 360 02:56 18.10.2020
6635 Clouds 28 1015 65 10000 6.7 10 01:40 18.10.2020
6636 Clouds 29 1015 62 10000 7.7 10 00:50 18.10.2020
6637 Clouds 29 1015 62 10000 7.7 10 00:32 18.10.2020
6638 Clouds 30 1015 62 10000 5.1 360 23:47 17.10.2020
6639 Clouds 30 1015 62 10000 5.1 360 23:23 17.10.2020
6640 Clouds 31 1015 58 10000 5.1 360 22:59 17.10.2020
6641 Clouds 31 1015 58 10000 5.1 360 22:40 17.10.2020
6642 Clouds 31 1017 58 10000 5.1 360 22:20 17.10.2020
6643 Clouds 31 1017 58 10000 5.1 360 21:44 17.10.2020
6644 Clouds 31 1017 58 10000 5.1 360 21:23 17.10.2020
6645 Clouds 31 1018 58 10000 4.6 350 20:49 17.10.2020
6646 Clouds